<?xml version='1.0' encoding='UTF-8'?><gpx version="1.1" creator="JPX - https://github.com/jenetics/jpx" xmlns="http://www.topografix.com/GPX/1/1"><trk><trkseg><trkpt lat="44.7410109" lon="10.6213047"><ele>37.0</ele><time>2026-05-03T07:51:03.878Z</time></trkpt><trkpt lat="44.7410734" lon="10.6212803"><ele>37.0</ele><time>2026-05-03T07:51:05.877Z</time></trkpt><trkpt lat="44.7411244" lon="10.6212282"><ele>37.0</ele><time>2026-05-03T07:51:09.877Z</time></trkpt><trkpt lat="44.7411574" lon="10.6211343"><ele>37.0</ele><time>2026-05-03T07:51:26.877Z</time></trkpt><trkpt lat="44.741209" lon="10.6210129"><ele>37.0</ele><time>2026-05-03T07:51:28.877Z</time></trkpt><trkpt lat="44.7412654" lon="10.6208923"><ele>37.0</ele><time>2026-05-03T07:51:30.877Z</time></trkpt><trkpt lat="44.7413168" lon="10.620768"><ele>37.0</ele><time>2026-05-03T07:51:32.878Z</time></trkpt><trkpt lat="44.7413607" lon="10.6206518"><ele>37.0</ele><time>2026-05-03T07:51:34.878Z</time></trkpt><trkpt lat="44.7413895" lon="10.6205659"><ele>37.0</ele><time>2026-05-03T07:51:36.878Z</time></trkpt><trkpt lat="44.7413862" lon="10.6204703"><ele>37.0</ele><time>2026-05-03T07:51:41.878Z</time></trkpt><trkpt lat="44.7413347" lon="10.6204077"><ele>37.0</ele><time>2026-05-03T07:51:43.878Z</time></trkpt><trkpt lat="44.7412181" lon="10.6203548"><ele>37.0</ele><time>2026-05-03T07:51:45.877Z</time></trkpt><trkpt lat="44.7411367" lon="10.6203275"><ele>36.833333333333336</ele><time>2026-05-03T07:51:46.877Z</time></trkpt><trkpt lat="44.7410528" lon="10.6202985"><ele>36.66666666666667</ele><time>2026-05-03T07:51:47.878Z</time></trkpt><trkpt lat="44.7409725" lon="10.6202613"><ele>36.5</ele><time>2026-05-03T07:51:48.878Z</time></trkpt><trkpt lat="44.740888" lon="10.6202328"><ele>36.333333333333336</ele><time>2026-05-03T07:51:49.878Z</time></trkpt><trkpt lat="44.740814" lon="10.6202032"><ele>36.166666666666664</ele><time>2026-05-03T07:51:50.877Z</time></trkpt><trkpt lat="44.7407395" lon="10.6201719"><ele>36.0</ele><time>2026-05-03T07:51:51.878Z</time></trkpt><trkpt lat="44.74067" lon="10.620141"><ele>36.57142857142858</ele><time>2026-05-03T07:51:52.877Z</time></trkpt><trkpt lat="44.7406032" lon="10.6201094"><ele>37.142857142857146</ele><time>2026-05-03T07:51:53.877Z</time></trkpt><trkpt lat="44.740547" lon="10.6200689"><ele>37.714285714285715</ele><time>2026-05-03T07:51:54.877Z</time></trkpt><trkpt lat="44.7404871" lon="10.6200325"><ele>38.28571428571429</ele><time>2026-05-03T07:51:55.877Z</time></trkpt><trkpt lat="44.7404234" lon="10.6199974"><ele>38.85714285714286</ele><time>2026-05-03T07:51:56.877Z</time></trkpt><trkpt lat="44.7403595" lon="10.6199583"><ele>39.42857142857143</ele><time>2026-05-03T07:51:57.878Z</time></trkpt><trkpt lat="44.740289" lon="10.6199141"><ele>40.0</ele><time>2026-05-03T07:51:58.877Z</time></trkpt><trkpt lat="44.7402092" lon="10.6198653"><ele>40.0</ele><time>2026-05-03T07:51:59.877Z</time></trkpt><trkpt lat="44.7401284" lon="10.6198168"><ele>40.0</ele><time>2026-05-03T07:52:00.878Z</time></trkpt><trkpt lat="44.7400453" lon="10.6197629"><ele>40.0</ele><time>2026-05-03T07:52:01.877Z</time></trkpt><trkpt lat="44.7399592" lon="10.6197073"><ele>40.0</ele><time>2026-05-03T07:52:02.878Z</time></trkpt><trkpt lat="44.7398719" lon="10.6196595"><ele>40.0</ele><time>2026-05-03T07:52:03.878Z</time></trkpt><trkpt lat="44.7397892" lon="10.6196087"><ele>40.0</ele><time>2026-05-03T07:52:04.878Z</time></trkpt><trkpt lat="44.7397008" lon="10.619564"><ele>40.0</ele><time>2026-05-03T07:52:05.878Z</time></trkpt><trkpt lat="44.7396122" lon="10.6195186"><ele>40.0</ele><time>2026-05-03T07:52:06.877Z</time></trkpt><trkpt lat="44.7395147" lon="10.6194836"><ele>40.0</ele><time>2026-05-03T07:52:07.878Z</time></trkpt><trkpt lat="44.7394195" lon="10.6194476"><ele>40.0</ele><time>2026-05-03T07:52:08.877Z</time></trkpt><trkpt lat="44.7393218" lon="10.6194221"><ele>40.0</ele><time>2026-05-03T07:52:09.878Z</time></trkpt><trkpt lat="44.7392269" lon="10.6193934"><ele>40.0</ele><time>2026-05-03T07:52:10.878Z</time></trkpt><trkpt lat="44.7391278" lon="10.6193743"><ele>40.0</ele><time>2026-05-03T07:52:11.877Z</time></trkpt><trkpt lat="44.7390313" lon="10.6193437"><ele>40.0</ele><time>2026-05-03T07:52:12.878Z</time></trkpt><trkpt lat="44.7389335" lon="10.6193184"><ele>40.0</ele><time>2026-05-03T07:52:13.877Z</time></trkpt><trkpt lat="44.7388341" lon="10.6192832"><ele>40.0</ele><time>2026-05-03T07:52:14.878Z</time></trkpt><trkpt lat="44.7387438" lon="10.6192351"><ele>40.0</ele><time>2026-05-03T07:52:15.878Z</time></trkpt><trkpt lat="44.7386474" lon="10.6191828"><ele>40.0</ele><time>2026-05-03T07:52:16.877Z</time></trkpt><trkpt lat="44.7385518" lon="10.6191378"><ele>40.0</ele><time>2026-05-03T07:52:17.877Z</time></trkpt><trkpt lat="44.7384567" lon="10.6190833"><ele>40.0</ele><time>2026-05-03T07:52:18.878Z</time></trkpt><trkpt lat="44.7383592" lon="10.6190407"><ele>39.8</ele><time>2026-05-03T07:52:19.877Z</time></trkpt><trkpt lat="44.7382597" lon="10.618993"><ele>39.6</ele><time>2026-05-03T07:52:20.877Z</time></trkpt><trkpt lat="44.7381598" lon="10.6189391"><ele>39.4</ele><time>2026-05-03T07:52:21.878Z</time></trkpt><trkpt lat="44.7380576" lon="10.6188845"><ele>39.2</ele><time>2026-05-03T07:52:22.878Z</time></trkpt><trkpt lat="44.7379484" lon="10.6188278"><ele>39.0</ele><time>2026-05-03T07:52:23.877Z</time></trkpt><trkpt lat="44.7378507" lon="10.6187618"><ele>39.0</ele><time>2026-05-03T07:52:24.878Z</time></trkpt><trkpt lat="44.7377502" lon="10.6186956"><ele>39.0</ele><time>2026-05-03T07:52:25.878Z</time></trkpt><trkpt lat="44.7376527" lon="10.6186259"><ele>39.0</ele><time>2026-05-03T07:52:26.878Z</time></trkpt><trkpt lat="44.7375535" lon="10.6185591"><ele>39.0</ele><time>2026-05-03T07:52:27.877Z</time></trkpt><trkpt lat="44.7374527" lon="10.6184889"><ele>39.0</ele><time>2026-05-03T07:52:28.877Z</time></trkpt><trkpt lat="44.737351" lon="10.6184319"><ele>39.0</ele><time>2026-05-03T07:52:29.877Z</time></trkpt><trkpt lat="44.7372461" lon="10.6183843"><ele>39.0</ele><time>2026-05-03T07:52:30.878Z</time></trkpt><trkpt lat="44.7371367" lon="10.6183493"><ele>39.0</ele><time>2026-05-03T07:52:31.877Z</time></trkpt><trkpt lat="44.7370317" lon="10.6183217"><ele>39.0</ele><time>2026-05-03T07:52:32.877Z</time></trkpt><trkpt lat="44.7369317" lon="10.618285"><ele>39.0</ele><time>2026-05-03T07:52:33.878Z</time></trkpt><trkpt lat="44.7368233" lon="10.6182467"><ele>39.2</ele><time>2026-05-03T07:52:34.878Z</time></trkpt><trkpt lat="44.7367133" lon="10.6182167"><ele>39.4</ele><time>2026-05-03T07:52:35.877Z</time></trkpt><trkpt lat="44.7366067" lon="10.6181917"><ele>39.6</ele><time>2026-05-03T07:52:36.877Z</time></trkpt><trkpt lat="44.7364933" lon="10.61816"><ele>39.8</ele><time>2026-05-03T07:52:37.878Z</time></trkpt><trkpt lat="44.7363917" lon="10.6181183"><ele>40.0</ele><time>2026-05-03T07:52:38.878Z</time></trkpt><trkpt lat="44.73628" lon="10.618085"><ele>40.0</ele><time>2026-05-03T07:52:39.877Z</time></trkpt><trkpt lat="44.7361733" lon="10.6180283"><ele>40.0</ele><time>2026-05-03T07:52:40.878Z</time></trkpt><trkpt lat="44.7360717" lon="10.6179583"><ele>40.0</ele><time>2026-05-03T07:52:41.878Z</time></trkpt><trkpt lat="44.7359733" lon="10.6178733"><ele>40.0</ele><time>2026-05-03T07:52:42.877Z</time></trkpt><trkpt lat="44.7358717" lon="10.6177867"><ele>40.0</ele><time>2026-05-03T07:52:43.878Z</time></trkpt><trkpt lat="44.7357667" lon="10.6176983"><ele>40.0</ele><time>2026-05-03T07:52:44.878Z</time></trkpt><trkpt lat="44.73566" lon="10.6176117"><ele>40.0</ele><time>2026-05-03T07:52:45.877Z</time></trkpt><trkpt lat="44.7355583" lon="10.6175117"><ele>40.0</ele><time>2026-05-03T07:52:46.878Z</time></trkpt><trkpt lat="44.73545" lon="10.6174167"><ele>40.0</ele><time>2026-05-03T07:52:47.878Z</time></trkpt><trkpt lat="44.7353433" lon="10.617325"><ele>40.0</ele><time>2026-05-03T07:52:48.878Z</time></trkpt><trkpt lat="44.7352317" lon="10.6172317"><ele>40.0</ele><time>2026-05-03T07:52:49.877Z</time></trkpt><trkpt lat="44.73512" lon="10.6171517"><ele>40.0</ele><time>2026-05-03T07:52:50.877Z</time></trkpt><trkpt lat="44.7350017" lon="10.617075"><ele>40.0</ele><time>2026-05-03T07:52:51.877Z</time></trkpt><trkpt lat="44.73488" lon="10.6170083"><ele>40.0</ele><time>2026-05-03T07:52:52.878Z</time></trkpt><trkpt lat="44.7347533" lon="10.6169417"><ele>40.0</ele><time>2026-05-03T07:52:53.878Z</time></trkpt><trkpt lat="44.7346317" lon="10.6168667"><ele>40.0</ele><time>2026-05-03T07:52:54.877Z</time></trkpt><trkpt lat="44.734515" lon="10.6168"><ele>40.2</ele><time>2026-05-03T07:52:55.877Z</time></trkpt><trkpt lat="44.7344033" lon="10.616735"><ele>40.4</ele><time>2026-05-03T07:52:56.878Z</time></trkpt><trkpt lat="44.734295" lon="10.6166767"><ele>40.599999999999994</ele><time>2026-05-03T07:52:57.878Z</time></trkpt><trkpt lat="44.7341967" lon="10.6166167"><ele>40.8</ele><time>2026-05-03T07:52:58.877Z</time></trkpt><trkpt lat="44.7341067" lon="10.6165633"><ele>41.0</ele><time>2026-05-03T07:52:59.878Z</time></trkpt><trkpt lat="44.73403" lon="10.6165183"><ele>41.166666666666664</ele><time>2026-05-03T07:53:00.877Z</time></trkpt><trkpt lat="44.733965" lon="10.616485"><ele>41.33333333333333</ele><time>2026-05-03T07:53:01.877Z</time></trkpt><trkpt lat="44.7338933" lon="10.6164233"><ele>41.5</ele><time>2026-05-03T07:53:03.878Z</time></trkpt><trkpt lat="44.7339067" lon="10.6162867"><ele>41.666666666666664</ele><time>2026-05-03T07:53:06.877Z</time></trkpt><trkpt lat="44.7339433" lon="10.6162067"><ele>41.833333333333336</ele><time>2026-05-03T07:53:07.877Z</time></trkpt><trkpt lat="44.733995" lon="10.61612"><ele>42.0</ele><time>2026-05-03T07:53:08.878Z</time></trkpt><trkpt lat="44.73405" lon="10.6160133"><ele>42.0</ele><time>2026-05-03T07:53:09.877Z</time></trkpt><trkpt lat="44.73411" lon="10.6159083"><ele>42.0</ele><time>2026-05-03T07:53:10.878Z</time></trkpt><trkpt lat="44.73417" lon="10.6157967"><ele>42.0</ele><time>2026-05-03T07:53:11.878Z</time></trkpt><trkpt lat="44.73423" lon="10.6156817"><ele>42.0</ele><time>2026-05-03T07:53:12.877Z</time></trkpt><trkpt lat="44.73429" lon="10.6155533"><ele>42.0</ele><time>2026-05-03T07:53:13.878Z</time></trkpt><trkpt lat="44.734345" lon="10.6154133"><ele>41.8</ele><time>2026-05-03T07:53:14.877Z</time></trkpt><trkpt lat="44.7343933" lon="10.6152617"><ele>41.6</ele><time>2026-05-03T07:53:15.878Z</time></trkpt><trkpt lat="44.7344317" lon="10.6151183"><ele>41.4</ele><time>2026-05-03T07:53:16.877Z</time></trkpt><trkpt lat="44.7344567" lon="10.61499"><ele>41.199999999999996</ele><time>2026-05-03T07:53:17.877Z</time></trkpt><trkpt lat="44.7344783" lon="10.6148733"><ele>41.0</ele><time>2026-05-03T07:53:18.877Z</time></trkpt><trkpt lat="44.7345217" lon="10.61472"><ele>41.0</ele><time>2026-05-03T07:53:20.877Z</time></trkpt><trkpt lat="44.734535" lon="10.614555"><ele>41.0</ele><time>2026-05-03T07:53:22.877Z</time></trkpt><trkpt lat="44.734425" lon="10.614465"><ele>41.0</ele><time>2026-05-03T07:53:24.877Z</time></trkpt><trkpt lat="44.73433" lon="10.61448"><ele>41.0</ele><time>2026-05-03T07:53:25.877Z</time></trkpt><trkpt lat="44.7342117" lon="10.6145233"><ele>41.25</ele><time>2026-05-03T07:53:26.878Z</time></trkpt><trkpt lat="44.7340883" lon="10.6145733"><ele>41.5</ele><time>2026-05-03T07:53:27.877Z</time></trkpt><trkpt lat="44.733975" lon="10.6146233"><ele>41.75</ele><time>2026-05-03T07:53:28.877Z</time></trkpt><trkpt lat="44.73386" lon="10.6146767"><ele>42.0</ele><time>2026-05-03T07:53:29.878Z</time></trkpt><trkpt lat="44.733735" lon="10.6147383"><ele>42.0</ele><time>2026-05-03T07:53:30.878Z</time></trkpt><trkpt lat="44.733605" lon="10.6148017"><ele>42.0</ele><time>2026-05-03T07:53:31.877Z</time></trkpt><trkpt lat="44.7334683" lon="10.614865"><ele>42.0</ele><time>2026-05-03T07:53:32.878Z</time></trkpt><trkpt lat="44.7333333" lon="10.6149233"><ele>42.0</ele><time>2026-05-03T07:53:33.878Z</time></trkpt><trkpt lat="44.7331933" lon="10.6149917"><ele>42.666666666666664</ele><time>2026-05-03T07:53:34.877Z</time></trkpt><trkpt lat="44.7330483" lon="10.6150617"><ele>43.33333333333333</ele><time>2026-05-03T07:53:35.878Z</time></trkpt><trkpt lat="44.7328967" lon="10.6151333"><ele>44.0</ele><time>2026-05-03T07:53:36.878Z</time></trkpt><trkpt lat="44.73274" lon="10.6152183"><ele>44.33333333333333</ele><time>2026-05-03T07:53:37.878Z</time></trkpt><trkpt lat="44.73256" lon="10.6153017"><ele>44.666666666666664</ele><time>2026-05-03T07:53:38.878Z</time></trkpt><trkpt lat="44.73239" lon="10.6153783"><ele>45.0</ele><time>2026-05-03T07:53:39.877Z</time></trkpt><trkpt lat="44.7322133" lon="10.61545"><ele>45.333333333333336</ele><time>2026-05-03T07:53:40.877Z</time></trkpt><trkpt lat="44.7320417" lon="10.6155267"><ele>45.66666666666667</ele><time>2026-05-03T07:53:41.877Z</time></trkpt><trkpt lat="44.7318683" lon="10.6156033"><ele>46.0</ele><time>2026-05-03T07:53:42.878Z</time></trkpt><trkpt lat="44.7317867" lon="10.6157317"><ele>46.333333333333336</ele><time>2026-05-03T07:53:43.877Z</time></trkpt><trkpt lat="44.731655" lon="10.6158533"><ele>46.666666666666664</ele><time>2026-05-03T07:53:44.877Z</time></trkpt><trkpt lat="44.7315083" lon="10.615945"><ele>47.0</ele><time>2026-05-03T07:53:45.878Z</time></trkpt><trkpt lat="44.731365" lon="10.6160017"><ele>47.0</ele><time>2026-05-03T07:53:46.878Z</time></trkpt><trkpt lat="44.7312283" lon="10.61607"><ele>47.0</ele><time>2026-05-03T07:53:47.877Z</time></trkpt><trkpt lat="44.731095" lon="10.616135"><ele>47.0</ele><time>2026-05-03T07:53:48.877Z</time></trkpt><trkpt lat="44.73095" lon="10.6161967"><ele>47.0</ele><time>2026-05-03T07:53:49.878Z</time></trkpt><trkpt lat="44.7308183" lon="10.616245"><ele>46.0</ele><time>2026-05-03T07:53:50.877Z</time></trkpt><trkpt lat="44.7307017" lon="10.616285"><ele>45.0</ele><time>2026-05-03T07:53:51.877Z</time></trkpt><trkpt lat="44.7305733" lon="10.6163267"><ele>44.0</ele><time>2026-05-03T07:53:52.878Z</time></trkpt><trkpt lat="44.7304533" lon="10.6163583"><ele>43.0</ele><time>2026-05-03T07:53:53.878Z</time></trkpt><trkpt lat="44.7303417" lon="10.6163733"><ele>43.0</ele><time>2026-05-03T07:53:54.878Z</time></trkpt><trkpt lat="44.7302433" lon="10.6163633"><ele>43.0</ele><time>2026-05-03T07:53:55.878Z</time></trkpt><trkpt lat="44.73016" lon="10.6163283"><ele>43.0</ele><time>2026-05-03T07:53:56.877Z</time></trkpt><trkpt lat="44.7300767" lon="10.6162783"><ele>43.0</ele><time>2026-05-03T07:53:57.878Z</time></trkpt><trkpt lat="44.729995" lon="10.6162583"><ele>43.0</ele><time>2026-05-03T07:53:58.878Z</time></trkpt><trkpt lat="44.7299117" lon="10.6163017"><ele>43.0</ele><time>2026-05-03T07:53:59.878Z</time></trkpt><trkpt lat="44.7298483" lon="10.6163767"><ele>43.0</ele><time>2026-05-03T07:54:00.878Z</time></trkpt><trkpt lat="44.729815" lon="10.6164983"><ele>43.0</ele><time>2026-05-03T07:54:01.877Z</time></trkpt><trkpt lat="44.729785" lon="10.6166483"><ele>43.0</ele><time>2026-05-03T07:54:02.876Z</time></trkpt><trkpt lat="44.7297267" lon="10.616775"><ele>43.0</ele><time>2026-05-03T07:54:03.876Z</time></trkpt><trkpt lat="44.7296467" lon="10.61688"><ele>43.0</ele><time>2026-05-03T07:54:04.876Z</time></trkpt><trkpt lat="44.7295433" lon="10.616955"><ele>42.75</ele><time>2026-05-03T07:54:05.876Z</time></trkpt><trkpt lat="44.7294283" lon="10.6170183"><ele>42.5</ele><time>2026-05-03T07:54:06.876Z</time></trkpt><trkpt lat="44.7293" lon="10.6170867"><ele>42.25</ele><time>2026-05-03T07:54:07.876Z</time></trkpt><trkpt lat="44.7291783" lon="10.6171517"><ele>42.0</ele><time>2026-05-03T07:54:08.877Z</time></trkpt><trkpt lat="44.7290517" lon="10.6172283"><ele>42.75</ele><time>2026-05-03T07:54:09.877Z</time></trkpt><trkpt lat="44.72892" lon="10.6173033"><ele>43.5</ele><time>2026-05-03T07:54:10.877Z</time></trkpt><trkpt lat="44.7287867" lon="10.6173783"><ele>44.25</ele><time>2026-05-03T07:54:11.877Z</time></trkpt><trkpt lat="44.7286533" lon="10.6174567"><ele>45.0</ele><time>2026-05-03T07:54:12.877Z</time></trkpt><trkpt lat="44.72852" lon="10.6175267"><ele>45.25</ele><time>2026-05-03T07:54:13.876Z</time></trkpt><trkpt lat="44.7283817" lon="10.617615"><ele>45.5</ele><time>2026-05-03T07:54:14.876Z</time></trkpt><trkpt lat="44.7282467" lon="10.617695"><ele>45.75</ele><time>2026-05-03T07:54:15.876Z</time></trkpt><trkpt lat="44.7281083" lon="10.6177783"><ele>46.0</ele><time>2026-05-03T07:54:16.876Z</time></trkpt><trkpt lat="44.7279617" lon="10.6178633"><ele>45.66666666666667</ele><time>2026-05-03T07:54:17.876Z</time></trkpt><trkpt lat="44.7278117" lon="10.617945"><ele>45.333333333333336</ele><time>2026-05-03T07:54:18.877Z</time></trkpt><trkpt lat="44.727665" lon="10.6180333"><ele>45.0</ele><time>2026-05-03T07:54:19.876Z</time></trkpt><trkpt lat="44.72752" lon="10.6181167"><ele>45.0</ele><time>2026-05-03T07:54:20.876Z</time></trkpt><trkpt lat="44.7273683" lon="10.6182067"><ele>45.0</ele><time>2026-05-03T07:54:21.876Z</time></trkpt><trkpt lat="44.7272217" lon="10.618285"><ele>45.0</ele><time>2026-05-03T07:54:22.877Z</time></trkpt><trkpt lat="44.7270817" lon="10.61835"><ele>45.0</ele><time>2026-05-03T07:54:23.877Z</time></trkpt><trkpt lat="44.72693" lon="10.6184233"><ele>45.0</ele><time>2026-05-03T07:54:24.877Z</time></trkpt><trkpt lat="44.7267783" lon="10.618495"><ele>45.0</ele><time>2026-05-03T07:54:25.877Z</time></trkpt><trkpt lat="44.7266267" lon="10.6185767"><ele>45.25</ele><time>2026-05-03T07:54:26.877Z</time></trkpt><trkpt lat="44.7264867" lon="10.6186467"><ele>45.5</ele><time>2026-05-03T07:54:27.876Z</time></trkpt><trkpt lat="44.726355" lon="10.6187117"><ele>45.75</ele><time>2026-05-03T07:54:28.876Z</time></trkpt><trkpt lat="44.72622" lon="10.6187717"><ele>46.0</ele><time>2026-05-03T07:54:29.876Z</time></trkpt><trkpt lat="44.7261" lon="10.61883"><ele>46.0</ele><time>2026-05-03T07:54:30.876Z</time></trkpt><trkpt lat="44.7259933" lon="10.6188783"><ele>46.0</ele><time>2026-05-03T07:54:31.876Z</time></trkpt><trkpt lat="44.7258833" lon="10.61893"><ele>46.0</ele><time>2026-05-03T07:54:32.876Z</time></trkpt><trkpt lat="44.7257833" lon="10.6189733"><ele>46.0</ele><time>2026-05-03T07:54:33.876Z</time></trkpt><trkpt lat="44.725685" lon="10.6190117"><ele>46.0</ele><time>2026-05-03T07:54:34.876Z</time></trkpt><trkpt lat="44.7255817" lon="10.619045"><ele>46.0</ele><time>2026-05-03T07:54:35.877Z</time></trkpt><trkpt lat="44.7254767" lon="10.619085"><ele>46.0</ele><time>2026-05-03T07:54:36.876Z</time></trkpt><trkpt lat="44.7253733" lon="10.61915"><ele>46.0</ele><time>2026-05-03T07:54:37.877Z</time></trkpt><trkpt lat="44.7252667" lon="10.6192283"><ele>46.0</ele><time>2026-05-03T07:54:38.877Z</time></trkpt><trkpt lat="44.72515" lon="10.6193"><ele>46.0</ele><time>2026-05-03T07:54:39.876Z</time></trkpt><trkpt lat="44.7250283" lon="10.6193717"><ele>46.0</ele><time>2026-05-03T07:54:40.876Z</time></trkpt><trkpt lat="44.724895" lon="10.6194317"><ele>46.0</ele><time>2026-05-03T07:54:41.876Z</time></trkpt><trkpt lat="44.724755" lon="10.6195033"><ele>46.0</ele><time>2026-05-03T07:54:42.877Z</time></trkpt><trkpt lat="44.724615" lon="10.6195667"><ele>46.0</ele><time>2026-05-03T07:54:43.877Z</time></trkpt><trkpt lat="44.724465" lon="10.6196433"><ele>46.0</ele><time>2026-05-03T07:54:44.876Z</time></trkpt><trkpt lat="44.7243133" lon="10.619715"><ele>46.0</ele><time>2026-05-03T07:54:45.876Z</time></trkpt><trkpt lat="44.72416" lon="10.6197767"><ele>46.0</ele><time>2026-05-03T07:54:46.877Z</time></trkpt><trkpt lat="44.7240133" lon="10.61984"><ele>46.0</ele><time>2026-05-03T07:54:47.876Z</time></trkpt><trkpt lat="44.7238617" lon="10.619905"><ele>46.0</ele><time>2026-05-03T07:54:48.877Z</time></trkpt><trkpt lat="44.723715" lon="10.619965"><ele>45.333333333333336</ele><time>2026-05-03T07:54:49.877Z</time></trkpt><trkpt lat="44.72356" lon="10.6200267"><ele>44.666666666666664</ele><time>2026-05-03T07:54:50.877Z</time></trkpt><trkpt lat="44.7234083" lon="10.6200917"><ele>44.0</ele><time>2026-05-03T07:54:51.877Z</time></trkpt><trkpt lat="44.72326" lon="10.620155"><ele>44.0</ele><time>2026-05-03T07:54:52.877Z</time></trkpt><trkpt lat="44.7231167" lon="10.620215"><ele>44.0</ele><time>2026-05-03T07:54:53.876Z</time></trkpt><trkpt lat="44.7229683" lon="10.6202617"><ele>44.0</ele><time>2026-05-03T07:54:54.877Z</time></trkpt><trkpt lat="44.7228117" lon="10.620305"><ele>44.666666666666664</ele><time>2026-05-03T07:54:55.877Z</time></trkpt><trkpt lat="44.7226633" lon="10.6203517"><ele>45.333333333333336</ele><time>2026-05-03T07:54:56.877Z</time></trkpt><trkpt lat="44.722515" lon="10.6204117"><ele>46.0</ele><time>2026-05-03T07:54:57.876Z</time></trkpt><trkpt lat="44.7223667" lon="10.6204683"><ele>46.0</ele><time>2026-05-03T07:54:58.877Z</time></trkpt><trkpt lat="44.7222217" lon="10.6205133"><ele>46.0</ele><time>2026-05-03T07:54:59.877Z</time></trkpt><trkpt lat="44.7220983" lon="10.62056"><ele>46.0</ele><time>2026-05-03T07:55:00.877Z</time></trkpt><trkpt lat="44.7219717" lon="10.6206017"><ele>46.0</ele><time>2026-05-03T07:55:01.876Z</time></trkpt><trkpt lat="44.7218533" lon="10.6206383"><ele>46.199999999999996</ele><time>2026-05-03T07:55:02.876Z</time></trkpt><trkpt lat="44.7217317" lon="10.6206583"><ele>46.4</ele><time>2026-05-03T07:55:03.877Z</time></trkpt><trkpt lat="44.72163" lon="10.62066"><ele>46.6</ele><time>2026-05-03T07:55:04.877Z</time></trkpt><trkpt lat="44.72154" lon="10.6206217"><ele>46.8</ele><time>2026-05-03T07:55:05.876Z</time></trkpt><trkpt lat="44.7214617" lon="10.6205617"><ele>47.0</ele><time>2026-05-03T07:55:06.877Z</time></trkpt><trkpt lat="44.7214" lon="10.62047"><ele>47.0</ele><time>2026-05-03T07:55:07.876Z</time></trkpt><trkpt lat="44.7213383" lon="10.6203867"><ele>47.0</ele><time>2026-05-03T07:55:08.877Z</time></trkpt><trkpt lat="44.7212717" lon="10.6203267"><ele>47.0</ele><time>2026-05-03T07:55:09.876Z</time></trkpt><trkpt lat="44.72119" lon="10.6203083"><ele>47.0</ele><time>2026-05-03T07:55:10.876Z</time></trkpt><trkpt lat="44.7211267" lon="10.620335"><ele>47.0</ele><time>2026-05-03T07:55:11.877Z</time></trkpt><trkpt lat="44.72106" lon="10.6204167"><ele>47.0</ele><time>2026-05-03T07:55:12.877Z</time></trkpt><trkpt lat="44.7210017" lon="10.62055"><ele>47.5</ele><time>2026-05-03T07:55:13.877Z</time></trkpt><trkpt lat="44.72095" lon="10.6207067"><ele>48.0</ele><time>2026-05-03T07:55:14.877Z</time></trkpt><trkpt lat="44.7208733" lon="10.6208517"><ele>48.5</ele><time>2026-05-03T07:55:15.877Z</time></trkpt><trkpt lat="44.7207817" lon="10.6209783"><ele>49.0</ele><time>2026-05-03T07:55:16.876Z</time></trkpt><trkpt lat="44.7206583" lon="10.62109"><ele>48.75</ele><time>2026-05-03T07:55:17.877Z</time></trkpt><trkpt lat="44.720535" lon="10.62117"><ele>48.5</ele><time>2026-05-03T07:55:18.877Z</time></trkpt><trkpt lat="44.720405" lon="10.6212117"><ele>48.25</ele><time>2026-05-03T07:55:19.876Z</time></trkpt><trkpt lat="44.7202767" lon="10.6212483"><ele>48.0</ele><time>2026-05-03T07:55:20.876Z</time></trkpt><trkpt lat="44.7201383" lon="10.62128"><ele>48.0</ele><time>2026-05-03T07:55:21.877Z</time></trkpt><trkpt lat="44.7199933" lon="10.62132"><ele>48.0</ele><time>2026-05-03T07:55:22.876Z</time></trkpt><trkpt lat="44.7198517" lon="10.6213717"><ele>48.0</ele><time>2026-05-03T07:55:23.876Z</time></trkpt><trkpt lat="44.7197" lon="10.62143"><ele>48.0</ele><time>2026-05-03T07:55:24.876Z</time></trkpt><trkpt lat="44.7195533" lon="10.6214833"><ele>48.0</ele><time>2026-05-03T07:55:25.877Z</time></trkpt><trkpt lat="44.7194067" lon="10.6215267"><ele>48.0</ele><time>2026-05-03T07:55:26.877Z</time></trkpt><trkpt lat="44.7192633" lon="10.62157"><ele>48.0</ele><time>2026-05-03T07:55:27.877Z</time></trkpt><trkpt lat="44.7191067" lon="10.6216233"><ele>47.333333333333336</ele><time>2026-05-03T07:55:28.877Z</time></trkpt><trkpt lat="44.7189633" lon="10.6216633"><ele>46.66666666666667</ele><time>2026-05-03T07:55:29.876Z</time></trkpt><trkpt lat="44.7188083" lon="10.6217133"><ele>46.0</ele><time>2026-05-03T07:55:30.877Z</time></trkpt><trkpt lat="44.7186483" lon="10.62177"><ele>46.333333333333336</ele><time>2026-05-03T07:55:31.877Z</time></trkpt><trkpt lat="44.71849" lon="10.6218267"><ele>46.666666666666664</ele><time>2026-05-03T07:55:32.877Z</time></trkpt><trkpt lat="44.7183283" lon="10.621875"><ele>47.0</ele><time>2026-05-03T07:55:33.876Z</time></trkpt><trkpt lat="44.7181717" lon="10.6219317"><ele>47.0</ele><time>2026-05-03T07:55:34.876Z</time></trkpt><trkpt lat="44.71802" lon="10.62198"><ele>47.0</ele><time>2026-05-03T07:55:35.876Z</time></trkpt><trkpt lat="44.717875" lon="10.6220217"><ele>47.0</ele><time>2026-05-03T07:55:36.876Z</time></trkpt><trkpt lat="44.7177367" lon="10.6220683"><ele>47.0</ele><time>2026-05-03T07:55:37.876Z</time></trkpt><trkpt lat="44.7175883" lon="10.6221167"><ele>47.25</ele><time>2026-05-03T07:55:38.877Z</time></trkpt><trkpt lat="44.7174533" lon="10.6221567"><ele>47.5</ele><time>2026-05-03T07:55:39.877Z</time></trkpt><trkpt lat="44.7173217" lon="10.622195"><ele>47.75</ele><time>2026-05-03T07:55:40.877Z</time></trkpt><trkpt lat="44.7172033" lon="10.6222267"><ele>48.0</ele><time>2026-05-03T07:55:41.877Z</time></trkpt><trkpt lat="44.717085" lon="10.622265"><ele>48.0</ele><time>2026-05-03T07:55:42.876Z</time></trkpt><trkpt lat="44.7169683" lon="10.6222967"><ele>48.0</ele><time>2026-05-03T07:55:43.877Z</time></trkpt><trkpt lat="44.7168567" lon="10.6222983"><ele>48.0</ele><time>2026-05-03T07:55:44.876Z</time></trkpt><trkpt lat="44.71675" lon="10.6223033"><ele>48.0</ele><time>2026-05-03T07:55:45.877Z</time></trkpt><trkpt lat="44.7166533" lon="10.6223383"><ele>48.0</ele><time>2026-05-03T07:55:46.877Z</time></trkpt><trkpt lat="44.716565" lon="10.6223967"><ele>48.5</ele><time>2026-05-03T07:55:47.876Z</time></trkpt><trkpt lat="44.716465" lon="10.622455"><ele>49.0</ele><time>2026-05-03T07:55:48.876Z</time></trkpt><trkpt lat="44.7163583" lon="10.6225117"><ele>49.5</ele><time>2026-05-03T07:55:49.877Z</time></trkpt><trkpt lat="44.7162383" lon="10.6225733"><ele>50.0</ele><time>2026-05-03T07:55:50.876Z</time></trkpt><trkpt lat="44.716115" lon="10.6226067"><ele>49.75</ele><time>2026-05-03T07:55:51.876Z</time></trkpt><trkpt lat="44.7159917" lon="10.6226367"><ele>49.5</ele><time>2026-05-03T07:55:52.876Z</time></trkpt><trkpt lat="44.7158433" lon="10.622695"><ele>49.25</ele><time>2026-05-03T07:55:53.877Z</time></trkpt><trkpt lat="44.7156783" lon="10.6227517"><ele>49.0</ele><time>2026-05-03T07:55:54.876Z</time></trkpt><trkpt lat="44.7155133" lon="10.6227983"><ele>48.666666666666664</ele><time>2026-05-03T07:55:55.877Z</time></trkpt><trkpt lat="44.715355" lon="10.6228383"><ele>48.33333333333333</ele><time>2026-05-03T07:55:56.877Z</time></trkpt><trkpt lat="44.7151983" lon="10.6228767"><ele>48.0</ele><time>2026-05-03T07:55:57.877Z</time></trkpt><trkpt lat="44.7150333" lon="10.62293"><ele>48.0</ele><time>2026-05-03T07:55:58.877Z</time></trkpt><trkpt lat="44.7148583" lon="10.6229867"><ele>48.0</ele><time>2026-05-03T07:55:59.876Z</time></trkpt><trkpt lat="44.7146967" lon="10.6230483"><ele>48.0</ele><time>2026-05-03T07:56:00.876Z</time></trkpt><trkpt lat="44.714545" lon="10.6231067"><ele>48.0</ele><time>2026-05-03T07:56:01.876Z</time></trkpt><trkpt lat="44.7143617" lon="10.623175"><ele>48.0</ele><time>2026-05-03T07:56:02.876Z</time></trkpt><trkpt lat="44.7141717" lon="10.623235"><ele>48.0</ele><time>2026-05-03T07:56:03.877Z</time></trkpt><trkpt lat="44.7139867" lon="10.6233267"><ele>48.0</ele><time>2026-05-03T07:56:04.877Z</time></trkpt><trkpt lat="44.713815" lon="10.6233983"><ele>48.0</ele><time>2026-05-03T07:56:05.877Z</time></trkpt><trkpt lat="44.7136483" lon="10.6234267"><ele>48.0</ele><time>2026-05-03T07:56:06.876Z</time></trkpt><trkpt lat="44.7134817" lon="10.6234567"><ele>47.666666666666664</ele><time>2026-05-03T07:56:07.876Z</time></trkpt><trkpt lat="44.71332" lon="10.6235"><ele>47.33333333333333</ele><time>2026-05-03T07:56:08.876Z</time></trkpt><trkpt lat="44.71316" lon="10.6235517"><ele>47.0</ele><time>2026-05-03T07:56:09.877Z</time></trkpt><trkpt lat="44.713" lon="10.6236067"><ele>47.0</ele><time>2026-05-03T07:56:10.877Z</time></trkpt><trkpt lat="44.7128383" lon="10.623665"><ele>47.0</ele><time>2026-05-03T07:56:11.877Z</time></trkpt><trkpt lat="44.7126667" lon="10.623715"><ele>47.0</ele><time>2026-05-03T07:56:12.876Z</time></trkpt><trkpt lat="44.712505" lon="10.6237633"><ele>48.0</ele><time>2026-05-03T07:56:13.876Z</time></trkpt><trkpt lat="44.712345" lon="10.6238117"><ele>49.0</ele><time>2026-05-03T07:56:14.877Z</time></trkpt><trkpt lat="44.7121733" lon="10.62387"><ele>50.0</ele><time>2026-05-03T07:56:15.877Z</time></trkpt><trkpt lat="44.7120117" lon="10.6239233"><ele>50.66666666666667</ele><time>2026-05-03T07:56:16.876Z</time></trkpt><trkpt lat="44.7118467" lon="10.62398"><ele>51.33333333333333</ele><time>2026-05-03T07:56:17.876Z</time></trkpt><trkpt lat="44.7116883" lon="10.6240317"><ele>52.0</ele><time>2026-05-03T07:56:18.877Z</time></trkpt><trkpt lat="44.7115167" lon="10.62408"><ele>52.0</ele><time>2026-05-03T07:56:19.876Z</time></trkpt><trkpt lat="44.7113417" lon="10.6241417"><ele>52.0</ele><time>2026-05-03T07:56:20.877Z</time></trkpt><trkpt lat="44.7111683" lon="10.6242"><ele>52.0</ele><time>2026-05-03T07:56:21.877Z</time></trkpt><trkpt lat="44.7109983" lon="10.624255"><ele>51.666666666666664</ele><time>2026-05-03T07:56:22.877Z</time></trkpt><trkpt lat="44.71083" lon="10.6243183"><ele>51.33333333333333</ele><time>2026-05-03T07:56:23.877Z</time></trkpt><trkpt lat="44.7106617" lon="10.62437"><ele>51.0</ele><time>2026-05-03T07:56:24.877Z</time></trkpt><trkpt lat="44.7104833" lon="10.6244133"><ele>51.0</ele><time>2026-05-03T07:56:25.877Z</time></trkpt><trkpt lat="44.7103217" lon="10.62446"><ele>51.0</ele><time>2026-05-03T07:56:26.877Z</time></trkpt><trkpt lat="44.7101567" lon="10.6245117"><ele>51.0</ele><time>2026-05-03T07:56:27.876Z</time></trkpt><trkpt lat="44.7100017" lon="10.6245733"><ele>50.75</ele><time>2026-05-03T07:56:28.877Z</time></trkpt><trkpt lat="44.7098533" lon="10.6246367"><ele>50.5</ele><time>2026-05-03T07:56:29.877Z</time></trkpt><trkpt lat="44.709705" lon="10.6246783"><ele>50.25</ele><time>2026-05-03T07:56:30.877Z</time></trkpt><trkpt lat="44.70957" lon="10.624715"><ele>50.0</ele><time>2026-05-03T07:56:31.877Z</time></trkpt><trkpt lat="44.7094467" lon="10.6247617"><ele>50.0</ele><time>2026-05-03T07:56:32.876Z</time></trkpt><trkpt lat="44.7093233" lon="10.6247917"><ele>50.0</ele><time>2026-05-03T07:56:33.876Z</time></trkpt><trkpt lat="44.7092067" lon="10.6248283"><ele>50.0</ele><time>2026-05-03T07:56:34.877Z</time></trkpt><trkpt lat="44.7091117" lon="10.6248617"><ele>50.0</ele><time>2026-05-03T07:56:35.876Z</time></trkpt><trkpt lat="44.7090233" lon="10.6248933"><ele>50.0</ele><time>2026-05-03T07:56:36.877Z</time></trkpt><trkpt lat="44.7089517" lon="10.62491"><ele>50.0</ele><time>2026-05-03T07:56:37.877Z</time></trkpt><trkpt lat="44.7088883" lon="10.62492"><ele>50.0</ele><time>2026-05-03T07:56:38.877Z</time></trkpt><trkpt lat="44.7088183" lon="10.6249267"><ele>50.0</ele><time>2026-05-03T07:56:40.877Z</time></trkpt><trkpt lat="44.7087217" lon="10.6249533"><ele>50.0</ele><time>2026-05-03T07:56:51.877Z</time></trkpt><trkpt lat="44.7086083" lon="10.62492"><ele>50.0</ele><time>2026-05-03T07:56:58.876Z</time></trkpt><trkpt lat="44.708555" lon="10.6247967"><ele>50.0</ele><time>2026-05-03T07:57:00.877Z</time></trkpt><trkpt lat="44.7085333" lon="10.6246867"><ele>50.0</ele><time>2026-05-03T07:57:01.876Z</time></trkpt><trkpt lat="44.7085017" lon="10.6245617"><ele>50.0</ele><time>2026-05-03T07:57:02.877Z</time></trkpt><trkpt lat="44.70848" lon="10.6244183"><ele>50.0</ele><time>2026-05-03T07:57:03.877Z</time></trkpt><trkpt lat="44.7084717" lon="10.62427"><ele>50.0</ele><time>2026-05-03T07:57:04.876Z</time></trkpt><trkpt lat="44.708465" lon="10.6241417"><ele>50.00000000000001</ele><time>2026-05-03T07:57:05.877Z</time></trkpt><trkpt lat="44.7084817" lon="10.6240333"><ele>50.0</ele><time>2026-05-03T07:57:06.876Z</time></trkpt><trkpt lat="44.708505" lon="10.623925"><ele>50.0</ele><time>2026-05-03T07:57:07.877Z</time></trkpt><trkpt lat="44.7085117" lon="10.62382"><ele>50.0</ele><time>2026-05-03T07:57:08.877Z</time></trkpt><trkpt lat="44.7084883" lon="10.62372"><ele>50.00000000000001</ele><time>2026-05-03T07:57:09.876Z</time></trkpt><trkpt lat="44.7084317" lon="10.623635"><ele>50.0</ele><time>2026-05-03T07:57:10.876Z</time></trkpt><trkpt lat="44.7083383" lon="10.6235767"><ele>50.0</ele><time>2026-05-03T07:57:11.877Z</time></trkpt><trkpt lat="44.7082283" lon="10.6235183"><ele>50.0</ele><time>2026-05-03T07:57:12.876Z</time></trkpt><trkpt lat="44.7081183" lon="10.6234333"><ele>50.0</ele><time>2026-05-03T07:57:13.877Z</time></trkpt><trkpt lat="44.70801" lon="10.62332"><ele>50.0</ele><time>2026-05-03T07:57:14.877Z</time></trkpt><trkpt lat="44.707915" lon="10.6231833"><ele>50.0</ele><time>2026-05-03T07:57:15.876Z</time></trkpt><trkpt lat="44.707825" lon="10.6230333"><ele>50.0</ele><time>2026-05-03T07:57:16.877Z</time></trkpt><trkpt lat="44.7077333" lon="10.6228833"><ele>50.0</ele><time>2026-05-03T07:57:17.877Z</time></trkpt><trkpt lat="44.7076417" lon="10.6227317"><ele>50.0</ele><time>2026-05-03T07:57:18.876Z</time></trkpt><trkpt lat="44.7075567" lon="10.62259"><ele>50.0</ele><time>2026-05-03T07:57:19.877Z</time></trkpt><trkpt lat="44.7074717" lon="10.6224617"><ele>50.0</ele><time>2026-05-03T07:57:20.877Z</time></trkpt><trkpt lat="44.7073933" lon="10.6223317"><ele>50.0</ele><time>2026-05-03T07:57:21.876Z</time></trkpt><trkpt lat="44.70733" lon="10.6222133"><ele>50.0</ele><time>2026-05-03T07:57:22.876Z</time></trkpt><trkpt lat="44.7072567" lon="10.6220883"><ele>50.0</ele><time>2026-05-03T07:57:23.877Z</time></trkpt><trkpt lat="44.70718" lon="10.6219867"><ele>50.0</ele><time>2026-05-03T07:57:24.877Z</time></trkpt><trkpt lat="44.7071067" lon="10.6218733"><ele>50.0</ele><time>2026-05-03T07:57:25.876Z</time></trkpt><trkpt lat="44.707035" lon="10.621775"><ele>50.0</ele><time>2026-05-03T07:57:26.876Z</time></trkpt><trkpt lat="44.7069783" lon="10.621675"><ele>50.0</ele><time>2026-05-03T07:57:27.877Z</time></trkpt><trkpt lat="44.7069183" lon="10.6215783"><ele>50.50000000000001</ele><time>2026-05-03T07:57:28.877Z</time></trkpt><trkpt lat="44.7068583" lon="10.621485"><ele>51.0</ele><time>2026-05-03T07:57:29.877Z</time></trkpt><trkpt lat="44.7067933" lon="10.621395"><ele>51.5</ele><time>2026-05-03T07:57:30.877Z</time></trkpt><trkpt lat="44.7067383" lon="10.621315"><ele>52.0</ele><time>2026-05-03T07:57:31.877Z</time></trkpt><trkpt lat="44.7066833" lon="10.62123"><ele>52.50000000000001</ele><time>2026-05-03T07:57:32.877Z</time></trkpt><trkpt lat="44.7066317" lon="10.6211383"><ele>53.0</ele><time>2026-05-03T07:57:33.876Z</time></trkpt><trkpt lat="44.70658" lon="10.62105"><ele>53.00000000000001</ele><time>2026-05-03T07:57:34.877Z</time></trkpt><trkpt lat="44.7065367" lon="10.6209667"><ele>53.0</ele><time>2026-05-03T07:57:35.877Z</time></trkpt><trkpt lat="44.7064917" lon="10.6208883"><ele>53.0</ele><time>2026-05-03T07:57:36.876Z</time></trkpt><trkpt lat="44.7064483" lon="10.62082"><ele>53.0</ele><time>2026-05-03T07:57:37.877Z</time></trkpt><trkpt lat="44.7063983" lon="10.62069"><ele>53.00000000000001</ele><time>2026-05-03T07:57:39.877Z</time></trkpt><trkpt lat="44.706375" lon="10.6205367"><ele>53.0</ele><time>2026-05-03T07:57:41.876Z</time></trkpt><trkpt lat="44.7063817" lon="10.6204467"><ele>53.00000000000001</ele><time>2026-05-03T07:57:42.876Z</time></trkpt><trkpt lat="44.7063933" lon="10.6203483"><ele>53.0</ele><time>2026-05-03T07:57:43.876Z</time></trkpt><trkpt lat="44.70641" lon="10.62025"><ele>53.0</ele><time>2026-05-03T07:57:44.877Z</time></trkpt><trkpt lat="44.7064283" lon="10.6201633"><ele>53.0</ele><time>2026-05-03T07:57:45.877Z</time></trkpt><trkpt lat="44.706455" lon="10.6200383"><ele>53.00000000000001</ele><time>2026-05-03T07:57:47.877Z</time></trkpt><trkpt lat="44.7064583" lon="10.6199367"><ele>53.0</ele><time>2026-05-03T07:58:35.876Z</time></trkpt><trkpt lat="44.7063633" lon="10.6198167"><ele>53.0</ele><time>2026-05-03T07:58:37.877Z</time></trkpt><trkpt lat="44.706275" lon="10.61976"><ele>53.0</ele><time>2026-05-03T07:58:38.876Z</time></trkpt><trkpt lat="44.706165" lon="10.6197067"><ele>53.0</ele><time>2026-05-03T07:58:39.877Z</time></trkpt><trkpt lat="44.7060433" lon="10.6196633"><ele>53.0</ele><time>2026-05-03T07:58:40.877Z</time></trkpt><trkpt lat="44.7059133" lon="10.6196167"><ele>53.0</ele><time>2026-05-03T07:58:41.877Z</time></trkpt><trkpt lat="44.7057867" lon="10.6195783"><ele>53.0</ele><time>2026-05-03T07:58:42.876Z</time></trkpt><trkpt lat="44.7056483" lon="10.619535"><ele>53.0</ele><time>2026-05-03T07:58:43.877Z</time></trkpt><trkpt lat="44.7055167" lon="10.6194867"><ele>53.0</ele><time>2026-05-03T07:58:44.877Z</time></trkpt><trkpt lat="44.7053817" lon="10.61943"><ele>53.0</ele><time>2026-05-03T07:58:45.876Z</time></trkpt><trkpt lat="44.7052483" lon="10.619375"><ele>53.0</ele><time>2026-05-03T07:58:46.877Z</time></trkpt><trkpt lat="44.7051167" lon="10.61932"><ele>53.0</ele><time>2026-05-03T07:58:47.876Z</time></trkpt><trkpt lat="44.7049967" lon="10.61927"><ele>53.0</ele><time>2026-05-03T07:58:48.877Z</time></trkpt><trkpt lat="44.7048833" lon="10.6192233"><ele>53.00000000000001</ele><time>2026-05-03T07:58:49.877Z</time></trkpt><trkpt lat="44.7047883" lon="10.6191883"><ele>53.0</ele><time>2026-05-03T07:58:50.877Z</time></trkpt><trkpt lat="44.7047133" lon="10.619165"><ele>53.0</ele><time>2026-05-03T07:58:51.876Z</time></trkpt><trkpt lat="44.7046383" lon="10.6191467"><ele>53.0</ele><time>2026-05-03T07:58:52.876Z</time></trkpt><trkpt lat="44.7045567" lon="10.619115"><ele>53.00000000000001</ele><time>2026-05-03T07:58:53.876Z</time></trkpt><trkpt lat="44.7044567" lon="10.6190667"><ele>53.0</ele><time>2026-05-03T07:58:54.877Z</time></trkpt><trkpt lat="44.704335" lon="10.61901"><ele>53.25</ele><time>2026-05-03T07:58:55.877Z</time></trkpt><trkpt lat="44.70421" lon="10.6189517"><ele>53.5</ele><time>2026-05-03T07:58:56.876Z</time></trkpt><trkpt lat="44.7040867" lon="10.61888"><ele>53.75</ele><time>2026-05-03T07:58:57.877Z</time></trkpt><trkpt lat="44.703965" lon="10.61881"><ele>54.0</ele><time>2026-05-03T07:58:58.877Z</time></trkpt><trkpt lat="44.70384" lon="10.6187567"><ele>54.0</ele><time>2026-05-03T07:58:59.877Z</time></trkpt><trkpt lat="44.7037183" lon="10.6187083"><ele>54.00000000000001</ele><time>2026-05-03T07:59:00.877Z</time></trkpt><trkpt lat="44.7036117" lon="10.61867"><ele>54.00000000000001</ele><time>2026-05-03T07:59:01.877Z</time></trkpt><trkpt lat="44.7035133" lon="10.61864"><ele>54.0</ele><time>2026-05-03T07:59:02.877Z</time></trkpt><trkpt lat="44.7034267" lon="10.6186067"><ele>54.0</ele><time>2026-05-03T07:59:03.876Z</time></trkpt><trkpt lat="44.703345" lon="10.6185767"><ele>54.0</ele><time>2026-05-03T07:59:04.876Z</time></trkpt><trkpt lat="44.7032717" lon="10.618545"><ele>54.0</ele><time>2026-05-03T07:59:05.876Z</time></trkpt><trkpt lat="44.7032067" lon="10.61851"><ele>54.0</ele><time>2026-05-03T07:59:06.877Z</time></trkpt><trkpt lat="44.7031233" lon="10.618475"><ele>54.0</ele><time>2026-05-03T07:59:08.876Z</time></trkpt><trkpt lat="44.70305" lon="10.6184167"><ele>54.0</ele><time>2026-05-03T07:59:17.876Z</time></trkpt><trkpt lat="44.7029817" lon="10.6183717"><ele>54.0</ele><time>2026-05-03T07:59:18.877Z</time></trkpt><trkpt lat="44.7029017" lon="10.6183167"><ele>54.0</ele><time>2026-05-03T07:59:19.877Z</time></trkpt><trkpt lat="44.7028167" lon="10.6182567"><ele>54.0</ele><time>2026-05-03T07:59:20.877Z</time></trkpt><trkpt lat="44.7027117" lon="10.6181883"><ele>54.0</ele><time>2026-05-03T07:59:21.877Z</time></trkpt><trkpt lat="44.7026033" lon="10.61813"><ele>54.0</ele><time>2026-05-03T07:59:22.877Z</time></trkpt><trkpt lat="44.7024883" lon="10.6180667"><ele>54.5</ele><time>2026-05-03T07:59:23.876Z</time></trkpt><trkpt lat="44.7023567" lon="10.6180017"><ele>55.0</ele><time>2026-05-03T07:59:24.876Z</time></trkpt><trkpt lat="44.7022333" lon="10.6179267"><ele>55.5</ele><time>2026-05-03T07:59:25.876Z</time></trkpt><trkpt lat="44.7020933" lon="10.6178667"><ele>56.0</ele><time>2026-05-03T07:59:26.877Z</time></trkpt><trkpt lat="44.7019517" lon="10.6178133"><ele>56.0</ele><time>2026-05-03T07:59:27.876Z</time></trkpt><trkpt lat="44.7018167" lon="10.617755"><ele>56.0</ele><time>2026-05-03T07:59:28.877Z</time></trkpt><trkpt lat="44.7016833" lon="10.6176817"><ele>56.0</ele><time>2026-05-03T07:59:29.877Z</time></trkpt><trkpt lat="44.7015433" lon="10.6176217"><ele>56.0</ele><time>2026-05-03T07:59:30.876Z</time></trkpt><trkpt lat="44.7013983" lon="10.61758"><ele>56.0</ele><time>2026-05-03T07:59:31.877Z</time></trkpt><trkpt lat="44.701255" lon="10.6175333"><ele>56.0</ele><time>2026-05-03T07:59:32.876Z</time></trkpt><trkpt lat="44.7011083" lon="10.6174983"><ele>56.0</ele><time>2026-05-03T07:59:33.877Z</time></trkpt><trkpt lat="44.7009567" lon="10.6174767"><ele>56.0</ele><time>2026-05-03T07:59:34.877Z</time></trkpt><trkpt lat="44.7008133" lon="10.6174633"><ele>56.0</ele><time>2026-05-03T07:59:35.877Z</time></trkpt><trkpt lat="44.7006667" lon="10.6174867"><ele>56.0</ele><time>2026-05-03T07:59:36.877Z</time></trkpt><trkpt lat="44.7005167" lon="10.6175133"><ele>56.0</ele><time>2026-05-03T07:59:37.877Z</time></trkpt><trkpt lat="44.7003567" lon="10.6175467"><ele>56.0</ele><time>2026-05-03T07:59:38.877Z</time></trkpt><trkpt lat="44.7001983" lon="10.617575"><ele>56.0</ele><time>2026-05-03T07:59:39.877Z</time></trkpt><trkpt lat="44.7000417" lon="10.61763"><ele>56.0</ele><time>2026-05-03T07:59:40.877Z</time></trkpt><trkpt lat="44.6998817" lon="10.61767"><ele>56.0</ele><time>2026-05-03T07:59:41.877Z</time></trkpt><trkpt lat="44.6997233" lon="10.61771"><ele>56.0</ele><time>2026-05-03T07:59:42.877Z</time></trkpt><trkpt lat="44.69956" lon="10.6177517"><ele>56.0</ele><time>2026-05-03T07:59:43.877Z</time></trkpt><trkpt lat="44.699395" lon="10.61779"><ele>56.333333333333336</ele><time>2026-05-03T07:59:44.876Z</time></trkpt><trkpt lat="44.69924" lon="10.617845"><ele>56.66666666666667</ele><time>2026-05-03T07:59:45.876Z</time></trkpt><trkpt lat="44.6990883" lon="10.6178833"><ele>57.0</ele><time>2026-05-03T07:59:46.876Z</time></trkpt><trkpt lat="44.6989317" lon="10.6179217"><ele>57.0</ele><time>2026-05-03T07:59:47.876Z</time></trkpt><trkpt lat="44.698785" lon="10.6179567"><ele>57.0</ele><time>2026-05-03T07:59:48.877Z</time></trkpt><trkpt lat="44.69864" lon="10.617995"><ele>57.0</ele><time>2026-05-03T07:59:49.876Z</time></trkpt><trkpt lat="44.6984933" lon="10.618025"><ele>57.0</ele><time>2026-05-03T07:59:50.877Z</time></trkpt><trkpt lat="44.69835" lon="10.6180667"><ele>58.33333333333333</ele><time>2026-05-03T07:59:51.877Z</time></trkpt><trkpt lat="44.6981967" lon="10.618105"><ele>59.666666666666664</ele><time>2026-05-03T07:59:52.876Z</time></trkpt><trkpt lat="44.6980517" lon="10.6181467"><ele>61.0</ele><time>2026-05-03T07:59:53.877Z</time></trkpt><trkpt lat="44.6979083" lon="10.6181883"><ele>61.0</ele><time>2026-05-03T07:59:54.876Z</time></trkpt><trkpt lat="44.6977633" lon="10.618225"><ele>61.0</ele><time>2026-05-03T07:59:55.876Z</time></trkpt><trkpt lat="44.6976083" lon="10.6182883"><ele>61.0</ele><time>2026-05-03T07:59:56.877Z</time></trkpt><trkpt lat="44.6974583" lon="10.6183417"><ele>59.33333333333333</ele><time>2026-05-03T07:59:57.877Z</time></trkpt><trkpt lat="44.6973117" lon="10.618385"><ele>57.66666666666667</ele><time>2026-05-03T07:59:58.876Z</time></trkpt><trkpt lat="44.6971533" lon="10.6184317"><ele>56.0</ele><time>2026-05-03T07:59:59.877Z</time></trkpt><trkpt lat="44.6970033" lon="10.61848"><ele>56.0</ele><time>2026-05-03T08:00:00.876Z</time></trkpt><trkpt lat="44.69685" lon="10.6185167"><ele>56.0</ele><time>2026-05-03T08:00:01.876Z</time></trkpt><trkpt lat="44.6967167" lon="10.6185567"><ele>56.0</ele><time>2026-05-03T08:00:02.877Z</time></trkpt><trkpt lat="44.6965883" lon="10.6186033"><ele>56.0</ele><time>2026-05-03T08:00:03.876Z</time></trkpt><trkpt lat="44.696465" lon="10.6186433"><ele>56.25</ele><time>2026-05-03T08:00:04.877Z</time></trkpt><trkpt lat="44.6963467" lon="10.6186717"><ele>56.5</ele><time>2026-05-03T08:00:05.876Z</time></trkpt><trkpt lat="44.6962367" lon="10.618705"><ele>56.75</ele><time>2026-05-03T08:00:06.876Z</time></trkpt><trkpt lat="44.6961317" lon="10.61874"><ele>57.0</ele><time>2026-05-03T08:00:07.877Z</time></trkpt><trkpt lat="44.696025" lon="10.61878"><ele>56.400000000000006</ele><time>2026-05-03T08:00:08.877Z</time></trkpt><trkpt lat="44.6959217" lon="10.6188167"><ele>55.800000000000004</ele><time>2026-05-03T08:00:09.876Z</time></trkpt><trkpt lat="44.6958233" lon="10.618855"><ele>55.2</ele><time>2026-05-03T08:00:10.877Z</time></trkpt><trkpt lat="44.69572" lon="10.6188867"><ele>54.6</ele><time>2026-05-03T08:00:11.876Z</time></trkpt><trkpt lat="44.6956283" lon="10.6189017"><ele>54.0</ele><time>2026-05-03T08:00:12.877Z</time></trkpt><trkpt lat="44.6955483" lon="10.6189133"><ele>54.0</ele><time>2026-05-03T08:00:13.876Z</time></trkpt><trkpt lat="44.6954833" lon="10.618915"><ele>54.0</ele><time>2026-05-03T08:00:14.877Z</time></trkpt><trkpt lat="44.6954017" lon="10.6189217"><ele>54.0</ele><time>2026-05-03T08:00:16.877Z</time></trkpt><trkpt lat="44.6952983" lon="10.618955"><ele>54.0</ele><time>2026-05-03T08:00:32.877Z</time></trkpt><trkpt lat="44.6952183" lon="10.6189783"><ele>54.0</ele><time>2026-05-03T08:00:33.877Z</time></trkpt><trkpt lat="44.695125" lon="10.6190117"><ele>54.0</ele><time>2026-05-03T08:00:34.877Z</time></trkpt><trkpt lat="44.695005" lon="10.619055"><ele>54.5</ele><time>2026-05-03T08:00:35.877Z</time></trkpt><trkpt lat="44.694885" lon="10.6190817"><ele>55.0</ele><time>2026-05-03T08:00:36.877Z</time></trkpt><trkpt lat="44.6947533" lon="10.619115"><ele>55.5</ele><time>2026-05-03T08:00:37.876Z</time></trkpt><trkpt lat="44.6946167" lon="10.6191633"><ele>56.0</ele><time>2026-05-03T08:00:38.877Z</time></trkpt><trkpt lat="44.6944733" lon="10.619215"><ele>56.66666666666667</ele><time>2026-05-03T08:00:39.877Z</time></trkpt><trkpt lat="44.6943267" lon="10.619255"><ele>57.33333333333333</ele><time>2026-05-03T08:00:40.877Z</time></trkpt><trkpt lat="44.694165" lon="10.6193"><ele>58.0</ele><time>2026-05-03T08:00:41.877Z</time></trkpt><trkpt lat="44.694005" lon="10.6193517"><ele>58.0</ele><time>2026-05-03T08:00:42.877Z</time></trkpt><trkpt lat="44.6938417" lon="10.619405"><ele>58.0</ele><time>2026-05-03T08:00:43.876Z</time></trkpt><trkpt lat="44.69367" lon="10.6194517"><ele>58.0</ele><time>2026-05-03T08:00:44.877Z</time></trkpt><trkpt lat="44.6934917" lon="10.619505"><ele>57.33333333333333</ele><time>2026-05-03T08:00:45.877Z</time></trkpt><trkpt lat="44.6933217" lon="10.6195683"><ele>56.66666666666667</ele><time>2026-05-03T08:00:46.877Z</time></trkpt><trkpt lat="44.69315" lon="10.6196217"><ele>56.0</ele><time>2026-05-03T08:00:47.877Z</time></trkpt><trkpt lat="44.6929767" lon="10.6196733"><ele>56.0</ele><time>2026-05-03T08:00:48.876Z</time></trkpt><trkpt lat="44.6928083" lon="10.6197283"><ele>56.0</ele><time>2026-05-03T08:00:49.876Z</time></trkpt><trkpt lat="44.6926317" lon="10.6197883"><ele>56.0</ele><time>2026-05-03T08:00:50.877Z</time></trkpt><trkpt lat="44.6924667" lon="10.619845"><ele>57.0</ele><time>2026-05-03T08:00:51.876Z</time></trkpt><trkpt lat="44.6923117" lon="10.6199033"><ele>58.0</ele><time>2026-05-03T08:00:52.876Z</time></trkpt><trkpt lat="44.692165" lon="10.61996"><ele>59.0</ele><time>2026-05-03T08:00:53.876Z</time></trkpt><trkpt lat="44.6920333" lon="10.6200133"><ele>59.0</ele><time>2026-05-03T08:00:54.875Z</time></trkpt><trkpt lat="44.691925" lon="10.62005"><ele>59.00000000000001</ele><time>2026-05-03T08:00:55.876Z</time></trkpt><trkpt lat="44.69183" lon="10.6200683"><ele>59.00000000000001</ele><time>2026-05-03T08:00:56.875Z</time></trkpt><trkpt lat="44.691735" lon="10.620065"><ele>59.0</ele><time>2026-05-03T08:00:57.875Z</time></trkpt><trkpt lat="44.6916367" lon="10.620035"><ele>59.0</ele><time>2026-05-03T08:00:58.876Z</time></trkpt><trkpt lat="44.6915317" lon="10.6199917"><ele>59.0</ele><time>2026-05-03T08:00:59.876Z</time></trkpt><trkpt lat="44.69142" lon="10.61994"><ele>59.0</ele><time>2026-05-03T08:01:00.875Z</time></trkpt><trkpt lat="44.691305" lon="10.6198817"><ele>59.0</ele><time>2026-05-03T08:01:01.876Z</time></trkpt><trkpt lat="44.6911917" lon="10.6198117"><ele>59.0</ele><time>2026-05-03T08:01:02.876Z</time></trkpt><trkpt lat="44.6910883" lon="10.6197433"><ele>59.00000000000001</ele><time>2026-05-03T08:01:03.876Z</time></trkpt><trkpt lat="44.691005" lon="10.619685"><ele>59.0</ele><time>2026-05-03T08:01:04.876Z</time></trkpt><trkpt lat="44.6909383" lon="10.6196283"><ele>59.0</ele><time>2026-05-03T08:01:05.876Z</time></trkpt><trkpt lat="44.6908817" lon="10.61956"><ele>59.0</ele><time>2026-05-03T08:01:06.876Z</time></trkpt><trkpt lat="44.690835" lon="10.6194717"><ele>59.00000000000001</ele><time>2026-05-03T08:01:07.876Z</time></trkpt><trkpt lat="44.6907833" lon="10.619375"><ele>59.0</ele><time>2026-05-03T08:01:08.875Z</time></trkpt><trkpt lat="44.69072" lon="10.6193167"><ele>59.00000000000001</ele><time>2026-05-03T08:01:09.875Z</time></trkpt><trkpt lat="44.6906517" lon="10.6193067"><ele>59.0</ele><time>2026-05-03T08:01:10.876Z</time></trkpt><trkpt lat="44.6905817" lon="10.6193417"><ele>59.0</ele><time>2026-05-03T08:01:11.875Z</time></trkpt><trkpt lat="44.6905333" lon="10.6194283"><ele>59.0</ele><time>2026-05-03T08:01:12.876Z</time></trkpt><trkpt lat="44.6905267" lon="10.61955"><ele>59.00000000000001</ele><time>2026-05-03T08:01:13.876Z</time></trkpt><trkpt lat="44.69056" lon="10.6197067"><ele>59.0</ele><time>2026-05-03T08:01:14.876Z</time></trkpt><trkpt lat="44.690585" lon="10.6198733"><ele>59.0</ele><time>2026-05-03T08:01:15.876Z</time></trkpt><trkpt lat="44.6905783" lon="10.62004"><ele>59.0</ele><time>2026-05-03T08:01:16.876Z</time></trkpt><trkpt lat="44.690545" lon="10.6201967"><ele>59.0</ele><time>2026-05-03T08:01:17.876Z</time></trkpt><trkpt lat="44.6905033" lon="10.62035"><ele>59.0</ele><time>2026-05-03T08:01:18.876Z</time></trkpt><trkpt lat="44.6904683" lon="10.6205067"><ele>59.2</ele><time>2026-05-03T08:01:19.876Z</time></trkpt><trkpt lat="44.6904283" lon="10.6206467"><ele>59.400000000000006</ele><time>2026-05-03T08:01:20.875Z</time></trkpt><trkpt lat="44.6903967" lon="10.6207733"><ele>59.6</ele><time>2026-05-03T08:01:21.876Z</time></trkpt><trkpt lat="44.6903667" lon="10.6208983"><ele>59.8</ele><time>2026-05-03T08:01:22.875Z</time></trkpt><trkpt lat="44.6903383" lon="10.621015"><ele>60.0</ele><time>2026-05-03T08:01:23.875Z</time></trkpt><trkpt lat="44.69031" lon="10.62112"><ele>59.833333333333336</ele><time>2026-05-03T08:01:24.876Z</time></trkpt><trkpt lat="44.6902783" lon="10.62122"><ele>59.66666666666667</ele><time>2026-05-03T08:01:25.875Z</time></trkpt><trkpt lat="44.6902417" lon="10.621305"><ele>59.5</ele><time>2026-05-03T08:01:26.876Z</time></trkpt><trkpt lat="44.6902" lon="10.6213833"><ele>59.333333333333336</ele><time>2026-05-03T08:01:27.876Z</time></trkpt><trkpt lat="44.6901383" lon="10.62145"><ele>59.16666666666667</ele><time>2026-05-03T08:01:28.875Z</time></trkpt><trkpt lat="44.6900617" lon="10.6214867"><ele>59.0</ele><time>2026-05-03T08:01:29.876Z</time></trkpt><trkpt lat="44.68998" lon="10.6214983"><ele>59.400000000000006</ele><time>2026-05-03T08:01:30.876Z</time></trkpt><trkpt lat="44.689885" lon="10.6214983"><ele>59.800000000000004</ele><time>2026-05-03T08:01:31.875Z</time></trkpt><trkpt lat="44.68978" lon="10.6214867"><ele>60.199999999999996</ele><time>2026-05-03T08:01:32.876Z</time></trkpt><trkpt lat="44.6896717" lon="10.6214767"><ele>60.599999999999994</ele><time>2026-05-03T08:01:33.876Z</time></trkpt><trkpt lat="44.6895517" lon="10.621465"><ele>61.0</ele><time>2026-05-03T08:01:34.876Z</time></trkpt><trkpt lat="44.68943" lon="10.6214567"><ele>61.75</ele><time>2026-05-03T08:01:35.875Z</time></trkpt><trkpt lat="44.6892983" lon="10.6214733"><ele>62.5</ele><time>2026-05-03T08:01:36.875Z</time></trkpt><trkpt lat="44.6891583" lon="10.621505"><ele>63.25</ele><time>2026-05-03T08:01:37.876Z</time></trkpt><trkpt lat="44.68901" lon="10.6215533"><ele>64.0</ele><time>2026-05-03T08:01:38.876Z</time></trkpt><trkpt lat="44.6888567" lon="10.6216"><ele>64.0</ele><time>2026-05-03T08:01:39.875Z</time></trkpt><trkpt lat="44.688705" lon="10.6216417"><ele>64.0</ele><time>2026-05-03T08:01:40.876Z</time></trkpt><trkpt lat="44.68855" lon="10.621685"><ele>64.0</ele><time>2026-05-03T08:01:41.875Z</time></trkpt><trkpt lat="44.688385" lon="10.6217283"><ele>64.0</ele><time>2026-05-03T08:01:42.876Z</time></trkpt><trkpt lat="44.6882233" lon="10.6217817"><ele>64.0</ele><time>2026-05-03T08:01:43.876Z</time></trkpt><trkpt lat="44.68805" lon="10.6218283"><ele>64.0</ele><time>2026-05-03T08:01:44.876Z</time></trkpt><trkpt lat="44.6878733" lon="10.6218733"><ele>63.33333333333333</ele><time>2026-05-03T08:01:45.875Z</time></trkpt><trkpt lat="44.6876967" lon="10.6219283"><ele>62.66666666666667</ele><time>2026-05-03T08:01:46.875Z</time></trkpt><trkpt lat="44.6875183" lon="10.621975"><ele>62.0</ele><time>2026-05-03T08:01:47.876Z</time></trkpt><trkpt lat="44.6873417" lon="10.6220267"><ele>63.333333333333336</ele><time>2026-05-03T08:01:48.876Z</time></trkpt><trkpt lat="44.6871667" lon="10.62208"><ele>64.66666666666667</ele><time>2026-05-03T08:01:49.876Z</time></trkpt><trkpt lat="44.6869917" lon="10.6221333"><ele>66.0</ele><time>2026-05-03T08:01:50.875Z</time></trkpt><trkpt lat="44.6868167" lon="10.62219"><ele>66.0</ele><time>2026-05-03T08:01:51.876Z</time></trkpt><trkpt lat="44.6866417" lon="10.622245"><ele>66.0</ele><time>2026-05-03T08:01:52.875Z</time></trkpt><trkpt lat="44.6864633" lon="10.6222983"><ele>66.0</ele><time>2026-05-03T08:01:53.876Z</time></trkpt><trkpt lat="44.6862867" lon="10.622355"><ele>66.0</ele><time>2026-05-03T08:01:54.876Z</time></trkpt><trkpt lat="44.68612" lon="10.6224133"><ele>66.0</ele><time>2026-05-03T08:01:55.876Z</time></trkpt><trkpt lat="44.685955" lon="10.622485"><ele>66.0</ele><time>2026-05-03T08:01:56.875Z</time></trkpt><trkpt lat="44.68579" lon="10.6225717"><ele>66.33333333333333</ele><time>2026-05-03T08:01:57.876Z</time></trkpt><trkpt lat="44.6856283" lon="10.6226783"><ele>66.66666666666666</ele><time>2026-05-03T08:01:58.876Z</time></trkpt><trkpt lat="44.68549" lon="10.62279"><ele>67.0</ele><time>2026-05-03T08:01:59.875Z</time></trkpt><trkpt lat="44.685365" lon="10.622905"><ele>66.5</ele><time>2026-05-03T08:02:00.875Z</time></trkpt><trkpt lat="44.685245" lon="10.6230317"><ele>66.0</ele><time>2026-05-03T08:02:01.876Z</time></trkpt><trkpt lat="44.6851367" lon="10.6231583"><ele>65.5</ele><time>2026-05-03T08:02:02.875Z</time></trkpt><trkpt lat="44.6850467" lon="10.62328"><ele>65.0</ele><time>2026-05-03T08:02:03.875Z</time></trkpt><trkpt lat="44.68498" lon="10.6233933"><ele>65.0</ele><time>2026-05-03T08:02:04.876Z</time></trkpt><trkpt lat="44.6849283" lon="10.623495"><ele>65.0</ele><time>2026-05-03T08:02:05.876Z</time></trkpt><trkpt lat="44.6848917" lon="10.623575"><ele>65.0</ele><time>2026-05-03T08:02:06.876Z</time></trkpt><trkpt lat="44.6848517" lon="10.623645"><ele>65.0</ele><time>2026-05-03T08:02:07.876Z</time></trkpt><trkpt lat="44.6847717" lon="10.623775"><ele>65.0</ele><time>2026-05-03T08:02:09.875Z</time></trkpt><trkpt lat="44.6847183" lon="10.6239083"><ele>65.0</ele><time>2026-05-03T08:02:11.876Z</time></trkpt><trkpt lat="44.684685" lon="10.624055"><ele>65.0</ele><time>2026-05-03T08:02:13.876Z</time></trkpt><trkpt lat="44.6846467" lon="10.6241417"><ele>65.0</ele><time>2026-05-03T08:02:14.876Z</time></trkpt><trkpt lat="44.6845917" lon="10.6242533"><ele>65.0</ele><time>2026-05-03T08:02:15.876Z</time></trkpt><trkpt lat="44.68453" lon="10.6243667"><ele>65.0</ele><time>2026-05-03T08:02:16.875Z</time></trkpt><trkpt lat="44.6844667" lon="10.6244817"><ele>65.4</ele><time>2026-05-03T08:02:17.875Z</time></trkpt><trkpt lat="44.684395" lon="10.62459"><ele>65.8</ele><time>2026-05-03T08:02:18.875Z</time></trkpt><trkpt lat="44.6843267" lon="10.624695"><ele>66.2</ele><time>2026-05-03T08:02:19.875Z</time></trkpt><trkpt lat="44.6842633" lon="10.62481"><ele>66.6</ele><time>2026-05-03T08:02:20.876Z</time></trkpt><trkpt lat="44.6842017" lon="10.624925"><ele>67.0</ele><time>2026-05-03T08:02:21.876Z</time></trkpt><trkpt lat="44.684145" lon="10.6250433"><ele>67.0</ele><time>2026-05-03T08:02:22.875Z</time></trkpt><trkpt lat="44.6840883" lon="10.62517"><ele>67.0</ele><time>2026-05-03T08:02:23.876Z</time></trkpt><trkpt lat="44.68402" lon="10.6253067"><ele>67.0</ele><time>2026-05-03T08:02:24.876Z</time></trkpt><trkpt lat="44.683955" lon="10.625425"><ele>67.0</ele><time>2026-05-03T08:02:25.876Z</time></trkpt><trkpt lat="44.6838783" lon="10.62555"><ele>67.0</ele><time>2026-05-03T08:02:26.876Z</time></trkpt><trkpt lat="44.6838" lon="10.62568"><ele>67.0</ele><time>2026-05-03T08:02:27.875Z</time></trkpt><trkpt lat="44.6837233" lon="10.62582"><ele>67.0</ele><time>2026-05-03T08:02:28.876Z</time></trkpt><trkpt lat="44.6836517" lon="10.6259583"><ele>67.0</ele><time>2026-05-03T08:02:29.876Z</time></trkpt><trkpt lat="44.6835767" lon="10.62609"><ele>67.0</ele><time>2026-05-03T08:02:30.876Z</time></trkpt><trkpt lat="44.6835" lon="10.6262167"><ele>66.8</ele><time>2026-05-03T08:02:31.875Z</time></trkpt><trkpt lat="44.6834317" lon="10.626335"><ele>66.6</ele><time>2026-05-03T08:02:32.876Z</time></trkpt><trkpt lat="44.6833717" lon="10.6264367"><ele>66.39999999999999</ele><time>2026-05-03T08:02:33.875Z</time></trkpt><trkpt lat="44.6833233" lon="10.6265183"><ele>66.2</ele><time>2026-05-03T08:02:34.876Z</time></trkpt><trkpt lat="44.6832733" lon="10.6266267"><ele>66.0</ele><time>2026-05-03T08:02:36.876Z</time></trkpt><trkpt lat="44.68322" lon="10.626755"><ele>66.0</ele><time>2026-05-03T08:02:42.876Z</time></trkpt><trkpt lat="44.683175" lon="10.6268217"><ele>66.0</ele><time>2026-05-03T08:02:43.876Z</time></trkpt><trkpt lat="44.6831133" lon="10.6268867"><ele>66.0</ele><time>2026-05-03T08:02:44.876Z</time></trkpt><trkpt lat="44.6830383" lon="10.6269633"><ele>66.0</ele><time>2026-05-03T08:02:45.876Z</time></trkpt><trkpt lat="44.6829533" lon="10.62704"><ele>66.0</ele><time>2026-05-03T08:02:46.875Z</time></trkpt><trkpt lat="44.6828567" lon="10.62711"><ele>66.0</ele><time>2026-05-03T08:02:47.876Z</time></trkpt><trkpt lat="44.6827617" lon="10.6272083"><ele>66.5</ele><time>2026-05-03T08:02:48.876Z</time></trkpt><trkpt lat="44.6826617" lon="10.6273083"><ele>67.0</ele><time>2026-05-03T08:02:49.875Z</time></trkpt><trkpt lat="44.6825583" lon="10.6274217"><ele>67.5</ele><time>2026-05-03T08:02:50.876Z</time></trkpt><trkpt lat="44.682455" lon="10.6275417"><ele>68.0</ele><time>2026-05-03T08:02:51.876Z</time></trkpt><trkpt lat="44.6823483" lon="10.62765"><ele>68.0</ele><time>2026-05-03T08:02:52.876Z</time></trkpt><trkpt lat="44.6822467" lon="10.6277533"><ele>68.0</ele><time>2026-05-03T08:02:53.876Z</time></trkpt><trkpt lat="44.6821483" lon="10.6278633"><ele>68.0</ele><time>2026-05-03T08:02:54.876Z</time></trkpt><trkpt lat="44.68205" lon="10.6279733"><ele>68.0</ele><time>2026-05-03T08:02:55.875Z</time></trkpt><trkpt lat="44.6819583" lon="10.62808"><ele>67.75</ele><time>2026-05-03T08:02:56.876Z</time></trkpt><trkpt lat="44.6818683" lon="10.6281917"><ele>67.5</ele><time>2026-05-03T08:02:57.876Z</time></trkpt><trkpt lat="44.6817817" lon="10.6283033"><ele>67.25</ele><time>2026-05-03T08:02:58.876Z</time></trkpt><trkpt lat="44.6816917" lon="10.628415"><ele>67.0</ele><time>2026-05-03T08:02:59.876Z</time></trkpt><trkpt lat="44.6816033" lon="10.6285117"><ele>67.0</ele><time>2026-05-03T08:03:00.875Z</time></trkpt><trkpt lat="44.6815217" lon="10.6286117"><ele>67.0</ele><time>2026-05-03T08:03:01.875Z</time></trkpt><trkpt lat="44.6814383" lon="10.6287167"><ele>67.0</ele><time>2026-05-03T08:03:02.875Z</time></trkpt><trkpt lat="44.68135" lon="10.62883"><ele>67.0</ele><time>2026-05-03T08:03:03.876Z</time></trkpt><trkpt lat="44.6812533" lon="10.6289767"><ele>66.66666666666666</ele><time>2026-05-03T08:03:04.875Z</time></trkpt><trkpt lat="44.68113" lon="10.62912"><ele>66.33333333333333</ele><time>2026-05-03T08:03:05.876Z</time></trkpt><trkpt lat="44.6809967" lon="10.6292633"><ele>66.0</ele><time>2026-05-03T08:03:06.875Z</time></trkpt><trkpt lat="44.6808583" lon="10.6294033"><ele>66.0</ele><time>2026-05-03T08:03:07.876Z</time></trkpt><trkpt lat="44.68073" lon="10.6295483"><ele>66.0</ele><time>2026-05-03T08:03:08.876Z</time></trkpt><trkpt lat="44.6806117" lon="10.629675"><ele>66.0</ele><time>2026-05-03T08:03:09.876Z</time></trkpt><trkpt lat="44.6805017" lon="10.6297867"><ele>66.0</ele><time>2026-05-03T08:03:10.875Z</time></trkpt><trkpt lat="44.6803933" lon="10.6298733"><ele>66.0</ele><time>2026-05-03T08:03:11.875Z</time></trkpt><trkpt lat="44.680305" lon="10.6299483"><ele>66.0</ele><time>2026-05-03T08:03:12.876Z</time></trkpt><trkpt lat="44.6802133" lon="10.6300017"><ele>66.0</ele><time>2026-05-03T08:03:13.875Z</time></trkpt><trkpt lat="44.6801317" lon="10.630045"><ele>66.0</ele><time>2026-05-03T08:03:14.876Z</time></trkpt><trkpt lat="44.6800667" lon="10.63011"><ele>66.0</ele><time>2026-05-03T08:03:15.875Z</time></trkpt><trkpt lat="44.6800267" lon="10.6301967"><ele>66.0</ele><time>2026-05-03T08:03:16.876Z</time></trkpt><trkpt lat="44.6799967" lon="10.6302867"><ele>65.66666666666667</ele><time>2026-05-03T08:03:17.876Z</time></trkpt><trkpt lat="44.6799617" lon="10.63037"><ele>65.33333333333333</ele><time>2026-05-03T08:03:18.876Z</time></trkpt><trkpt lat="44.6799217" lon="10.63044"><ele>65.0</ele><time>2026-05-03T08:03:19.876Z</time></trkpt><trkpt lat="44.6798133" lon="10.630555"><ele>64.66666666666666</ele><time>2026-05-03T08:03:21.876Z</time></trkpt><trkpt lat="44.6797533" lon="10.6306133"><ele>64.33333333333333</ele><time>2026-05-03T08:03:22.876Z</time></trkpt><trkpt lat="44.6796933" lon="10.6306767"><ele>64.0</ele><time>2026-05-03T08:03:23.876Z</time></trkpt><trkpt lat="44.6796317" lon="10.6307517"><ele>64.0</ele><time>2026-05-03T08:03:24.876Z</time></trkpt><trkpt lat="44.6795617" lon="10.6308283"><ele>64.0</ele><time>2026-05-03T08:03:25.876Z</time></trkpt><trkpt lat="44.6794933" lon="10.6309067"><ele>64.0</ele><time>2026-05-03T08:03:26.875Z</time></trkpt><trkpt lat="44.67944" lon="10.6309867"><ele>64.0</ele><time>2026-05-03T08:03:27.876Z</time></trkpt><trkpt lat="44.6793733" lon="10.6310883"><ele>64.0</ele><time>2026-05-03T08:03:29.876Z</time></trkpt><trkpt lat="44.6793017" lon="10.63118"><ele>64.60000000000001</ele><time>2026-05-03T08:03:32.876Z</time></trkpt><trkpt lat="44.67922" lon="10.6313083"><ele>65.2</ele><time>2026-05-03T08:03:34.876Z</time></trkpt><trkpt lat="44.6791583" lon="10.6313917"><ele>65.80000000000001</ele><time>2026-05-03T08:03:35.876Z</time></trkpt><trkpt lat="44.6790817" lon="10.6314833"><ele>66.4</ele><time>2026-05-03T08:03:36.875Z</time></trkpt><trkpt lat="44.6789983" lon="10.63158"><ele>67.0</ele><time>2026-05-03T08:03:37.876Z</time></trkpt><trkpt lat="44.67891" lon="10.6316783"><ele>67.0</ele><time>2026-05-03T08:03:38.876Z</time></trkpt><trkpt lat="44.6788067" lon="10.631775"><ele>67.0</ele><time>2026-05-03T08:03:39.875Z</time></trkpt><trkpt lat="44.6786983" lon="10.6318917"><ele>67.0</ele><time>2026-05-03T08:03:40.876Z</time></trkpt><trkpt lat="44.6785933" lon="10.6320033"><ele>67.0</ele><time>2026-05-03T08:03:41.876Z</time></trkpt><trkpt lat="44.67849" lon="10.6321033"><ele>66.6</ele><time>2026-05-03T08:03:42.876Z</time></trkpt><trkpt lat="44.6783967" lon="10.6322067"><ele>66.2</ele><time>2026-05-03T08:03:43.876Z</time></trkpt><trkpt lat="44.6783017" lon="10.632305"><ele>65.8</ele><time>2026-05-03T08:03:44.876Z</time></trkpt><trkpt lat="44.6782133" lon="10.6323967"><ele>65.4</ele><time>2026-05-03T08:03:45.876Z</time></trkpt><trkpt lat="44.67813" lon="10.632475"><ele>65.0</ele><time>2026-05-03T08:03:46.876Z</time></trkpt><trkpt lat="44.6780533" lon="10.6325517"><ele>65.0</ele><time>2026-05-03T08:03:47.876Z</time></trkpt><trkpt lat="44.6779733" lon="10.6326067"><ele>65.0</ele><time>2026-05-03T08:03:48.876Z</time></trkpt><trkpt lat="44.6779083" lon="10.632645"><ele>65.0</ele><time>2026-05-03T08:03:49.876Z</time></trkpt><trkpt lat="44.6777917" lon="10.6326717"><ele>65.0</ele><time>2026-05-03T08:03:55.876Z</time></trkpt><trkpt lat="44.6777233" lon="10.632695"><ele>65.0</ele><time>2026-05-03T08:03:56.876Z</time></trkpt><trkpt lat="44.67765" lon="10.632745"><ele>65.0</ele><time>2026-05-03T08:03:57.876Z</time></trkpt><trkpt lat="44.67759" lon="10.632835"><ele>64.4</ele><time>2026-05-03T08:03:58.875Z</time></trkpt><trkpt lat="44.6775433" lon="10.63296"><ele>63.8</ele><time>2026-05-03T08:03:59.876Z</time></trkpt><trkpt lat="44.677505" lon="10.6331017"><ele>63.2</ele><time>2026-05-03T08:04:00.876Z</time></trkpt><trkpt lat="44.6774583" lon="10.633235"><ele>62.6</ele><time>2026-05-03T08:04:01.875Z</time></trkpt><trkpt lat="44.6773983" lon="10.633365"><ele>62.0</ele><time>2026-05-03T08:04:02.875Z</time></trkpt><trkpt lat="44.6773133" lon="10.63347"><ele>62.0</ele><time>2026-05-03T08:04:03.875Z</time></trkpt><trkpt lat="44.6772217" lon="10.6335717"><ele>62.0</ele><time>2026-05-03T08:04:04.875Z</time></trkpt><trkpt lat="44.677135" lon="10.6336817"><ele>62.0</ele><time>2026-05-03T08:04:05.875Z</time></trkpt><trkpt lat="44.6770467" lon="10.6337917"><ele>62.0</ele><time>2026-05-03T08:04:06.876Z</time></trkpt><trkpt lat="44.6769633" lon="10.6339017"><ele>62.400000000000006</ele><time>2026-05-03T08:04:07.876Z</time></trkpt><trkpt lat="44.6768783" lon="10.63401"><ele>62.800000000000004</ele><time>2026-05-03T08:04:08.876Z</time></trkpt><trkpt lat="44.6768" lon="10.6341033"><ele>63.2</ele><time>2026-05-03T08:04:09.876Z</time></trkpt><trkpt lat="44.6767267" lon="10.6341817"><ele>63.6</ele><time>2026-05-03T08:04:10.875Z</time></trkpt><trkpt lat="44.6766533" lon="10.6342567"><ele>64.0</ele><time>2026-05-03T08:04:11.875Z</time></trkpt><trkpt lat="44.6765833" lon="10.6343233"><ele>63.99999999999999</ele><time>2026-05-03T08:04:12.876Z</time></trkpt><trkpt lat="44.6765367" lon="10.6343883"><ele>64.0</ele><time>2026-05-03T08:04:13.876Z</time></trkpt><trkpt lat="44.6764833" lon="10.6344533"><ele>64.0</ele><time>2026-05-03T08:04:14.876Z</time></trkpt><trkpt lat="44.6764233" lon="10.63453"><ele>64.0</ele><time>2026-05-03T08:04:15.876Z</time></trkpt><trkpt lat="44.6763667" lon="10.6346"><ele>63.99999999999999</ele><time>2026-05-03T08:04:16.875Z</time></trkpt><trkpt lat="44.6762983" lon="10.6346833"><ele>64.0</ele><time>2026-05-03T08:04:17.875Z</time></trkpt><trkpt lat="44.67622" lon="10.63477"><ele>64.16666666666666</ele><time>2026-05-03T08:04:18.876Z</time></trkpt><trkpt lat="44.6761533" lon="10.6348533"><ele>64.33333333333333</ele><time>2026-05-03T08:04:19.875Z</time></trkpt><trkpt lat="44.6760817" lon="10.6349367"><ele>64.5</ele><time>2026-05-03T08:04:20.875Z</time></trkpt><trkpt lat="44.6760217" lon="10.6350167"><ele>64.66666666666667</ele><time>2026-05-03T08:04:21.875Z</time></trkpt><trkpt lat="44.6759583" lon="10.6350933"><ele>64.83333333333334</ele><time>2026-05-03T08:04:22.875Z</time></trkpt><trkpt lat="44.6758883" lon="10.6351717"><ele>65.0</ele><time>2026-05-03T08:04:23.876Z</time></trkpt><trkpt lat="44.6758133" lon="10.6352567"><ele>65.0</ele><time>2026-05-03T08:04:24.876Z</time></trkpt><trkpt lat="44.6757433" lon="10.63534"><ele>65.0</ele><time>2026-05-03T08:04:25.875Z</time></trkpt><trkpt lat="44.6756683" lon="10.6354267"><ele>65.0</ele><time>2026-05-03T08:04:26.875Z</time></trkpt><trkpt lat="44.6755917" lon="10.6355167"><ele>65.0</ele><time>2026-05-03T08:04:27.875Z</time></trkpt><trkpt lat="44.6755067" lon="10.6356067"><ele>65.0</ele><time>2026-05-03T08:04:28.875Z</time></trkpt><trkpt lat="44.67542" lon="10.6357017"><ele>65.0</ele><time>2026-05-03T08:04:29.875Z</time></trkpt><trkpt lat="44.675325" lon="10.6357933"><ele>65.0</ele><time>2026-05-03T08:04:30.875Z</time></trkpt><trkpt lat="44.6752433" lon="10.6358767"><ele>65.0</ele><time>2026-05-03T08:04:31.875Z</time></trkpt><trkpt lat="44.67517" lon="10.6359533"><ele>65.0</ele><time>2026-05-03T08:04:32.876Z</time></trkpt><trkpt lat="44.6750983" lon="10.6360217"><ele>65.0</ele><time>2026-05-03T08:04:33.875Z</time></trkpt><trkpt lat="44.6750367" lon="10.636085"><ele>65.00000000000001</ele><time>2026-05-03T08:04:34.875Z</time></trkpt><trkpt lat="44.6749767" lon="10.6361467"><ele>65.0</ele><time>2026-05-03T08:04:35.875Z</time></trkpt><trkpt lat="44.67492" lon="10.6362117"><ele>65.0</ele><time>2026-05-03T08:04:36.875Z</time></trkpt><trkpt lat="44.67487" lon="10.636275"><ele>65.0</ele><time>2026-05-03T08:04:37.876Z</time></trkpt><trkpt lat="44.6748217" lon="10.6363433"><ele>65.0</ele><time>2026-05-03T08:04:38.876Z</time></trkpt><trkpt lat="44.67477" lon="10.6364117"><ele>65.00000000000001</ele><time>2026-05-03T08:04:39.875Z</time></trkpt><trkpt lat="44.6747033" lon="10.6364833"><ele>65.0</ele><time>2026-05-03T08:04:40.875Z</time></trkpt><trkpt lat="44.6746367" lon="10.6365533"><ele>65.0</ele><time>2026-05-03T08:04:41.876Z</time></trkpt><trkpt lat="44.6745667" lon="10.6366283"><ele>65.0</ele><time>2026-05-03T08:04:42.875Z</time></trkpt><trkpt lat="44.6744833" lon="10.6367133"><ele>65.0</ele><time>2026-05-03T08:04:43.875Z</time></trkpt><trkpt lat="44.6744067" lon="10.6367933"><ele>65.0</ele><time>2026-05-03T08:04:44.875Z</time></trkpt><trkpt lat="44.674335" lon="10.6368767"><ele>65.0</ele><time>2026-05-03T08:04:45.876Z</time></trkpt><trkpt lat="44.674255" lon="10.636955"><ele>64.66666666666667</ele><time>2026-05-03T08:04:46.875Z</time></trkpt><trkpt lat="44.6741867" lon="10.637025"><ele>64.33333333333334</ele><time>2026-05-03T08:04:47.876Z</time></trkpt><trkpt lat="44.674135" lon="10.6370783"><ele>64.0</ele><time>2026-05-03T08:04:48.875Z</time></trkpt><trkpt lat="44.6740883" lon="10.63714"><ele>63.66666666666667</ele><time>2026-05-03T08:04:51.875Z</time></trkpt><trkpt lat="44.6740283" lon="10.6371983"><ele>63.333333333333336</ele><time>2026-05-03T08:04:58.876Z</time></trkpt><trkpt lat="44.6739583" lon="10.6372967"><ele>63.0</ele><time>2026-05-03T08:05:00.875Z</time></trkpt><trkpt lat="44.6739167" lon="10.6373767"><ele>63.0</ele><time>2026-05-03T08:05:01.876Z</time></trkpt><trkpt lat="44.6738767" lon="10.6374617"><ele>63.0</ele><time>2026-05-03T08:05:02.875Z</time></trkpt><trkpt lat="44.6738333" lon="10.637555"><ele>63.0</ele><time>2026-05-03T08:05:03.875Z</time></trkpt><trkpt lat="44.67379" lon="10.6376567"><ele>63.0</ele><time>2026-05-03T08:05:04.876Z</time></trkpt><trkpt lat="44.6737517" lon="10.6377667"><ele>63.0</ele><time>2026-05-03T08:05:05.876Z</time></trkpt><trkpt lat="44.6737083" lon="10.6378783"><ele>63.0</ele><time>2026-05-03T08:05:06.875Z</time></trkpt><trkpt lat="44.673675" lon="10.63798"><ele>63.0</ele><time>2026-05-03T08:05:07.875Z</time></trkpt><trkpt lat="44.67363" lon="10.6380917"><ele>63.0</ele><time>2026-05-03T08:05:09.876Z</time></trkpt><trkpt lat="44.6735883" lon="10.6382"><ele>63.0</ele><time>2026-05-03T08:05:12.876Z</time></trkpt><trkpt lat="44.673495" lon="10.63833"><ele>63.0</ele><time>2026-05-03T08:05:14.876Z</time></trkpt><trkpt lat="44.6734333" lon="10.6383867"><ele>63.0</ele><time>2026-05-03T08:05:15.876Z</time></trkpt><trkpt lat="44.6733517" lon="10.638415"><ele>63.0</ele><time>2026-05-03T08:05:16.876Z</time></trkpt><trkpt lat="44.6732467" lon="10.6384133"><ele>63.0</ele><time>2026-05-03T08:05:17.875Z</time></trkpt><trkpt lat="44.67314" lon="10.6384"><ele>63.0</ele><time>2026-05-03T08:05:18.876Z</time></trkpt><trkpt lat="44.67303" lon="10.63838"><ele>63.0</ele><time>2026-05-03T08:05:19.876Z</time></trkpt><trkpt lat="44.6729267" lon="10.6383717"><ele>63.0</ele><time>2026-05-03T08:05:20.876Z</time></trkpt><trkpt lat="44.67282" lon="10.6383717"><ele>63.25</ele><time>2026-05-03T08:05:21.875Z</time></trkpt><trkpt lat="44.67271" lon="10.63839"><ele>63.5</ele><time>2026-05-03T08:05:22.876Z</time></trkpt><trkpt lat="44.6725983" lon="10.6384167"><ele>63.75</ele><time>2026-05-03T08:05:23.875Z</time></trkpt><trkpt lat="44.6724833" lon="10.6384517"><ele>64.0</ele><time>2026-05-03T08:05:24.876Z</time></trkpt><trkpt lat="44.67237" lon="10.6384883"><ele>64.0</ele><time>2026-05-03T08:05:25.876Z</time></trkpt><trkpt lat="44.6722617" lon="10.63854"><ele>64.0</ele><time>2026-05-03T08:05:26.876Z</time></trkpt><trkpt lat="44.67214" lon="10.6386033"><ele>64.0</ele><time>2026-05-03T08:05:27.875Z</time></trkpt><trkpt lat="44.672015" lon="10.638675"><ele>64.0</ele><time>2026-05-03T08:05:28.876Z</time></trkpt><trkpt lat="44.67189" lon="10.6387483"><ele>63.5</ele><time>2026-05-03T08:05:29.875Z</time></trkpt><trkpt lat="44.67179" lon="10.6388283"><ele>63.0</ele><time>2026-05-03T08:05:30.875Z</time></trkpt><trkpt lat="44.67169" lon="10.6389083"><ele>62.5</ele><time>2026-05-03T08:05:31.876Z</time></trkpt><trkpt lat="44.671595" lon="10.639015"><ele>62.0</ele><time>2026-05-03T08:05:32.876Z</time></trkpt><trkpt lat="44.6714983" lon="10.6391183"><ele>62.0</ele><time>2026-05-03T08:05:33.876Z</time></trkpt><trkpt lat="44.6714083" lon="10.639225"><ele>62.0</ele><time>2026-05-03T08:05:34.875Z</time></trkpt><trkpt lat="44.6713233" lon="10.6393333"><ele>62.0</ele><time>2026-05-03T08:05:35.876Z</time></trkpt><trkpt lat="44.6712517" lon="10.6394417"><ele>62.0</ele><time>2026-05-03T08:05:36.876Z</time></trkpt><trkpt lat="44.6711817" lon="10.63956"><ele>62.0</ele><time>2026-05-03T08:05:37.875Z</time></trkpt><trkpt lat="44.6711183" lon="10.6396767"><ele>62.2</ele><time>2026-05-03T08:05:38.876Z</time></trkpt><trkpt lat="44.6710583" lon="10.6397917"><ele>62.400000000000006</ele><time>2026-05-03T08:05:39.875Z</time></trkpt><trkpt lat="44.67099" lon="10.6398967"><ele>62.599999999999994</ele><time>2026-05-03T08:05:40.875Z</time></trkpt><trkpt lat="44.670925" lon="10.6399983"><ele>62.8</ele><time>2026-05-03T08:05:41.875Z</time></trkpt><trkpt lat="44.6708583" lon="10.640105"><ele>63.0</ele><time>2026-05-03T08:05:42.876Z</time></trkpt><trkpt lat="44.6707933" lon="10.6402133"><ele>62.833333333333336</ele><time>2026-05-03T08:05:43.876Z</time></trkpt><trkpt lat="44.67073" lon="10.64032"><ele>62.66666666666667</ele><time>2026-05-03T08:05:44.875Z</time></trkpt><trkpt lat="44.6706617" lon="10.6404183"><ele>62.5</ele><time>2026-05-03T08:05:45.876Z</time></trkpt><trkpt lat="44.6706" lon="10.6405117"><ele>62.333333333333336</ele><time>2026-05-03T08:05:46.876Z</time></trkpt><trkpt lat="44.6705367" lon="10.640585"><ele>62.16666666666667</ele><time>2026-05-03T08:05:47.876Z</time></trkpt><trkpt lat="44.67048" lon="10.6406567"><ele>62.0</ele><time>2026-05-03T08:05:48.876Z</time></trkpt><trkpt lat="44.67043" lon="10.6407233"><ele>62.00000000000001</ele><time>2026-05-03T08:05:49.876Z</time></trkpt><trkpt lat="44.6703517" lon="10.6407917"><ele>62.0</ele><time>2026-05-03T08:05:51.875Z</time></trkpt><trkpt lat="44.67026" lon="10.6408433"><ele>62.0</ele><time>2026-05-03T08:05:54.875Z</time></trkpt><trkpt lat="44.6702017" lon="10.6408867"><ele>62.0</ele><time>2026-05-03T08:05:55.876Z</time></trkpt><trkpt lat="44.6701283" lon="10.6409417"><ele>62.00000000000001</ele><time>2026-05-03T08:05:56.876Z</time></trkpt><trkpt lat="44.670035" lon="10.6409967"><ele>62.0</ele><time>2026-05-03T08:05:57.876Z</time></trkpt><trkpt lat="44.6699183" lon="10.641025"><ele>62.25</ele><time>2026-05-03T08:05:58.876Z</time></trkpt><trkpt lat="44.6698033" lon="10.6410367"><ele>62.5</ele><time>2026-05-03T08:05:59.876Z</time></trkpt><trkpt lat="44.66968" lon="10.6410533"><ele>62.75</ele><time>2026-05-03T08:06:00.875Z</time></trkpt><trkpt lat="44.6695483" lon="10.6410817"><ele>63.0</ele><time>2026-05-03T08:06:01.876Z</time></trkpt><trkpt lat="44.6694117" lon="10.6411283"><ele>62.75</ele><time>2026-05-03T08:06:02.876Z</time></trkpt><trkpt lat="44.6692833" lon="10.6411867"><ele>62.5</ele><time>2026-05-03T08:06:03.875Z</time></trkpt><trkpt lat="44.6691433" lon="10.6412517"><ele>62.25</ele><time>2026-05-03T08:06:04.876Z</time></trkpt><trkpt lat="44.6689967" lon="10.6413217"><ele>62.0</ele><time>2026-05-03T08:06:05.876Z</time></trkpt><trkpt lat="44.668845" lon="10.64139"><ele>62.0</ele><time>2026-05-03T08:06:06.875Z</time></trkpt><trkpt lat="44.6686917" lon="10.6414567"><ele>62.0</ele><time>2026-05-03T08:06:07.876Z</time></trkpt><trkpt lat="44.6685367" lon="10.64153"><ele>62.0</ele><time>2026-05-03T08:06:08.876Z</time></trkpt><trkpt lat="44.6683767" lon="10.6416017"><ele>61.66666666666667</ele><time>2026-05-03T08:06:09.875Z</time></trkpt><trkpt lat="44.6682083" lon="10.64167"><ele>61.33333333333333</ele><time>2026-05-03T08:06:10.875Z</time></trkpt><trkpt lat="44.6680483" lon="10.6417233"><ele>61.0</ele><time>2026-05-03T08:06:11.875Z</time></trkpt><trkpt lat="44.667885" lon="10.641795"><ele>61.666666666666664</ele><time>2026-05-03T08:06:12.875Z</time></trkpt><trkpt lat="44.6677183" lon="10.6418683"><ele>62.33333333333333</ele><time>2026-05-03T08:06:13.875Z</time></trkpt><trkpt lat="44.6675583" lon="10.6419417"><ele>63.0</ele><time>2026-05-03T08:06:14.876Z</time></trkpt><trkpt lat="44.6674067" lon="10.64202"><ele>63.0</ele><time>2026-05-03T08:06:15.875Z</time></trkpt><trkpt lat="44.66726" lon="10.6421083"><ele>63.0</ele><time>2026-05-03T08:06:16.876Z</time></trkpt><trkpt lat="44.66713" lon="10.64219"><ele>63.0</ele><time>2026-05-03T08:06:17.875Z</time></trkpt><trkpt lat="44.6670033" lon="10.6422783"><ele>63.0</ele><time>2026-05-03T08:06:18.876Z</time></trkpt><trkpt lat="44.6668817" lon="10.6423617"><ele>63.0</ele><time>2026-05-03T08:06:19.875Z</time></trkpt><trkpt lat="44.6667667" lon="10.642455"><ele>63.0</ele><time>2026-05-03T08:06:20.876Z</time></trkpt><trkpt lat="44.6666633" lon="10.6425333"><ele>63.0</ele><time>2026-05-03T08:06:21.876Z</time></trkpt><trkpt lat="44.6665567" lon="10.6426033"><ele>63.0</ele><time>2026-05-03T08:06:22.876Z</time></trkpt><trkpt lat="44.666445" lon="10.642685"><ele>63.0</ele><time>2026-05-03T08:06:23.875Z</time></trkpt><trkpt lat="44.666335" lon="10.6427683"><ele>63.0</ele><time>2026-05-03T08:06:24.875Z</time></trkpt><trkpt lat="44.666235" lon="10.642855"><ele>63.0</ele><time>2026-05-03T08:06:25.875Z</time></trkpt><trkpt lat="44.6661383" lon="10.6429283"><ele>63.0</ele><time>2026-05-03T08:06:26.876Z</time></trkpt><trkpt lat="44.6660433" lon="10.6430183"><ele>62.599999999999994</ele><time>2026-05-03T08:06:27.875Z</time></trkpt><trkpt lat="44.6659583" lon="10.6431167"><ele>62.199999999999996</ele><time>2026-05-03T08:06:28.875Z</time></trkpt><trkpt lat="44.6658983" lon="10.64325"><ele>61.8</ele><time>2026-05-03T08:06:29.876Z</time></trkpt><trkpt lat="44.6658517" lon="10.6433933"><ele>61.4</ele><time>2026-05-03T08:06:30.875Z</time></trkpt><trkpt lat="44.6658117" lon="10.6435317"><ele>61.0</ele><time>2026-05-03T08:06:31.876Z</time></trkpt><trkpt lat="44.66577" lon="10.6436567"><ele>60.83333333333333</ele><time>2026-05-03T08:06:32.876Z</time></trkpt><trkpt lat="44.66573" lon="10.6437617"><ele>60.666666666666664</ele><time>2026-05-03T08:06:33.875Z</time></trkpt><trkpt lat="44.6656817" lon="10.6438483"><ele>60.5</ele><time>2026-05-03T08:06:34.876Z</time></trkpt><trkpt lat="44.665615" lon="10.64392"><ele>60.33333333333333</ele><time>2026-05-03T08:06:35.876Z</time></trkpt><trkpt lat="44.6655333" lon="10.64395"><ele>60.166666666666664</ele><time>2026-05-03T08:06:36.875Z</time></trkpt><trkpt lat="44.6654417" lon="10.643935"><ele>60.0</ele><time>2026-05-03T08:06:37.875Z</time></trkpt><trkpt lat="44.66533" lon="10.6438967"><ele>60.25</ele><time>2026-05-03T08:06:38.875Z</time></trkpt><trkpt lat="44.6652133" lon="10.64389"><ele>60.5</ele><time>2026-05-03T08:06:39.876Z</time></trkpt><trkpt lat="44.6650967" lon="10.643905"><ele>60.75</ele><time>2026-05-03T08:06:40.876Z</time></trkpt><trkpt lat="44.664975" lon="10.6439117"><ele>61.0</ele><time>2026-05-03T08:06:41.876Z</time></trkpt><trkpt lat="44.6648467" lon="10.6439117"><ele>61.0</ele><time>2026-05-03T08:06:42.876Z</time></trkpt><trkpt lat="44.66473" lon="10.643915"><ele>61.0</ele><time>2026-05-03T08:06:43.875Z</time></trkpt><trkpt lat="44.6646167" lon="10.64395"><ele>61.0</ele><time>2026-05-03T08:06:44.876Z</time></trkpt><trkpt lat="44.6645033" lon="10.6440017"><ele>61.0</ele><time>2026-05-03T08:06:45.876Z</time></trkpt><trkpt lat="44.6643733" lon="10.6440633"><ele>61.666666666666664</ele><time>2026-05-03T08:06:46.875Z</time></trkpt><trkpt lat="44.6642283" lon="10.6441383"><ele>62.33333333333333</ele><time>2026-05-03T08:06:47.876Z</time></trkpt><trkpt lat="44.66408" lon="10.6442183"><ele>63.0</ele><time>2026-05-03T08:06:48.876Z</time></trkpt><trkpt lat="44.6639233" lon="10.6442917"><ele>63.0</ele><time>2026-05-03T08:06:49.875Z</time></trkpt><trkpt lat="44.6637567" lon="10.6443667"><ele>63.0</ele><time>2026-05-03T08:06:50.875Z</time></trkpt><trkpt lat="44.6635867" lon="10.6444467"><ele>63.0</ele><time>2026-05-03T08:06:51.876Z</time></trkpt><trkpt lat="44.66342" lon="10.644515"><ele>63.33333333333333</ele><time>2026-05-03T08:06:52.876Z</time></trkpt><trkpt lat="44.6632517" lon="10.6445867"><ele>63.666666666666664</ele><time>2026-05-03T08:06:53.875Z</time></trkpt><trkpt lat="44.6630967" lon="10.6446583"><ele>64.0</ele><time>2026-05-03T08:06:54.876Z</time></trkpt><trkpt lat="44.662945" lon="10.6447233"><ele>64.0</ele><time>2026-05-03T08:06:55.876Z</time></trkpt><trkpt lat="44.6628033" lon="10.6447867"><ele>64.0</ele><time>2026-05-03T08:06:56.876Z</time></trkpt><trkpt lat="44.6626567" lon="10.6448517"><ele>64.0</ele><time>2026-05-03T08:06:57.875Z</time></trkpt><trkpt lat="44.6625067" lon="10.6449033"><ele>63.75</ele><time>2026-05-03T08:06:58.876Z</time></trkpt><trkpt lat="44.66235" lon="10.64493"><ele>63.5</ele><time>2026-05-03T08:06:59.876Z</time></trkpt><trkpt lat="44.662205" lon="10.6449333"><ele>63.25</ele><time>2026-05-03T08:07:00.876Z</time></trkpt><trkpt lat="44.66206" lon="10.644925"><ele>63.0</ele><time>2026-05-03T08:07:01.875Z</time></trkpt><trkpt lat="44.6619283" lon="10.6449067"><ele>63.0</ele><time>2026-05-03T08:07:02.876Z</time></trkpt><trkpt lat="44.6618117" lon="10.64489"><ele>63.0</ele><time>2026-05-03T08:07:03.876Z</time></trkpt><trkpt lat="44.6616983" lon="10.6448733"><ele>63.0</ele><time>2026-05-03T08:07:04.876Z</time></trkpt><trkpt lat="44.6616" lon="10.6448517"><ele>63.0</ele><time>2026-05-03T08:07:05.876Z</time></trkpt><trkpt lat="44.6615033" lon="10.6448383"><ele>63.0</ele><time>2026-05-03T08:07:06.875Z</time></trkpt><trkpt lat="44.6614117" lon="10.6448233"><ele>63.0</ele><time>2026-05-03T08:07:07.876Z</time></trkpt><trkpt lat="44.66132" lon="10.6448133"><ele>63.0</ele><time>2026-05-03T08:07:08.875Z</time></trkpt><trkpt lat="44.6612383" lon="10.6447967"><ele>63.0</ele><time>2026-05-03T08:07:09.875Z</time></trkpt><trkpt lat="44.6611517" lon="10.64478"><ele>63.0</ele><time>2026-05-03T08:07:10.876Z</time></trkpt><trkpt lat="44.6610717" lon="10.64477"><ele>63.0</ele><time>2026-05-03T08:07:11.876Z</time></trkpt><trkpt lat="44.661005" lon="10.64475"><ele>63.0</ele><time>2026-05-03T08:07:12.875Z</time></trkpt><trkpt lat="44.6609367" lon="10.6447533"><ele>63.166666666666664</ele><time>2026-05-03T08:07:14.875Z</time></trkpt><trkpt lat="44.6608683" lon="10.644745"><ele>63.33333333333333</ele><time>2026-05-03T08:07:17.876Z</time></trkpt><trkpt lat="44.6607733" lon="10.6447383"><ele>63.5</ele><time>2026-05-03T08:07:19.876Z</time></trkpt><trkpt lat="44.6606917" lon="10.6448217"><ele>63.666666666666664</ele><time>2026-05-03T08:07:21.876Z</time></trkpt><trkpt lat="44.6607117" lon="10.6449717"><ele>63.83333333333333</ele><time>2026-05-03T08:07:23.875Z</time></trkpt><trkpt lat="44.6607333" lon="10.64507"><ele>64.0</ele><time>2026-05-03T08:07:24.875Z</time></trkpt><trkpt lat="44.660735" lon="10.6451817"><ele>63.6</ele><time>2026-05-03T08:07:25.876Z</time></trkpt><trkpt lat="44.6607083" lon="10.6453017"><ele>63.2</ele><time>2026-05-03T08:07:26.876Z</time></trkpt><trkpt lat="44.660655" lon="10.645425"><ele>62.800000000000004</ele><time>2026-05-03T08:07:27.876Z</time></trkpt><trkpt lat="44.66059" lon="10.6455617"><ele>62.400000000000006</ele><time>2026-05-03T08:07:28.876Z</time></trkpt><trkpt lat="44.6605333" lon="10.6457083"><ele>62.0</ele><time>2026-05-03T08:07:29.876Z</time></trkpt><trkpt lat="44.6604717" lon="10.64587"><ele>62.0</ele><time>2026-05-03T08:07:30.875Z</time></trkpt><trkpt lat="44.66041" lon="10.6460517"><ele>62.0</ele><time>2026-05-03T08:07:31.876Z</time></trkpt><trkpt lat="44.660365" lon="10.646235"><ele>62.0</ele><time>2026-05-03T08:07:32.876Z</time></trkpt><trkpt lat="44.6603283" lon="10.6464267"><ele>62.0</ele><time>2026-05-03T08:07:33.876Z</time></trkpt><trkpt lat="44.66029" lon="10.64663"><ele>62.333333333333336</ele><time>2026-05-03T08:07:34.876Z</time></trkpt><trkpt lat="44.660245" lon="10.6468383"><ele>62.66666666666667</ele><time>2026-05-03T08:07:35.875Z</time></trkpt><trkpt lat="44.6601983" lon="10.6470467"><ele>63.0</ele><time>2026-05-03T08:07:36.876Z</time></trkpt><trkpt lat="44.6601483" lon="10.64725"><ele>63.0</ele><time>2026-05-03T08:07:37.875Z</time></trkpt><trkpt lat="44.6600917" lon="10.6474533"><ele>63.0</ele><time>2026-05-03T08:07:38.876Z</time></trkpt><trkpt lat="44.660045" lon="10.6476567"><ele>63.0</ele><time>2026-05-03T08:07:39.875Z</time></trkpt><trkpt lat="44.6599983" lon="10.64785"><ele>62.75</ele><time>2026-05-03T08:07:40.875Z</time></trkpt><trkpt lat="44.6599533" lon="10.6480367"><ele>62.5</ele><time>2026-05-03T08:07:41.875Z</time></trkpt><trkpt lat="44.6599067" lon="10.64821"><ele>62.25</ele><time>2026-05-03T08:07:42.875Z</time></trkpt><trkpt lat="44.659865" lon="10.648375"><ele>62.0</ele><time>2026-05-03T08:07:43.875Z</time></trkpt><trkpt lat="44.659825" lon="10.6485333"><ele>61.8</ele><time>2026-05-03T08:07:44.875Z</time></trkpt><trkpt lat="44.6597883" lon="10.6486783"><ele>61.6</ele><time>2026-05-03T08:07:45.875Z</time></trkpt><trkpt lat="44.6597433" lon="10.64881"><ele>61.39999999999999</ele><time>2026-05-03T08:07:46.874Z</time></trkpt><trkpt lat="44.659685" lon="10.6489267"><ele>61.199999999999996</ele><time>2026-05-03T08:07:47.874Z</time></trkpt><trkpt lat="44.6596183" lon="10.649025"><ele>61.0</ele><time>2026-05-03T08:07:48.875Z</time></trkpt><trkpt lat="44.6595483" lon="10.6491117"><ele>60.99999999999999</ele><time>2026-05-03T08:07:49.875Z</time></trkpt><trkpt lat="44.65949" lon="10.649205"><ele>61.0</ele><time>2026-05-03T08:07:50.874Z</time></trkpt><trkpt lat="44.6594567" lon="10.6493033"><ele>61.0</ele><time>2026-05-03T08:07:51.875Z</time></trkpt><trkpt lat="44.6594567" lon="10.6494133"><ele>61.0</ele><time>2026-05-03T08:07:52.874Z</time></trkpt><trkpt lat="44.6594783" lon="10.6495333"><ele>60.99999999999999</ele><time>2026-05-03T08:07:53.875Z</time></trkpt><trkpt lat="44.6595117" lon="10.6496783"><ele>61.0</ele><time>2026-05-03T08:07:54.874Z</time></trkpt><trkpt lat="44.6595117" lon="10.6498433"><ele>61.0</ele><time>2026-05-03T08:07:55.874Z</time></trkpt><trkpt lat="44.6594817" lon="10.6500283"><ele>61.0</ele><time>2026-05-03T08:07:56.875Z</time></trkpt><trkpt lat="44.6594383" lon="10.6502083"><ele>61.0</ele><time>2026-05-03T08:07:57.874Z</time></trkpt><trkpt lat="44.659385" lon="10.650395"><ele>61.0</ele><time>2026-05-03T08:07:58.875Z</time></trkpt><trkpt lat="44.6593283" lon="10.650585"><ele>61.0</ele><time>2026-05-03T08:07:59.874Z</time></trkpt><trkpt lat="44.65926" lon="10.6507717"><ele>61.0</ele><time>2026-05-03T08:08:00.875Z</time></trkpt><trkpt lat="44.6591867" lon="10.6509533"><ele>61.0</ele><time>2026-05-03T08:08:01.874Z</time></trkpt><trkpt lat="44.6591217" lon="10.6511433"><ele>61.0</ele><time>2026-05-03T08:08:02.875Z</time></trkpt><trkpt lat="44.65905" lon="10.6513367"><ele>61.0</ele><time>2026-05-03T08:08:03.874Z</time></trkpt><trkpt lat="44.658975" lon="10.6515533"><ele>61.0</ele><time>2026-05-03T08:08:04.874Z</time></trkpt><trkpt lat="44.6588983" lon="10.6517867"><ele>61.0</ele><time>2026-05-03T08:08:05.875Z</time></trkpt><trkpt lat="44.65881" lon="10.6520233"><ele>61.33333333333333</ele><time>2026-05-03T08:08:06.874Z</time></trkpt><trkpt lat="44.6587233" lon="10.6522433"><ele>61.66666666666667</ele><time>2026-05-03T08:08:07.875Z</time></trkpt><trkpt lat="44.658635" lon="10.652465"><ele>62.0</ele><time>2026-05-03T08:08:08.874Z</time></trkpt><trkpt lat="44.6585517" lon="10.6526867"><ele>62.0</ele><time>2026-05-03T08:08:09.875Z</time></trkpt><trkpt lat="44.6584483" lon="10.65292"><ele>62.0</ele><time>2026-05-03T08:08:10.875Z</time></trkpt><trkpt lat="44.6583517" lon="10.6531317"><ele>62.0</ele><time>2026-05-03T08:08:11.875Z</time></trkpt><trkpt lat="44.6582567" lon="10.65335"><ele>62.0</ele><time>2026-05-03T08:08:12.875Z</time></trkpt><trkpt lat="44.6581583" lon="10.6535717"><ele>62.0</ele><time>2026-05-03T08:08:13.875Z</time></trkpt><trkpt lat="44.658055" lon="10.6537817"><ele>62.0</ele><time>2026-05-03T08:08:14.875Z</time></trkpt><trkpt lat="44.6579533" lon="10.65399"><ele>61.66666666666667</ele><time>2026-05-03T08:08:15.875Z</time></trkpt><trkpt lat="44.6578483" lon="10.6541983"><ele>61.33333333333333</ele><time>2026-05-03T08:08:16.875Z</time></trkpt><trkpt lat="44.6577517" lon="10.654405"><ele>61.0</ele><time>2026-05-03T08:08:17.875Z</time></trkpt><trkpt lat="44.6576567" lon="10.6546033"><ele>60.666666666666664</ele><time>2026-05-03T08:08:18.875Z</time></trkpt><trkpt lat="44.6575633" lon="10.6547883"><ele>60.33333333333333</ele><time>2026-05-03T08:08:19.874Z</time></trkpt><trkpt lat="44.6574783" lon="10.65497"><ele>60.0</ele><time>2026-05-03T08:08:20.875Z</time></trkpt><trkpt lat="44.6573967" lon="10.655145"><ele>60.33333333333333</ele><time>2026-05-03T08:08:21.875Z</time></trkpt><trkpt lat="44.6573133" lon="10.655325"><ele>60.666666666666664</ele><time>2026-05-03T08:08:22.875Z</time></trkpt><trkpt lat="44.65723" lon="10.6555067"><ele>61.0</ele><time>2026-05-03T08:08:23.875Z</time></trkpt><trkpt lat="44.6571417" lon="10.6556883"><ele>61.0</ele><time>2026-05-03T08:08:24.875Z</time></trkpt><trkpt lat="44.65705" lon="10.6558683"><ele>61.0</ele><time>2026-05-03T08:08:25.875Z</time></trkpt><trkpt lat="44.6569617" lon="10.65604"><ele>61.0</ele><time>2026-05-03T08:08:26.875Z</time></trkpt><trkpt lat="44.6568717" lon="10.65622"><ele>60.75</ele><time>2026-05-03T08:08:27.874Z</time></trkpt><trkpt lat="44.6567867" lon="10.656385"><ele>60.5</ele><time>2026-05-03T08:08:28.874Z</time></trkpt><trkpt lat="44.6567017" lon="10.6565433"><ele>60.25</ele><time>2026-05-03T08:08:29.875Z</time></trkpt><trkpt lat="44.656615" lon="10.6567083"><ele>60.0</ele><time>2026-05-03T08:08:30.875Z</time></trkpt><trkpt lat="44.6565267" lon="10.6568717"><ele>60.0</ele><time>2026-05-03T08:08:31.874Z</time></trkpt><trkpt lat="44.6564233" lon="10.657035"><ele>60.0</ele><time>2026-05-03T08:08:32.875Z</time></trkpt><trkpt lat="44.656305" lon="10.6571967"><ele>60.0</ele><time>2026-05-03T08:08:33.875Z</time></trkpt><trkpt lat="44.656165" lon="10.6573617"><ele>60.0</ele><time>2026-05-03T08:08:34.874Z</time></trkpt><trkpt lat="44.656005" lon="10.6575133"><ele>60.0</ele><time>2026-05-03T08:08:35.875Z</time></trkpt><trkpt lat="44.6558367" lon="10.657655"><ele>60.0</ele><time>2026-05-03T08:08:36.874Z</time></trkpt><trkpt lat="44.6556683" lon="10.6578"><ele>60.0</ele><time>2026-05-03T08:08:37.874Z</time></trkpt><trkpt lat="44.6554883" lon="10.6579517"><ele>60.0</ele><time>2026-05-03T08:08:38.874Z</time></trkpt><trkpt lat="44.65531" lon="10.65811"><ele>60.0</ele><time>2026-05-03T08:08:39.874Z</time></trkpt><trkpt lat="44.6551283" lon="10.65827"><ele>59.66666666666667</ele><time>2026-05-03T08:08:40.875Z</time></trkpt><trkpt lat="44.6549417" lon="10.6584383"><ele>59.333333333333336</ele><time>2026-05-03T08:08:41.874Z</time></trkpt><trkpt lat="44.65476" lon="10.6586067"><ele>59.0</ele><time>2026-05-03T08:08:42.875Z</time></trkpt><trkpt lat="44.6545817" lon="10.6587833"><ele>59.0</ele><time>2026-05-03T08:08:43.874Z</time></trkpt><trkpt lat="44.6544017" lon="10.6589467"><ele>59.0</ele><time>2026-05-03T08:08:44.875Z</time></trkpt><trkpt lat="44.6542117" lon="10.6591117"><ele>59.0</ele><time>2026-05-03T08:08:45.875Z</time></trkpt><trkpt lat="44.65403" lon="10.6592833"><ele>59.0</ele><time>2026-05-03T08:08:46.875Z</time></trkpt><trkpt lat="44.6538533" lon="10.6594533"><ele>59.0</ele><time>2026-05-03T08:08:47.875Z</time></trkpt><trkpt lat="44.6536717" lon="10.6596267"><ele>59.0</ele><time>2026-05-03T08:08:48.875Z</time></trkpt><trkpt lat="44.6534883" lon="10.6597933"><ele>59.0</ele><time>2026-05-03T08:08:49.875Z</time></trkpt><trkpt lat="44.653305" lon="10.659945"><ele>59.0</ele><time>2026-05-03T08:08:50.874Z</time></trkpt><trkpt lat="44.65312" lon="10.66012"><ele>59.0</ele><time>2026-05-03T08:08:51.875Z</time></trkpt><trkpt lat="44.6529417" lon="10.6602917"><ele>59.0</ele><time>2026-05-03T08:08:52.874Z</time></trkpt><trkpt lat="44.6527633" lon="10.6604617"><ele>59.0</ele><time>2026-05-03T08:08:53.874Z</time></trkpt><trkpt lat="44.65258" lon="10.6606283"><ele>59.0</ele><time>2026-05-03T08:08:54.874Z</time></trkpt><trkpt lat="44.6523983" lon="10.6607933"><ele>59.0</ele><time>2026-05-03T08:08:55.875Z</time></trkpt><trkpt lat="44.65222" lon="10.660965"><ele>59.0</ele><time>2026-05-03T08:08:56.875Z</time></trkpt><trkpt lat="44.6520433" lon="10.6611383"><ele>59.0</ele><time>2026-05-03T08:08:57.875Z</time></trkpt><trkpt lat="44.6518617" lon="10.6613083"><ele>59.66666666666667</ele><time>2026-05-03T08:08:58.875Z</time></trkpt><trkpt lat="44.65168" lon="10.6614733"><ele>60.33333333333333</ele><time>2026-05-03T08:08:59.875Z</time></trkpt><trkpt lat="44.6515" lon="10.6616383"><ele>61.0</ele><time>2026-05-03T08:09:00.875Z</time></trkpt><trkpt lat="44.6513183" lon="10.6618067"><ele>60.33333333333333</ele><time>2026-05-03T08:09:01.874Z</time></trkpt><trkpt lat="44.651135" lon="10.66198"><ele>59.66666666666667</ele><time>2026-05-03T08:09:02.875Z</time></trkpt><trkpt lat="44.650955" lon="10.6621533"><ele>59.0</ele><time>2026-05-03T08:09:03.874Z</time></trkpt><trkpt lat="44.6507733" lon="10.662325"><ele>59.0</ele><time>2026-05-03T08:09:04.874Z</time></trkpt><trkpt lat="44.6506033" lon="10.6624983"><ele>59.0</ele><time>2026-05-03T08:09:05.875Z</time></trkpt><trkpt lat="44.6504233" lon="10.6626667"><ele>59.0</ele><time>2026-05-03T08:09:06.874Z</time></trkpt><trkpt lat="44.650245" lon="10.6628433"><ele>59.66666666666667</ele><time>2026-05-03T08:09:07.875Z</time></trkpt><trkpt lat="44.6500633" lon="10.6630283"><ele>60.33333333333333</ele><time>2026-05-03T08:09:08.875Z</time></trkpt><trkpt lat="44.649895" lon="10.663205"><ele>61.0</ele><time>2026-05-03T08:09:09.874Z</time></trkpt><trkpt lat="44.64972" lon="10.6633783"><ele>61.0</ele><time>2026-05-03T08:09:10.874Z</time></trkpt><trkpt lat="44.64955" lon="10.6635517"><ele>61.0</ele><time>2026-05-03T08:09:11.874Z</time></trkpt><trkpt lat="44.6493733" lon="10.6637333"><ele>61.0</ele><time>2026-05-03T08:09:12.875Z</time></trkpt><trkpt lat="44.649195" lon="10.6639167"><ele>60.666666666666664</ele><time>2026-05-03T08:09:13.874Z</time></trkpt><trkpt lat="44.6490233" lon="10.664095"><ele>60.33333333333333</ele><time>2026-05-03T08:09:14.874Z</time></trkpt><trkpt lat="44.6488483" lon="10.6642833"><ele>60.0</ele><time>2026-05-03T08:09:15.875Z</time></trkpt><trkpt lat="44.648665" lon="10.66447"><ele>60.0</ele><time>2026-05-03T08:09:16.874Z</time></trkpt><trkpt lat="44.648485" lon="10.6646533"><ele>60.0</ele><time>2026-05-03T08:09:17.875Z</time></trkpt><trkpt lat="44.648305" lon="10.6648417"><ele>60.0</ele><time>2026-05-03T08:09:18.875Z</time></trkpt><trkpt lat="44.648125" lon="10.6650217"><ele>60.0</ele><time>2026-05-03T08:09:19.874Z</time></trkpt><trkpt lat="44.64794" lon="10.6652"><ele>60.0</ele><time>2026-05-03T08:09:20.874Z</time></trkpt><trkpt lat="44.6477533" lon="10.6653867"><ele>60.0</ele><time>2026-05-03T08:09:21.875Z</time></trkpt><trkpt lat="44.64758" lon="10.6655767"><ele>60.0</ele><time>2026-05-03T08:09:22.874Z</time></trkpt><trkpt lat="44.6474217" lon="10.6657817"><ele>60.0</ele><time>2026-05-03T08:09:23.874Z</time></trkpt><trkpt lat="44.64728" lon="10.6660133"><ele>60.0</ele><time>2026-05-03T08:09:24.875Z</time></trkpt><trkpt lat="44.64717" lon="10.6662717"><ele>60.0</ele><time>2026-05-03T08:09:25.874Z</time></trkpt><trkpt lat="44.647065" lon="10.6665333"><ele>60.0</ele><time>2026-05-03T08:09:26.875Z</time></trkpt><trkpt lat="44.6469617" lon="10.6667983"><ele>61.0</ele><time>2026-05-03T08:09:27.874Z</time></trkpt><trkpt lat="44.64686" lon="10.667055"><ele>62.0</ele><time>2026-05-03T08:09:28.875Z</time></trkpt><trkpt lat="44.6467517" lon="10.6673067"><ele>63.0</ele><time>2026-05-03T08:09:29.875Z</time></trkpt><trkpt lat="44.646645" lon="10.66754"><ele>63.0</ele><time>2026-05-03T08:09:30.874Z</time></trkpt><trkpt lat="44.646525" lon="10.6677733"><ele>63.0</ele><time>2026-05-03T08:09:31.874Z</time></trkpt><trkpt lat="44.6464033" lon="10.6679983"><ele>63.0</ele><time>2026-05-03T08:09:32.874Z</time></trkpt><trkpt lat="44.64628" lon="10.6682167"><ele>63.66666666666667</ele><time>2026-05-03T08:09:33.874Z</time></trkpt><trkpt lat="44.6461483" lon="10.6684233"><ele>64.33333333333334</ele><time>2026-05-03T08:09:34.874Z</time></trkpt><trkpt lat="44.646015" lon="10.668625"><ele>65.0</ele><time>2026-05-03T08:09:35.874Z</time></trkpt><trkpt lat="44.6458683" lon="10.6688183"><ele>65.0</ele><time>2026-05-03T08:09:36.875Z</time></trkpt><trkpt lat="44.6457083" lon="10.6689983"><ele>65.0</ele><time>2026-05-03T08:09:37.875Z</time></trkpt><trkpt lat="44.6455317" lon="10.66916"><ele>65.0</ele><time>2026-05-03T08:09:38.875Z</time></trkpt><trkpt lat="44.6453533" lon="10.6693133"><ele>65.0</ele><time>2026-05-03T08:09:39.874Z</time></trkpt><trkpt lat="44.645175" lon="10.669465"><ele>65.0</ele><time>2026-05-03T08:09:40.874Z</time></trkpt><trkpt lat="44.6450033" lon="10.6696083"><ele>65.0</ele><time>2026-05-03T08:09:41.874Z</time></trkpt><trkpt lat="44.64484" lon="10.6697517"><ele>65.0</ele><time>2026-05-03T08:09:42.875Z</time></trkpt><trkpt lat="44.64468" lon="10.66988"><ele>65.0</ele><time>2026-05-03T08:09:43.875Z</time></trkpt><trkpt lat="44.6445333" lon="10.6699983"><ele>65.0</ele><time>2026-05-03T08:09:44.875Z</time></trkpt><trkpt lat="44.6443967" lon="10.670115"><ele>65.0</ele><time>2026-05-03T08:09:45.874Z</time></trkpt><trkpt lat="44.64427" lon="10.670235"><ele>65.0</ele><time>2026-05-03T08:09:46.874Z</time></trkpt><trkpt lat="44.6441317" lon="10.6703567"><ele>65.0</ele><time>2026-05-03T08:09:47.874Z</time></trkpt><trkpt lat="44.644" lon="10.6704783"><ele>65.33333333333334</ele><time>2026-05-03T08:09:48.875Z</time></trkpt><trkpt lat="44.64387" lon="10.6706067"><ele>65.66666666666667</ele><time>2026-05-03T08:09:49.875Z</time></trkpt><trkpt lat="44.64374" lon="10.6707383"><ele>66.0</ele><time>2026-05-03T08:09:50.874Z</time></trkpt><trkpt lat="44.6436133" lon="10.670865"><ele>66.0</ele><time>2026-05-03T08:09:51.875Z</time></trkpt><trkpt lat="44.6434867" lon="10.671"><ele>66.0</ele><time>2026-05-03T08:09:52.875Z</time></trkpt><trkpt lat="44.6433667" lon="10.6711317"><ele>66.0</ele><time>2026-05-03T08:09:53.874Z</time></trkpt><trkpt lat="44.6432467" lon="10.6712633"><ele>66.0</ele><time>2026-05-03T08:09:54.874Z</time></trkpt><trkpt lat="44.6431283" lon="10.6714017"><ele>66.0</ele><time>2026-05-03T08:09:55.874Z</time></trkpt><trkpt lat="44.643005" lon="10.671535"><ele>66.0</ele><time>2026-05-03T08:09:56.875Z</time></trkpt><trkpt lat="44.6428817" lon="10.67167"><ele>66.0</ele><time>2026-05-03T08:09:57.875Z</time></trkpt><trkpt lat="44.6427633" lon="10.6718067"><ele>66.0</ele><time>2026-05-03T08:09:58.874Z</time></trkpt><trkpt lat="44.6426333" lon="10.671955"><ele>66.0</ele><time>2026-05-03T08:09:59.874Z</time></trkpt><trkpt lat="44.6425083" lon="10.6720983"><ele>66.0</ele><time>2026-05-03T08:10:00.874Z</time></trkpt><trkpt lat="44.642375" lon="10.6722433"><ele>66.0</ele><time>2026-05-03T08:10:01.875Z</time></trkpt><trkpt lat="44.6422417" lon="10.6724033"><ele>66.0</ele><time>2026-05-03T08:10:02.875Z</time></trkpt><trkpt lat="44.6421117" lon="10.6725533"><ele>66.0</ele><time>2026-05-03T08:10:03.875Z</time></trkpt><trkpt lat="44.6419833" lon="10.672695"><ele>66.0</ele><time>2026-05-03T08:10:04.874Z</time></trkpt><trkpt lat="44.6418483" lon="10.6728467"><ele>66.0</ele><time>2026-05-03T08:10:05.875Z</time></trkpt><trkpt lat="44.6417133" lon="10.6729917"><ele>66.66666666666667</ele><time>2026-05-03T08:10:06.875Z</time></trkpt><trkpt lat="44.6415917" lon="10.6731383"><ele>67.33333333333334</ele><time>2026-05-03T08:10:07.874Z</time></trkpt><trkpt lat="44.6414567" lon="10.6732867"><ele>68.0</ele><time>2026-05-03T08:10:08.875Z</time></trkpt><trkpt lat="44.6413167" lon="10.6734417"><ele>68.0</ele><time>2026-05-03T08:10:09.874Z</time></trkpt><trkpt lat="44.641175" lon="10.673585"><ele>68.0</ele><time>2026-05-03T08:10:10.874Z</time></trkpt><trkpt lat="44.64105" lon="10.67373"><ele>68.0</ele><time>2026-05-03T08:10:11.874Z</time></trkpt><trkpt lat="44.6409217" lon="10.6738767"><ele>67.33333333333334</ele><time>2026-05-03T08:10:12.875Z</time></trkpt><trkpt lat="44.640795" lon="10.6740133"><ele>66.66666666666667</ele><time>2026-05-03T08:10:13.874Z</time></trkpt><trkpt lat="44.64067" lon="10.6741517"><ele>66.0</ele><time>2026-05-03T08:10:14.874Z</time></trkpt><trkpt lat="44.640545" lon="10.6742867"><ele>66.0</ele><time>2026-05-03T08:10:15.874Z</time></trkpt><trkpt lat="44.640425" lon="10.6744233"><ele>66.0</ele><time>2026-05-03T08:10:16.875Z</time></trkpt><trkpt lat="44.64031" lon="10.67455"><ele>66.0</ele><time>2026-05-03T08:10:17.875Z</time></trkpt><trkpt lat="44.6401983" lon="10.6746767"><ele>66.0</ele><time>2026-05-03T08:10:18.874Z</time></trkpt><trkpt lat="44.6400983" lon="10.67478"><ele>66.39999999999999</ele><time>2026-05-03T08:10:19.875Z</time></trkpt><trkpt lat="44.6400067" lon="10.6748783"><ele>66.8</ele><time>2026-05-03T08:10:20.875Z</time></trkpt><trkpt lat="44.6399317" lon="10.6749467"><ele>67.19999999999999</ele><time>2026-05-03T08:10:21.874Z</time></trkpt><trkpt lat="44.639865" lon="10.67501"><ele>67.6</ele><time>2026-05-03T08:10:22.874Z</time></trkpt><trkpt lat="44.6398067" lon="10.6750617"><ele>68.0</ele><time>2026-05-03T08:10:23.875Z</time></trkpt><trkpt lat="44.6397017" lon="10.6750283"><ele>68.0</ele><time>2026-05-03T08:10:25.875Z</time></trkpt><trkpt lat="44.63964" lon="10.6749483"><ele>68.0</ele><time>2026-05-03T08:10:26.875Z</time></trkpt><trkpt lat="44.639575" lon="10.674835"><ele>68.0</ele><time>2026-05-03T08:10:27.875Z</time></trkpt><trkpt lat="44.6394983" lon="10.6747117"><ele>68.0</ele><time>2026-05-03T08:10:28.874Z</time></trkpt><trkpt lat="44.6394117" lon="10.6745967"><ele>68.0</ele><time>2026-05-03T08:10:29.874Z</time></trkpt><trkpt lat="44.6393183" lon="10.6744683"><ele>68.25</ele><time>2026-05-03T08:10:30.874Z</time></trkpt><trkpt lat="44.6392283" lon="10.6743133"><ele>68.5</ele><time>2026-05-03T08:10:31.875Z</time></trkpt><trkpt lat="44.6391467" lon="10.674145"><ele>68.75</ele><time>2026-05-03T08:10:32.875Z</time></trkpt><trkpt lat="44.6390667" lon="10.67396"><ele>69.0</ele><time>2026-05-03T08:10:33.874Z</time></trkpt><trkpt lat="44.63899" lon="10.673785"><ele>69.0</ele><time>2026-05-03T08:10:34.875Z</time></trkpt><trkpt lat="44.63891" lon="10.6736283"><ele>69.0</ele><time>2026-05-03T08:10:35.874Z</time></trkpt><trkpt lat="44.6388417" lon="10.6734767"><ele>69.0</ele><time>2026-05-03T08:10:36.875Z</time></trkpt><trkpt lat="44.6387883" lon="10.6733233"><ele>69.0</ele><time>2026-05-03T08:10:37.874Z</time></trkpt><trkpt lat="44.638755" lon="10.67316"><ele>68.75</ele><time>2026-05-03T08:10:38.875Z</time></trkpt><trkpt lat="44.6387333" lon="10.6729767"><ele>68.5</ele><time>2026-05-03T08:10:39.875Z</time></trkpt><trkpt lat="44.6387617" lon="10.67278"><ele>68.25</ele><time>2026-05-03T08:10:40.875Z</time></trkpt><trkpt lat="44.6388317" lon="10.672615"><ele>68.0</ele><time>2026-05-03T08:10:41.875Z</time></trkpt><trkpt lat="44.63892" lon="10.6724933"><ele>68.0</ele><time>2026-05-03T08:10:42.874Z</time></trkpt><trkpt lat="44.639" lon="10.6723767"><ele>68.0</ele><time>2026-05-03T08:10:43.874Z</time></trkpt><trkpt lat="44.6390517" lon="10.6722533"><ele>68.0</ele><time>2026-05-03T08:10:44.875Z</time></trkpt><trkpt lat="44.6390567" lon="10.67214"><ele>68.0</ele><time>2026-05-03T08:10:45.874Z</time></trkpt><trkpt lat="44.639025" lon="10.6720267"><ele>68.0</ele><time>2026-05-03T08:10:46.875Z</time></trkpt><trkpt lat="44.63895" lon="10.6719317"><ele>68.5</ele><time>2026-05-03T08:10:47.875Z</time></trkpt><trkpt lat="44.6388317" lon="10.6718533"><ele>69.0</ele><time>2026-05-03T08:10:48.875Z</time></trkpt><trkpt lat="44.6387033" lon="10.67176"><ele>69.5</ele><time>2026-05-03T08:10:49.875Z</time></trkpt><trkpt lat="44.6385683" lon="10.6716567"><ele>70.0</ele><time>2026-05-03T08:10:50.875Z</time></trkpt><trkpt lat="44.6384317" lon="10.6715517"><ele>68.66666666666666</ele><time>2026-05-03T08:10:51.875Z</time></trkpt><trkpt lat="44.6382917" lon="10.6714433"><ele>67.33333333333333</ele><time>2026-05-03T08:10:52.875Z</time></trkpt><trkpt lat="44.6381517" lon="10.67132"><ele>66.0</ele><time>2026-05-03T08:10:53.875Z</time></trkpt><trkpt lat="44.638" lon="10.6711933"><ele>66.66666666666667</ele><time>2026-05-03T08:10:54.874Z</time></trkpt><trkpt lat="44.6378417" lon="10.6710667"><ele>67.33333333333334</ele><time>2026-05-03T08:10:55.875Z</time></trkpt><trkpt lat="44.637685" lon="10.6709383"><ele>68.0</ele><time>2026-05-03T08:10:56.875Z</time></trkpt><trkpt lat="44.6375367" lon="10.670815"><ele>68.0</ele><time>2026-05-03T08:10:57.875Z</time></trkpt><trkpt lat="44.6373883" lon="10.6706867"><ele>68.0</ele><time>2026-05-03T08:10:58.875Z</time></trkpt><trkpt lat="44.6372483" lon="10.6705633"><ele>68.0</ele><time>2026-05-03T08:10:59.875Z</time></trkpt><trkpt lat="44.63711" lon="10.670435"><ele>69.0</ele><time>2026-05-03T08:11:00.874Z</time></trkpt><trkpt lat="44.6369667" lon="10.6703033"><ele>70.0</ele><time>2026-05-03T08:11:01.875Z</time></trkpt><trkpt lat="44.6368317" lon="10.6701867"><ele>71.0</ele><time>2026-05-03T08:11:02.875Z</time></trkpt><trkpt lat="44.636705" lon="10.670075"><ele>71.25</ele><time>2026-05-03T08:11:03.874Z</time></trkpt><trkpt lat="44.6365933" lon="10.66998"><ele>71.5</ele><time>2026-05-03T08:11:04.875Z</time></trkpt><trkpt lat="44.6365" lon="10.6699017"><ele>71.75</ele><time>2026-05-03T08:11:05.874Z</time></trkpt><trkpt lat="44.636405" lon="10.6698117"><ele>72.0</ele><time>2026-05-03T08:11:06.875Z</time></trkpt><trkpt lat="44.63634" lon="10.669705"><ele>72.0</ele><time>2026-05-03T08:11:07.874Z</time></trkpt><trkpt lat="44.63631" lon="10.66958"><ele>72.0</ele><time>2026-05-03T08:11:08.874Z</time></trkpt><trkpt lat="44.6363117" lon="10.669425"><ele>72.0</ele><time>2026-05-03T08:11:09.875Z</time></trkpt><trkpt lat="44.6363517" lon="10.6692533"><ele>72.0</ele><time>2026-05-03T08:11:10.875Z</time></trkpt><trkpt lat="44.6364133" lon="10.6690883"><ele>71.8</ele><time>2026-05-03T08:11:11.875Z</time></trkpt><trkpt lat="44.6364717" lon="10.6689383"><ele>71.6</ele><time>2026-05-03T08:11:12.874Z</time></trkpt><trkpt lat="44.6365017" lon="10.6687817"><ele>71.39999999999999</ele><time>2026-05-03T08:11:13.875Z</time></trkpt><trkpt lat="44.6365017" lon="10.6686467"><ele>71.2</ele><time>2026-05-03T08:11:14.874Z</time></trkpt><trkpt lat="44.6364683" lon="10.6685317"><ele>71.0</ele><time>2026-05-03T08:11:15.875Z</time></trkpt><trkpt lat="44.6364083" lon="10.6684483"><ele>71.0</ele><time>2026-05-03T08:11:16.874Z</time></trkpt><trkpt lat="44.6363167" lon="10.66837"><ele>71.0</ele><time>2026-05-03T08:11:17.875Z</time></trkpt><trkpt lat="44.63619" lon="10.6683"><ele>71.0</ele><time>2026-05-03T08:11:18.874Z</time></trkpt><trkpt lat="44.63605" lon="10.66823"><ele>71.0</ele><time>2026-05-03T08:11:19.874Z</time></trkpt><trkpt lat="44.63591" lon="10.6681417"><ele>70.66666666666667</ele><time>2026-05-03T08:11:20.875Z</time></trkpt><trkpt lat="44.6357733" lon="10.668055"><ele>70.33333333333333</ele><time>2026-05-03T08:11:21.875Z</time></trkpt><trkpt lat="44.6356333" lon="10.6679567"><ele>70.0</ele><time>2026-05-03T08:11:22.875Z</time></trkpt><trkpt lat="44.6355033" lon="10.6678433"><ele>70.66666666666666</ele><time>2026-05-03T08:11:23.874Z</time></trkpt><trkpt lat="44.6353833" lon="10.66771"><ele>71.33333333333333</ele><time>2026-05-03T08:11:24.874Z</time></trkpt><trkpt lat="44.6352767" lon="10.6675617"><ele>72.0</ele><time>2026-05-03T08:11:25.874Z</time></trkpt><trkpt lat="44.6351717" lon="10.6674133"><ele>73.0</ele><time>2026-05-03T08:11:26.874Z</time></trkpt><trkpt lat="44.635045" lon="10.6672833"><ele>74.0</ele><time>2026-05-03T08:11:27.875Z</time></trkpt><trkpt lat="44.6349117" lon="10.667165"><ele>75.0</ele><time>2026-05-03T08:11:28.875Z</time></trkpt><trkpt lat="44.6347767" lon="10.6670483"><ele>75.0</ele><time>2026-05-03T08:11:29.874Z</time></trkpt><trkpt lat="44.6346417" lon="10.6669367"><ele>75.0</ele><time>2026-05-03T08:11:30.875Z</time></trkpt><trkpt lat="44.6345167" lon="10.6668183"><ele>75.0</ele><time>2026-05-03T08:11:31.875Z</time></trkpt><trkpt lat="44.6343833" lon="10.6667133"><ele>75.0</ele><time>2026-05-03T08:11:32.874Z</time></trkpt><trkpt lat="44.634255" lon="10.66661"><ele>75.0</ele><time>2026-05-03T08:11:33.875Z</time></trkpt><trkpt lat="44.6341367" lon="10.6665017"><ele>75.0</ele><time>2026-05-03T08:11:34.875Z</time></trkpt><trkpt lat="44.6340183" lon="10.6663983"><ele>75.0</ele><time>2026-05-03T08:11:35.874Z</time></trkpt><trkpt lat="44.6339" lon="10.6662933"><ele>75.0</ele><time>2026-05-03T08:11:36.874Z</time></trkpt><trkpt lat="44.6337683" lon="10.6661817"><ele>75.0</ele><time>2026-05-03T08:11:37.874Z</time></trkpt><trkpt lat="44.6336483" lon="10.6660617"><ele>75.0</ele><time>2026-05-03T08:11:38.875Z</time></trkpt><trkpt lat="44.6335183" lon="10.6659317"><ele>75.33333333333333</ele><time>2026-05-03T08:11:39.875Z</time></trkpt><trkpt lat="44.6333817" lon="10.6658033"><ele>75.66666666666666</ele><time>2026-05-03T08:11:40.874Z</time></trkpt><trkpt lat="44.6332417" lon="10.665685"><ele>76.0</ele><time>2026-05-03T08:11:41.874Z</time></trkpt><trkpt lat="44.6331033" lon="10.6655583"><ele>76.0</ele><time>2026-05-03T08:11:42.875Z</time></trkpt><trkpt lat="44.6329667" lon="10.6654317"><ele>76.0</ele><time>2026-05-03T08:11:43.875Z</time></trkpt><trkpt lat="44.63283" lon="10.6653017"><ele>76.0</ele><time>2026-05-03T08:11:44.874Z</time></trkpt><trkpt lat="44.63268" lon="10.6651683"><ele>76.66666666666666</ele><time>2026-05-03T08:11:45.875Z</time></trkpt><trkpt lat="44.6325383" lon="10.6650383"><ele>77.33333333333333</ele><time>2026-05-03T08:11:46.875Z</time></trkpt><trkpt lat="44.6324033" lon="10.6649167"><ele>78.0</ele><time>2026-05-03T08:11:47.875Z</time></trkpt><trkpt lat="44.63227" lon="10.6647917"><ele>78.0</ele><time>2026-05-03T08:11:48.874Z</time></trkpt><trkpt lat="44.6321483" lon="10.6646583"><ele>78.0</ele><time>2026-05-03T08:11:49.875Z</time></trkpt><trkpt lat="44.6320317" lon="10.6645133"><ele>78.0</ele><time>2026-05-03T08:11:50.875Z</time></trkpt><trkpt lat="44.631915" lon="10.6643717"><ele>79.0</ele><time>2026-05-03T08:11:51.875Z</time></trkpt><trkpt lat="44.6318" lon="10.6642233"><ele>80.0</ele><time>2026-05-03T08:11:52.875Z</time></trkpt><trkpt lat="44.6316867" lon="10.664075"><ele>81.0</ele><time>2026-05-03T08:11:53.874Z</time></trkpt><trkpt lat="44.6315817" lon="10.6639383"><ele>81.0</ele><time>2026-05-03T08:11:54.875Z</time></trkpt><trkpt lat="44.6314833" lon="10.6638067"><ele>81.0</ele><time>2026-05-03T08:11:55.875Z</time></trkpt><trkpt lat="44.6313833" lon="10.6636933"><ele>81.0</ele><time>2026-05-03T08:11:56.874Z</time></trkpt><trkpt lat="44.6313083" lon="10.6635917"><ele>81.0</ele><time>2026-05-03T08:11:57.875Z</time></trkpt><trkpt lat="44.6312467" lon="10.6634983"><ele>81.4</ele><time>2026-05-03T08:11:58.875Z</time></trkpt><trkpt lat="44.6312017" lon="10.66341"><ele>81.8</ele><time>2026-05-03T08:11:59.875Z</time></trkpt><trkpt lat="44.6311883" lon="10.6633217"><ele>82.2</ele><time>2026-05-03T08:12:00.875Z</time></trkpt><trkpt lat="44.6312117" lon="10.66313"><ele>82.60000000000001</ele><time>2026-05-03T08:12:02.875Z</time></trkpt><trkpt lat="44.6312017" lon="10.6630333"><ele>83.0</ele><time>2026-05-03T08:12:03.874Z</time></trkpt><trkpt lat="44.6311133" lon="10.6629267"><ele>83.0</ele><time>2026-05-03T08:12:05.874Z</time></trkpt><trkpt lat="44.6310367" lon="10.6629333"><ele>83.0</ele><time>2026-05-03T08:12:06.875Z</time></trkpt><trkpt lat="44.630945" lon="10.662925"><ele>83.0</ele><time>2026-05-03T08:12:07.874Z</time></trkpt><trkpt lat="44.6308583" lon="10.6628733"><ele>83.0</ele><time>2026-05-03T08:12:08.874Z</time></trkpt><trkpt lat="44.630765" lon="10.6628"><ele>83.0</ele><time>2026-05-03T08:12:09.875Z</time></trkpt><trkpt lat="44.6306783" lon="10.6627117"><ele>83.0</ele><time>2026-05-03T08:12:10.875Z</time></trkpt><trkpt lat="44.630595" lon="10.6626067"><ele>83.0</ele><time>2026-05-03T08:12:11.874Z</time></trkpt><trkpt lat="44.6305017" lon="10.662485"><ele>83.0</ele><time>2026-05-03T08:12:12.875Z</time></trkpt><trkpt lat="44.6304" lon="10.6623717"><ele>83.0</ele><time>2026-05-03T08:12:13.875Z</time></trkpt><trkpt lat="44.63029" lon="10.66227"><ele>83.0</ele><time>2026-05-03T08:12:14.874Z</time></trkpt><trkpt lat="44.6301783" lon="10.6621667"><ele>83.0</ele><time>2026-05-03T08:12:15.875Z</time></trkpt><trkpt lat="44.6300567" lon="10.6620567"><ele>83.0</ele><time>2026-05-03T08:12:16.875Z</time></trkpt><trkpt lat="44.6299283" lon="10.661945"><ele>83.0</ele><time>2026-05-03T08:12:17.874Z</time></trkpt><trkpt lat="44.6298083" lon="10.6618383"><ele>83.25</ele><time>2026-05-03T08:12:18.875Z</time></trkpt><trkpt lat="44.6296783" lon="10.661735"><ele>83.5</ele><time>2026-05-03T08:12:19.875Z</time></trkpt><trkpt lat="44.6295483" lon="10.6616417"><ele>83.75</ele><time>2026-05-03T08:12:20.875Z</time></trkpt><trkpt lat="44.629415" lon="10.6615483"><ele>84.0</ele><time>2026-05-03T08:12:21.875Z</time></trkpt><trkpt lat="44.6292867" lon="10.661455"><ele>84.5</ele><time>2026-05-03T08:12:22.874Z</time></trkpt><trkpt lat="44.629155" lon="10.6613733"><ele>85.0</ele><time>2026-05-03T08:12:23.875Z</time></trkpt><trkpt lat="44.629025" lon="10.6612733"><ele>85.5</ele><time>2026-05-03T08:12:24.874Z</time></trkpt><trkpt lat="44.628885" lon="10.6611833"><ele>86.0</ele><time>2026-05-03T08:12:25.875Z</time></trkpt><trkpt lat="44.6287483" lon="10.6610883"><ele>87.0</ele><time>2026-05-03T08:12:26.874Z</time></trkpt><trkpt lat="44.6286183" lon="10.6609917"><ele>88.0</ele><time>2026-05-03T08:12:27.874Z</time></trkpt><trkpt lat="44.6284783" lon="10.660905"><ele>89.0</ele><time>2026-05-03T08:12:28.875Z</time></trkpt><trkpt lat="44.628335" lon="10.6608317"><ele>89.0</ele><time>2026-05-03T08:12:29.875Z</time></trkpt><trkpt lat="44.6281967" lon="10.660765"><ele>89.0</ele><time>2026-05-03T08:12:30.874Z</time></trkpt><trkpt lat="44.628055" lon="10.6606967"><ele>89.0</ele><time>2026-05-03T08:12:31.875Z</time></trkpt><trkpt lat="44.6279183" lon="10.660635"><ele>89.0</ele><time>2026-05-03T08:12:32.875Z</time></trkpt><trkpt lat="44.6277767" lon="10.6605667"><ele>89.0</ele><time>2026-05-03T08:12:33.875Z</time></trkpt><trkpt lat="44.62764" lon="10.66051"><ele>89.0</ele><time>2026-05-03T08:12:34.875Z</time></trkpt><trkpt lat="44.627515" lon="10.6604567"><ele>89.0</ele><time>2026-05-03T08:12:35.874Z</time></trkpt><trkpt lat="44.6273967" lon="10.6604083"><ele>89.0</ele><time>2026-05-03T08:12:36.875Z</time></trkpt><trkpt lat="44.6272883" lon="10.6603583"><ele>89.0</ele><time>2026-05-03T08:12:37.875Z</time></trkpt><trkpt lat="44.6271717" lon="10.6603267"><ele>89.0</ele><time>2026-05-03T08:12:38.875Z</time></trkpt><trkpt lat="44.627045" lon="10.6603267"><ele>89.0</ele><time>2026-05-03T08:12:39.874Z</time></trkpt><trkpt lat="44.6269117" lon="10.660345"><ele>89.0</ele><time>2026-05-03T08:12:40.875Z</time></trkpt><trkpt lat="44.6267733" lon="10.6603667"><ele>89.5</ele><time>2026-05-03T08:12:41.875Z</time></trkpt><trkpt lat="44.62664" lon="10.6603917"><ele>90.0</ele><time>2026-05-03T08:12:42.875Z</time></trkpt><trkpt lat="44.626505" lon="10.6604133"><ele>90.5</ele><time>2026-05-03T08:12:43.875Z</time></trkpt><trkpt lat="44.6263683" lon="10.66042"><ele>91.0</ele><time>2026-05-03T08:12:44.875Z</time></trkpt><trkpt lat="44.6262267" lon="10.660405"><ele>91.5</ele><time>2026-05-03T08:12:45.874Z</time></trkpt><trkpt lat="44.6260917" lon="10.660365"><ele>92.0</ele><time>2026-05-03T08:12:46.874Z</time></trkpt><trkpt lat="44.62595" lon="10.660315"><ele>92.5</ele><time>2026-05-03T08:12:47.875Z</time></trkpt><trkpt lat="44.6258017" lon="10.660255"><ele>93.0</ele><time>2026-05-03T08:12:48.875Z</time></trkpt><trkpt lat="44.6256383" lon="10.6602017"><ele>93.0</ele><time>2026-05-03T08:12:49.875Z</time></trkpt><trkpt lat="44.6254833" lon="10.6601433"><ele>93.0</ele><time>2026-05-03T08:12:50.875Z</time></trkpt><trkpt lat="44.6253217" lon="10.66007"><ele>93.0</ele><time>2026-05-03T08:12:51.875Z</time></trkpt><trkpt lat="44.6251567" lon="10.660005"><ele>93.33333333333333</ele><time>2026-05-03T08:12:52.874Z</time></trkpt><trkpt lat="44.624985" lon="10.6599517"><ele>93.66666666666666</ele><time>2026-05-03T08:12:53.875Z</time></trkpt><trkpt lat="44.62482" lon="10.6598883"><ele>94.0</ele><time>2026-05-03T08:12:54.875Z</time></trkpt><trkpt lat="44.6246617" lon="10.6598233"><ele>94.0</ele><time>2026-05-03T08:12:55.874Z</time></trkpt><trkpt lat="44.6245017" lon="10.6597583"><ele>94.0</ele><time>2026-05-03T08:12:56.875Z</time></trkpt><trkpt lat="44.6243417" lon="10.6597017"><ele>94.0</ele><time>2026-05-03T08:12:57.875Z</time></trkpt><trkpt lat="44.6241817" lon="10.659635"><ele>94.0</ele><time>2026-05-03T08:12:58.875Z</time></trkpt><trkpt lat="44.6240133" lon="10.6595733"><ele>94.0</ele><time>2026-05-03T08:12:59.875Z</time></trkpt><trkpt lat="44.6238417" lon="10.6595133"><ele>94.0</ele><time>2026-05-03T08:13:00.874Z</time></trkpt><trkpt lat="44.62367" lon="10.6594417"><ele>94.33333333333333</ele><time>2026-05-03T08:13:01.875Z</time></trkpt><trkpt lat="44.62349" lon="10.6593717"><ele>94.66666666666667</ele><time>2026-05-03T08:13:02.875Z</time></trkpt><trkpt lat="44.6233117" lon="10.6593"><ele>95.0</ele><time>2026-05-03T08:13:03.875Z</time></trkpt><trkpt lat="44.6231317" lon="10.65923"><ele>95.0</ele><time>2026-05-03T08:13:04.874Z</time></trkpt><trkpt lat="44.6229467" lon="10.6591433"><ele>95.0</ele><time>2026-05-03T08:13:05.875Z</time></trkpt><trkpt lat="44.62276" lon="10.6590483"><ele>95.0</ele><time>2026-05-03T08:13:06.875Z</time></trkpt><trkpt lat="44.6225733" lon="10.6589483"><ele>95.66666666666667</ele><time>2026-05-03T08:13:07.874Z</time></trkpt><trkpt lat="44.6223883" lon="10.6588533"><ele>96.33333333333334</ele><time>2026-05-03T08:13:08.875Z</time></trkpt><trkpt lat="44.6221983" lon="10.6587517"><ele>97.0</ele><time>2026-05-03T08:13:09.874Z</time></trkpt><trkpt lat="44.62201" lon="10.65865"><ele>97.33333333333334</ele><time>2026-05-03T08:13:10.875Z</time></trkpt><trkpt lat="44.6218217" lon="10.6585517"><ele>97.66666666666666</ele><time>2026-05-03T08:13:11.875Z</time></trkpt><trkpt lat="44.6216333" lon="10.6584533"><ele>98.0</ele><time>2026-05-03T08:13:12.874Z</time></trkpt><trkpt lat="44.6214417" lon="10.6583533"><ele>98.0</ele><time>2026-05-03T08:13:13.874Z</time></trkpt><trkpt lat="44.62125" lon="10.65825"><ele>98.0</ele><time>2026-05-03T08:13:14.875Z</time></trkpt><trkpt lat="44.6210583" lon="10.65815"><ele>98.0</ele><time>2026-05-03T08:13:15.875Z</time></trkpt><trkpt lat="44.6208683" lon="10.6580533"><ele>98.66666666666666</ele><time>2026-05-03T08:13:16.874Z</time></trkpt><trkpt lat="44.6206833" lon="10.6579567"><ele>99.33333333333334</ele><time>2026-05-03T08:13:17.875Z</time></trkpt><trkpt lat="44.6204983" lon="10.6578567"><ele>100.0</ele><time>2026-05-03T08:13:18.875Z</time></trkpt><trkpt lat="44.6203183" lon="10.6577583"><ele>100.66666666666667</ele><time>2026-05-03T08:13:19.875Z</time></trkpt><trkpt lat="44.6201367" lon="10.6576633"><ele>101.33333333333334</ele><time>2026-05-03T08:13:20.875Z</time></trkpt><trkpt lat="44.6199567" lon="10.6575717"><ele>102.0</ele><time>2026-05-03T08:13:21.875Z</time></trkpt><trkpt lat="44.6197833" lon="10.657495"><ele>102.0</ele><time>2026-05-03T08:13:22.875Z</time></trkpt><trkpt lat="44.6196067" lon="10.6574183"><ele>102.0</ele><time>2026-05-03T08:13:23.875Z</time></trkpt><trkpt lat="44.6194217" lon="10.6573517"><ele>102.0</ele><time>2026-05-03T08:13:24.874Z</time></trkpt><trkpt lat="44.6192367" lon="10.657285"><ele>102.66666666666666</ele><time>2026-05-03T08:13:25.875Z</time></trkpt><trkpt lat="44.61905" lon="10.6572217"><ele>103.33333333333333</ele><time>2026-05-03T08:13:26.874Z</time></trkpt><trkpt lat="44.61887" lon="10.657165"><ele>104.0</ele><time>2026-05-03T08:13:27.875Z</time></trkpt><trkpt lat="44.6186883" lon="10.65711"><ele>105.0</ele><time>2026-05-03T08:13:28.875Z</time></trkpt><trkpt lat="44.6185083" lon="10.6570467"><ele>106.0</ele><time>2026-05-03T08:13:29.874Z</time></trkpt><trkpt lat="44.618325" lon="10.65699"><ele>107.0</ele><time>2026-05-03T08:13:30.875Z</time></trkpt><trkpt lat="44.61814" lon="10.656935"><ele>107.0</ele><time>2026-05-03T08:13:31.875Z</time></trkpt><trkpt lat="44.6179533" lon="10.6568833"><ele>107.0</ele><time>2026-05-03T08:13:32.875Z</time></trkpt><trkpt lat="44.6177783" lon="10.6568283"><ele>107.0</ele><time>2026-05-03T08:13:33.874Z</time></trkpt><trkpt lat="44.617595" lon="10.65677"><ele>107.66666666666666</ele><time>2026-05-03T08:13:34.875Z</time></trkpt><trkpt lat="44.61741" lon="10.656715"><ele>108.33333333333334</ele><time>2026-05-03T08:13:35.874Z</time></trkpt><trkpt lat="44.617225" lon="10.656655"><ele>109.0</ele><time>2026-05-03T08:13:36.874Z</time></trkpt><trkpt lat="44.61704" lon="10.6566"><ele>109.33333333333334</ele><time>2026-05-03T08:13:37.875Z</time></trkpt><trkpt lat="44.616855" lon="10.6565433"><ele>109.66666666666666</ele><time>2026-05-03T08:13:38.874Z</time></trkpt><trkpt lat="44.6166683" lon="10.6564867"><ele>110.0</ele><time>2026-05-03T08:13:39.874Z</time></trkpt><trkpt lat="44.61648" lon="10.6564283"><ele>110.0</ele><time>2026-05-03T08:13:40.874Z</time></trkpt><trkpt lat="44.61629" lon="10.6563667"><ele>110.0</ele><time>2026-05-03T08:13:41.875Z</time></trkpt><trkpt lat="44.6161017" lon="10.6563067"><ele>110.0</ele><time>2026-05-03T08:13:42.874Z</time></trkpt><trkpt lat="44.61591" lon="10.656245"><ele>110.66666666666666</ele><time>2026-05-03T08:13:43.875Z</time></trkpt><trkpt lat="44.6157217" lon="10.6561883"><ele>111.33333333333334</ele><time>2026-05-03T08:13:44.874Z</time></trkpt><trkpt lat="44.6155333" lon="10.6561383"><ele>112.0</ele><time>2026-05-03T08:13:45.875Z</time></trkpt><trkpt lat="44.6153433" lon="10.6560967"><ele>112.33333333333334</ele><time>2026-05-03T08:13:46.874Z</time></trkpt><trkpt lat="44.6151567" lon="10.6560517"><ele>112.66666666666666</ele><time>2026-05-03T08:13:47.874Z</time></trkpt><trkpt lat="44.6149683" lon="10.6560033"><ele>113.0</ele><time>2026-05-03T08:13:48.875Z</time></trkpt><trkpt lat="44.61477" lon="10.655945"><ele>113.0</ele><time>2026-05-03T08:13:49.875Z</time></trkpt><trkpt lat="44.61458" lon="10.6558983"><ele>113.0</ele><time>2026-05-03T08:13:50.874Z</time></trkpt><trkpt lat="44.6143867" lon="10.6558533"><ele>113.0</ele><time>2026-05-03T08:13:51.874Z</time></trkpt><trkpt lat="44.6141933" lon="10.6558117"><ele>113.66666666666666</ele><time>2026-05-03T08:13:52.875Z</time></trkpt><trkpt lat="44.6140017" lon="10.6557683"><ele>114.33333333333334</ele><time>2026-05-03T08:13:53.874Z</time></trkpt><trkpt lat="44.6138117" lon="10.6557233"><ele>115.0</ele><time>2026-05-03T08:13:54.874Z</time></trkpt><trkpt lat="44.613625" lon="10.6556833"><ele>115.0</ele><time>2026-05-03T08:13:55.875Z</time></trkpt><trkpt lat="44.6134383" lon="10.6556267"><ele>115.0</ele><time>2026-05-03T08:13:56.874Z</time></trkpt><trkpt lat="44.61325" lon="10.6555783"><ele>115.0</ele><time>2026-05-03T08:13:57.875Z</time></trkpt><trkpt lat="44.613065" lon="10.6555317"><ele>115.0</ele><time>2026-05-03T08:13:58.875Z</time></trkpt><trkpt lat="44.61288" lon="10.65549"><ele>115.0</ele><time>2026-05-03T08:13:59.875Z</time></trkpt><trkpt lat="44.6126933" lon="10.6554533"><ele>115.0</ele><time>2026-05-03T08:14:00.875Z</time></trkpt><trkpt lat="44.612505" lon="10.6554117"><ele>116.0</ele><time>2026-05-03T08:14:01.875Z</time></trkpt><trkpt lat="44.6123183" lon="10.65537"><ele>117.0</ele><time>2026-05-03T08:14:02.874Z</time></trkpt><trkpt lat="44.6121333" lon="10.6553267"><ele>118.0</ele><time>2026-05-03T08:14:03.874Z</time></trkpt><trkpt lat="44.611945" lon="10.65527"><ele>118.66666666666667</ele><time>2026-05-03T08:14:04.875Z</time></trkpt><trkpt lat="44.611765" lon="10.6552133"><ele>119.33333333333334</ele><time>2026-05-03T08:14:05.875Z</time></trkpt><trkpt lat="44.6115983" lon="10.655165"><ele>120.0</ele><time>2026-05-03T08:14:06.875Z</time></trkpt><trkpt lat="44.6114517" lon="10.6551317"><ele>120.0</ele><time>2026-05-03T08:14:07.875Z</time></trkpt><trkpt lat="44.6113217" lon="10.6551067"><ele>120.0</ele><time>2026-05-03T08:14:08.875Z</time></trkpt><trkpt lat="44.6112133" lon="10.6550883"><ele>120.0</ele><time>2026-05-03T08:14:09.875Z</time></trkpt><trkpt lat="44.6111267" lon="10.6550667"><ele>120.0</ele><time>2026-05-03T08:14:10.874Z</time></trkpt><trkpt lat="44.6110283" lon="10.6550433"><ele>120.0</ele><time>2026-05-03T08:14:12.875Z</time></trkpt><trkpt lat="44.6109383" lon="10.65502"><ele>120.6</ele><time>2026-05-03T08:14:18.875Z</time></trkpt><trkpt lat="44.6108317" lon="10.6550583"><ele>121.2</ele><time>2026-05-03T08:14:20.874Z</time></trkpt><trkpt lat="44.6107483" lon="10.65508"><ele>121.80000000000001</ele><time>2026-05-03T08:14:21.875Z</time></trkpt><trkpt lat="44.61065" lon="10.65511"><ele>122.4</ele><time>2026-05-03T08:14:22.875Z</time></trkpt><trkpt lat="44.6105417" lon="10.6551433"><ele>123.0</ele><time>2026-05-03T08:14:23.874Z</time></trkpt><trkpt lat="44.61043" lon="10.6551917"><ele>123.0</ele><time>2026-05-03T08:14:24.874Z</time></trkpt><trkpt lat="44.61031" lon="10.655245"><ele>123.0</ele><time>2026-05-03T08:14:25.875Z</time></trkpt><trkpt lat="44.61019" lon="10.6552983"><ele>123.0</ele><time>2026-05-03T08:14:26.874Z</time></trkpt><trkpt lat="44.6100533" lon="10.65535"><ele>123.0</ele><time>2026-05-03T08:14:27.874Z</time></trkpt><trkpt lat="44.60991" lon="10.6554083"><ele>122.66666666666666</ele><time>2026-05-03T08:14:28.874Z</time></trkpt><trkpt lat="44.60976" lon="10.6554533"><ele>122.33333333333333</ele><time>2026-05-03T08:14:29.875Z</time></trkpt><trkpt lat="44.609605" lon="10.65549"><ele>122.0</ele><time>2026-05-03T08:14:30.874Z</time></trkpt><trkpt lat="44.60944" lon="10.65552"><ele>122.0</ele><time>2026-05-03T08:14:31.875Z</time></trkpt><trkpt lat="44.60927" lon="10.6555517"><ele>122.0</ele><time>2026-05-03T08:14:32.875Z</time></trkpt><trkpt lat="44.6090983" lon="10.655585"><ele>122.0</ele><time>2026-05-03T08:14:33.874Z</time></trkpt><trkpt lat="44.6089217" lon="10.6556217"><ele>122.0</ele><time>2026-05-03T08:14:34.874Z</time></trkpt><trkpt lat="44.6087433" lon="10.6556533"><ele>122.0</ele><time>2026-05-03T08:14:35.875Z</time></trkpt><trkpt lat="44.608565" lon="10.6556833"><ele>122.0</ele><time>2026-05-03T08:14:36.874Z</time></trkpt><trkpt lat="44.6083817" lon="10.65573"><ele>124.0</ele><time>2026-05-03T08:14:37.875Z</time></trkpt><trkpt lat="44.6082" lon="10.6558"><ele>126.0</ele><time>2026-05-03T08:14:38.875Z</time></trkpt><trkpt lat="44.6080233" lon="10.6558967"><ele>128.0</ele><time>2026-05-03T08:14:39.874Z</time></trkpt><trkpt lat="44.607855" lon="10.6560117"><ele>127.33333333333333</ele><time>2026-05-03T08:14:40.874Z</time></trkpt><trkpt lat="44.60769" lon="10.6561433"><ele>126.66666666666666</ele><time>2026-05-03T08:14:41.875Z</time></trkpt><trkpt lat="44.6075217" lon="10.656275"><ele>126.0</ele><time>2026-05-03T08:14:42.875Z</time></trkpt><trkpt lat="44.6073517" lon="10.6563933"><ele>126.0</ele><time>2026-05-03T08:14:43.875Z</time></trkpt><trkpt lat="44.607175" lon="10.6565117"><ele>126.0</ele><time>2026-05-03T08:14:44.875Z</time></trkpt><trkpt lat="44.6069933" lon="10.6566317"><ele>126.0</ele><time>2026-05-03T08:14:45.875Z</time></trkpt><trkpt lat="44.6068267" lon="10.65674"><ele>126.0</ele><time>2026-05-03T08:14:46.875Z</time></trkpt><trkpt lat="44.6066667" lon="10.6568417"><ele>126.0</ele><time>2026-05-03T08:14:47.875Z</time></trkpt><trkpt lat="44.606515" lon="10.6569483"><ele>126.0</ele><time>2026-05-03T08:14:48.874Z</time></trkpt><trkpt lat="44.6063683" lon="10.657045"><ele>126.0</ele><time>2026-05-03T08:14:49.875Z</time></trkpt><trkpt lat="44.606225" lon="10.6571383"><ele>126.0</ele><time>2026-05-03T08:14:50.875Z</time></trkpt><trkpt lat="44.606085" lon="10.6572183"><ele>126.0</ele><time>2026-05-03T08:14:51.874Z</time></trkpt><trkpt lat="44.6059433" lon="10.657285"><ele>126.0</ele><time>2026-05-03T08:14:52.875Z</time></trkpt><trkpt lat="44.605805" lon="10.6573417"><ele>126.0</ele><time>2026-05-03T08:14:53.874Z</time></trkpt><trkpt lat="44.6056583" lon="10.65739"><ele>126.0</ele><time>2026-05-03T08:14:54.875Z</time></trkpt><trkpt lat="44.60552" lon="10.65743"><ele>126.0</ele><time>2026-05-03T08:14:55.874Z</time></trkpt><trkpt lat="44.6053933" lon="10.65746"><ele>126.6</ele><time>2026-05-03T08:14:56.874Z</time></trkpt><trkpt lat="44.6052783" lon="10.6574817"><ele>127.19999999999999</ele><time>2026-05-03T08:14:57.875Z</time></trkpt><trkpt lat="44.6051783" lon="10.65749"><ele>127.80000000000001</ele><time>2026-05-03T08:14:58.874Z</time></trkpt><trkpt lat="44.6051033" lon="10.65749"><ele>128.4</ele><time>2026-05-03T08:14:59.875Z</time></trkpt><trkpt lat="44.6049983" lon="10.6574333"><ele>129.0</ele><time>2026-05-03T08:15:01.875Z</time></trkpt><trkpt lat="44.6049367" lon="10.6574"><ele>129.0</ele><time>2026-05-03T08:15:02.874Z</time></trkpt><trkpt lat="44.6048583" lon="10.6573983"><ele>129.0</ele><time>2026-05-03T08:15:03.875Z</time></trkpt><trkpt lat="44.6047683" lon="10.657415"><ele>129.0</ele><time>2026-05-03T08:15:04.875Z</time></trkpt><trkpt lat="44.60468" lon="10.657445"><ele>129.0</ele><time>2026-05-03T08:15:05.875Z</time></trkpt><trkpt lat="44.6045883" lon="10.657485"><ele>129.0</ele><time>2026-05-03T08:15:06.875Z</time></trkpt><trkpt lat="44.6044883" lon="10.6575333"><ele>129.0</ele><time>2026-05-03T08:15:07.875Z</time></trkpt><trkpt lat="44.604375" lon="10.657595"><ele>129.0</ele><time>2026-05-03T08:15:08.875Z</time></trkpt><trkpt lat="44.6042567" lon="10.6576567"><ele>129.0</ele><time>2026-05-03T08:15:09.874Z</time></trkpt><trkpt lat="44.6041233" lon="10.657705"><ele>129.0</ele><time>2026-05-03T08:15:10.875Z</time></trkpt><trkpt lat="44.60399" lon="10.6577483"><ele>129.0</ele><time>2026-05-03T08:15:11.874Z</time></trkpt><trkpt lat="44.6038517" lon="10.657805"><ele>129.0</ele><time>2026-05-03T08:15:12.874Z</time></trkpt><trkpt lat="44.6037067" lon="10.657885"><ele>129.0</ele><time>2026-05-03T08:15:13.875Z</time></trkpt><trkpt lat="44.6035567" lon="10.6579833"><ele>129.66666666666666</ele><time>2026-05-03T08:15:14.875Z</time></trkpt><trkpt lat="44.60341" lon="10.6580767"><ele>130.33333333333331</ele><time>2026-05-03T08:15:15.874Z</time></trkpt><trkpt lat="44.603255" lon="10.65817"><ele>131.0</ele><time>2026-05-03T08:15:16.874Z</time></trkpt><trkpt lat="44.6030933" lon="10.6582567"><ele>131.0</ele><time>2026-05-03T08:15:17.875Z</time></trkpt><trkpt lat="44.60294" lon="10.6583383"><ele>131.0</ele><time>2026-05-03T08:15:18.874Z</time></trkpt><trkpt lat="44.6027783" lon="10.6584133"><ele>131.0</ele><time>2026-05-03T08:15:19.875Z</time></trkpt><trkpt lat="44.60262" lon="10.65849"><ele>131.0</ele><time>2026-05-03T08:15:20.874Z</time></trkpt><trkpt lat="44.60246" lon="10.6585633"><ele>131.0</ele><time>2026-05-03T08:15:21.875Z</time></trkpt><trkpt lat="44.6023083" lon="10.65862"><ele>131.0</ele><time>2026-05-03T08:15:22.875Z</time></trkpt><trkpt lat="44.6021633" lon="10.6586767"><ele>130.75</ele><time>2026-05-03T08:15:23.875Z</time></trkpt><trkpt lat="44.60203" lon="10.6587283"><ele>130.5</ele><time>2026-05-03T08:15:24.875Z</time></trkpt><trkpt lat="44.6018933" lon="10.6587883"><ele>130.25</ele><time>2026-05-03T08:15:25.874Z</time></trkpt><trkpt lat="44.6017617" lon="10.6588383"><ele>130.0</ele><time>2026-05-03T08:15:26.874Z</time></trkpt><trkpt lat="44.6016233" lon="10.6588883"><ele>129.75</ele><time>2026-05-03T08:15:27.875Z</time></trkpt><trkpt lat="44.6014817" lon="10.6589417"><ele>129.5</ele><time>2026-05-03T08:15:28.874Z</time></trkpt><trkpt lat="44.601345" lon="10.6589967"><ele>129.25</ele><time>2026-05-03T08:15:29.874Z</time></trkpt><trkpt lat="44.6011983" lon="10.6590517"><ele>129.0</ele><time>2026-05-03T08:15:30.875Z</time></trkpt><trkpt lat="44.6010467" lon="10.6591067"><ele>130.66666666666666</ele><time>2026-05-03T08:15:31.875Z</time></trkpt><trkpt lat="44.6008983" lon="10.6591583"><ele>132.33333333333331</ele><time>2026-05-03T08:15:32.874Z</time></trkpt><trkpt lat="44.600745" lon="10.6592"><ele>134.0</ele><time>2026-05-03T08:15:33.875Z</time></trkpt><trkpt lat="44.6005967" lon="10.6592383"><ele>134.0</ele><time>2026-05-03T08:15:34.875Z</time></trkpt><trkpt lat="44.6004417" lon="10.659265"><ele>134.0</ele><time>2026-05-03T08:15:35.875Z</time></trkpt><trkpt lat="44.6002867" lon="10.659285"><ele>134.0</ele><time>2026-05-03T08:15:36.874Z</time></trkpt><trkpt lat="44.6001333" lon="10.6593033"><ele>133.0</ele><time>2026-05-03T08:15:37.875Z</time></trkpt><trkpt lat="44.59998" lon="10.6593367"><ele>132.0</ele><time>2026-05-03T08:15:38.875Z</time></trkpt><trkpt lat="44.5998267" lon="10.6593833"><ele>131.0</ele><time>2026-05-03T08:15:39.874Z</time></trkpt><trkpt lat="44.5996733" lon="10.6594517"><ele>130.66666666666666</ele><time>2026-05-03T08:15:40.875Z</time></trkpt><trkpt lat="44.5995217" lon="10.65953"><ele>130.33333333333334</ele><time>2026-05-03T08:15:41.875Z</time></trkpt><trkpt lat="44.5993767" lon="10.65961"><ele>130.0</ele><time>2026-05-03T08:15:42.875Z</time></trkpt><trkpt lat="44.5992433" lon="10.6597083"><ele>130.0</ele><time>2026-05-03T08:15:43.874Z</time></trkpt><trkpt lat="44.5991117" lon="10.6598017"><ele>130.0</ele><time>2026-05-03T08:15:44.875Z</time></trkpt><trkpt lat="44.5989867" lon="10.6598967"><ele>130.0</ele><time>2026-05-03T08:15:45.875Z</time></trkpt><trkpt lat="44.5988683" lon="10.6599867"><ele>130.0</ele><time>2026-05-03T08:15:46.874Z</time></trkpt><trkpt lat="44.5987517" lon="10.6600717"><ele>130.0</ele><time>2026-05-03T08:15:47.874Z</time></trkpt><trkpt lat="44.59864" lon="10.6601367"><ele>130.0</ele><time>2026-05-03T08:15:48.874Z</time></trkpt><trkpt lat="44.5985283" lon="10.6601817"><ele>130.0</ele><time>2026-05-03T08:15:49.874Z</time></trkpt><trkpt lat="44.5984167" lon="10.6602033"><ele>130.0</ele><time>2026-05-03T08:15:50.874Z</time></trkpt><trkpt lat="44.5983033" lon="10.6602083"><ele>130.0</ele><time>2026-05-03T08:15:51.874Z</time></trkpt><trkpt lat="44.5981917" lon="10.6602033"><ele>130.0</ele><time>2026-05-03T08:15:52.875Z</time></trkpt><trkpt lat="44.5980867" lon="10.6601983"><ele>130.0</ele><time>2026-05-03T08:15:53.875Z</time></trkpt><trkpt lat="44.5979783" lon="10.6602033"><ele>130.0</ele><time>2026-05-03T08:15:54.875Z</time></trkpt><trkpt lat="44.5978683" lon="10.660205"><ele>130.0</ele><time>2026-05-03T08:15:55.875Z</time></trkpt><trkpt lat="44.5977583" lon="10.6602"><ele>129.2</ele><time>2026-05-03T08:15:56.875Z</time></trkpt><trkpt lat="44.59765" lon="10.6601917"><ele>128.4</ele><time>2026-05-03T08:15:57.875Z</time></trkpt><trkpt lat="44.5975517" lon="10.6602"><ele>127.6</ele><time>2026-05-03T08:15:58.875Z</time></trkpt><trkpt lat="44.5974633" lon="10.6602383"><ele>126.8</ele><time>2026-05-03T08:15:59.875Z</time></trkpt><trkpt lat="44.5973783" lon="10.6603267"><ele>126.0</ele><time>2026-05-03T08:16:00.874Z</time></trkpt><trkpt lat="44.597295" lon="10.6604317"><ele>126.0</ele><time>2026-05-03T08:16:01.874Z</time></trkpt><trkpt lat="44.5972133" lon="10.66054"><ele>126.0</ele><time>2026-05-03T08:16:02.875Z</time></trkpt><trkpt lat="44.5971217" lon="10.660655"><ele>126.0</ele><time>2026-05-03T08:16:03.875Z</time></trkpt><trkpt lat="44.5970283" lon="10.660765"><ele>126.0</ele><time>2026-05-03T08:16:04.874Z</time></trkpt><trkpt lat="44.5969267" lon="10.6608733"><ele>126.0</ele><time>2026-05-03T08:16:05.875Z</time></trkpt><trkpt lat="44.5968183" lon="10.6609817"><ele>126.0</ele><time>2026-05-03T08:16:06.874Z</time></trkpt><trkpt lat="44.5967033" lon="10.6610933"><ele>126.0</ele><time>2026-05-03T08:16:07.875Z</time></trkpt><trkpt lat="44.5965883" lon="10.6612067"><ele>126.0</ele><time>2026-05-03T08:16:08.874Z</time></trkpt><trkpt lat="44.596475" lon="10.6613067"><ele>126.0</ele><time>2026-05-03T08:16:09.875Z</time></trkpt><trkpt lat="44.596355" lon="10.6613883"><ele>126.0</ele><time>2026-05-03T08:16:10.875Z</time></trkpt><trkpt lat="44.5962367" lon="10.6614417"><ele>126.0</ele><time>2026-05-03T08:16:11.874Z</time></trkpt><trkpt lat="44.596125" lon="10.661485"><ele>126.0</ele><time>2026-05-03T08:16:12.875Z</time></trkpt><trkpt lat="44.5960067" lon="10.6615267"><ele>126.0</ele><time>2026-05-03T08:16:13.875Z</time></trkpt><trkpt lat="44.595885" lon="10.6615833"><ele>126.0</ele><time>2026-05-03T08:16:14.875Z</time></trkpt><trkpt lat="44.5957717" lon="10.6616583"><ele>126.0</ele><time>2026-05-03T08:16:15.875Z</time></trkpt><trkpt lat="44.59566" lon="10.6617467"><ele>126.0</ele><time>2026-05-03T08:16:16.875Z</time></trkpt><trkpt lat="44.5955467" lon="10.6618133"><ele>126.0</ele><time>2026-05-03T08:16:17.874Z</time></trkpt><trkpt lat="44.5954267" lon="10.6618883"><ele>126.0</ele><time>2026-05-03T08:16:18.874Z</time></trkpt><trkpt lat="44.5953117" lon="10.661965"><ele>126.0</ele><time>2026-05-03T08:16:19.875Z</time></trkpt><trkpt lat="44.5951933" lon="10.6620583"><ele>126.0</ele><time>2026-05-03T08:16:20.875Z</time></trkpt><trkpt lat="44.5950683" lon="10.6621517"><ele>125.5</ele><time>2026-05-03T08:16:21.874Z</time></trkpt><trkpt lat="44.5949467" lon="10.6622417"><ele>125.0</ele><time>2026-05-03T08:16:22.875Z</time></trkpt><trkpt lat="44.594815" lon="10.66231"><ele>124.5</ele><time>2026-05-03T08:16:23.874Z</time></trkpt><trkpt lat="44.594695" lon="10.66236"><ele>124.0</ele><time>2026-05-03T08:16:24.874Z</time></trkpt><trkpt lat="44.594565" lon="10.66241"><ele>123.25</ele><time>2026-05-03T08:16:25.875Z</time></trkpt><trkpt lat="44.59444" lon="10.6624617"><ele>122.5</ele><time>2026-05-03T08:16:26.875Z</time></trkpt><trkpt lat="44.594325" lon="10.6625283"><ele>121.75</ele><time>2026-05-03T08:16:27.874Z</time></trkpt><trkpt lat="44.59422" lon="10.6626017"><ele>121.0</ele><time>2026-05-03T08:16:28.874Z</time></trkpt><trkpt lat="44.5941167" lon="10.6626833"><ele>120.75</ele><time>2026-05-03T08:16:29.874Z</time></trkpt><trkpt lat="44.5940083" lon="10.6627867"><ele>120.5</ele><time>2026-05-03T08:16:30.875Z</time></trkpt><trkpt lat="44.593895" lon="10.6628933"><ele>120.25</ele><time>2026-05-03T08:16:31.874Z</time></trkpt><trkpt lat="44.5937817" lon="10.663015"><ele>120.0</ele><time>2026-05-03T08:16:32.874Z</time></trkpt><trkpt lat="44.59367" lon="10.6631367"><ele>119.0</ele><time>2026-05-03T08:16:33.874Z</time></trkpt><trkpt lat="44.5935533" lon="10.6632467"><ele>118.0</ele><time>2026-05-03T08:16:34.873Z</time></trkpt><trkpt lat="44.5934367" lon="10.6633567"><ele>117.0</ele><time>2026-05-03T08:16:35.874Z</time></trkpt><trkpt lat="44.5933233" lon="10.663465"><ele>116.0</ele><time>2026-05-03T08:16:36.874Z</time></trkpt><trkpt lat="44.593215" lon="10.66358"><ele>116.25</ele><time>2026-05-03T08:16:37.874Z</time></trkpt><trkpt lat="44.5931167" lon="10.663705"><ele>116.5</ele><time>2026-05-03T08:16:38.873Z</time></trkpt><trkpt lat="44.5930133" lon="10.66383"><ele>116.75</ele><time>2026-05-03T08:16:39.873Z</time></trkpt><trkpt lat="44.59291" lon="10.663935"><ele>117.0</ele><time>2026-05-03T08:16:40.874Z</time></trkpt><trkpt lat="44.592815" lon="10.66402"><ele>117.39999999999999</ele><time>2026-05-03T08:16:41.874Z</time></trkpt><trkpt lat="44.5927317" lon="10.6640783"><ele>117.79999999999998</ele><time>2026-05-03T08:16:42.873Z</time></trkpt><trkpt lat="44.5926383" lon="10.6641183"><ele>118.2</ele><time>2026-05-03T08:16:43.874Z</time></trkpt><trkpt lat="44.5925467" lon="10.664135"><ele>118.6</ele><time>2026-05-03T08:16:44.873Z</time></trkpt><trkpt lat="44.5924583" lon="10.6641483"><ele>119.0</ele><time>2026-05-03T08:16:45.873Z</time></trkpt><trkpt lat="44.59237" lon="10.6641367"><ele>119.0</ele><time>2026-05-03T08:16:46.874Z</time></trkpt><trkpt lat="44.5922817" lon="10.6640983"><ele>119.0</ele><time>2026-05-03T08:16:47.874Z</time></trkpt><trkpt lat="44.5921833" lon="10.6640367"><ele>119.0</ele><time>2026-05-03T08:16:48.873Z</time></trkpt><trkpt lat="44.5920733" lon="10.663965"><ele>119.0</ele><time>2026-05-03T08:16:49.874Z</time></trkpt><trkpt lat="44.591955" lon="10.6638983"><ele>119.0</ele><time>2026-05-03T08:16:50.873Z</time></trkpt><trkpt lat="44.5918333" lon="10.6638417"><ele>119.25</ele><time>2026-05-03T08:16:51.874Z</time></trkpt><trkpt lat="44.591705" lon="10.6637967"><ele>119.5</ele><time>2026-05-03T08:16:52.873Z</time></trkpt><trkpt lat="44.5915833" lon="10.6637617"><ele>119.75</ele><time>2026-05-03T08:16:53.873Z</time></trkpt><trkpt lat="44.5914733" lon="10.6637317"><ele>120.0</ele><time>2026-05-03T08:16:54.873Z</time></trkpt><trkpt lat="44.5913817" lon="10.663705"><ele>120.0</ele><time>2026-05-03T08:16:55.874Z</time></trkpt><trkpt lat="44.5913" lon="10.66369"><ele>120.0</ele><time>2026-05-03T08:16:56.873Z</time></trkpt><trkpt lat="44.59123" lon="10.6636633"><ele>120.0</ele><time>2026-05-03T08:16:57.873Z</time></trkpt><trkpt lat="44.5911367" lon="10.6636317"><ele>120.0</ele><time>2026-05-03T08:16:59.873Z</time></trkpt><trkpt lat="44.5910733" lon="10.6635967"><ele>120.0</ele><time>2026-05-03T08:17:02.873Z</time></trkpt><trkpt lat="44.5909733" lon="10.6636267"><ele>120.0</ele><time>2026-05-03T08:17:04.873Z</time></trkpt><trkpt lat="44.5908967" lon="10.663655"><ele>120.4</ele><time>2026-05-03T08:17:05.873Z</time></trkpt><trkpt lat="44.5908083" lon="10.6637017"><ele>120.8</ele><time>2026-05-03T08:17:06.874Z</time></trkpt><trkpt lat="44.590715" lon="10.6637817"><ele>121.19999999999999</ele><time>2026-05-03T08:17:07.874Z</time></trkpt><trkpt lat="44.5906233" lon="10.6638833"><ele>121.6</ele><time>2026-05-03T08:17:08.873Z</time></trkpt><trkpt lat="44.59054" lon="10.663985"><ele>122.0</ele><time>2026-05-03T08:17:09.874Z</time></trkpt><trkpt lat="44.5904633" lon="10.6640783"><ele>121.99999999999999</ele><time>2026-05-03T08:17:10.873Z</time></trkpt><trkpt lat="44.59039" lon="10.664155"><ele>122.0</ele><time>2026-05-03T08:17:11.873Z</time></trkpt><trkpt lat="44.5903333" lon="10.6642117"><ele>122.0</ele><time>2026-05-03T08:17:12.873Z</time></trkpt><trkpt lat="44.5902533" lon="10.6642833"><ele>122.0</ele><time>2026-05-03T08:17:14.874Z</time></trkpt><trkpt lat="44.590175" lon="10.664305"><ele>121.99999999999999</ele><time>2026-05-03T08:17:18.874Z</time></trkpt><trkpt lat="44.5900933" lon="10.6642333"><ele>122.0</ele><time>2026-05-03T08:17:20.874Z</time></trkpt><trkpt lat="44.59004" lon="10.6641733"><ele>121.8</ele><time>2026-05-03T08:17:21.874Z</time></trkpt><trkpt lat="44.5899817" lon="10.6640983"><ele>121.6</ele><time>2026-05-03T08:17:22.874Z</time></trkpt><trkpt lat="44.58992" lon="10.6640133"><ele>121.39999999999999</ele><time>2026-05-03T08:17:23.873Z</time></trkpt><trkpt lat="44.5898433" lon="10.663925"><ele>121.19999999999999</ele><time>2026-05-03T08:17:24.873Z</time></trkpt><trkpt lat="44.58976" lon="10.6638483"><ele>121.0</ele><time>2026-05-03T08:17:25.874Z</time></trkpt><trkpt lat="44.5896667" lon="10.6637867"><ele>121.0</ele><time>2026-05-03T08:17:26.874Z</time></trkpt><trkpt lat="44.5895633" lon="10.6637283"><ele>121.0</ele><time>2026-05-03T08:17:27.873Z</time></trkpt><trkpt lat="44.5894517" lon="10.6636783"><ele>121.0</ele><time>2026-05-03T08:17:28.874Z</time></trkpt><trkpt lat="44.5893383" lon="10.6636333"><ele>121.0</ele><time>2026-05-03T08:17:29.873Z</time></trkpt><trkpt lat="44.5892283" lon="10.6635783"><ele>121.25</ele><time>2026-05-03T08:17:30.873Z</time></trkpt><trkpt lat="44.5891217" lon="10.6635067"><ele>121.5</ele><time>2026-05-03T08:17:31.874Z</time></trkpt><trkpt lat="44.589015" lon="10.66341"><ele>121.75</ele><time>2026-05-03T08:17:32.874Z</time></trkpt><trkpt lat="44.5889083" lon="10.6632967"><ele>122.0</ele><time>2026-05-03T08:17:33.873Z</time></trkpt><trkpt lat="44.58881" lon="10.6632033"><ele>122.0</ele><time>2026-05-03T08:17:34.873Z</time></trkpt><trkpt lat="44.5887217" lon="10.663105"><ele>121.99999999999999</ele><time>2026-05-03T08:17:35.874Z</time></trkpt><trkpt lat="44.58864" lon="10.6630017"><ele>121.99999999999999</ele><time>2026-05-03T08:17:36.874Z</time></trkpt><trkpt lat="44.5885683" lon="10.6628967"><ele>122.0</ele><time>2026-05-03T08:17:37.873Z</time></trkpt><trkpt lat="44.5885033" lon="10.6627833"><ele>122.0</ele><time>2026-05-03T08:17:38.874Z</time></trkpt><trkpt lat="44.5884417" lon="10.662665"><ele>123.0</ele><time>2026-05-03T08:17:39.873Z</time></trkpt><trkpt lat="44.5883867" lon="10.6625383"><ele>123.99999999999999</ele><time>2026-05-03T08:17:40.874Z</time></trkpt><trkpt lat="44.5883333" lon="10.6624017"><ele>124.99999999999999</ele><time>2026-05-03T08:17:41.873Z</time></trkpt><trkpt lat="44.5882833" lon="10.662275"><ele>126.0</ele><time>2026-05-03T08:17:42.873Z</time></trkpt><trkpt lat="44.588215" lon="10.6621667"><ele>127.0</ele><time>2026-05-03T08:17:43.874Z</time></trkpt><trkpt lat="44.5881317" lon="10.6620817"><ele>127.0</ele><time>2026-05-03T08:17:44.874Z</time></trkpt><trkpt lat="44.588035" lon="10.66201"><ele>127.0</ele><time>2026-05-03T08:17:45.874Z</time></trkpt><trkpt lat="44.58793" lon="10.6619483"><ele>127.0</ele><time>2026-05-03T08:17:46.873Z</time></trkpt><trkpt lat="44.587815" lon="10.6619017"><ele>127.0</ele><time>2026-05-03T08:17:47.873Z</time></trkpt><trkpt lat="44.5876883" lon="10.66186"><ele>126.75</ele><time>2026-05-03T08:17:48.873Z</time></trkpt><trkpt lat="44.5875733" lon="10.6618367"><ele>126.5</ele><time>2026-05-03T08:17:49.874Z</time></trkpt><trkpt lat="44.5874567" lon="10.66183"><ele>126.25</ele><time>2026-05-03T08:17:50.873Z</time></trkpt><trkpt lat="44.587335" lon="10.6618367"><ele>126.0</ele><time>2026-05-03T08:17:51.874Z</time></trkpt><trkpt lat="44.5872167" lon="10.6618417"><ele>126.0</ele><time>2026-05-03T08:17:52.873Z</time></trkpt><trkpt lat="44.5870933" lon="10.6618467"><ele>126.0</ele><time>2026-05-03T08:17:53.874Z</time></trkpt><trkpt lat="44.586985" lon="10.6618533"><ele>126.0</ele><time>2026-05-03T08:17:54.874Z</time></trkpt><trkpt lat="44.5868783" lon="10.6618467"><ele>126.0</ele><time>2026-05-03T08:17:55.874Z</time></trkpt><trkpt lat="44.5867817" lon="10.66184"><ele>126.0</ele><time>2026-05-03T08:17:56.873Z</time></trkpt><trkpt lat="44.5866933" lon="10.66183"><ele>125.0</ele><time>2026-05-03T08:17:57.873Z</time></trkpt><trkpt lat="44.5866267" lon="10.6618267"><ele>124.0</ele><time>2026-05-03T08:17:58.874Z</time></trkpt><trkpt lat="44.5865467" lon="10.6618217"><ele>123.0</ele><time>2026-05-03T08:18:00.873Z</time></trkpt><trkpt lat="44.58644" lon="10.6618283"><ele>122.0</ele><time>2026-05-03T08:18:02.874Z</time></trkpt><trkpt lat="44.5863233" lon="10.6618233"><ele>121.0</ele><time>2026-05-03T08:18:04.873Z</time></trkpt><trkpt lat="44.58625" lon="10.661815"><ele>120.0</ele><time>2026-05-03T08:18:06.873Z</time></trkpt><trkpt lat="44.58614" lon="10.6618167"><ele>120.0</ele><time>2026-05-03T08:18:08.873Z</time></trkpt><trkpt lat="44.58606" lon="10.6618117"><ele>120.0</ele><time>2026-05-03T08:18:09.873Z</time></trkpt><trkpt lat="44.585965" lon="10.661815"><ele>120.0</ele><time>2026-05-03T08:18:10.873Z</time></trkpt><trkpt lat="44.5858633" lon="10.661825"><ele>120.0</ele><time>2026-05-03T08:18:11.874Z</time></trkpt><trkpt lat="44.5857567" lon="10.6618467"><ele>120.0</ele><time>2026-05-03T08:18:12.873Z</time></trkpt><trkpt lat="44.5856517" lon="10.6618717"><ele>120.0</ele><time>2026-05-03T08:18:13.874Z</time></trkpt><trkpt lat="44.5855517" lon="10.6619033"><ele>120.0</ele><time>2026-05-03T08:18:14.873Z</time></trkpt><trkpt lat="44.5854633" lon="10.6619333"><ele>120.0</ele><time>2026-05-03T08:18:15.874Z</time></trkpt><trkpt lat="44.5853767" lon="10.6619633"><ele>120.0</ele><time>2026-05-03T08:18:16.874Z</time></trkpt><trkpt lat="44.5852917" lon="10.662"><ele>120.0</ele><time>2026-05-03T08:18:17.873Z</time></trkpt><trkpt lat="44.5852083" lon="10.662035"><ele>119.2</ele><time>2026-05-03T08:18:18.874Z</time></trkpt><trkpt lat="44.58512" lon="10.66207"><ele>118.4</ele><time>2026-05-03T08:18:19.874Z</time></trkpt><trkpt lat="44.58502" lon="10.6621"><ele>117.6</ele><time>2026-05-03T08:18:20.874Z</time></trkpt><trkpt lat="44.584915" lon="10.6621167"><ele>116.8</ele><time>2026-05-03T08:18:21.874Z</time></trkpt><trkpt lat="44.5848233" lon="10.662145"><ele>116.0</ele><time>2026-05-03T08:18:22.874Z</time></trkpt><trkpt lat="44.584735" lon="10.66218"><ele>115.99999999999999</ele><time>2026-05-03T08:18:23.874Z</time></trkpt><trkpt lat="44.5846467" lon="10.66221"><ele>116.0</ele><time>2026-05-03T08:18:24.874Z</time></trkpt><trkpt lat="44.5845617" lon="10.66224"><ele>116.0</ele><time>2026-05-03T08:18:25.874Z</time></trkpt><trkpt lat="44.584485" lon="10.66227"><ele>116.0</ele><time>2026-05-03T08:18:26.874Z</time></trkpt><trkpt lat="44.5844167" lon="10.6622883"><ele>115.99999999999999</ele><time>2026-05-03T08:18:27.874Z</time></trkpt><trkpt lat="44.5843383" lon="10.6622783"><ele>116.0</ele><time>2026-05-03T08:18:28.873Z</time></trkpt><trkpt lat="44.584245" lon="10.6622483"><ele>116.0</ele><time>2026-05-03T08:18:29.874Z</time></trkpt><trkpt lat="44.5841333" lon="10.66221"><ele>116.0</ele><time>2026-05-03T08:18:30.873Z</time></trkpt><trkpt lat="44.5840033" lon="10.6621783"><ele>116.0</ele><time>2026-05-03T08:18:31.874Z</time></trkpt><trkpt lat="44.5838683" lon="10.6621567"><ele>116.0</ele><time>2026-05-03T08:18:32.874Z</time></trkpt><trkpt lat="44.583725" lon="10.662125"><ele>115.33333333333333</ele><time>2026-05-03T08:18:33.874Z</time></trkpt><trkpt lat="44.58357" lon="10.66207"><ele>114.66666666666666</ele><time>2026-05-03T08:18:34.874Z</time></trkpt><trkpt lat="44.5834233" lon="10.6619717"><ele>114.0</ele><time>2026-05-03T08:18:35.874Z</time></trkpt><trkpt lat="44.5832883" lon="10.66182"><ele>114.0</ele><time>2026-05-03T08:18:36.873Z</time></trkpt><trkpt lat="44.583175" lon="10.6616233"><ele>114.0</ele><time>2026-05-03T08:18:37.874Z</time></trkpt><trkpt lat="44.58306" lon="10.66141"><ele>114.0</ele><time>2026-05-03T08:18:38.874Z</time></trkpt><trkpt lat="44.5829467" lon="10.6611967"><ele>114.33333333333334</ele><time>2026-05-03T08:18:39.873Z</time></trkpt><trkpt lat="44.5828317" lon="10.6609817"><ele>114.66666666666667</ele><time>2026-05-03T08:18:40.874Z</time></trkpt><trkpt lat="44.5827083" lon="10.6607717"><ele>115.0</ele><time>2026-05-03T08:18:41.873Z</time></trkpt><trkpt lat="44.5825783" lon="10.6605583"><ele>115.0</ele><time>2026-05-03T08:18:42.874Z</time></trkpt><trkpt lat="44.582445" lon="10.660355"><ele>115.0</ele><time>2026-05-03T08:18:43.874Z</time></trkpt><trkpt lat="44.58231" lon="10.660145"><ele>115.0</ele><time>2026-05-03T08:18:44.874Z</time></trkpt><trkpt lat="44.582175" lon="10.6599567"><ele>115.0</ele><time>2026-05-03T08:18:45.874Z</time></trkpt><trkpt lat="44.5820333" lon="10.6597467"><ele>115.0</ele><time>2026-05-03T08:18:46.874Z</time></trkpt><trkpt lat="44.58189" lon="10.6595617"><ele>115.0</ele><time>2026-05-03T08:18:47.874Z</time></trkpt><trkpt lat="44.581745" lon="10.65936"><ele>117.33333333333334</ele><time>2026-05-03T08:18:48.874Z</time></trkpt><trkpt lat="44.5815883" lon="10.6591667"><ele>119.66666666666666</ele><time>2026-05-03T08:18:49.873Z</time></trkpt><trkpt lat="44.5814417" lon="10.65896"><ele>122.0</ele><time>2026-05-03T08:18:50.874Z</time></trkpt><trkpt lat="44.581305" lon="10.6587583"><ele>121.0</ele><time>2026-05-03T08:18:51.874Z</time></trkpt><trkpt lat="44.5811717" lon="10.6585567"><ele>120.0</ele><time>2026-05-03T08:18:52.873Z</time></trkpt><trkpt lat="44.5810683" lon="10.65832"><ele>119.0</ele><time>2026-05-03T08:18:53.873Z</time></trkpt><trkpt lat="44.5809817" lon="10.658075"><ele>119.0</ele><time>2026-05-03T08:18:54.873Z</time></trkpt><trkpt lat="44.5808983" lon="10.6578283"><ele>119.0</ele><time>2026-05-03T08:18:55.873Z</time></trkpt><trkpt lat="44.5808117" lon="10.65758"><ele>119.0</ele><time>2026-05-03T08:18:56.874Z</time></trkpt><trkpt lat="44.58072" lon="10.657335"><ele>122.33333333333333</ele><time>2026-05-03T08:18:57.874Z</time></trkpt><trkpt lat="44.5806217" lon="10.6570967"><ele>125.66666666666666</ele><time>2026-05-03T08:18:58.874Z</time></trkpt><trkpt lat="44.5805167" lon="10.65687"><ele>129.0</ele><time>2026-05-03T08:18:59.873Z</time></trkpt><trkpt lat="44.5803833" lon="10.6566767"><ele>127.66666666666666</ele><time>2026-05-03T08:19:00.874Z</time></trkpt><trkpt lat="44.5802433" lon="10.6565183"><ele>126.33333333333333</ele><time>2026-05-03T08:19:01.874Z</time></trkpt><trkpt lat="44.5800817" lon="10.65639"><ele>125.0</ele><time>2026-05-03T08:19:02.873Z</time></trkpt><trkpt lat="44.57991" lon="10.6562817"><ele>125.0</ele><time>2026-05-03T08:19:03.874Z</time></trkpt><trkpt lat="44.579725" lon="10.6562"><ele>125.0</ele><time>2026-05-03T08:19:04.874Z</time></trkpt><trkpt lat="44.5795367" lon="10.6561267"><ele>125.0</ele><time>2026-05-03T08:19:05.874Z</time></trkpt><trkpt lat="44.5793467" lon="10.656055"><ele>125.33333333333333</ele><time>2026-05-03T08:19:06.874Z</time></trkpt><trkpt lat="44.57916" lon="10.6559867"><ele>125.66666666666666</ele><time>2026-05-03T08:19:07.874Z</time></trkpt><trkpt lat="44.578975" lon="10.6559133"><ele>126.0</ele><time>2026-05-03T08:19:08.874Z</time></trkpt><trkpt lat="44.578785" lon="10.65584"><ele>125.33333333333334</ele><time>2026-05-03T08:19:09.873Z</time></trkpt><trkpt lat="44.5785983" lon="10.655755"><ele>124.66666666666667</ele><time>2026-05-03T08:19:10.873Z</time></trkpt><trkpt lat="44.57841" lon="10.6556617"><ele>124.0</ele><time>2026-05-03T08:19:11.874Z</time></trkpt><trkpt lat="44.5782217" lon="10.6555517"><ele>124.0</ele><time>2026-05-03T08:19:12.874Z</time></trkpt><trkpt lat="44.57803" lon="10.6554467"><ele>124.0</ele><time>2026-05-03T08:19:13.874Z</time></trkpt><trkpt lat="44.577845" lon="10.6553133"><ele>124.0</ele><time>2026-05-03T08:19:14.874Z</time></trkpt><trkpt lat="44.5776683" lon="10.6551733"><ele>125.66666666666667</ele><time>2026-05-03T08:19:15.874Z</time></trkpt><trkpt lat="44.577485" lon="10.6550567"><ele>127.33333333333334</ele><time>2026-05-03T08:19:16.874Z</time></trkpt><trkpt lat="44.5772967" lon="10.6549567"><ele>129.0</ele><time>2026-05-03T08:19:17.874Z</time></trkpt><trkpt lat="44.57711" lon="10.6548667"><ele>128.33333333333334</ele><time>2026-05-03T08:19:18.874Z</time></trkpt><trkpt lat="44.576935" lon="10.6547933"><ele>127.66666666666667</ele><time>2026-05-03T08:19:19.874Z</time></trkpt><trkpt lat="44.5767667" lon="10.6547283"><ele>127.0</ele><time>2026-05-03T08:19:20.874Z</time></trkpt><trkpt lat="44.5765933" lon="10.654685"><ele>127.0</ele><time>2026-05-03T08:19:21.874Z</time></trkpt><trkpt lat="44.5764183" lon="10.6546817"><ele>127.0</ele><time>2026-05-03T08:19:22.873Z</time></trkpt><trkpt lat="44.5762633" lon="10.6547067"><ele>127.0</ele><time>2026-05-03T08:19:23.873Z</time></trkpt><trkpt lat="44.5761183" lon="10.6547683"><ele>127.75</ele><time>2026-05-03T08:19:24.873Z</time></trkpt><trkpt lat="44.575985" lon="10.6548683"><ele>128.5</ele><time>2026-05-03T08:19:25.874Z</time></trkpt><trkpt lat="44.5758633" lon="10.6549983"><ele>129.25</ele><time>2026-05-03T08:19:26.874Z</time></trkpt><trkpt lat="44.5757617" lon="10.6551333"><ele>130.0</ele><time>2026-05-03T08:19:27.874Z</time></trkpt><trkpt lat="44.5756717" lon="10.6552433"><ele>128.25</ele><time>2026-05-03T08:19:28.874Z</time></trkpt><trkpt lat="44.575565" lon="10.6553267"><ele>126.5</ele><time>2026-05-03T08:19:29.873Z</time></trkpt><trkpt lat="44.5754467" lon="10.6553683"><ele>124.75</ele><time>2026-05-03T08:19:30.874Z</time></trkpt><trkpt lat="44.57531" lon="10.6553683"><ele>123.0</ele><time>2026-05-03T08:19:31.873Z</time></trkpt><trkpt lat="44.57517" lon="10.655305"><ele>125.66666666666666</ele><time>2026-05-03T08:19:32.873Z</time></trkpt><trkpt lat="44.5750333" lon="10.6552017"><ele>128.33333333333331</ele><time>2026-05-03T08:19:33.874Z</time></trkpt><trkpt lat="44.5748833" lon="10.6550833"><ele>131.0</ele><time>2026-05-03T08:19:34.874Z</time></trkpt><trkpt lat="44.5747233" lon="10.6549617"><ele>131.0</ele><time>2026-05-03T08:19:35.874Z</time></trkpt><trkpt lat="44.5745633" lon="10.6548367"><ele>131.0</ele><time>2026-05-03T08:19:36.873Z</time></trkpt><trkpt lat="44.5744033" lon="10.654705"><ele>131.0</ele><time>2026-05-03T08:19:37.874Z</time></trkpt><trkpt lat="44.5742433" lon="10.654575"><ele>131.0</ele><time>2026-05-03T08:19:38.874Z</time></trkpt><trkpt lat="44.5740767" lon="10.65445"><ele>131.0</ele><time>2026-05-03T08:19:39.873Z</time></trkpt><trkpt lat="44.573905" lon="10.6543183"><ele>131.0</ele><time>2026-05-03T08:19:40.874Z</time></trkpt><trkpt lat="44.5737433" lon="10.65419"><ele>129.0</ele><time>2026-05-03T08:19:41.873Z</time></trkpt><trkpt lat="44.5735767" lon="10.654065"><ele>127.0</ele><time>2026-05-03T08:19:42.874Z</time></trkpt><trkpt lat="44.5734083" lon="10.6539383"><ele>125.0</ele><time>2026-05-03T08:19:43.873Z</time></trkpt><trkpt lat="44.5732367" lon="10.6538167"><ele>125.0</ele><time>2026-05-03T08:19:44.873Z</time></trkpt><trkpt lat="44.573075" lon="10.6537017"><ele>125.0</ele><time>2026-05-03T08:19:45.874Z</time></trkpt><trkpt lat="44.5728933" lon="10.653615"><ele>125.0</ele><time>2026-05-03T08:19:46.874Z</time></trkpt><trkpt lat="44.5727117" lon="10.65355"><ele>127.0</ele><time>2026-05-03T08:19:47.873Z</time></trkpt><trkpt lat="44.572525" lon="10.6535067"><ele>129.0</ele><time>2026-05-03T08:19:48.873Z</time></trkpt><trkpt lat="44.572335" lon="10.6534717"><ele>131.0</ele><time>2026-05-03T08:19:49.874Z</time></trkpt><trkpt lat="44.5721433" lon="10.6534533"><ele>131.33333333333331</ele><time>2026-05-03T08:19:50.874Z</time></trkpt><trkpt lat="44.57195" lon="10.6534483"><ele>131.66666666666666</ele><time>2026-05-03T08:19:51.874Z</time></trkpt><trkpt lat="44.5717467" lon="10.6534517"><ele>132.0</ele><time>2026-05-03T08:19:52.874Z</time></trkpt><trkpt lat="44.5715483" lon="10.6534567"><ele>132.0</ele><time>2026-05-03T08:19:53.873Z</time></trkpt><trkpt lat="44.5713483" lon="10.6534667"><ele>132.0</ele><time>2026-05-03T08:19:54.874Z</time></trkpt><trkpt lat="44.5711467" lon="10.653485"><ele>132.0</ele><time>2026-05-03T08:19:55.874Z</time></trkpt><trkpt lat="44.570945" lon="10.653495"><ele>132.66666666666666</ele><time>2026-05-03T08:19:56.873Z</time></trkpt><trkpt lat="44.5707467" lon="10.653495"><ele>133.33333333333331</ele><time>2026-05-03T08:19:57.873Z</time></trkpt><trkpt lat="44.5705517" lon="10.65347"><ele>134.0</ele><time>2026-05-03T08:19:58.873Z</time></trkpt><trkpt lat="44.570355" lon="10.65341"><ele>134.0</ele><time>2026-05-03T08:19:59.874Z</time></trkpt><trkpt lat="44.5701633" lon="10.6533317"><ele>134.0</ele><time>2026-05-03T08:20:00.873Z</time></trkpt><trkpt lat="44.5699667" lon="10.65326"><ele>134.0</ele><time>2026-05-03T08:20:01.873Z</time></trkpt><trkpt lat="44.5697717" lon="10.653195"><ele>134.0</ele><time>2026-05-03T08:20:02.874Z</time></trkpt><trkpt lat="44.56958" lon="10.6531333"><ele>134.0</ele><time>2026-05-03T08:20:03.873Z</time></trkpt><trkpt lat="44.5693833" lon="10.653065"><ele>134.0</ele><time>2026-05-03T08:20:04.874Z</time></trkpt><trkpt lat="44.5692" lon="10.652995"><ele>134.0</ele><time>2026-05-03T08:20:05.874Z</time></trkpt><trkpt lat="44.5690383" lon="10.6529333"><ele>134.0</ele><time>2026-05-03T08:20:06.873Z</time></trkpt><trkpt lat="44.5688967" lon="10.6528517"><ele>134.0</ele><time>2026-05-03T08:20:07.873Z</time></trkpt><trkpt lat="44.5687783" lon="10.6527217"><ele>135.33333333333331</ele><time>2026-05-03T08:20:08.873Z</time></trkpt><trkpt lat="44.5686667" lon="10.652565"><ele>136.66666666666666</ele><time>2026-05-03T08:20:09.873Z</time></trkpt><trkpt lat="44.5685533" lon="10.6524017"><ele>138.0</ele><time>2026-05-03T08:20:10.873Z</time></trkpt><trkpt lat="44.5684267" lon="10.6522383"><ele>138.0</ele><time>2026-05-03T08:20:11.874Z</time></trkpt><trkpt lat="44.56828" lon="10.652115"><ele>138.0</ele><time>2026-05-03T08:20:12.874Z</time></trkpt><trkpt lat="44.5681167" lon="10.6520417"><ele>138.0</ele><time>2026-05-03T08:20:13.873Z</time></trkpt><trkpt lat="44.5679267" lon="10.6520083"><ele>137.66666666666666</ele><time>2026-05-03T08:20:14.874Z</time></trkpt><trkpt lat="44.5677383" lon="10.6519717"><ele>137.33333333333331</ele><time>2026-05-03T08:20:15.874Z</time></trkpt><trkpt lat="44.567545" lon="10.6519317"><ele>137.0</ele><time>2026-05-03T08:20:16.873Z</time></trkpt><trkpt lat="44.5673517" lon="10.65186"><ele>140.66666666666666</ele><time>2026-05-03T08:20:17.873Z</time></trkpt><trkpt lat="44.56715" lon="10.65178"><ele>144.33333333333334</ele><time>2026-05-03T08:20:18.873Z</time></trkpt><trkpt lat="44.5669533" lon="10.6516933"><ele>148.0</ele><time>2026-05-03T08:20:19.873Z</time></trkpt><trkpt lat="44.5667617" lon="10.6515967"><ele>148.0</ele><time>2026-05-03T08:20:20.874Z</time></trkpt><trkpt lat="44.56656" lon="10.651505"><ele>148.0</ele><time>2026-05-03T08:20:21.874Z</time></trkpt><trkpt lat="44.566375" lon="10.65142"><ele>148.0</ele><time>2026-05-03T08:20:22.873Z</time></trkpt><trkpt lat="44.566185" lon="10.651345"><ele>145.66666666666669</ele><time>2026-05-03T08:20:23.874Z</time></trkpt><trkpt lat="44.5660117" lon="10.65128"><ele>143.33333333333334</ele><time>2026-05-03T08:20:24.873Z</time></trkpt><trkpt lat="44.5658567" lon="10.6512067"><ele>141.0</ele><time>2026-05-03T08:20:25.874Z</time></trkpt><trkpt lat="44.565715" lon="10.6511417"><ele>141.0</ele><time>2026-05-03T08:20:26.874Z</time></trkpt><trkpt lat="44.5656" lon="10.6511017"><ele>141.0</ele><time>2026-05-03T08:20:27.874Z</time></trkpt><trkpt lat="44.56551" lon="10.6510817"><ele>141.0</ele><time>2026-05-03T08:20:28.874Z</time></trkpt><trkpt lat="44.5654433" lon="10.6510917"><ele>141.0</ele><time>2026-05-03T08:20:29.873Z</time></trkpt><trkpt lat="44.5653817" lon="10.6511317"><ele>141.0</ele><time>2026-05-03T08:20:30.874Z</time></trkpt><trkpt lat="44.5653133" lon="10.651185"><ele>141.0</ele><time>2026-05-03T08:20:31.873Z</time></trkpt><trkpt lat="44.5652317" lon="10.65124"><ele>140.6</ele><time>2026-05-03T08:20:32.874Z</time></trkpt><trkpt lat="44.56514" lon="10.6512783"><ele>140.2</ele><time>2026-05-03T08:20:33.874Z</time></trkpt><trkpt lat="44.5650417" lon="10.6513117"><ele>139.8</ele><time>2026-05-03T08:20:34.874Z</time></trkpt><trkpt lat="44.5649333" lon="10.6513283"><ele>139.4</ele><time>2026-05-03T08:20:35.873Z</time></trkpt><trkpt lat="44.56482" lon="10.6513367"><ele>139.0</ele><time>2026-05-03T08:20:36.874Z</time></trkpt><trkpt lat="44.56471" lon="10.6513133"><ele>139.0</ele><time>2026-05-03T08:20:37.874Z</time></trkpt><trkpt lat="44.5645833" lon="10.651295"><ele>139.0</ele><time>2026-05-03T08:20:38.873Z</time></trkpt><trkpt lat="44.56446" lon="10.651305"><ele>139.0</ele><time>2026-05-03T08:20:39.874Z</time></trkpt><trkpt lat="44.5643467" lon="10.6513217"><ele>139.0</ele><time>2026-05-03T08:20:40.873Z</time></trkpt><trkpt lat="44.56423" lon="10.6513333"><ele>138.8</ele><time>2026-05-03T08:20:41.874Z</time></trkpt><trkpt lat="44.5641167" lon="10.6513383"><ele>138.60000000000002</ele><time>2026-05-03T08:20:42.873Z</time></trkpt><trkpt lat="44.5640083" lon="10.651335"><ele>138.4</ele><time>2026-05-03T08:20:43.873Z</time></trkpt><trkpt lat="44.5639083" lon="10.651345"><ele>138.20000000000002</ele><time>2026-05-03T08:20:44.874Z</time></trkpt><trkpt lat="44.5638167" lon="10.6513783"><ele>138.0</ele><time>2026-05-03T08:20:45.874Z</time></trkpt><trkpt lat="44.563735" lon="10.6514217"><ele>138.0</ele><time>2026-05-03T08:20:46.874Z</time></trkpt><trkpt lat="44.5636617" lon="10.6514767"><ele>138.0</ele><time>2026-05-03T08:20:47.874Z</time></trkpt><trkpt lat="44.5635967" lon="10.651535"><ele>138.0</ele><time>2026-05-03T08:20:48.873Z</time></trkpt><trkpt lat="44.5635417" lon="10.6515917"><ele>138.0</ele><time>2026-05-03T08:20:49.874Z</time></trkpt><trkpt lat="44.5634917" lon="10.6516683"><ele>138.0</ele><time>2026-05-03T08:20:50.873Z</time></trkpt><trkpt lat="44.5634567" lon="10.6517533"><ele>138.0</ele><time>2026-05-03T08:20:51.874Z</time></trkpt><trkpt lat="44.5634383" lon="10.6518533"><ele>138.0</ele><time>2026-05-03T08:20:52.873Z</time></trkpt><trkpt lat="44.56344" lon="10.6519533"><ele>137.33333333333334</ele><time>2026-05-03T08:20:53.873Z</time></trkpt><trkpt lat="44.5634433" lon="10.6520483"><ele>136.66666666666666</ele><time>2026-05-03T08:20:54.874Z</time></trkpt><trkpt lat="44.5634267" lon="10.65214"><ele>136.0</ele><time>2026-05-03T08:20:55.873Z</time></trkpt><trkpt lat="44.5633883" lon="10.6522267"><ele>135.33333333333331</ele><time>2026-05-03T08:20:56.873Z</time></trkpt><trkpt lat="44.5633333" lon="10.6522983"><ele>134.66666666666666</ele><time>2026-05-03T08:20:57.873Z</time></trkpt><trkpt lat="44.5632617" lon="10.6523383"><ele>134.0</ele><time>2026-05-03T08:20:58.874Z</time></trkpt><trkpt lat="44.563165" lon="10.6523483"><ele>134.0</ele><time>2026-05-03T08:20:59.873Z</time></trkpt><trkpt lat="44.56306" lon="10.6523417"><ele>134.0</ele><time>2026-05-03T08:21:00.874Z</time></trkpt><trkpt lat="44.5629583" lon="10.65233"><ele>134.0</ele><time>2026-05-03T08:21:01.874Z</time></trkpt><trkpt lat="44.5628717" lon="10.65232"><ele>134.0</ele><time>2026-05-03T08:21:02.874Z</time></trkpt><trkpt lat="44.56279" lon="10.6523183"><ele>134.0</ele><time>2026-05-03T08:21:03.873Z</time></trkpt><trkpt lat="44.5627083" lon="10.6523217"><ele>134.0</ele><time>2026-05-03T08:21:04.873Z</time></trkpt><trkpt lat="44.5626333" lon="10.652325"><ele>134.0</ele><time>2026-05-03T08:21:05.873Z</time></trkpt><trkpt lat="44.56256" lon="10.652325"><ele>134.0</ele><time>2026-05-03T08:21:06.874Z</time></trkpt><trkpt lat="44.56248" lon="10.652325"><ele>134.0</ele><time>2026-05-03T08:21:07.874Z</time></trkpt><trkpt lat="44.562395" lon="10.6523183"><ele>134.0</ele><time>2026-05-03T08:21:08.873Z</time></trkpt><trkpt lat="44.5623117" lon="10.6523117"><ele>134.0</ele><time>2026-05-03T08:21:09.873Z</time></trkpt><trkpt lat="44.562235" lon="10.6523033"><ele>134.0</ele><time>2026-05-03T08:21:10.874Z</time></trkpt><trkpt lat="44.5621683" lon="10.6523"><ele>134.0</ele><time>2026-05-03T08:21:11.873Z</time></trkpt><trkpt lat="44.56207" lon="10.6523067"><ele>134.0</ele><time>2026-05-03T08:21:13.873Z</time></trkpt><trkpt lat="44.5620033" lon="10.652295"><ele>134.0</ele><time>2026-05-03T08:21:15.873Z</time></trkpt><trkpt lat="44.561935" lon="10.652255"><ele>134.0</ele><time>2026-05-03T08:21:17.873Z</time></trkpt><trkpt lat="44.56185" lon="10.652155"><ele>134.0</ele><time>2026-05-03T08:21:19.874Z</time></trkpt><trkpt lat="44.5617983" lon="10.6520717"><ele>134.33333333333331</ele><time>2026-05-03T08:21:20.874Z</time></trkpt><trkpt lat="44.561755" lon="10.651985"><ele>134.66666666666666</ele><time>2026-05-03T08:21:21.873Z</time></trkpt><trkpt lat="44.5617017" lon="10.65189"><ele>135.0</ele><time>2026-05-03T08:21:22.874Z</time></trkpt><trkpt lat="44.5616417" lon="10.651795"><ele>135.33333333333334</ele><time>2026-05-03T08:21:23.874Z</time></trkpt><trkpt lat="44.561575" lon="10.6517033"><ele>135.66666666666669</ele><time>2026-05-03T08:21:24.873Z</time></trkpt><trkpt lat="44.5615067" lon="10.651625"><ele>136.0</ele><time>2026-05-03T08:21:25.873Z</time></trkpt><trkpt lat="44.56144" lon="10.651565"><ele>136.16666666666669</ele><time>2026-05-03T08:21:26.874Z</time></trkpt><trkpt lat="44.5613633" lon="10.651525"><ele>136.33333333333334</ele><time>2026-05-03T08:21:27.874Z</time></trkpt><trkpt lat="44.561275" lon="10.651505"><ele>136.5</ele><time>2026-05-03T08:21:28.874Z</time></trkpt><trkpt lat="44.5611683" lon="10.651515"><ele>136.66666666666666</ele><time>2026-05-03T08:21:29.874Z</time></trkpt><trkpt lat="44.5610867" lon="10.6515333"><ele>136.83333333333331</ele><time>2026-05-03T08:21:30.874Z</time></trkpt><trkpt lat="44.5610183" lon="10.6515517"><ele>137.0</ele><time>2026-05-03T08:21:31.874Z</time></trkpt><trkpt lat="44.560955" lon="10.6515717"><ele>137.2857142857143</ele><time>2026-05-03T08:21:32.873Z</time></trkpt><trkpt lat="44.56089" lon="10.6515883"><ele>137.57142857142858</ele><time>2026-05-03T08:21:33.873Z</time></trkpt><trkpt lat="44.5608267" lon="10.6516067"><ele>137.85714285714286</ele><time>2026-05-03T08:21:34.873Z</time></trkpt><trkpt lat="44.5607633" lon="10.6516267"><ele>138.14285714285717</ele><time>2026-05-03T08:21:35.873Z</time></trkpt><trkpt lat="44.5606833" lon="10.65164"><ele>138.42857142857144</ele><time>2026-05-03T08:21:36.873Z</time></trkpt><trkpt lat="44.560605" lon="10.6516583"><ele>138.71428571428572</ele><time>2026-05-03T08:21:37.873Z</time></trkpt><trkpt lat="44.5605233" lon="10.65168"><ele>139.0</ele><time>2026-05-03T08:21:38.874Z</time></trkpt><trkpt lat="44.560435" lon="10.651695"><ele>139.16666666666669</ele><time>2026-05-03T08:21:39.873Z</time></trkpt><trkpt lat="44.56035" lon="10.6517133"><ele>139.33333333333334</ele><time>2026-05-03T08:21:40.874Z</time></trkpt><trkpt lat="44.5602683" lon="10.651725"><ele>139.5</ele><time>2026-05-03T08:21:41.873Z</time></trkpt><trkpt lat="44.5601867" lon="10.6517367"><ele>139.66666666666666</ele><time>2026-05-03T08:21:42.873Z</time></trkpt><trkpt lat="44.560115" lon="10.6517383"><ele>139.83333333333331</ele><time>2026-05-03T08:21:43.874Z</time></trkpt><trkpt lat="44.560035" lon="10.651705"><ele>140.0</ele><time>2026-05-03T08:21:44.874Z</time></trkpt><trkpt lat="44.55995" lon="10.6516583"><ele>140.0</ele><time>2026-05-03T08:21:45.873Z</time></trkpt><trkpt lat="44.559865" lon="10.6516217"><ele>140.0</ele><time>2026-05-03T08:21:46.874Z</time></trkpt><trkpt lat="44.559775" lon="10.651585"><ele>140.0</ele><time>2026-05-03T08:21:47.874Z</time></trkpt><trkpt lat="44.559675" lon="10.6515467"><ele>140.0</ele><time>2026-05-03T08:21:48.874Z</time></trkpt><trkpt lat="44.5595567" lon="10.6515117"><ele>140.0</ele><time>2026-05-03T08:21:49.874Z</time></trkpt><trkpt lat="44.55943" lon="10.6514667"><ele>139.5</ele><time>2026-05-03T08:21:50.873Z</time></trkpt><trkpt lat="44.55931" lon="10.6514383"><ele>139.0</ele><time>2026-05-03T08:21:51.874Z</time></trkpt><trkpt lat="44.5591917" lon="10.651425"><ele>138.5</ele><time>2026-05-03T08:21:52.873Z</time></trkpt><trkpt lat="44.5590717" lon="10.6514167"><ele>138.0</ele><time>2026-05-03T08:21:53.874Z</time></trkpt><trkpt lat="44.55895" lon="10.651405"><ele>138.0</ele><time>2026-05-03T08:21:54.874Z</time></trkpt><trkpt lat="44.558835" lon="10.6513817"><ele>138.0</ele><time>2026-05-03T08:21:55.874Z</time></trkpt><trkpt lat="44.558735" lon="10.6513483"><ele>138.0</ele><time>2026-05-03T08:21:56.874Z</time></trkpt><trkpt lat="44.5586533" lon="10.651315"><ele>138.0</ele><time>2026-05-03T08:21:57.873Z</time></trkpt><trkpt lat="44.5585867" lon="10.651305"><ele>138.0</ele><time>2026-05-03T08:21:58.874Z</time></trkpt><trkpt lat="44.55848" lon="10.6513667"><ele>138.33333333333334</ele><time>2026-05-03T08:22:00.873Z</time></trkpt><trkpt lat="44.5584317" lon="10.65143"><ele>138.66666666666666</ele><time>2026-05-03T08:22:01.873Z</time></trkpt><trkpt lat="44.5583883" lon="10.65152"><ele>139.0</ele><time>2026-05-03T08:22:02.874Z</time></trkpt><trkpt lat="44.5583333" lon="10.6516083"><ele>139.33333333333331</ele><time>2026-05-03T08:22:03.874Z</time></trkpt><trkpt lat="44.5582833" lon="10.6517117"><ele>139.66666666666666</ele><time>2026-05-03T08:22:04.873Z</time></trkpt><trkpt lat="44.5582217" lon="10.6518167"><ele>140.0</ele><time>2026-05-03T08:22:05.873Z</time></trkpt><trkpt lat="44.5581733" lon="10.651935"><ele>139.75</ele><time>2026-05-03T08:22:06.874Z</time></trkpt><trkpt lat="44.55812" lon="10.65207"><ele>139.5</ele><time>2026-05-03T08:22:07.874Z</time></trkpt><trkpt lat="44.5580633" lon="10.65222"><ele>139.25</ele><time>2026-05-03T08:22:08.874Z</time></trkpt><trkpt lat="44.5580033" lon="10.6523683"><ele>139.0</ele><time>2026-05-03T08:22:09.874Z</time></trkpt><trkpt lat="44.5579467" lon="10.6525233"><ele>139.0</ele><time>2026-05-03T08:22:10.874Z</time></trkpt><trkpt lat="44.5578967" lon="10.6526817"><ele>139.0</ele><time>2026-05-03T08:22:11.874Z</time></trkpt><trkpt lat="44.557845" lon="10.6528267"><ele>139.0</ele><time>2026-05-03T08:22:12.873Z</time></trkpt><trkpt lat="44.5577883" lon="10.6529667"><ele>139.0</ele><time>2026-05-03T08:22:13.874Z</time></trkpt><trkpt lat="44.5577333" lon="10.6531"><ele>138.8</ele><time>2026-05-03T08:22:14.874Z</time></trkpt><trkpt lat="44.5576817" lon="10.6532233"><ele>138.60000000000002</ele><time>2026-05-03T08:22:15.874Z</time></trkpt><trkpt lat="44.5576217" lon="10.6533217"><ele>138.4</ele><time>2026-05-03T08:22:16.874Z</time></trkpt><trkpt lat="44.5575433" lon="10.6533783"><ele>138.20000000000002</ele><time>2026-05-03T08:22:17.873Z</time></trkpt><trkpt lat="44.55746" lon="10.6533917"><ele>138.0</ele><time>2026-05-03T08:22:18.873Z</time></trkpt><trkpt lat="44.55737" lon="10.65336"><ele>138.0</ele><time>2026-05-03T08:22:19.873Z</time></trkpt><trkpt lat="44.557275" lon="10.65331"><ele>138.0</ele><time>2026-05-03T08:22:20.874Z</time></trkpt><trkpt lat="44.55717" lon="10.6532483"><ele>138.0</ele><time>2026-05-03T08:22:21.873Z</time></trkpt><trkpt lat="44.5570583" lon="10.65319"><ele>138.0</ele><time>2026-05-03T08:22:22.873Z</time></trkpt><trkpt lat="44.5569383" lon="10.6531333"><ele>138.5</ele><time>2026-05-03T08:22:23.873Z</time></trkpt><trkpt lat="44.5568167" lon="10.6530833"><ele>139.0</ele><time>2026-05-03T08:22:24.874Z</time></trkpt><trkpt lat="44.5566933" lon="10.6530317"><ele>139.5</ele><time>2026-05-03T08:22:25.874Z</time></trkpt><trkpt lat="44.5565633" lon="10.652975"><ele>140.0</ele><time>2026-05-03T08:22:26.874Z</time></trkpt><trkpt lat="44.55643" lon="10.6529317"><ele>140.0</ele><time>2026-05-03T08:22:27.874Z</time></trkpt><trkpt lat="44.55629" lon="10.6528883"><ele>140.0</ele><time>2026-05-03T08:22:28.873Z</time></trkpt><trkpt lat="44.5561133" lon="10.6528433"><ele>140.0</ele><time>2026-05-03T08:22:29.873Z</time></trkpt><trkpt lat="44.5559917" lon="10.652815"><ele>140.0</ele><time>2026-05-03T08:22:30.874Z</time></trkpt><trkpt lat="44.555855" lon="10.6527783"><ele>141.5</ele><time>2026-05-03T08:22:31.873Z</time></trkpt><trkpt lat="44.5557217" lon="10.65275"><ele>143.0</ele><time>2026-05-03T08:22:32.873Z</time></trkpt><trkpt lat="44.5556" lon="10.65271"><ele>144.5</ele><time>2026-05-03T08:22:33.873Z</time></trkpt><trkpt lat="44.5554983" lon="10.6526833"><ele>146.0</ele><time>2026-05-03T08:22:34.874Z</time></trkpt><trkpt lat="44.5554033" lon="10.652665"><ele>148.6</ele><time>2026-05-03T08:22:35.873Z</time></trkpt><trkpt lat="44.55532" lon="10.65265"><ele>151.2</ele><time>2026-05-03T08:22:36.874Z</time></trkpt><trkpt lat="44.5552567" lon="10.652645"><ele>153.8</ele><time>2026-05-03T08:22:37.874Z</time></trkpt><trkpt lat="44.55517" lon="10.6526383"><ele>156.4</ele><time>2026-05-03T08:22:39.874Z</time></trkpt><trkpt lat="44.5552183" lon="10.652515"><ele>159.0</ele><time>2026-05-03T08:22:42.873Z</time></trkpt><trkpt lat="44.5553217" lon="10.652385"><ele>158.0</ele><time>2026-05-03T08:22:44.873Z</time></trkpt><trkpt lat="44.5553917" lon="10.6522783"><ele>157.0</ele><time>2026-05-03T08:22:45.873Z</time></trkpt><trkpt lat="44.5554667" lon="10.6521467"><ele>156.0</ele><time>2026-05-03T08:22:46.874Z</time></trkpt><trkpt lat="44.5555383" lon="10.652"><ele>155.0</ele><time>2026-05-03T08:22:47.874Z</time></trkpt><trkpt lat="44.5556" lon="10.6518433"><ele>155.0</ele><time>2026-05-03T08:22:48.874Z</time></trkpt><trkpt lat="44.55565" lon="10.6516983"><ele>155.0</ele><time>2026-05-03T08:22:49.874Z</time></trkpt><trkpt lat="44.5557033" lon="10.6515567"><ele>155.0</ele><time>2026-05-03T08:22:50.873Z</time></trkpt><trkpt lat="44.5557517" lon="10.6514117"><ele>155.0</ele><time>2026-05-03T08:22:51.874Z</time></trkpt><trkpt lat="44.5557967" lon="10.65128"><ele>155.0</ele><time>2026-05-03T08:22:52.874Z</time></trkpt><trkpt lat="44.5558417" lon="10.6511683"><ele>156.0</ele><time>2026-05-03T08:22:53.874Z</time></trkpt><trkpt lat="44.5558833" lon="10.65107"><ele>157.0</ele><time>2026-05-03T08:22:54.874Z</time></trkpt><trkpt lat="44.555915" lon="10.650985"><ele>158.0</ele><time>2026-05-03T08:22:55.873Z</time></trkpt><trkpt lat="44.5559383" lon="10.6508983"><ele>159.0</ele><time>2026-05-03T08:22:56.874Z</time></trkpt><trkpt lat="44.555945" lon="10.6507567"><ele>160.0</ele><time>2026-05-03T08:22:58.874Z</time></trkpt><trkpt lat="44.5558783" lon="10.650715"><ele>161.0</ele><time>2026-05-03T08:23:01.873Z</time></trkpt><trkpt lat="44.5557933" lon="10.6508267"><ele>161.0</ele><time>2026-05-03T08:23:03.873Z</time></trkpt><trkpt lat="44.5557533" lon="10.65094"><ele>161.0</ele><time>2026-05-03T08:23:04.874Z</time></trkpt><trkpt lat="44.555705" lon="10.6510817"><ele>161.0</ele><time>2026-05-03T08:23:05.873Z</time></trkpt><trkpt lat="44.5556583" lon="10.65124"><ele>161.0</ele><time>2026-05-03T08:23:06.873Z</time></trkpt><trkpt lat="44.5556033" lon="10.6514"><ele>160.5</ele><time>2026-05-03T08:23:07.873Z</time></trkpt><trkpt lat="44.5555483" lon="10.6515567"><ele>160.0</ele><time>2026-05-03T08:23:08.873Z</time></trkpt><trkpt lat="44.555495" lon="10.6517133"><ele>159.5</ele><time>2026-05-03T08:23:09.874Z</time></trkpt><trkpt lat="44.555435" lon="10.651865"><ele>159.0</ele><time>2026-05-03T08:23:10.874Z</time></trkpt><trkpt lat="44.55536" lon="10.652"><ele>159.0</ele><time>2026-05-03T08:23:11.874Z</time></trkpt><trkpt lat="44.55527" lon="10.6521167"><ele>159.0</ele><time>2026-05-03T08:23:12.874Z</time></trkpt><trkpt lat="44.55516" lon="10.652205"><ele>159.0</ele><time>2026-05-03T08:23:13.874Z</time></trkpt><trkpt lat="44.5550433" lon="10.65224"><ele>159.0</ele><time>2026-05-03T08:23:14.874Z</time></trkpt><trkpt lat="44.5549133" lon="10.6521933"><ele>159.0</ele><time>2026-05-03T08:23:15.874Z</time></trkpt><trkpt lat="44.5547867" lon="10.6520867"><ele>159.0</ele><time>2026-05-03T08:23:16.873Z</time></trkpt><trkpt lat="44.554655" lon="10.65194"><ele>159.0</ele><time>2026-05-03T08:23:17.874Z</time></trkpt><trkpt lat="44.55453" lon="10.6517933"><ele>162.66666666666666</ele><time>2026-05-03T08:23:18.874Z</time></trkpt><trkpt lat="44.5544017" lon="10.6516517"><ele>166.33333333333331</ele><time>2026-05-03T08:23:19.873Z</time></trkpt><trkpt lat="44.5542583" lon="10.651515"><ele>170.0</ele><time>2026-05-03T08:23:20.874Z</time></trkpt><trkpt lat="44.5541233" lon="10.6513933"><ele>170.0</ele><time>2026-05-03T08:23:21.874Z</time></trkpt><trkpt lat="44.55398" lon="10.6512717"><ele>170.0</ele><time>2026-05-03T08:23:22.874Z</time></trkpt><trkpt lat="44.5538183" lon="10.6511817"><ele>170.0</ele><time>2026-05-03T08:23:23.874Z</time></trkpt><trkpt lat="44.5536467" lon="10.6511033"><ele>173.0</ele><time>2026-05-03T08:23:24.874Z</time></trkpt><trkpt lat="44.5534683" lon="10.6510267"><ele>176.0</ele><time>2026-05-03T08:23:25.874Z</time></trkpt><trkpt lat="44.5532883" lon="10.6509433"><ele>179.0</ele><time>2026-05-03T08:23:26.874Z</time></trkpt><trkpt lat="44.55311" lon="10.6508433"><ele>179.0</ele><time>2026-05-03T08:23:27.874Z</time></trkpt><trkpt lat="44.55294" lon="10.6507467"><ele>179.0</ele><time>2026-05-03T08:23:28.874Z</time></trkpt><trkpt lat="44.5527717" lon="10.6506633"><ele>179.0</ele><time>2026-05-03T08:23:29.874Z</time></trkpt><trkpt lat="44.5526183" lon="10.650585"><ele>178.33333333333331</ele><time>2026-05-03T08:23:30.873Z</time></trkpt><trkpt lat="44.5524717" lon="10.6504917"><ele>177.66666666666666</ele><time>2026-05-03T08:23:31.874Z</time></trkpt><trkpt lat="44.5523383" lon="10.65038"><ele>177.0</ele><time>2026-05-03T08:23:32.873Z</time></trkpt><trkpt lat="44.552205" lon="10.6502367"><ele>181.0</ele><time>2026-05-03T08:23:33.874Z</time></trkpt><trkpt lat="44.5520717" lon="10.6500683"><ele>185.0</ele><time>2026-05-03T08:23:34.873Z</time></trkpt><trkpt lat="44.5519267" lon="10.6499417"><ele>189.0</ele><time>2026-05-03T08:23:35.874Z</time></trkpt><trkpt lat="44.5517683" lon="10.6498533"><ele>189.0</ele><time>2026-05-03T08:23:36.873Z</time></trkpt><trkpt lat="44.5516067" lon="10.6498117"><ele>189.0</ele><time>2026-05-03T08:23:37.873Z</time></trkpt><trkpt lat="44.5514433" lon="10.6498467"><ele>189.0</ele><time>2026-05-03T08:23:38.873Z</time></trkpt><trkpt lat="44.5512767" lon="10.649945"><ele>191.0</ele><time>2026-05-03T08:23:39.873Z</time></trkpt><trkpt lat="44.5511183" lon="10.650045"><ele>193.0</ele><time>2026-05-03T08:23:40.874Z</time></trkpt><trkpt lat="44.5509467" lon="10.6501233"><ele>195.0</ele><time>2026-05-03T08:23:41.874Z</time></trkpt><trkpt lat="44.5507717" lon="10.6501567"><ele>195.0</ele><time>2026-05-03T08:23:42.873Z</time></trkpt><trkpt lat="44.5505833" lon="10.6501433"><ele>195.0</ele><time>2026-05-03T08:23:43.873Z</time></trkpt><trkpt lat="44.5503983" lon="10.6501167"><ele>195.0</ele><time>2026-05-03T08:23:44.873Z</time></trkpt><trkpt lat="44.550225" lon="10.6500517"><ele>195.66666666666669</ele><time>2026-05-03T08:23:45.874Z</time></trkpt><trkpt lat="44.5500583" lon="10.6499667"><ele>196.33333333333334</ele><time>2026-05-03T08:23:46.873Z</time></trkpt><trkpt lat="44.5499033" lon="10.64984"><ele>197.0</ele><time>2026-05-03T08:23:47.873Z</time></trkpt><trkpt lat="44.5497617" lon="10.6496633"><ele>197.0</ele><time>2026-05-03T08:23:48.873Z</time></trkpt><trkpt lat="44.5496367" lon="10.6494617"><ele>197.0</ele><time>2026-05-03T08:23:49.873Z</time></trkpt><trkpt lat="44.5495367" lon="10.6492633"><ele>197.0</ele><time>2026-05-03T08:23:50.873Z</time></trkpt><trkpt lat="44.549425" lon="10.64909"><ele>198.33333333333334</ele><time>2026-05-03T08:23:51.874Z</time></trkpt><trkpt lat="44.5492833" lon="10.6489367"><ele>199.66666666666669</ele><time>2026-05-03T08:23:52.873Z</time></trkpt><trkpt lat="44.54913" lon="10.6488217"><ele>201.0</ele><time>2026-05-03T08:23:53.874Z</time></trkpt><trkpt lat="44.54896" lon="10.6487483"><ele>201.0</ele><time>2026-05-03T08:23:54.874Z</time></trkpt><trkpt lat="44.54879" lon="10.648715"><ele>201.0</ele><time>2026-05-03T08:23:55.874Z</time></trkpt><trkpt lat="44.548625" lon="10.6486983"><ele>201.0</ele><time>2026-05-03T08:23:56.874Z</time></trkpt><trkpt lat="44.54846" lon="10.648685"><ele>201.66666666666669</ele><time>2026-05-03T08:23:57.873Z</time></trkpt><trkpt lat="44.54831" lon="10.6486833"><ele>202.33333333333334</ele><time>2026-05-03T08:23:58.873Z</time></trkpt><trkpt lat="44.5481633" lon="10.6487233"><ele>203.0</ele><time>2026-05-03T08:23:59.873Z</time></trkpt><trkpt lat="44.5480283" lon="10.6488267"><ele>203.0</ele><time>2026-05-03T08:24:00.873Z</time></trkpt><trkpt lat="44.5479283" lon="10.6489733"><ele>203.0</ele><time>2026-05-03T08:24:01.874Z</time></trkpt><trkpt lat="44.5478533" lon="10.6491367"><ele>203.0</ele><time>2026-05-03T08:24:02.873Z</time></trkpt><trkpt lat="44.5477767" lon="10.6492817"><ele>203.0</ele><time>2026-05-03T08:24:03.873Z</time></trkpt><trkpt lat="44.547675" lon="10.6494"><ele>203.66666666666669</ele><time>2026-05-03T08:24:04.874Z</time></trkpt><trkpt lat="44.547545" lon="10.6494717"><ele>204.33333333333331</ele><time>2026-05-03T08:24:05.873Z</time></trkpt><trkpt lat="44.5473817" lon="10.64952"><ele>205.0</ele><time>2026-05-03T08:24:06.873Z</time></trkpt><trkpt lat="44.54722" lon="10.6495483"><ele>205.0</ele><time>2026-05-03T08:24:07.874Z</time></trkpt><trkpt lat="44.5470583" lon="10.6495833"><ele>205.0</ele><time>2026-05-03T08:24:08.874Z</time></trkpt><trkpt lat="44.54689" lon="10.6496317"><ele>205.0</ele><time>2026-05-03T08:24:09.873Z</time></trkpt><trkpt lat="44.5467267" lon="10.6496933"><ele>208.66666666666666</ele><time>2026-05-03T08:24:10.874Z</time></trkpt><trkpt lat="44.5465467" lon="10.6497383"><ele>212.33333333333331</ele><time>2026-05-03T08:24:11.873Z</time></trkpt><trkpt lat="44.5463667" lon="10.6497467"><ele>216.0</ele><time>2026-05-03T08:24:12.873Z</time></trkpt><trkpt lat="44.5462017" lon="10.6497167"><ele>219.25</ele><time>2026-05-03T08:24:13.874Z</time></trkpt><trkpt lat="44.5460483" lon="10.6496633"><ele>222.5</ele><time>2026-05-03T08:24:14.873Z</time></trkpt><trkpt lat="44.5459217" lon="10.64958"><ele>225.75</ele><time>2026-05-03T08:24:15.873Z</time></trkpt><trkpt lat="44.5458367" lon="10.6494817"><ele>229.0</ele><time>2026-05-03T08:24:16.873Z</time></trkpt><trkpt lat="44.5457883" lon="10.6493383"><ele>229.0</ele><time>2026-05-03T08:24:17.874Z</time></trkpt><trkpt lat="44.5457783" lon="10.64917"><ele>229.0</ele><time>2026-05-03T08:24:18.874Z</time></trkpt><trkpt lat="44.5457933" lon="10.6489967"><ele>229.0</ele><time>2026-05-03T08:24:19.874Z</time></trkpt><trkpt lat="44.5458233" lon="10.6487967"><ele>229.0</ele><time>2026-05-03T08:24:20.873Z</time></trkpt><trkpt lat="44.5458517" lon="10.6485983"><ele>228.79999999999998</ele><time>2026-05-03T08:24:21.874Z</time></trkpt><trkpt lat="44.54587" lon="10.648415"><ele>228.59999999999997</ele><time>2026-05-03T08:24:22.873Z</time></trkpt><trkpt lat="44.545885" lon="10.6482533"><ele>228.4</ele><time>2026-05-03T08:24:23.874Z</time></trkpt><trkpt lat="44.5459017" lon="10.6481"><ele>228.2</ele><time>2026-05-03T08:24:24.873Z</time></trkpt><trkpt lat="44.54591" lon="10.6479783"><ele>228.0</ele><time>2026-05-03T08:24:25.874Z</time></trkpt><trkpt lat="44.5459" lon="10.6478483"><ele>227.4</ele><time>2026-05-03T08:24:26.874Z</time></trkpt><trkpt lat="44.5458817" lon="10.6477133"><ele>226.8</ele><time>2026-05-03T08:24:27.873Z</time></trkpt><trkpt lat="44.5458533" lon="10.6475767"><ele>226.2</ele><time>2026-05-03T08:24:28.874Z</time></trkpt><trkpt lat="44.545825" lon="10.64742"><ele>225.6</ele><time>2026-05-03T08:24:29.873Z</time></trkpt><trkpt lat="44.5457833" lon="10.6472567"><ele>225.0</ele><time>2026-05-03T08:24:30.873Z</time></trkpt><trkpt lat="44.5457367" lon="10.6471"><ele>224.8</ele><time>2026-05-03T08:24:31.874Z</time></trkpt><trkpt lat="44.545695" lon="10.6469467"><ele>224.6</ele><time>2026-05-03T08:24:32.873Z</time></trkpt><trkpt lat="44.5456483" lon="10.6468083"><ele>224.39999999999998</ele><time>2026-05-03T08:24:33.873Z</time></trkpt><trkpt lat="44.5456133" lon="10.6466833"><ele>224.2</ele><time>2026-05-03T08:24:34.874Z</time></trkpt><trkpt lat="44.54558" lon="10.6465667"><ele>224.0</ele><time>2026-05-03T08:24:35.874Z</time></trkpt><trkpt lat="44.5455483" lon="10.6464633"><ele>224.0</ele><time>2026-05-03T08:24:36.874Z</time></trkpt><trkpt lat="44.545515" lon="10.64637"><ele>223.99999999999997</ele><time>2026-05-03T08:24:37.874Z</time></trkpt><trkpt lat="44.5454833" lon="10.6462883"><ele>223.99999999999997</ele><time>2026-05-03T08:24:38.874Z</time></trkpt><trkpt lat="44.545385" lon="10.646245"><ele>224.0</ele><time>2026-05-03T08:24:40.873Z</time></trkpt><trkpt lat="44.5453267" lon="10.6464017"><ele>224.0</ele><time>2026-05-03T08:24:42.874Z</time></trkpt><trkpt lat="44.5453183" lon="10.6465283"><ele>221.0</ele><time>2026-05-03T08:24:43.873Z</time></trkpt><trkpt lat="44.5453017" lon="10.6466767"><ele>217.99999999999997</ele><time>2026-05-03T08:24:44.874Z</time></trkpt><trkpt lat="44.5452717" lon="10.6468217"><ele>215.0</ele><time>2026-05-03T08:24:45.874Z</time></trkpt><trkpt lat="44.5452383" lon="10.646975"><ele>212.0</ele><time>2026-05-03T08:24:46.873Z</time></trkpt><trkpt lat="44.5452067" lon="10.6471283"><ele>209.0</ele><time>2026-05-03T08:24:47.873Z</time></trkpt><trkpt lat="44.5451917" lon="10.6472783"><ele>209.0</ele><time>2026-05-03T08:24:48.873Z</time></trkpt><trkpt lat="44.5451717" lon="10.6474183"><ele>209.0</ele><time>2026-05-03T08:24:49.874Z</time></trkpt><trkpt lat="44.5451267" lon="10.6475533"><ele>209.0</ele><time>2026-05-03T08:24:50.874Z</time></trkpt><trkpt lat="44.54507" lon="10.6476717"><ele>209.0</ele><time>2026-05-03T08:24:51.874Z</time></trkpt><trkpt lat="44.5450033" lon="10.6477833"><ele>209.0</ele><time>2026-05-03T08:24:52.874Z</time></trkpt><trkpt lat="44.5449567" lon="10.6479067"><ele>209.83333333333334</ele><time>2026-05-03T08:24:53.873Z</time></trkpt><trkpt lat="44.5449217" lon="10.64803"><ele>210.66666666666669</ele><time>2026-05-03T08:24:54.874Z</time></trkpt><trkpt lat="44.5448967" lon="10.648145"><ele>211.5</ele><time>2026-05-03T08:24:55.874Z</time></trkpt><trkpt lat="44.5448583" lon="10.6482333"><ele>212.33333333333331</ele><time>2026-05-03T08:24:56.873Z</time></trkpt><trkpt lat="44.5448033" lon="10.6482917"><ele>213.16666666666666</ele><time>2026-05-03T08:24:57.873Z</time></trkpt><trkpt lat="44.544725" lon="10.6483083"><ele>214.0</ele><time>2026-05-03T08:24:58.873Z</time></trkpt><trkpt lat="44.5446417" lon="10.6482917"><ele>214.0</ele><time>2026-05-03T08:24:59.873Z</time></trkpt><trkpt lat="44.5445483" lon="10.648245"><ele>213.99999999999997</ele><time>2026-05-03T08:25:00.874Z</time></trkpt><trkpt lat="44.5444467" lon="10.6481983"><ele>213.99999999999997</ele><time>2026-05-03T08:25:01.874Z</time></trkpt><trkpt lat="44.5443417" lon="10.64815"><ele>214.0</ele><time>2026-05-03T08:25:02.874Z</time></trkpt><trkpt lat="44.5442233" lon="10.6481"><ele>214.0</ele><time>2026-05-03T08:25:03.874Z</time></trkpt><trkpt lat="44.5441" lon="10.6480567"><ele>210.5</ele><time>2026-05-03T08:25:04.873Z</time></trkpt><trkpt lat="44.5439733" lon="10.6480033"><ele>207.0</ele><time>2026-05-03T08:25:05.873Z</time></trkpt><trkpt lat="44.543845" lon="10.6479533"><ele>203.5</ele><time>2026-05-03T08:25:06.873Z</time></trkpt><trkpt lat="44.5437183" lon="10.647905"><ele>200.0</ele><time>2026-05-03T08:25:07.873Z</time></trkpt><trkpt lat="44.5435917" lon="10.6478533"><ele>199.25</ele><time>2026-05-03T08:25:08.873Z</time></trkpt><trkpt lat="44.543465" lon="10.6478"><ele>198.5</ele><time>2026-05-03T08:25:09.874Z</time></trkpt><trkpt lat="44.5433367" lon="10.647745"><ele>197.75</ele><time>2026-05-03T08:25:10.874Z</time></trkpt><trkpt lat="44.543205" lon="10.647695"><ele>197.0</ele><time>2026-05-03T08:25:11.874Z</time></trkpt><trkpt lat="44.54307" lon="10.647635"><ele>197.0</ele><time>2026-05-03T08:25:12.874Z</time></trkpt><trkpt lat="44.5429367" lon="10.6475717"><ele>197.0</ele><time>2026-05-03T08:25:13.873Z</time></trkpt><trkpt lat="44.5428" lon="10.6475233"><ele>197.0</ele><time>2026-05-03T08:25:14.874Z</time></trkpt><trkpt lat="44.5426717" lon="10.6474567"><ele>197.0</ele><time>2026-05-03T08:25:15.874Z</time></trkpt><trkpt lat="44.5425417" lon="10.64738"><ele>196.0</ele><time>2026-05-03T08:25:16.874Z</time></trkpt><trkpt lat="44.54242" lon="10.647315"><ele>195.0</ele><time>2026-05-03T08:25:17.874Z</time></trkpt><trkpt lat="44.5422917" lon="10.647245"><ele>194.0</ele><time>2026-05-03T08:25:18.873Z</time></trkpt><trkpt lat="44.5421717" lon="10.6471783"><ele>193.0</ele><time>2026-05-03T08:25:19.874Z</time></trkpt><trkpt lat="44.542045" lon="10.6471133"><ele>191.75</ele><time>2026-05-03T08:25:20.873Z</time></trkpt><trkpt lat="44.5419233" lon="10.6470567"><ele>190.5</ele><time>2026-05-03T08:25:21.873Z</time></trkpt><trkpt lat="44.5418017" lon="10.6470067"><ele>189.25</ele><time>2026-05-03T08:25:22.872Z</time></trkpt><trkpt lat="44.5416883" lon="10.6469733"><ele>188.0</ele><time>2026-05-03T08:25:23.873Z</time></trkpt><trkpt lat="44.541565" lon="10.646965"><ele>188.0</ele><time>2026-05-03T08:25:24.873Z</time></trkpt><trkpt lat="44.541435" lon="10.6469767"><ele>188.0</ele><time>2026-05-03T08:25:25.873Z</time></trkpt><trkpt lat="44.5412883" lon="10.6469933"><ele>188.0</ele><time>2026-05-03T08:25:26.872Z</time></trkpt><trkpt lat="44.5411367" lon="10.6470133"><ele>188.0</ele><time>2026-05-03T08:25:27.873Z</time></trkpt><trkpt lat="44.5409933" lon="10.64703"><ele>188.33333333333331</ele><time>2026-05-03T08:25:28.873Z</time></trkpt><trkpt lat="44.5408433" lon="10.6470467"><ele>188.66666666666666</ele><time>2026-05-03T08:25:29.872Z</time></trkpt><trkpt lat="44.54069" lon="10.647065"><ele>189.0</ele><time>2026-05-03T08:25:30.872Z</time></trkpt><trkpt lat="44.540535" lon="10.6470917"><ele>189.0</ele><time>2026-05-03T08:25:31.873Z</time></trkpt><trkpt lat="44.5403833" lon="10.64713"><ele>189.0</ele><time>2026-05-03T08:25:32.873Z</time></trkpt><trkpt lat="44.5402367" lon="10.64719"><ele>189.0</ele><time>2026-05-03T08:25:33.873Z</time></trkpt><trkpt lat="44.5401017" lon="10.6472767"><ele>188.66666666666666</ele><time>2026-05-03T08:25:34.873Z</time></trkpt><trkpt lat="44.5399567" lon="10.6473683"><ele>188.33333333333331</ele><time>2026-05-03T08:25:35.872Z</time></trkpt><trkpt lat="44.5398117" lon="10.6474783"><ele>188.0</ele><time>2026-05-03T08:25:36.873Z</time></trkpt><trkpt lat="44.5396733" lon="10.6475883"><ele>189.2</ele><time>2026-05-03T08:25:37.873Z</time></trkpt><trkpt lat="44.53954" lon="10.64769"><ele>190.4</ele><time>2026-05-03T08:25:38.873Z</time></trkpt><trkpt lat="44.5394517" lon="10.6477633"><ele>191.6</ele><time>2026-05-03T08:25:39.873Z</time></trkpt><trkpt lat="44.53939" lon="10.6477983"><ele>192.79999999999998</ele><time>2026-05-03T08:25:40.872Z</time></trkpt><trkpt lat="44.5393333" lon="10.6478367"><ele>194.0</ele><time>2026-05-03T08:25:42.872Z</time></trkpt><trkpt lat="44.5393867" lon="10.6477483"><ele>194.39999999999998</ele><time>2026-05-03T08:25:59.873Z</time></trkpt><trkpt lat="44.53935" lon="10.647605"><ele>194.8</ele><time>2026-05-03T08:26:01.873Z</time></trkpt><trkpt lat="44.5393017" lon="10.6475133"><ele>195.2</ele><time>2026-05-03T08:26:02.873Z</time></trkpt><trkpt lat="44.53924" lon="10.6474133"><ele>195.60000000000002</ele><time>2026-05-03T08:26:03.872Z</time></trkpt><trkpt lat="44.5391717" lon="10.6473067"><ele>196.0</ele><time>2026-05-03T08:26:04.873Z</time></trkpt><trkpt lat="44.5391017" lon="10.6472017"><ele>196.0</ele><time>2026-05-03T08:26:05.873Z</time></trkpt><trkpt lat="44.53903" lon="10.6470883"><ele>196.0</ele><time>2026-05-03T08:26:06.873Z</time></trkpt><trkpt lat="44.5389633" lon="10.646965"><ele>196.0</ele><time>2026-05-03T08:26:07.873Z</time></trkpt><trkpt lat="44.538905" lon="10.6468667"><ele>196.0</ele><time>2026-05-03T08:26:08.873Z</time></trkpt><trkpt lat="44.538845" lon="10.646775"><ele>196.0</ele><time>2026-05-03T08:26:09.873Z</time></trkpt><trkpt lat="44.538795" lon="10.646675"><ele>197.0</ele><time>2026-05-03T08:26:10.873Z</time></trkpt><trkpt lat="44.53878" lon="10.6465767"><ele>198.0</ele><time>2026-05-03T08:26:11.872Z</time></trkpt><trkpt lat="44.538795" lon="10.646475"><ele>199.0</ele><time>2026-05-03T08:26:12.872Z</time></trkpt><trkpt lat="44.5388467" lon="10.64638"><ele>200.0</ele><time>2026-05-03T08:26:13.873Z</time></trkpt><trkpt lat="44.5389283" lon="10.6462667"><ele>201.0</ele><time>2026-05-03T08:26:14.873Z</time></trkpt><trkpt lat="44.538995" lon="10.6461517"><ele>201.83333333333334</ele><time>2026-05-03T08:26:15.873Z</time></trkpt><trkpt lat="44.539055" lon="10.6460333"><ele>202.66666666666669</ele><time>2026-05-03T08:26:16.873Z</time></trkpt><trkpt lat="44.5390933" lon="10.6459267"><ele>203.5</ele><time>2026-05-03T08:26:17.873Z</time></trkpt><trkpt lat="44.5391167" lon="10.6458117"><ele>204.33333333333334</ele><time>2026-05-03T08:26:18.873Z</time></trkpt><trkpt lat="44.53911" lon="10.6457183"><ele>205.16666666666669</ele><time>2026-05-03T08:26:19.872Z</time></trkpt><trkpt lat="44.53908" lon="10.6456283"><ele>206.0</ele><time>2026-05-03T08:26:20.873Z</time></trkpt><trkpt lat="44.5390317" lon="10.6455533"><ele>206.0</ele><time>2026-05-03T08:26:21.873Z</time></trkpt><trkpt lat="44.5389633" lon="10.6454883"><ele>206.0</ele><time>2026-05-03T08:26:22.873Z</time></trkpt><trkpt lat="44.538895" lon="10.6454217"><ele>206.0</ele><time>2026-05-03T08:26:23.872Z</time></trkpt><trkpt lat="44.53882" lon="10.64535"><ele>206.0</ele><time>2026-05-03T08:26:24.872Z</time></trkpt><trkpt lat="44.5387467" lon="10.6452717"><ele>206.0</ele><time>2026-05-03T08:26:25.873Z</time></trkpt><trkpt lat="44.5386667" lon="10.6451767"><ele>207.8</ele><time>2026-05-03T08:26:26.873Z</time></trkpt><trkpt lat="44.5385817" lon="10.6450783"><ele>209.60000000000002</ele><time>2026-05-03T08:26:27.873Z</time></trkpt><trkpt lat="44.538495" lon="10.64498"><ele>211.4</ele><time>2026-05-03T08:26:28.872Z</time></trkpt><trkpt lat="44.5384117" lon="10.6448783"><ele>213.2</ele><time>2026-05-03T08:26:29.873Z</time></trkpt><trkpt lat="44.538335" lon="10.6447767"><ele>215.0</ele><time>2026-05-03T08:26:30.873Z</time></trkpt><trkpt lat="44.5382517" lon="10.6446733"><ele>215.00000000000003</ele><time>2026-05-03T08:26:31.872Z</time></trkpt><trkpt lat="44.538175" lon="10.64458"><ele>215.0</ele><time>2026-05-03T08:26:32.872Z</time></trkpt><trkpt lat="44.5381017" lon="10.64449"><ele>215.0</ele><time>2026-05-03T08:26:33.873Z</time></trkpt><trkpt lat="44.53804" lon="10.6444067"><ele>215.0</ele><time>2026-05-03T08:26:34.873Z</time></trkpt><trkpt lat="44.5379967" lon="10.6443183"><ele>215.00000000000003</ele><time>2026-05-03T08:26:35.873Z</time></trkpt><trkpt lat="44.5379583" lon="10.644235"><ele>215.0</ele><time>2026-05-03T08:26:36.872Z</time></trkpt><trkpt lat="44.5378667" lon="10.6441367"><ele>217.16666666666669</ele><time>2026-05-03T08:26:38.872Z</time></trkpt><trkpt lat="44.537775" lon="10.6441517"><ele>219.33333333333334</ele><time>2026-05-03T08:26:40.872Z</time></trkpt><trkpt lat="44.5377183" lon="10.6441933"><ele>221.5</ele><time>2026-05-03T08:26:41.873Z</time></trkpt><trkpt lat="44.5376517" lon="10.644255"><ele>223.66666666666669</ele><time>2026-05-03T08:26:42.873Z</time></trkpt><trkpt lat="44.5375817" lon="10.6443433"><ele>225.83333333333334</ele><time>2026-05-03T08:26:43.873Z</time></trkpt><trkpt lat="44.5375083" lon="10.6444333"><ele>228.0</ele><time>2026-05-03T08:26:44.873Z</time></trkpt><trkpt lat="44.537425" lon="10.644525"><ele>228.0</ele><time>2026-05-03T08:26:45.872Z</time></trkpt><trkpt lat="44.53732" lon="10.6446167"><ele>228.0</ele><time>2026-05-03T08:26:46.873Z</time></trkpt><trkpt lat="44.5371917" lon="10.644705"><ele>228.0</ele><time>2026-05-03T08:26:47.873Z</time></trkpt><trkpt lat="44.5370833" lon="10.6447783"><ele>228.0</ele><time>2026-05-03T08:26:48.872Z</time></trkpt><trkpt lat="44.5369933" lon="10.6448317"><ele>231.0</ele><time>2026-05-03T08:26:49.873Z</time></trkpt><trkpt lat="44.5368867" lon="10.644855"><ele>234.0</ele><time>2026-05-03T08:26:50.873Z</time></trkpt><trkpt lat="44.536805" lon="10.644845"><ele>237.0</ele><time>2026-05-03T08:26:51.872Z</time></trkpt><trkpt lat="44.53673" lon="10.6448067"><ele>240.0</ele><time>2026-05-03T08:26:52.873Z</time></trkpt><trkpt lat="44.53665" lon="10.644725"><ele>243.0</ele><time>2026-05-03T08:26:53.873Z</time></trkpt><trkpt lat="44.536565" lon="10.644625"><ele>243.0</ele><time>2026-05-03T08:26:54.872Z</time></trkpt><trkpt lat="44.53647" lon="10.64452"><ele>243.0</ele><time>2026-05-03T08:26:55.872Z</time></trkpt><trkpt lat="44.5363717" lon="10.6444167"><ele>243.0</ele><time>2026-05-03T08:26:56.872Z</time></trkpt><trkpt lat="44.536265" lon="10.6443267"><ele>243.0</ele><time>2026-05-03T08:26:57.873Z</time></trkpt><trkpt lat="44.536155" lon="10.64425"><ele>245.60000000000002</ele><time>2026-05-03T08:26:58.873Z</time></trkpt><trkpt lat="44.5360483" lon="10.6441567"><ele>248.20000000000002</ele><time>2026-05-03T08:26:59.873Z</time></trkpt><trkpt lat="44.5359483" lon="10.64407"><ele>250.8</ele><time>2026-05-03T08:27:00.873Z</time></trkpt><trkpt lat="44.5358583" lon="10.6439883"><ele>253.4</ele><time>2026-05-03T08:27:01.872Z</time></trkpt><trkpt lat="44.53578" lon="10.6439183"><ele>256.0</ele><time>2026-05-03T08:27:02.873Z</time></trkpt><trkpt lat="44.5357167" lon="10.6438567"><ele>255.99999999999997</ele><time>2026-05-03T08:27:03.873Z</time></trkpt><trkpt lat="44.53565" lon="10.64381"><ele>256.0</ele><time>2026-05-03T08:27:04.873Z</time></trkpt><trkpt lat="44.535575" lon="10.6437183"><ele>256.0</ele><time>2026-05-03T08:27:06.873Z</time></trkpt><trkpt lat="44.5355583" lon="10.6435917"><ele>256.0</ele><time>2026-05-03T08:27:08.872Z</time></trkpt><trkpt lat="44.53558" lon="10.6435083"><ele>255.99999999999997</ele><time>2026-05-03T08:27:09.873Z</time></trkpt><trkpt lat="44.535615" lon="10.643425"><ele>256.0</ele><time>2026-05-03T08:27:10.872Z</time></trkpt><trkpt lat="44.535655" lon="10.6433267"><ele>257.0</ele><time>2026-05-03T08:27:11.873Z</time></trkpt><trkpt lat="44.535705" lon="10.64321"><ele>258.0</ele><time>2026-05-03T08:27:12.873Z</time></trkpt><trkpt lat="44.535745" lon="10.6430767"><ele>259.0</ele><time>2026-05-03T08:27:13.873Z</time></trkpt><trkpt lat="44.535785" lon="10.642945"><ele>260.0</ele><time>2026-05-03T08:27:14.873Z</time></trkpt><trkpt lat="44.5358267" lon="10.64281"><ele>261.0</ele><time>2026-05-03T08:27:15.873Z</time></trkpt><trkpt lat="44.53587" lon="10.6426833"><ele>262.2</ele><time>2026-05-03T08:27:16.873Z</time></trkpt><trkpt lat="44.5359" lon="10.6425433"><ele>263.40000000000003</ele><time>2026-05-03T08:27:17.872Z</time></trkpt><trkpt lat="44.5359133" lon="10.6424167"><ele>264.6</ele><time>2026-05-03T08:27:18.873Z</time></trkpt><trkpt lat="44.53592" lon="10.64228"><ele>265.8</ele><time>2026-05-03T08:27:19.873Z</time></trkpt><trkpt lat="44.5359083" lon="10.642135"><ele>267.0</ele><time>2026-05-03T08:27:20.873Z</time></trkpt><trkpt lat="44.5358817" lon="10.6419967"><ele>268.0</ele><time>2026-05-03T08:27:21.873Z</time></trkpt><trkpt lat="44.53584" lon="10.6418583"><ele>269.0</ele><time>2026-05-03T08:27:22.873Z</time></trkpt><trkpt lat="44.535795" lon="10.6417233"><ele>270.0</ele><time>2026-05-03T08:27:23.873Z</time></trkpt><trkpt lat="44.5357517" lon="10.641595"><ele>271.0</ele><time>2026-05-03T08:27:24.873Z</time></trkpt><trkpt lat="44.5357133" lon="10.6414633"><ele>272.0</ele><time>2026-05-03T08:27:25.873Z</time></trkpt><trkpt lat="44.5356717" lon="10.6413333"><ele>272.0</ele><time>2026-05-03T08:27:26.873Z</time></trkpt><trkpt lat="44.535625" lon="10.6412017"><ele>272.0</ele><time>2026-05-03T08:27:27.873Z</time></trkpt><trkpt lat="44.5355867" lon="10.64108"><ele>272.0</ele><time>2026-05-03T08:27:28.873Z</time></trkpt><trkpt lat="44.5355617" lon="10.6409533"><ele>272.0</ele><time>2026-05-03T08:27:29.873Z</time></trkpt><trkpt lat="44.5355483" lon="10.640835"><ele>272.0</ele><time>2026-05-03T08:27:30.873Z</time></trkpt><trkpt lat="44.5355533" lon="10.64072"><ele>272.6</ele><time>2026-05-03T08:27:31.873Z</time></trkpt><trkpt lat="44.5355583" lon="10.6405917"><ele>273.2</ele><time>2026-05-03T08:27:32.873Z</time></trkpt><trkpt lat="44.5355733" lon="10.640465"><ele>273.8</ele><time>2026-05-03T08:27:33.873Z</time></trkpt><trkpt lat="44.5355867" lon="10.6403367"><ele>274.4</ele><time>2026-05-03T08:27:34.872Z</time></trkpt><trkpt lat="44.5355967" lon="10.6402067"><ele>275.0</ele><time>2026-05-03T08:27:35.873Z</time></trkpt><trkpt lat="44.53562" lon="10.6400717"><ele>276.6</ele><time>2026-05-03T08:27:36.872Z</time></trkpt><trkpt lat="44.5356483" lon="10.63993"><ele>278.2</ele><time>2026-05-03T08:27:37.873Z</time></trkpt><trkpt lat="44.5356717" lon="10.6397883"><ele>279.8</ele><time>2026-05-03T08:27:38.873Z</time></trkpt><trkpt lat="44.5357" lon="10.6396567"><ele>281.4</ele><time>2026-05-03T08:27:39.872Z</time></trkpt><trkpt lat="44.535735" lon="10.6395183"><ele>283.0</ele><time>2026-05-03T08:27:40.872Z</time></trkpt><trkpt lat="44.5357683" lon="10.6393583"><ele>285.25</ele><time>2026-05-03T08:27:41.872Z</time></trkpt><trkpt lat="44.5357867" lon="10.639195"><ele>287.5</ele><time>2026-05-03T08:27:42.873Z</time></trkpt><trkpt lat="44.5358" lon="10.6390267"><ele>289.75</ele><time>2026-05-03T08:27:43.872Z</time></trkpt><trkpt lat="44.5358117" lon="10.6388683"><ele>292.0</ele><time>2026-05-03T08:27:44.873Z</time></trkpt><trkpt lat="44.53582" lon="10.638715"><ele>293.2</ele><time>2026-05-03T08:27:45.873Z</time></trkpt><trkpt lat="44.5358333" lon="10.6385533"><ele>294.4</ele><time>2026-05-03T08:27:46.873Z</time></trkpt><trkpt lat="44.5358383" lon="10.6384017"><ele>295.6</ele><time>2026-05-03T08:27:47.872Z</time></trkpt><trkpt lat="44.535835" lon="10.63825"><ele>296.8</ele><time>2026-05-03T08:27:48.872Z</time></trkpt><trkpt lat="44.535815" lon="10.638095"><ele>298.0</ele><time>2026-05-03T08:27:49.873Z</time></trkpt><trkpt lat="44.5357917" lon="10.637945"><ele>298.0</ele><time>2026-05-03T08:27:50.872Z</time></trkpt><trkpt lat="44.5357667" lon="10.6378083"><ele>298.0</ele><time>2026-05-03T08:27:51.873Z</time></trkpt><trkpt lat="44.5357517" lon="10.6376717"><ele>298.0</ele><time>2026-05-03T08:27:52.872Z</time></trkpt><trkpt lat="44.5357383" lon="10.6375317"><ele>298.0</ele><time>2026-05-03T08:27:53.873Z</time></trkpt><trkpt lat="44.53574" lon="10.63739"><ele>298.0</ele><time>2026-05-03T08:27:54.873Z</time></trkpt><trkpt lat="44.5357533" lon="10.637245"><ele>299.6</ele><time>2026-05-03T08:27:55.872Z</time></trkpt><trkpt lat="44.535775" lon="10.6371033"><ele>301.20000000000005</ele><time>2026-05-03T08:27:56.873Z</time></trkpt><trkpt lat="44.5357983" lon="10.636955"><ele>302.8</ele><time>2026-05-03T08:27:57.873Z</time></trkpt><trkpt lat="44.53582" lon="10.6368017"><ele>304.40000000000003</ele><time>2026-05-03T08:27:58.872Z</time></trkpt><trkpt lat="44.53584" lon="10.6366317"><ele>306.0</ele><time>2026-05-03T08:27:59.872Z</time></trkpt><trkpt lat="44.535865" lon="10.6364767"><ele>307.2</ele><time>2026-05-03T08:28:00.872Z</time></trkpt><trkpt lat="44.5358733" lon="10.6363183"><ele>308.40000000000003</ele><time>2026-05-03T08:28:01.872Z</time></trkpt><trkpt lat="44.5358633" lon="10.63616"><ele>309.6</ele><time>2026-05-03T08:28:02.872Z</time></trkpt><trkpt lat="44.53583" lon="10.6360083"><ele>310.8</ele><time>2026-05-03T08:28:03.872Z</time></trkpt><trkpt lat="44.535795" lon="10.6358717"><ele>312.0</ele><time>2026-05-03T08:28:04.873Z</time></trkpt><trkpt lat="44.53575" lon="10.6357483"><ele>312.0</ele><time>2026-05-03T08:28:05.873Z</time></trkpt><trkpt lat="44.535695" lon="10.63564"><ele>312.0</ele><time>2026-05-03T08:28:06.873Z</time></trkpt><trkpt lat="44.5356317" lon="10.6355383"><ele>312.0</ele><time>2026-05-03T08:28:07.872Z</time></trkpt><trkpt lat="44.5355667" lon="10.6354333"><ele>312.0</ele><time>2026-05-03T08:28:08.872Z</time></trkpt><trkpt lat="44.5355017" lon="10.6353233"><ele>312.0</ele><time>2026-05-03T08:28:09.872Z</time></trkpt><trkpt lat="44.5354433" lon="10.6352133"><ele>310.6</ele><time>2026-05-03T08:28:10.872Z</time></trkpt><trkpt lat="44.53539" lon="10.6350983"><ele>309.2</ele><time>2026-05-03T08:28:11.873Z</time></trkpt><trkpt lat="44.535345" lon="10.6349833"><ele>307.8</ele><time>2026-05-03T08:28:12.873Z</time></trkpt><trkpt lat="44.5352867" lon="10.6348783"><ele>306.4</ele><time>2026-05-03T08:28:13.872Z</time></trkpt><trkpt lat="44.5352117" lon="10.6347867"><ele>305.0</ele><time>2026-05-03T08:28:14.872Z</time></trkpt><trkpt lat="44.5351233" lon="10.6347067"><ele>306.2</ele><time>2026-05-03T08:28:15.873Z</time></trkpt><trkpt lat="44.53503" lon="10.6346317"><ele>307.4</ele><time>2026-05-03T08:28:16.873Z</time></trkpt><trkpt lat="44.534935" lon="10.6345533"><ele>308.6</ele><time>2026-05-03T08:28:17.872Z</time></trkpt><trkpt lat="44.5348317" lon="10.6344767"><ele>309.8</ele><time>2026-05-03T08:28:18.872Z</time></trkpt><trkpt lat="44.5347333" lon="10.63441"><ele>311.0</ele><time>2026-05-03T08:28:19.873Z</time></trkpt><trkpt lat="44.5346283" lon="10.6343383"><ele>312.0</ele><time>2026-05-03T08:28:20.873Z</time></trkpt><trkpt lat="44.5345183" lon="10.6342567"><ele>313.0</ele><time>2026-05-03T08:28:21.872Z</time></trkpt><trkpt lat="44.5344117" lon="10.6341583"><ele>314.0</ele><time>2026-05-03T08:28:22.873Z</time></trkpt><trkpt lat="44.5343033" lon="10.6340583"><ele>315.0</ele><time>2026-05-03T08:28:23.873Z</time></trkpt><trkpt lat="44.5342033" lon="10.6339617"><ele>315.0</ele><time>2026-05-03T08:28:24.872Z</time></trkpt><trkpt lat="44.5341033" lon="10.6338717"><ele>315.0</ele><time>2026-05-03T08:28:25.872Z</time></trkpt><trkpt lat="44.5340167" lon="10.63379"><ele>315.0</ele><time>2026-05-03T08:28:26.872Z</time></trkpt><trkpt lat="44.5339417" lon="10.6337183"><ele>315.0</ele><time>2026-05-03T08:28:27.873Z</time></trkpt><trkpt lat="44.5338883" lon="10.6336633"><ele>315.0</ele><time>2026-05-03T08:28:28.872Z</time></trkpt><trkpt lat="44.5338167" lon="10.6335783"><ele>315.3333333333333</ele><time>2026-05-03T08:28:30.873Z</time></trkpt><trkpt lat="44.5337667" lon="10.6334983"><ele>315.6666666666667</ele><time>2026-05-03T08:28:33.873Z</time></trkpt><trkpt lat="44.5337433" lon="10.6333633"><ele>316.0</ele><time>2026-05-03T08:29:46.873Z</time></trkpt><trkpt lat="44.5337233" lon="10.6331883"><ele>316.33333333333337</ele><time>2026-05-03T08:29:48.872Z</time></trkpt><trkpt lat="44.5337133" lon="10.6330883"><ele>316.6666666666667</ele><time>2026-05-03T08:29:49.873Z</time></trkpt><trkpt lat="44.5336883" lon="10.633"><ele>317.0</ele><time>2026-05-03T08:29:50.872Z</time></trkpt><trkpt lat="44.5336467" lon="10.6329033"><ele>317.33333333333337</ele><time>2026-05-03T08:29:51.872Z</time></trkpt><trkpt lat="44.5335833" lon="10.63282"><ele>317.6666666666667</ele><time>2026-05-03T08:29:52.872Z</time></trkpt><trkpt lat="44.53351" lon="10.6327733"><ele>318.0</ele><time>2026-05-03T08:29:53.872Z</time></trkpt><trkpt lat="44.5334383" lon="10.6327517"><ele>318.3333333333333</ele><time>2026-05-03T08:29:54.872Z</time></trkpt><trkpt lat="44.53336" lon="10.6327517"><ele>318.66666666666663</ele><time>2026-05-03T08:29:55.873Z</time></trkpt><trkpt lat="44.533275" lon="10.6327533"><ele>319.0</ele><time>2026-05-03T08:29:56.872Z</time></trkpt><trkpt lat="44.5331967" lon="10.6327467"><ele>319.6</ele><time>2026-05-03T08:29:57.873Z</time></trkpt><trkpt lat="44.53311" lon="10.6327267"><ele>320.2</ele><time>2026-05-03T08:29:58.872Z</time></trkpt><trkpt lat="44.5330167" lon="10.6327"><ele>320.8</ele><time>2026-05-03T08:29:59.872Z</time></trkpt><trkpt lat="44.5329267" lon="10.6326633"><ele>321.40000000000003</ele><time>2026-05-03T08:30:00.873Z</time></trkpt><trkpt lat="44.5328333" lon="10.6326067"><ele>322.0</ele><time>2026-05-03T08:30:01.872Z</time></trkpt><trkpt lat="44.5327467" lon="10.6325367"><ele>323.8</ele><time>2026-05-03T08:30:02.873Z</time></trkpt><trkpt lat="44.5326567" lon="10.6324583"><ele>325.6</ele><time>2026-05-03T08:30:03.873Z</time></trkpt><trkpt lat="44.5325833" lon="10.6323567"><ele>327.40000000000003</ele><time>2026-05-03T08:30:04.873Z</time></trkpt><trkpt lat="44.5325117" lon="10.6322333"><ele>329.20000000000005</ele><time>2026-05-03T08:30:05.873Z</time></trkpt><trkpt lat="44.532445" lon="10.6320967"><ele>331.0</ele><time>2026-05-03T08:30:06.873Z</time></trkpt><trkpt lat="44.5323783" lon="10.6319517"><ele>331.4</ele><time>2026-05-03T08:30:07.872Z</time></trkpt><trkpt lat="44.532315" lon="10.6318133"><ele>331.8</ele><time>2026-05-03T08:30:08.872Z</time></trkpt><trkpt lat="44.532265" lon="10.6316733"><ele>332.2</ele><time>2026-05-03T08:30:09.872Z</time></trkpt><trkpt lat="44.532225" lon="10.6315283"><ele>332.59999999999997</ele><time>2026-05-03T08:30:10.873Z</time></trkpt><trkpt lat="44.5321983" lon="10.6313833"><ele>333.0</ele><time>2026-05-03T08:30:11.872Z</time></trkpt><trkpt lat="44.532185" lon="10.6312417"><ele>333.2</ele><time>2026-05-03T08:30:12.872Z</time></trkpt><trkpt lat="44.532165" lon="10.63111"><ele>333.4</ele><time>2026-05-03T08:30:13.873Z</time></trkpt><trkpt lat="44.5321233" lon="10.6309817"><ele>333.59999999999997</ele><time>2026-05-03T08:30:14.872Z</time></trkpt><trkpt lat="44.5320583" lon="10.63086"><ele>333.79999999999995</ele><time>2026-05-03T08:30:15.872Z</time></trkpt><trkpt lat="44.5319833" lon="10.6307383"><ele>334.0</ele><time>2026-05-03T08:30:16.872Z</time></trkpt><trkpt lat="44.5319033" lon="10.630615"><ele>336.0</ele><time>2026-05-03T08:30:17.873Z</time></trkpt><trkpt lat="44.5318233" lon="10.6304933"><ele>338.0</ele><time>2026-05-03T08:30:18.873Z</time></trkpt><trkpt lat="44.5317467" lon="10.6303683"><ele>340.0</ele><time>2026-05-03T08:30:19.873Z</time></trkpt><trkpt lat="44.5316733" lon="10.63025"><ele>342.0</ele><time>2026-05-03T08:30:20.872Z</time></trkpt><trkpt lat="44.5315767" lon="10.630165"><ele>344.0</ele><time>2026-05-03T08:30:21.873Z</time></trkpt><trkpt lat="44.53147" lon="10.6301083"><ele>346.0</ele><time>2026-05-03T08:30:22.873Z</time></trkpt><trkpt lat="44.5313567" lon="10.6300683"><ele>348.0</ele><time>2026-05-03T08:30:23.872Z</time></trkpt><trkpt lat="44.5312383" lon="10.63002"><ele>350.0</ele><time>2026-05-03T08:30:24.872Z</time></trkpt><trkpt lat="44.5311483" lon="10.6299583"><ele>351.6666666666667</ele><time>2026-05-03T08:30:25.873Z</time></trkpt><trkpt lat="44.53108" lon="10.6298733"><ele>353.33333333333337</ele><time>2026-05-03T08:30:26.873Z</time></trkpt><trkpt lat="44.5310383" lon="10.6297683"><ele>355.0</ele><time>2026-05-03T08:30:27.872Z</time></trkpt><trkpt lat="44.5310183" lon="10.62966"><ele>356.6666666666667</ele><time>2026-05-03T08:30:28.873Z</time></trkpt><trkpt lat="44.53099" lon="10.62955"><ele>358.3333333333333</ele><time>2026-05-03T08:30:29.872Z</time></trkpt><trkpt lat="44.5309633" lon="10.6294383"><ele>360.0</ele><time>2026-05-03T08:30:30.872Z</time></trkpt><trkpt lat="44.5309267" lon="10.6293317"><ele>361.1428571428571</ele><time>2026-05-03T08:30:31.873Z</time></trkpt><trkpt lat="44.5308917" lon="10.6292333"><ele>362.28571428571433</ele><time>2026-05-03T08:30:32.873Z</time></trkpt><trkpt lat="44.5308583" lon="10.6291383"><ele>363.42857142857144</ele><time>2026-05-03T08:30:33.873Z</time></trkpt><trkpt lat="44.5308167" lon="10.6290433"><ele>364.57142857142856</ele><time>2026-05-03T08:30:34.873Z</time></trkpt><trkpt lat="44.5307783" lon="10.6289567"><ele>365.71428571428567</ele><time>2026-05-03T08:30:35.873Z</time></trkpt><trkpt lat="44.5307333" lon="10.62888"><ele>366.8571428571429</ele><time>2026-05-03T08:30:36.872Z</time></trkpt><trkpt lat="44.530685" lon="10.6288067"><ele>368.0</ele><time>2026-05-03T08:30:37.872Z</time></trkpt><trkpt lat="44.53063" lon="10.6287483"><ele>368.0</ele><time>2026-05-03T08:30:38.873Z</time></trkpt><trkpt lat="44.5305767" lon="10.6286917"><ele>368.0</ele><time>2026-05-03T08:30:39.872Z</time></trkpt><trkpt lat="44.5304767" lon="10.6285767"><ele>368.0</ele><time>2026-05-03T08:30:41.873Z</time></trkpt><trkpt lat="44.5304233" lon="10.6285167"><ele>368.0</ele><time>2026-05-03T08:30:42.873Z</time></trkpt><trkpt lat="44.530365" lon="10.6284567"><ele>368.0</ele><time>2026-05-03T08:30:43.872Z</time></trkpt><trkpt lat="44.530305" lon="10.6283867"><ele>368.0</ele><time>2026-05-03T08:30:44.872Z</time></trkpt><trkpt lat="44.5302483" lon="10.6283167"><ele>370.6666666666667</ele><time>2026-05-03T08:30:45.873Z</time></trkpt><trkpt lat="44.5301917" lon="10.628245"><ele>373.33333333333337</ele><time>2026-05-03T08:30:46.873Z</time></trkpt><trkpt lat="44.5301367" lon="10.6281967"><ele>376.0</ele><time>2026-05-03T08:30:47.873Z</time></trkpt><trkpt lat="44.530075" lon="10.6281767"><ele>378.6666666666667</ele><time>2026-05-03T08:30:48.873Z</time></trkpt><trkpt lat="44.5300067" lon="10.6281817"><ele>381.3333333333333</ele><time>2026-05-03T08:30:49.873Z</time></trkpt><trkpt lat="44.5299267" lon="10.6282217"><ele>384.0</ele><time>2026-05-03T08:30:50.872Z</time></trkpt><trkpt lat="44.5298367" lon="10.6282683"><ele>384.0</ele><time>2026-05-03T08:30:51.873Z</time></trkpt><trkpt lat="44.5297383" lon="10.6283067"><ele>384.0</ele><time>2026-05-03T08:30:52.873Z</time></trkpt><trkpt lat="44.5296383" lon="10.6283217"><ele>384.0</ele><time>2026-05-03T08:30:53.872Z</time></trkpt><trkpt lat="44.52953" lon="10.6283133"><ele>384.0</ele><time>2026-05-03T08:30:54.873Z</time></trkpt><trkpt lat="44.529425" lon="10.6282867"><ele>384.0</ele><time>2026-05-03T08:30:55.872Z</time></trkpt><trkpt lat="44.5293233" lon="10.62825"><ele>386.79999999999995</ele><time>2026-05-03T08:30:56.872Z</time></trkpt><trkpt lat="44.5292217" lon="10.628215"><ele>389.59999999999997</ele><time>2026-05-03T08:30:57.873Z</time></trkpt><trkpt lat="44.529115" lon="10.6281883"><ele>392.4</ele><time>2026-05-03T08:30:58.872Z</time></trkpt><trkpt lat="44.52901" lon="10.6281883"><ele>395.2</ele><time>2026-05-03T08:30:59.872Z</time></trkpt><trkpt lat="44.528905" lon="10.6282033"><ele>398.0</ele><time>2026-05-03T08:31:00.873Z</time></trkpt><trkpt lat="44.528795" lon="10.6282083"><ele>401.4</ele><time>2026-05-03T08:31:01.872Z</time></trkpt><trkpt lat="44.5286783" lon="10.6282233"><ele>404.79999999999995</ele><time>2026-05-03T08:31:02.872Z</time></trkpt><trkpt lat="44.52857" lon="10.6282183"><ele>408.2</ele><time>2026-05-03T08:31:03.873Z</time></trkpt><trkpt lat="44.5284683" lon="10.6282083"><ele>411.6</ele><time>2026-05-03T08:31:04.872Z</time></trkpt><trkpt lat="44.5283617" lon="10.6282183"><ele>415.0</ele><time>2026-05-03T08:31:05.873Z</time></trkpt><trkpt lat="44.5282733" lon="10.6282633"><ele>415.00000000000006</ele><time>2026-05-03T08:31:06.873Z</time></trkpt><trkpt lat="44.5281883" lon="10.628335"><ele>415.0</ele><time>2026-05-03T08:31:07.872Z</time></trkpt><trkpt lat="44.5281083" lon="10.6284133"><ele>415.0</ele><time>2026-05-03T08:31:08.873Z</time></trkpt><trkpt lat="44.528045" lon="10.6284933"><ele>415.0</ele><time>2026-05-03T08:31:09.873Z</time></trkpt><trkpt lat="44.5279867" lon="10.6285617"><ele>415.00000000000006</ele><time>2026-05-03T08:31:10.872Z</time></trkpt><trkpt lat="44.52793" lon="10.62862"><ele>415.0</ele><time>2026-05-03T08:31:11.872Z</time></trkpt><trkpt lat="44.5278167" lon="10.628675"><ele>419.00000000000006</ele><time>2026-05-03T08:31:13.873Z</time></trkpt><trkpt lat="44.5277533" lon="10.628655"><ele>423.0</ele><time>2026-05-03T08:31:14.872Z</time></trkpt><trkpt lat="44.5276917" lon="10.62861"><ele>427.0</ele><time>2026-05-03T08:31:15.873Z</time></trkpt><trkpt lat="44.5276333" lon="10.6285433"><ele>431.0</ele><time>2026-05-03T08:31:16.873Z</time></trkpt><trkpt lat="44.527575" lon="10.628475"><ele>435.00000000000006</ele><time>2026-05-03T08:31:17.873Z</time></trkpt><trkpt lat="44.5275217" lon="10.6283817"><ele>439.0</ele><time>2026-05-03T08:31:18.873Z</time></trkpt><trkpt lat="44.5274783" lon="10.6282817"><ele>439.4</ele><time>2026-05-03T08:31:19.873Z</time></trkpt><trkpt lat="44.527435" lon="10.6281767"><ele>439.79999999999995</ele><time>2026-05-03T08:31:20.872Z</time></trkpt><trkpt lat="44.5273883" lon="10.6280517"><ele>440.20000000000005</ele><time>2026-05-03T08:31:21.872Z</time></trkpt><trkpt lat="44.52734" lon="10.627925"><ele>440.6</ele><time>2026-05-03T08:31:22.872Z</time></trkpt><trkpt lat="44.5272867" lon="10.6277783"><ele>441.0</ele><time>2026-05-03T08:31:23.873Z</time></trkpt><trkpt lat="44.5272433" lon="10.627635"><ele>439.25</ele><time>2026-05-03T08:31:24.873Z</time></trkpt><trkpt lat="44.5271983" lon="10.62749"><ele>437.5</ele><time>2026-05-03T08:31:25.872Z</time></trkpt><trkpt lat="44.527155" lon="10.6273367"><ele>435.75</ele><time>2026-05-03T08:31:26.873Z</time></trkpt><trkpt lat="44.5271067" lon="10.627175"><ele>434.0</ele><time>2026-05-03T08:31:27.873Z</time></trkpt><trkpt lat="44.52707" lon="10.6270117"><ele>443.0</ele><time>2026-05-03T08:31:28.873Z</time></trkpt><trkpt lat="44.5270383" lon="10.62685"><ele>452.0</ele><time>2026-05-03T08:31:29.872Z</time></trkpt><trkpt lat="44.5270117" lon="10.626705"><ele>461.0</ele><time>2026-05-03T08:31:30.873Z</time></trkpt><trkpt lat="44.526995" lon="10.6265617"><ele>470.0</ele><time>2026-05-03T08:31:31.873Z</time></trkpt><trkpt lat="44.5269967" lon="10.6264183"><ele>479.0</ele><time>2026-05-03T08:31:32.873Z</time></trkpt><trkpt lat="44.5270233" lon="10.6262817"><ele>474.0</ele><time>2026-05-03T08:31:33.873Z</time></trkpt><trkpt lat="44.5270767" lon="10.6261717"><ele>469.0</ele><time>2026-05-03T08:31:34.873Z</time></trkpt><trkpt lat="44.5271533" lon="10.6260717"><ele>464.0</ele><time>2026-05-03T08:31:35.873Z</time></trkpt><trkpt lat="44.5272533" lon="10.6259717"><ele>459.0</ele><time>2026-05-03T08:31:36.873Z</time></trkpt><trkpt lat="44.5273633" lon="10.6258883"><ele>454.0</ele><time>2026-05-03T08:31:37.873Z</time></trkpt><trkpt lat="44.5274767" lon="10.6257917"><ele>454.0</ele><time>2026-05-03T08:31:38.873Z</time></trkpt><trkpt lat="44.5275767" lon="10.6257033"><ele>454.0</ele><time>2026-05-03T08:31:39.873Z</time></trkpt><trkpt lat="44.52766" lon="10.6256083"><ele>454.0</ele><time>2026-05-03T08:31:40.873Z</time></trkpt><trkpt lat="44.5277267" lon="10.625505"><ele>454.0</ele><time>2026-05-03T08:31:41.872Z</time></trkpt><trkpt lat="44.5277933" lon="10.6253867"><ele>454.0</ele><time>2026-05-03T08:31:42.873Z</time></trkpt><trkpt lat="44.527865" lon="10.6252767"><ele>454.50000000000006</ele><time>2026-05-03T08:31:43.873Z</time></trkpt><trkpt lat="44.5279417" lon="10.62517"><ele>455.0</ele><time>2026-05-03T08:31:44.873Z</time></trkpt><trkpt lat="44.52802" lon="10.6250783"><ele>455.5</ele><time>2026-05-03T08:31:45.872Z</time></trkpt><trkpt lat="44.5280833" lon="10.6249883"><ele>456.0</ele><time>2026-05-03T08:31:46.873Z</time></trkpt><trkpt lat="44.528135" lon="10.6249117"><ele>456.50000000000006</ele><time>2026-05-03T08:31:47.873Z</time></trkpt><trkpt lat="44.528175" lon="10.62484"><ele>457.0</ele><time>2026-05-03T08:31:48.873Z</time></trkpt><trkpt lat="44.5281767" lon="10.6247283"><ele>457.0</ele><time>2026-05-03T08:31:50.873Z</time></trkpt><trkpt lat="44.5280967" lon="10.6246883"><ele>457.00000000000006</ele><time>2026-05-03T08:31:52.873Z</time></trkpt><trkpt lat="44.52796" lon="10.624725"><ele>457.00000000000006</ele><time>2026-05-03T08:31:54.872Z</time></trkpt><trkpt lat="44.5278667" lon="10.6247417"><ele>457.0</ele><time>2026-05-03T08:31:55.872Z</time></trkpt><trkpt lat="44.52776" lon="10.6247583"><ele>457.0</ele><time>2026-05-03T08:31:56.872Z</time></trkpt><trkpt lat="44.5276533" lon="10.624785"><ele>459.40000000000003</ele><time>2026-05-03T08:31:57.872Z</time></trkpt><trkpt lat="44.52756" lon="10.62482"><ele>461.80000000000007</ele><time>2026-05-03T08:31:58.872Z</time></trkpt><trkpt lat="44.5274733" lon="10.624865"><ele>464.2</ele><time>2026-05-03T08:31:59.872Z</time></trkpt><trkpt lat="44.5273933" lon="10.6249067"><ele>466.6</ele><time>2026-05-03T08:32:00.872Z</time></trkpt><trkpt lat="44.5273083" lon="10.6249483"><ele>469.0</ele><time>2026-05-03T08:32:01.872Z</time></trkpt><trkpt lat="44.5272217" lon="10.6249667"><ele>469.00000000000006</ele><time>2026-05-03T08:32:02.872Z</time></trkpt><trkpt lat="44.527145" lon="10.6249517"><ele>469.0</ele><time>2026-05-03T08:32:03.872Z</time></trkpt><trkpt lat="44.52708" lon="10.624905"><ele>469.0</ele><time>2026-05-03T08:32:04.872Z</time></trkpt><trkpt lat="44.5270317" lon="10.6248283"><ele>469.0</ele><time>2026-05-03T08:32:05.871Z</time></trkpt><trkpt lat="44.5269917" lon="10.6247283"><ele>469.00000000000006</ele><time>2026-05-03T08:32:06.872Z</time></trkpt><trkpt lat="44.5269533" lon="10.62464"><ele>469.0</ele><time>2026-05-03T08:32:07.871Z</time></trkpt><trkpt lat="44.5268783" lon="10.624575"><ele>472.0</ele><time>2026-05-03T08:32:09.871Z</time></trkpt><trkpt lat="44.5267967" lon="10.624625"><ele>475.0</ele><time>2026-05-03T08:32:12.871Z</time></trkpt><trkpt lat="44.52671" lon="10.62473"><ele>478.0</ele><time>2026-05-03T08:32:14.871Z</time></trkpt><trkpt lat="44.5266567" lon="10.6248067"><ele>481.0</ele><time>2026-05-03T08:32:15.871Z</time></trkpt><trkpt lat="44.5266" lon="10.6249083"><ele>484.0</ele><time>2026-05-03T08:32:16.871Z</time></trkpt><trkpt lat="44.52654" lon="10.6250167"><ele>484.0</ele><time>2026-05-03T08:32:17.872Z</time></trkpt><trkpt lat="44.5264867" lon="10.6251367"><ele>484.0</ele><time>2026-05-03T08:32:18.872Z</time></trkpt><trkpt lat="44.526445" lon="10.6252683"><ele>484.0</ele><time>2026-05-03T08:32:19.871Z</time></trkpt><trkpt lat="44.52641" lon="10.6253967"><ele>484.0</ele><time>2026-05-03T08:32:20.872Z</time></trkpt><trkpt lat="44.5263933" lon="10.6255183"><ele>484.0</ele><time>2026-05-03T08:32:21.872Z</time></trkpt><trkpt lat="44.5264" lon="10.6256467"><ele>483.0</ele><time>2026-05-03T08:32:22.872Z</time></trkpt><trkpt lat="44.5264117" lon="10.6257783"><ele>482.0</ele><time>2026-05-03T08:32:23.871Z</time></trkpt><trkpt lat="44.5264067" lon="10.62592"><ele>481.0</ele><time>2026-05-03T08:32:24.871Z</time></trkpt><trkpt lat="44.5263817" lon="10.62607"><ele>480.0</ele><time>2026-05-03T08:32:25.871Z</time></trkpt><trkpt lat="44.5263433" lon="10.6262117"><ele>479.0</ele><time>2026-05-03T08:32:26.872Z</time></trkpt><trkpt lat="44.5263" lon="10.6263417"><ele>479.0</ele><time>2026-05-03T08:32:27.872Z</time></trkpt><trkpt lat="44.5262767" lon="10.6264933"><ele>479.0</ele><time>2026-05-03T08:32:28.871Z</time></trkpt><trkpt lat="44.5262817" lon="10.6266617"><ele>479.0</ele><time>2026-05-03T08:32:29.871Z</time></trkpt><trkpt lat="44.5262883" lon="10.6268283"><ele>479.0</ele><time>2026-05-03T08:32:30.872Z</time></trkpt><trkpt lat="44.52629" lon="10.626995"><ele>479.0</ele><time>2026-05-03T08:32:31.871Z</time></trkpt><trkpt lat="44.5262867" lon="10.62716"><ele>479.0</ele><time>2026-05-03T08:32:32.872Z</time></trkpt><trkpt lat="44.52628" lon="10.6273267"><ele>479.0</ele><time>2026-05-03T08:32:33.872Z</time></trkpt><trkpt lat="44.5262583" lon="10.627475"><ele>479.0</ele><time>2026-05-03T08:32:34.872Z</time></trkpt><trkpt lat="44.526235" lon="10.6276117"><ele>479.0</ele><time>2026-05-03T08:32:35.872Z</time></trkpt><trkpt lat="44.5261867" lon="10.627735"><ele>482.0</ele><time>2026-05-03T08:32:36.871Z</time></trkpt><trkpt lat="44.526125" lon="10.6278417"><ele>485.0</ele><time>2026-05-03T08:32:37.872Z</time></trkpt><trkpt lat="44.5260533" lon="10.6279383"><ele>488.0</ele><time>2026-05-03T08:32:38.871Z</time></trkpt><trkpt lat="44.525965" lon="10.6280333"><ele>491.0</ele><time>2026-05-03T08:32:39.872Z</time></trkpt><trkpt lat="44.52587" lon="10.6281233"><ele>494.0</ele><time>2026-05-03T08:32:40.871Z</time></trkpt><trkpt lat="44.5257617" lon="10.6282083"><ele>494.0</ele><time>2026-05-03T08:32:41.872Z</time></trkpt><trkpt lat="44.5256533" lon="10.62829"><ele>494.0</ele><time>2026-05-03T08:32:42.872Z</time></trkpt><trkpt lat="44.5255367" lon="10.6283617"><ele>494.0</ele><time>2026-05-03T08:32:43.871Z</time></trkpt><trkpt lat="44.5254117" lon="10.628415"><ele>494.0</ele><time>2026-05-03T08:32:44.872Z</time></trkpt><trkpt lat="44.5252917" lon="10.6284567"><ele>497.0</ele><time>2026-05-03T08:32:45.872Z</time></trkpt><trkpt lat="44.5251583" lon="10.62848"><ele>500.0</ele><time>2026-05-03T08:32:46.872Z</time></trkpt><trkpt lat="44.5250333" lon="10.6285083"><ele>503.0</ele><time>2026-05-03T08:32:47.871Z</time></trkpt><trkpt lat="44.5249233" lon="10.6285583"><ele>506.0</ele><time>2026-05-03T08:32:48.872Z</time></trkpt><trkpt lat="44.5248133" lon="10.6286267"><ele>504.8</ele><time>2026-05-03T08:32:49.871Z</time></trkpt><trkpt lat="44.5247017" lon="10.6287017"><ele>503.6</ele><time>2026-05-03T08:32:50.872Z</time></trkpt><trkpt lat="44.5246083" lon="10.6287917"><ele>502.4</ele><time>2026-05-03T08:32:51.872Z</time></trkpt><trkpt lat="44.52453" lon="10.62889"><ele>501.2</ele><time>2026-05-03T08:32:52.872Z</time></trkpt><trkpt lat="44.52446" lon="10.6289867"><ele>500.0</ele><time>2026-05-03T08:32:53.872Z</time></trkpt><trkpt lat="44.52439" lon="10.6290867"><ele>499.99999999999994</ele><time>2026-05-03T08:32:54.871Z</time></trkpt><trkpt lat="44.5243217" lon="10.62918"><ele>500.0</ele><time>2026-05-03T08:32:55.872Z</time></trkpt><trkpt lat="44.5242567" lon="10.6292683"><ele>500.0</ele><time>2026-05-03T08:32:56.872Z</time></trkpt><trkpt lat="44.5241917" lon="10.629355"><ele>500.0</ele><time>2026-05-03T08:32:57.872Z</time></trkpt><trkpt lat="44.524135" lon="10.6294433"><ele>499.99999999999994</ele><time>2026-05-03T08:32:58.872Z</time></trkpt><trkpt lat="44.5240783" lon="10.6295383"><ele>500.0</ele><time>2026-05-03T08:32:59.871Z</time></trkpt><trkpt lat="44.5240217" lon="10.6296317"><ele>498.66666666666663</ele><time>2026-05-03T08:33:00.871Z</time></trkpt><trkpt lat="44.5239667" lon="10.62972"><ele>497.3333333333333</ele><time>2026-05-03T08:33:01.872Z</time></trkpt><trkpt lat="44.5239167" lon="10.62981"><ele>496.0</ele><time>2026-05-03T08:33:02.871Z</time></trkpt><trkpt lat="44.52386" lon="10.629875"><ele>494.66666666666663</ele><time>2026-05-03T08:33:03.872Z</time></trkpt><trkpt lat="44.5237967" lon="10.62994"><ele>493.3333333333333</ele><time>2026-05-03T08:33:04.872Z</time></trkpt><trkpt lat="44.5237183" lon="10.6299867"><ele>492.0</ele><time>2026-05-03T08:33:05.872Z</time></trkpt><trkpt lat="44.5236283" lon="10.6300333"><ele>491.6</ele><time>2026-05-03T08:33:06.871Z</time></trkpt><trkpt lat="44.523535" lon="10.63008"><ele>491.20000000000005</ele><time>2026-05-03T08:33:07.871Z</time></trkpt><trkpt lat="44.5234367" lon="10.6301317"><ele>490.8</ele><time>2026-05-03T08:33:08.872Z</time></trkpt><trkpt lat="44.5233383" lon="10.6301733"><ele>490.4</ele><time>2026-05-03T08:33:09.872Z</time></trkpt><trkpt lat="44.5232417" lon="10.630215"><ele>490.0</ele><time>2026-05-03T08:33:10.872Z</time></trkpt><trkpt lat="44.5231367" lon="10.6302533"><ele>490.0</ele><time>2026-05-03T08:33:11.872Z</time></trkpt><trkpt lat="44.5230317" lon="10.6302933"><ele>490.0</ele><time>2026-05-03T08:33:12.872Z</time></trkpt><trkpt lat="44.52292" lon="10.6303233"><ele>490.0</ele><time>2026-05-03T08:33:13.871Z</time></trkpt><trkpt lat="44.5228117" lon="10.63035"><ele>490.0</ele><time>2026-05-03T08:33:14.871Z</time></trkpt><trkpt lat="44.52271" lon="10.630365"><ele>490.0</ele><time>2026-05-03T08:33:15.872Z</time></trkpt><trkpt lat="44.522615" lon="10.6303783"><ele>488.2</ele><time>2026-05-03T08:33:16.871Z</time></trkpt><trkpt lat="44.52253" lon="10.6303733"><ele>486.4</ele><time>2026-05-03T08:33:17.871Z</time></trkpt><trkpt lat="44.522445" lon="10.6303433"><ele>484.6</ele><time>2026-05-03T08:33:18.872Z</time></trkpt><trkpt lat="44.5223683" lon="10.6302817"><ele>482.8</ele><time>2026-05-03T08:33:19.872Z</time></trkpt><trkpt lat="44.5222983" lon="10.63019"><ele>481.0</ele><time>2026-05-03T08:33:20.872Z</time></trkpt><trkpt lat="44.5222417" lon="10.6300617"><ele>481.0</ele><time>2026-05-03T08:33:21.872Z</time></trkpt><trkpt lat="44.5221867" lon="10.62991"><ele>481.0</ele><time>2026-05-03T08:33:22.871Z</time></trkpt><trkpt lat="44.52214" lon="10.6297583"><ele>481.0</ele><time>2026-05-03T08:33:23.872Z</time></trkpt><trkpt lat="44.5221017" lon="10.6295883"><ele>481.0</ele><time>2026-05-03T08:33:24.872Z</time></trkpt><trkpt lat="44.5220633" lon="10.62943"><ele>476.8</ele><time>2026-05-03T08:33:25.872Z</time></trkpt><trkpt lat="44.52203" lon="10.6292883"><ele>472.6</ele><time>2026-05-03T08:33:26.872Z</time></trkpt><trkpt lat="44.5220067" lon="10.6291533"><ele>468.4</ele><time>2026-05-03T08:33:27.872Z</time></trkpt><trkpt lat="44.5219817" lon="10.6290317"><ele>464.2</ele><time>2026-05-03T08:33:28.871Z</time></trkpt><trkpt lat="44.5219533" lon="10.62892"><ele>460.0</ele><time>2026-05-03T08:33:29.872Z</time></trkpt><trkpt lat="44.5219183" lon="10.6288267"><ele>460.00000000000006</ele><time>2026-05-03T08:33:30.872Z</time></trkpt><trkpt lat="44.52188" lon="10.628755"><ele>460.0</ele><time>2026-05-03T08:33:31.872Z</time></trkpt><trkpt lat="44.5218083" lon="10.6287033"><ele>460.0</ele><time>2026-05-03T08:33:33.872Z</time></trkpt><trkpt lat="44.5217583" lon="10.62876"><ele>460.0</ele><time>2026-05-03T08:33:35.872Z</time></trkpt><trkpt lat="44.5217017" lon="10.6288867"><ele>460.00000000000006</ele><time>2026-05-03T08:33:37.872Z</time></trkpt><trkpt lat="44.5217" lon="10.6289917"><ele>460.0</ele><time>2026-05-03T08:33:38.871Z</time></trkpt><trkpt lat="44.5217067" lon="10.62912"><ele>460.0</ele><time>2026-05-03T08:33:39.871Z</time></trkpt><trkpt lat="44.5217083" lon="10.62926"><ele>460.0</ele><time>2026-05-03T08:33:40.871Z</time></trkpt><trkpt lat="44.521695" lon="10.62942"><ele>460.0</ele><time>2026-05-03T08:33:41.871Z</time></trkpt><trkpt lat="44.521695" lon="10.6295783"><ele>460.0</ele><time>2026-05-03T08:33:42.872Z</time></trkpt><trkpt lat="44.5216967" lon="10.6297317"><ele>460.0</ele><time>2026-05-03T08:33:43.872Z</time></trkpt><trkpt lat="44.521695" lon="10.629865"><ele>460.4</ele><time>2026-05-03T08:33:44.872Z</time></trkpt><trkpt lat="44.5216583" lon="10.6299817"><ele>460.8</ele><time>2026-05-03T08:33:45.871Z</time></trkpt><trkpt lat="44.5216033" lon="10.6300783"><ele>461.20000000000005</ele><time>2026-05-03T08:33:46.872Z</time></trkpt><trkpt lat="44.5215333" lon="10.63014"><ele>461.6</ele><time>2026-05-03T08:33:47.872Z</time></trkpt><trkpt lat="44.5214417" lon="10.6302"><ele>462.0</ele><time>2026-05-03T08:33:48.872Z</time></trkpt><trkpt lat="44.5213367" lon="10.6302567"><ele>458.25</ele><time>2026-05-03T08:33:49.872Z</time></trkpt><trkpt lat="44.5212283" lon="10.6303217"><ele>454.5</ele><time>2026-05-03T08:33:50.872Z</time></trkpt><trkpt lat="44.5211267" lon="10.6304067"><ele>450.75</ele><time>2026-05-03T08:33:51.871Z</time></trkpt><trkpt lat="44.5210383" lon="10.6304933"><ele>447.0</ele><time>2026-05-03T08:33:52.872Z</time></trkpt><trkpt lat="44.5209533" lon="10.630595"><ele>447.0</ele><time>2026-05-03T08:33:53.872Z</time></trkpt><trkpt lat="44.52087" lon="10.63071"><ele>447.00000000000006</ele><time>2026-05-03T08:33:54.872Z</time></trkpt><trkpt lat="44.5207917" lon="10.6308367"><ele>447.00000000000006</ele><time>2026-05-03T08:33:55.871Z</time></trkpt><trkpt lat="44.5207283" lon="10.630965"><ele>447.0</ele><time>2026-05-03T08:33:56.872Z</time></trkpt><trkpt lat="44.5206817" lon="10.6310767"><ele>447.0</ele><time>2026-05-03T08:33:57.871Z</time></trkpt><trkpt lat="44.5206267" lon="10.6311667"><ele>446.0</ele><time>2026-05-03T08:33:58.872Z</time></trkpt><trkpt lat="44.5205533" lon="10.6312317"><ele>445.0</ele><time>2026-05-03T08:33:59.872Z</time></trkpt><trkpt lat="44.5204733" lon="10.6312733"><ele>444.0</ele><time>2026-05-03T08:34:00.872Z</time></trkpt><trkpt lat="44.52039" lon="10.631295"><ele>443.0</ele><time>2026-05-03T08:34:01.871Z</time></trkpt><trkpt lat="44.5202967" lon="10.63129"><ele>442.0</ele><time>2026-05-03T08:34:02.872Z</time></trkpt><trkpt lat="44.5202017" lon="10.6312767"><ele>441.0</ele><time>2026-05-03T08:34:03.872Z</time></trkpt><trkpt lat="44.52011" lon="10.6312567"><ele>439.6</ele><time>2026-05-03T08:34:04.871Z</time></trkpt><trkpt lat="44.5200317" lon="10.6312433"><ele>438.20000000000005</ele><time>2026-05-03T08:34:05.871Z</time></trkpt><trkpt lat="44.5199367" lon="10.6312333"><ele>436.79999999999995</ele><time>2026-05-03T08:34:07.872Z</time></trkpt><trkpt lat="44.5198717" lon="10.6312333"><ele>435.4</ele><time>2026-05-03T08:34:10.872Z</time></trkpt><trkpt lat="44.5197817" lon="10.63122"><ele>434.0</ele><time>2026-05-03T08:34:12.872Z</time></trkpt><trkpt lat="44.51965" lon="10.6312167"><ele>434.0</ele><time>2026-05-03T08:34:14.871Z</time></trkpt><trkpt lat="44.5195683" lon="10.6312283"><ele>434.0</ele><time>2026-05-03T08:34:15.871Z</time></trkpt><trkpt lat="44.5194767" lon="10.631245"><ele>434.0</ele><time>2026-05-03T08:34:16.872Z</time></trkpt><trkpt lat="44.51938" lon="10.6312833"><ele>434.0</ele><time>2026-05-03T08:34:17.872Z</time></trkpt><trkpt lat="44.51928" lon="10.6313333"><ele>434.0</ele><time>2026-05-03T08:34:18.872Z</time></trkpt><trkpt lat="44.5191817" lon="10.6314083"><ele>434.5</ele><time>2026-05-03T08:34:19.872Z</time></trkpt><trkpt lat="44.519085" lon="10.631495"><ele>435.0</ele><time>2026-05-03T08:34:20.872Z</time></trkpt><trkpt lat="44.518995" lon="10.6315967"><ele>435.5</ele><time>2026-05-03T08:34:21.871Z</time></trkpt><trkpt lat="44.518915" lon="10.63173"><ele>436.0</ele><time>2026-05-03T08:34:22.872Z</time></trkpt><trkpt lat="44.5188467" lon="10.6318717"><ele>435.0</ele><time>2026-05-03T08:34:23.872Z</time></trkpt><trkpt lat="44.5187767" lon="10.6320033"><ele>434.0</ele><time>2026-05-03T08:34:24.871Z</time></trkpt><trkpt lat="44.5186933" lon="10.6321"><ele>433.0</ele><time>2026-05-03T08:34:25.871Z</time></trkpt><trkpt lat="44.5185917" lon="10.6321433"><ele>432.0</ele><time>2026-05-03T08:34:26.872Z</time></trkpt><trkpt lat="44.5184883" lon="10.6321567"><ele>431.0</ele><time>2026-05-03T08:34:27.872Z</time></trkpt><trkpt lat="44.5183917" lon="10.6322"><ele>435.75</ele><time>2026-05-03T08:34:28.871Z</time></trkpt><trkpt lat="44.5182983" lon="10.6322867"><ele>440.5</ele><time>2026-05-03T08:34:29.872Z</time></trkpt><trkpt lat="44.5182117" lon="10.6324017"><ele>445.25</ele><time>2026-05-03T08:34:30.872Z</time></trkpt><trkpt lat="44.5181183" lon="10.63251"><ele>450.0</ele><time>2026-05-03T08:34:31.872Z</time></trkpt><trkpt lat="44.51802" lon="10.63262"><ele>450.0</ele><time>2026-05-03T08:34:32.871Z</time></trkpt><trkpt lat="44.5179333" lon="10.6327383"><ele>450.0</ele><time>2026-05-03T08:34:33.872Z</time></trkpt><trkpt lat="44.5178333" lon="10.6328333"><ele>450.0</ele><time>2026-05-03T08:34:34.871Z</time></trkpt><trkpt lat="44.5177533" lon="10.6329167"><ele>450.0</ele><time>2026-05-03T08:34:35.872Z</time></trkpt><trkpt lat="44.517655" lon="10.6329817"><ele>451.6</ele><time>2026-05-03T08:34:36.871Z</time></trkpt><trkpt lat="44.517545" lon="10.63299"><ele>453.2</ele><time>2026-05-03T08:34:37.871Z</time></trkpt><trkpt lat="44.5174417" lon="10.63296"><ele>454.79999999999995</ele><time>2026-05-03T08:34:38.871Z</time></trkpt><trkpt lat="44.51734" lon="10.6328817"><ele>456.4</ele><time>2026-05-03T08:34:39.872Z</time></trkpt><trkpt lat="44.51725" lon="10.6327817"><ele>458.0</ele><time>2026-05-03T08:34:40.872Z</time></trkpt><trkpt lat="44.51715" lon="10.632675"><ele>459.75</ele><time>2026-05-03T08:34:41.872Z</time></trkpt><trkpt lat="44.517045" lon="10.63257"><ele>461.5</ele><time>2026-05-03T08:34:42.872Z</time></trkpt><trkpt lat="44.51693" lon="10.6324933"><ele>463.25</ele><time>2026-05-03T08:34:43.872Z</time></trkpt><trkpt lat="44.5168167" lon="10.63244"><ele>465.0</ele><time>2026-05-03T08:34:44.872Z</time></trkpt><trkpt lat="44.516695" lon="10.6324033"><ele>465.0</ele><time>2026-05-03T08:34:45.871Z</time></trkpt><trkpt lat="44.5165683" lon="10.6323883"><ele>465.0</ele><time>2026-05-03T08:34:46.871Z</time></trkpt><trkpt lat="44.5164417" lon="10.632395"><ele>465.0</ele><time>2026-05-03T08:34:47.871Z</time></trkpt><trkpt lat="44.5163167" lon="10.6324017"><ele>465.0</ele><time>2026-05-03T08:34:48.871Z</time></trkpt><trkpt lat="44.5162017" lon="10.632415"><ele>465.6</ele><time>2026-05-03T08:34:49.872Z</time></trkpt><trkpt lat="44.5160967" lon="10.6324567"><ele>466.2</ele><time>2026-05-03T08:34:50.872Z</time></trkpt><trkpt lat="44.5159933" lon="10.6325167"><ele>466.79999999999995</ele><time>2026-05-03T08:34:51.872Z</time></trkpt><trkpt lat="44.5158967" lon="10.6325633"><ele>467.4</ele><time>2026-05-03T08:34:52.872Z</time></trkpt><trkpt lat="44.515805" lon="10.63261"><ele>468.0</ele><time>2026-05-03T08:34:53.872Z</time></trkpt><trkpt lat="44.5157067" lon="10.6326467"><ele>468.0</ele><time>2026-05-03T08:34:54.872Z</time></trkpt><trkpt lat="44.51561" lon="10.6326783"><ele>467.99999999999994</ele><time>2026-05-03T08:34:55.872Z</time></trkpt><trkpt lat="44.51551" lon="10.6326983"><ele>467.99999999999994</ele><time>2026-05-03T08:34:56.871Z</time></trkpt><trkpt lat="44.5154117" lon="10.6327"><ele>468.0</ele><time>2026-05-03T08:34:57.871Z</time></trkpt><trkpt lat="44.515325" lon="10.6326567"><ele>468.0</ele><time>2026-05-03T08:34:58.872Z</time></trkpt><trkpt lat="44.515235" lon="10.6325867"><ele>469.75</ele><time>2026-05-03T08:34:59.872Z</time></trkpt><trkpt lat="44.5151317" lon="10.6325183"><ele>471.5</ele><time>2026-05-03T08:35:00.872Z</time></trkpt><trkpt lat="44.5150133" lon="10.6324617"><ele>473.25</ele><time>2026-05-03T08:35:01.872Z</time></trkpt><trkpt lat="44.5148833" lon="10.6324317"><ele>475.0</ele><time>2026-05-03T08:35:02.872Z</time></trkpt><trkpt lat="44.514755" lon="10.6324167"><ele>475.0</ele><time>2026-05-03T08:35:03.871Z</time></trkpt><trkpt lat="44.5146217" lon="10.6323967"><ele>475.0</ele><time>2026-05-03T08:35:04.872Z</time></trkpt><trkpt lat="44.5144967" lon="10.6323583"><ele>475.0</ele><time>2026-05-03T08:35:05.872Z</time></trkpt><trkpt lat="44.5143833" lon="10.632305"><ele>475.0</ele><time>2026-05-03T08:35:06.872Z</time></trkpt><trkpt lat="44.5142733" lon="10.6322383"><ele>476.25</ele><time>2026-05-03T08:35:07.871Z</time></trkpt><trkpt lat="44.5141533" lon="10.6321783"><ele>477.5</ele><time>2026-05-03T08:35:08.872Z</time></trkpt><trkpt lat="44.5140267" lon="10.632145"><ele>478.75</ele><time>2026-05-03T08:35:09.871Z</time></trkpt><trkpt lat="44.5139" lon="10.6321283"><ele>480.0</ele><time>2026-05-03T08:35:10.872Z</time></trkpt><trkpt lat="44.5137783" lon="10.63212"><ele>479.5</ele><time>2026-05-03T08:35:11.872Z</time></trkpt><trkpt lat="44.51365" lon="10.63211"><ele>479.0</ele><time>2026-05-03T08:35:12.871Z</time></trkpt><trkpt lat="44.5135333" lon="10.6320933"><ele>478.5</ele><time>2026-05-03T08:35:13.871Z</time></trkpt><trkpt lat="44.513425" lon="10.6320717"><ele>478.0</ele><time>2026-05-03T08:35:14.871Z</time></trkpt><trkpt lat="44.5133233" lon="10.6320533"><ele>478.0</ele><time>2026-05-03T08:35:15.872Z</time></trkpt><trkpt lat="44.51323" lon="10.632045"><ele>477.99999999999994</ele><time>2026-05-03T08:35:16.871Z</time></trkpt><trkpt lat="44.5131333" lon="10.6320883"><ele>477.99999999999994</ele><time>2026-05-03T08:35:17.871Z</time></trkpt><trkpt lat="44.5130433" lon="10.6321583"><ele>478.0</ele><time>2026-05-03T08:35:18.872Z</time></trkpt><trkpt lat="44.5129433" lon="10.6322433"><ele>478.0</ele><time>2026-05-03T08:35:19.872Z</time></trkpt><trkpt lat="44.5128383" lon="10.632305"><ele>478.5</ele><time>2026-05-03T08:35:20.872Z</time></trkpt><trkpt lat="44.512715" lon="10.6323267"><ele>479.0</ele><time>2026-05-03T08:35:21.872Z</time></trkpt><trkpt lat="44.5125817" lon="10.6323"><ele>479.5</ele><time>2026-05-03T08:35:22.871Z</time></trkpt><trkpt lat="44.5124583" lon="10.6322433"><ele>480.0</ele><time>2026-05-03T08:35:23.871Z</time></trkpt><trkpt lat="44.51234" lon="10.6321567"><ele>480.0</ele><time>2026-05-03T08:35:24.871Z</time></trkpt><trkpt lat="44.512235" lon="10.6320533"><ele>480.0</ele><time>2026-05-03T08:35:25.872Z</time></trkpt><trkpt lat="44.5121283" lon="10.6319367"><ele>480.0</ele><time>2026-05-03T08:35:26.872Z</time></trkpt><trkpt lat="44.5120183" lon="10.6318283"><ele>480.0</ele><time>2026-05-03T08:35:27.872Z</time></trkpt><trkpt lat="44.5119017" lon="10.6317167"><ele>481.0</ele><time>2026-05-03T08:35:28.872Z</time></trkpt><trkpt lat="44.5117783" lon="10.6316133"><ele>482.0</ele><time>2026-05-03T08:35:29.872Z</time></trkpt><trkpt lat="44.51166" lon="10.6315167"><ele>483.0</ele><time>2026-05-03T08:35:30.871Z</time></trkpt><trkpt lat="44.5115267" lon="10.6314283"><ele>484.0</ele><time>2026-05-03T08:35:31.871Z</time></trkpt><trkpt lat="44.5114083" lon="10.631345"><ele>484.0</ele><time>2026-05-03T08:35:32.871Z</time></trkpt><trkpt lat="44.5112967" lon="10.631245"><ele>484.0</ele><time>2026-05-03T08:35:33.872Z</time></trkpt><trkpt lat="44.5112083" lon="10.631135"><ele>484.0</ele><time>2026-05-03T08:35:34.871Z</time></trkpt><trkpt lat="44.5111317" lon="10.6309817"><ele>484.0</ele><time>2026-05-03T08:35:35.872Z</time></trkpt><trkpt lat="44.5110783" lon="10.630805"><ele>485.75</ele><time>2026-05-03T08:35:36.872Z</time></trkpt><trkpt lat="44.5110317" lon="10.6306067"><ele>487.5</ele><time>2026-05-03T08:35:37.872Z</time></trkpt><trkpt lat="44.5110017" lon="10.630395"><ele>489.25</ele><time>2026-05-03T08:35:38.871Z</time></trkpt><trkpt lat="44.51097" lon="10.630195"><ele>491.0</ele><time>2026-05-03T08:35:39.871Z</time></trkpt><trkpt lat="44.5109433" lon="10.630025"><ele>491.0</ele><time>2026-05-03T08:35:40.871Z</time></trkpt><trkpt lat="44.5108917" lon="10.6298533"><ele>491.0</ele><time>2026-05-03T08:35:41.871Z</time></trkpt><trkpt lat="44.51082" lon="10.6297"><ele>491.0</ele><time>2026-05-03T08:35:42.871Z</time></trkpt><trkpt lat="44.5107283" lon="10.6295467"><ele>491.0</ele><time>2026-05-03T08:35:43.872Z</time></trkpt><trkpt lat="44.5106517" lon="10.62938"><ele>491.5</ele><time>2026-05-03T08:35:44.871Z</time></trkpt><trkpt lat="44.5105917" lon="10.62919"><ele>492.0</ele><time>2026-05-03T08:35:45.871Z</time></trkpt><trkpt lat="44.5105533" lon="10.6289883"><ele>492.5</ele><time>2026-05-03T08:35:46.871Z</time></trkpt><trkpt lat="44.5105167" lon="10.628785"><ele>493.0</ele><time>2026-05-03T08:35:47.872Z</time></trkpt><trkpt lat="44.5104783" lon="10.6285883"><ele>494.75</ele><time>2026-05-03T08:35:48.871Z</time></trkpt><trkpt lat="44.5104333" lon="10.62839"><ele>496.5</ele><time>2026-05-03T08:35:49.871Z</time></trkpt><trkpt lat="44.51039" lon="10.6282117"><ele>498.25</ele><time>2026-05-03T08:35:50.871Z</time></trkpt><trkpt lat="44.5103533" lon="10.6280433"><ele>500.0</ele><time>2026-05-03T08:35:51.871Z</time></trkpt><trkpt lat="44.5103033" lon="10.62789"><ele>500.0</ele><time>2026-05-03T08:35:52.871Z</time></trkpt><trkpt lat="44.5102417" lon="10.6277483"><ele>500.0</ele><time>2026-05-03T08:35:53.872Z</time></trkpt><trkpt lat="44.5101667" lon="10.6276317"><ele>500.0</ele><time>2026-05-03T08:35:54.872Z</time></trkpt><trkpt lat="44.5100933" lon="10.6275417"><ele>500.0</ele><time>2026-05-03T08:35:55.872Z</time></trkpt><trkpt lat="44.5100217" lon="10.6274667"><ele>500.0</ele><time>2026-05-03T08:35:56.871Z</time></trkpt><trkpt lat="44.509955" lon="10.627415"><ele>499.99999999999994</ele><time>2026-05-03T08:35:57.872Z</time></trkpt><trkpt lat="44.5098633" lon="10.627345"><ele>500.0</ele><time>2026-05-03T08:35:59.871Z</time></trkpt><trkpt lat="44.5098017" lon="10.6273267"><ele>500.0</ele><time>2026-05-03T08:36:01.872Z</time></trkpt><trkpt lat="44.509725" lon="10.6273417"><ele>500.0</ele><time>2026-05-03T08:36:03.872Z</time></trkpt><trkpt lat="44.5096067" lon="10.6273933"><ele>499.99999999999994</ele><time>2026-05-03T08:36:05.871Z</time></trkpt><trkpt lat="44.50953" lon="10.6274217"><ele>500.0</ele><time>2026-05-03T08:36:06.872Z</time></trkpt><trkpt lat="44.5094533" lon="10.6274417"><ele>499.3333333333333</ele><time>2026-05-03T08:36:07.871Z</time></trkpt><trkpt lat="44.5093883" lon="10.6274233"><ele>498.66666666666663</ele><time>2026-05-03T08:36:08.872Z</time></trkpt><trkpt lat="44.5093167" lon="10.627305"><ele>498.0</ele><time>2026-05-03T08:36:10.872Z</time></trkpt><trkpt lat="44.5093083" lon="10.62713"><ele>497.33333333333337</ele><time>2026-05-03T08:36:12.871Z</time></trkpt><trkpt lat="44.509325" lon="10.6270383"><ele>496.6666666666667</ele><time>2026-05-03T08:36:13.871Z</time></trkpt><trkpt lat="44.5093683" lon="10.6269583"><ele>496.0</ele><time>2026-05-03T08:36:14.872Z</time></trkpt><trkpt lat="44.50944" lon="10.6268967"><ele>494.33333333333337</ele><time>2026-05-03T08:36:15.871Z</time></trkpt><trkpt lat="44.5095283" lon="10.62686"><ele>492.6666666666667</ele><time>2026-05-03T08:36:16.871Z</time></trkpt><trkpt lat="44.50961" lon="10.6268117"><ele>491.0</ele><time>2026-05-03T08:36:17.872Z</time></trkpt><trkpt lat="44.50967" lon="10.6267417"><ele>489.33333333333337</ele><time>2026-05-03T08:36:18.872Z</time></trkpt><trkpt lat="44.5097017" lon="10.6266467"><ele>487.6666666666667</ele><time>2026-05-03T08:36:19.871Z</time></trkpt><trkpt lat="44.509715" lon="10.62653"><ele>486.0</ele><time>2026-05-03T08:36:20.872Z</time></trkpt><trkpt lat="44.5097167" lon="10.6264117"><ele>485.4</ele><time>2026-05-03T08:36:21.871Z</time></trkpt><trkpt lat="44.509705" lon="10.626295"><ele>484.8</ele><time>2026-05-03T08:36:22.871Z</time></trkpt><trkpt lat="44.5096767" lon="10.62617"><ele>484.19999999999993</ele><time>2026-05-03T08:36:23.872Z</time></trkpt><trkpt lat="44.509635" lon="10.6260433"><ele>483.59999999999997</ele><time>2026-05-03T08:36:24.871Z</time></trkpt><trkpt lat="44.5095917" lon="10.6259083"><ele>483.0</ele><time>2026-05-03T08:36:25.871Z</time></trkpt><trkpt lat="44.5095633" lon="10.6257633"><ele>481.4</ele><time>2026-05-03T08:36:26.871Z</time></trkpt><trkpt lat="44.5095467" lon="10.62562"><ele>479.79999999999995</ele><time>2026-05-03T08:36:27.871Z</time></trkpt><trkpt lat="44.5095417" lon="10.62548"><ele>478.2</ele><time>2026-05-03T08:36:28.871Z</time></trkpt><trkpt lat="44.50955" lon="10.6253317"><ele>476.6</ele><time>2026-05-03T08:36:29.872Z</time></trkpt><trkpt lat="44.5095717" lon="10.625185"><ele>475.0</ele><time>2026-05-03T08:36:30.871Z</time></trkpt><trkpt lat="44.5095983" lon="10.6250433"><ele>472.75</ele><time>2026-05-03T08:36:31.872Z</time></trkpt><trkpt lat="44.50962" lon="10.6248883"><ele>470.5</ele><time>2026-05-03T08:36:32.872Z</time></trkpt><trkpt lat="44.509625" lon="10.6247383"><ele>468.25</ele><time>2026-05-03T08:36:33.872Z</time></trkpt><trkpt lat="44.5096067" lon="10.6245767"><ele>466.0</ele><time>2026-05-03T08:36:34.872Z</time></trkpt><trkpt lat="44.509585" lon="10.6244"><ele>467.75</ele><time>2026-05-03T08:36:35.871Z</time></trkpt><trkpt lat="44.509565" lon="10.6242233"><ele>469.5</ele><time>2026-05-03T08:36:36.872Z</time></trkpt><trkpt lat="44.5095267" lon="10.624055"><ele>471.25</ele><time>2026-05-03T08:36:37.871Z</time></trkpt><trkpt lat="44.5094783" lon="10.6238967"><ele>473.0</ele><time>2026-05-03T08:36:38.871Z</time></trkpt><trkpt lat="44.5094267" lon="10.6237333"><ele>474.5</ele><time>2026-05-03T08:36:39.872Z</time></trkpt><trkpt lat="44.50939" lon="10.6235633"><ele>476.0</ele><time>2026-05-03T08:36:40.872Z</time></trkpt><trkpt lat="44.50937" lon="10.6233933"><ele>477.5</ele><time>2026-05-03T08:36:41.871Z</time></trkpt><trkpt lat="44.5093533" lon="10.6232217"><ele>479.0</ele><time>2026-05-03T08:36:42.871Z</time></trkpt><trkpt lat="44.5093267" lon="10.6230583"><ele>479.0</ele><time>2026-05-03T08:36:43.871Z</time></trkpt><trkpt lat="44.5092917" lon="10.6229017"><ele>479.0</ele><time>2026-05-03T08:36:44.872Z</time></trkpt><trkpt lat="44.5092633" lon="10.62275"><ele>479.0</ele><time>2026-05-03T08:36:45.872Z</time></trkpt><trkpt lat="44.5092267" lon="10.62262"><ele>479.0</ele><time>2026-05-03T08:36:46.872Z</time></trkpt><trkpt lat="44.5091917" lon="10.62249"><ele>479.0</ele><time>2026-05-03T08:36:47.872Z</time></trkpt><trkpt lat="44.5091717" lon="10.6223783"><ele>480.4</ele><time>2026-05-03T08:36:48.871Z</time></trkpt><trkpt lat="44.5091533" lon="10.6222667"><ele>481.79999999999995</ele><time>2026-05-03T08:36:49.872Z</time></trkpt><trkpt lat="44.509125" lon="10.6221417"><ele>483.20000000000005</ele><time>2026-05-03T08:36:50.872Z</time></trkpt><trkpt lat="44.509075" lon="10.6220117"><ele>484.6</ele><time>2026-05-03T08:36:51.871Z</time></trkpt><trkpt lat="44.5090267" lon="10.6218983"><ele>486.0</ele><time>2026-05-03T08:36:52.872Z</time></trkpt><trkpt lat="44.508985" lon="10.6217767"><ele>485.75</ele><time>2026-05-03T08:36:53.872Z</time></trkpt><trkpt lat="44.508965" lon="10.6216367"><ele>485.5</ele><time>2026-05-03T08:36:54.872Z</time></trkpt><trkpt lat="44.5089633" lon="10.62149"><ele>485.25</ele><time>2026-05-03T08:36:55.872Z</time></trkpt><trkpt lat="44.5089767" lon="10.6213133"><ele>485.0</ele><time>2026-05-03T08:36:56.871Z</time></trkpt><trkpt lat="44.508995" lon="10.6211317"><ele>485.0</ele><time>2026-05-03T08:36:57.872Z</time></trkpt><trkpt lat="44.5090033" lon="10.6209683"><ele>485.0</ele><time>2026-05-03T08:36:58.872Z</time></trkpt><trkpt lat="44.5090067" lon="10.6208117"><ele>485.0</ele><time>2026-05-03T08:36:59.871Z</time></trkpt><trkpt lat="44.5090083" lon="10.62066"><ele>485.0</ele><time>2026-05-03T08:37:00.871Z</time></trkpt><trkpt lat="44.5090117" lon="10.62051"><ele>485.0</ele><time>2026-05-03T08:37:01.871Z</time></trkpt><trkpt lat="44.5090117" lon="10.6203583"><ele>485.6</ele><time>2026-05-03T08:37:02.872Z</time></trkpt><trkpt lat="44.5089983" lon="10.6202067"><ele>486.2</ele><time>2026-05-03T08:37:03.871Z</time></trkpt><trkpt lat="44.5089933" lon="10.62007"><ele>486.79999999999995</ele><time>2026-05-03T08:37:04.872Z</time></trkpt><trkpt lat="44.5089783" lon="10.61995"><ele>487.4</ele><time>2026-05-03T08:37:05.872Z</time></trkpt><trkpt lat="44.5089367" lon="10.6198283"><ele>488.0</ele><time>2026-05-03T08:37:06.872Z</time></trkpt><trkpt lat="44.508855" lon="10.61974"><ele>488.0</ele><time>2026-05-03T08:37:07.871Z</time></trkpt><trkpt lat="44.50875" lon="10.619665"><ele>487.99999999999994</ele><time>2026-05-03T08:37:08.871Z</time></trkpt><trkpt lat="44.5086467" lon="10.6195933"><ele>487.99999999999994</ele><time>2026-05-03T08:37:09.872Z</time></trkpt><trkpt lat="44.508545" lon="10.619535"><ele>488.0</ele><time>2026-05-03T08:37:10.872Z</time></trkpt><trkpt lat="44.5084583" lon="10.61946"><ele>488.0</ele><time>2026-05-03T08:37:11.872Z</time></trkpt><trkpt lat="44.5083833" lon="10.619345"><ele>486.5</ele><time>2026-05-03T08:37:12.872Z</time></trkpt><trkpt lat="44.5083183" lon="10.6192"><ele>485.0</ele><time>2026-05-03T08:37:13.871Z</time></trkpt><trkpt lat="44.508255" lon="10.619045"><ele>483.5</ele><time>2026-05-03T08:37:14.871Z</time></trkpt><trkpt lat="44.5081917" lon="10.618885"><ele>482.0</ele><time>2026-05-03T08:37:15.872Z</time></trkpt><trkpt lat="44.508125" lon="10.6187267"><ele>481.5</ele><time>2026-05-03T08:37:16.872Z</time></trkpt><trkpt lat="44.5080533" lon="10.6185933"><ele>481.0</ele><time>2026-05-03T08:37:17.871Z</time></trkpt><trkpt lat="44.507965" lon="10.61848"><ele>480.5</ele><time>2026-05-03T08:37:18.871Z</time></trkpt><trkpt lat="44.50786" lon="10.6184"><ele>480.0</ele><time>2026-05-03T08:37:19.872Z</time></trkpt><trkpt lat="44.5077417" lon="10.61834"><ele>482.25</ele><time>2026-05-03T08:37:20.872Z</time></trkpt><trkpt lat="44.5076167" lon="10.6182933"><ele>484.5</ele><time>2026-05-03T08:37:21.871Z</time></trkpt><trkpt lat="44.5074967" lon="10.6182417"><ele>486.75</ele><time>2026-05-03T08:37:22.871Z</time></trkpt><trkpt lat="44.507375" lon="10.6181633"><ele>489.0</ele><time>2026-05-03T08:37:23.872Z</time></trkpt><trkpt lat="44.5072583" lon="10.6180667"><ele>489.0</ele><time>2026-05-03T08:37:24.872Z</time></trkpt><trkpt lat="44.5071533" lon="10.6179467"><ele>489.0</ele><time>2026-05-03T08:37:25.872Z</time></trkpt><trkpt lat="44.507045" lon="10.61783"><ele>489.0</ele><time>2026-05-03T08:37:26.871Z</time></trkpt><trkpt lat="44.5069433" lon="10.61773"><ele>489.0</ele><time>2026-05-03T08:37:27.872Z</time></trkpt><trkpt lat="44.5068683" lon="10.6176233"><ele>490.4</ele><time>2026-05-03T08:37:28.872Z</time></trkpt><trkpt lat="44.5068217" lon="10.6175217"><ele>491.79999999999995</ele><time>2026-05-03T08:37:29.872Z</time></trkpt><trkpt lat="44.50681" lon="10.6173733"><ele>493.20000000000005</ele><time>2026-05-03T08:37:30.871Z</time></trkpt><trkpt lat="44.50684" lon="10.6172233"><ele>494.6</ele><time>2026-05-03T08:37:31.871Z</time></trkpt><trkpt lat="44.5068867" lon="10.6170717"><ele>496.0</ele><time>2026-05-03T08:37:32.871Z</time></trkpt><trkpt lat="44.506945" lon="10.6169167"><ele>498.0</ele><time>2026-05-03T08:37:33.871Z</time></trkpt><trkpt lat="44.5070083" lon="10.616765"><ele>500.0</ele><time>2026-05-03T08:37:34.872Z</time></trkpt><trkpt lat="44.5070883" lon="10.6166367"><ele>502.0</ele><time>2026-05-03T08:37:35.872Z</time></trkpt><trkpt lat="44.5071867" lon="10.6165267"><ele>504.0</ele><time>2026-05-03T08:37:36.872Z</time></trkpt><trkpt lat="44.5072933" lon="10.6164467"><ele>505.4</ele><time>2026-05-03T08:37:37.872Z</time></trkpt><trkpt lat="44.50741" lon="10.616385"><ele>506.79999999999995</ele><time>2026-05-03T08:37:38.871Z</time></trkpt><trkpt lat="44.5075233" lon="10.61633"><ele>508.20000000000005</ele><time>2026-05-03T08:37:39.871Z</time></trkpt><trkpt lat="44.50762" lon="10.6162733"><ele>509.6</ele><time>2026-05-03T08:37:40.872Z</time></trkpt><trkpt lat="44.5077017" lon="10.6162133"><ele>511.0</ele><time>2026-05-03T08:37:41.871Z</time></trkpt><trkpt lat="44.50776" lon="10.6161417"><ele>512.6</ele><time>2026-05-03T08:37:42.872Z</time></trkpt><trkpt lat="44.5077867" lon="10.6160467"><ele>514.2</ele><time>2026-05-03T08:37:43.872Z</time></trkpt><trkpt lat="44.507785" lon="10.6159383"><ele>515.8</ele><time>2026-05-03T08:37:44.872Z</time></trkpt><trkpt lat="44.5077533" lon="10.6158283"><ele>517.4</ele><time>2026-05-03T08:37:45.871Z</time></trkpt><trkpt lat="44.5076717" lon="10.6157217"><ele>519.0</ele><time>2026-05-03T08:37:46.872Z</time></trkpt><trkpt lat="44.5075583" lon="10.6156333"><ele>519.0</ele><time>2026-05-03T08:37:47.872Z</time></trkpt><trkpt lat="44.5074217" lon="10.6155633"><ele>519.0</ele><time>2026-05-03T08:37:48.872Z</time></trkpt><trkpt lat="44.5072867" lon="10.6154867"><ele>519.0</ele><time>2026-05-03T08:37:49.871Z</time></trkpt><trkpt lat="44.50716" lon="10.6154017"><ele>519.0</ele><time>2026-05-03T08:37:50.872Z</time></trkpt><trkpt lat="44.5070283" lon="10.6153233"><ele>520.0</ele><time>2026-05-03T08:37:51.872Z</time></trkpt><trkpt lat="44.506895" lon="10.6152433"><ele>521.0</ele><time>2026-05-03T08:37:52.872Z</time></trkpt><trkpt lat="44.50676" lon="10.61517"><ele>522.0</ele><time>2026-05-03T08:37:53.872Z</time></trkpt><trkpt lat="44.506635" lon="10.6150983"><ele>523.0</ele><time>2026-05-03T08:37:54.872Z</time></trkpt><trkpt lat="44.50651" lon="10.61503"><ele>523.0</ele><time>2026-05-03T08:37:55.872Z</time></trkpt><trkpt lat="44.50639" lon="10.6149917"><ele>523.0</ele><time>2026-05-03T08:37:56.871Z</time></trkpt><trkpt lat="44.5062767" lon="10.614945"><ele>523.0</ele><time>2026-05-03T08:37:57.871Z</time></trkpt><trkpt lat="44.5061667" lon="10.6149133"><ele>523.0</ele><time>2026-05-03T08:37:58.872Z</time></trkpt><trkpt lat="44.5060433" lon="10.6148767"><ele>525.25</ele><time>2026-05-03T08:37:59.872Z</time></trkpt><trkpt lat="44.5059133" lon="10.6148183"><ele>527.5</ele><time>2026-05-03T08:38:00.872Z</time></trkpt><trkpt lat="44.5057833" lon="10.6147733"><ele>529.75</ele><time>2026-05-03T08:38:01.871Z</time></trkpt><trkpt lat="44.5056733" lon="10.614685"><ele>532.0</ele><time>2026-05-03T08:38:02.871Z</time></trkpt><trkpt lat="44.505575" lon="10.6145633"><ele>533.75</ele><time>2026-05-03T08:38:03.871Z</time></trkpt><trkpt lat="44.5054767" lon="10.6144233"><ele>535.5</ele><time>2026-05-03T08:38:04.872Z</time></trkpt><trkpt lat="44.5053817" lon="10.6142917"><ele>537.25</ele><time>2026-05-03T08:38:05.871Z</time></trkpt><trkpt lat="44.5052833" lon="10.614145"><ele>539.0</ele><time>2026-05-03T08:38:06.872Z</time></trkpt><trkpt lat="44.5051817" lon="10.6139917"><ele>539.0</ele><time>2026-05-03T08:38:07.872Z</time></trkpt><trkpt lat="44.5050533" lon="10.613845"><ele>539.0</ele><time>2026-05-03T08:38:08.871Z</time></trkpt><trkpt lat="44.5049283" lon="10.6137017"><ele>539.0</ele><time>2026-05-03T08:38:09.871Z</time></trkpt><trkpt lat="44.504785" lon="10.613585"><ele>535.0</ele><time>2026-05-03T08:38:10.871Z</time></trkpt><trkpt lat="44.504645" lon="10.61348"><ele>531.0</ele><time>2026-05-03T08:38:11.871Z</time></trkpt><trkpt lat="44.5045183" lon="10.6133683"><ele>527.0</ele><time>2026-05-03T08:38:12.872Z</time></trkpt><trkpt lat="44.5044" lon="10.613235"><ele>527.0</ele><time>2026-05-03T08:38:13.871Z</time></trkpt><trkpt lat="44.504295" lon="10.61309"><ele>527.0</ele><time>2026-05-03T08:38:14.871Z</time></trkpt><trkpt lat="44.5041883" lon="10.6129417"><ele>527.0</ele><time>2026-05-03T08:38:15.872Z</time></trkpt><trkpt lat="44.5040883" lon="10.6127983"><ele>527.0</ele><time>2026-05-03T08:38:16.871Z</time></trkpt><trkpt lat="44.503995" lon="10.6126417"><ele>526.25</ele><time>2026-05-03T08:38:17.872Z</time></trkpt><trkpt lat="44.5039033" lon="10.6124783"><ele>525.5</ele><time>2026-05-03T08:38:18.871Z</time></trkpt><trkpt lat="44.5038217" lon="10.6123067"><ele>524.75</ele><time>2026-05-03T08:38:19.871Z</time></trkpt><trkpt lat="44.50373" lon="10.6121333"><ele>524.0</ele><time>2026-05-03T08:38:20.872Z</time></trkpt><trkpt lat="44.503635" lon="10.611965"><ele>523.0</ele><time>2026-05-03T08:38:21.872Z</time></trkpt><trkpt lat="44.5035483" lon="10.6117867"><ele>522.0</ele><time>2026-05-03T08:38:22.872Z</time></trkpt><trkpt lat="44.5034467" lon="10.61161"><ele>521.0</ele><time>2026-05-03T08:38:23.872Z</time></trkpt><trkpt lat="44.5033333" lon="10.61146"><ele>521.0</ele><time>2026-05-03T08:38:24.872Z</time></trkpt><trkpt lat="44.5032017" lon="10.6113283"><ele>521.0</ele><time>2026-05-03T08:38:25.871Z</time></trkpt><trkpt lat="44.5030633" lon="10.6112217"><ele>521.0</ele><time>2026-05-03T08:38:26.871Z</time></trkpt><trkpt lat="44.5029167" lon="10.611125"><ele>522.25</ele><time>2026-05-03T08:38:27.872Z</time></trkpt><trkpt lat="44.5027767" lon="10.6110333"><ele>523.5</ele><time>2026-05-03T08:38:28.871Z</time></trkpt><trkpt lat="44.5026417" lon="10.6109433"><ele>524.75</ele><time>2026-05-03T08:38:29.872Z</time></trkpt><trkpt lat="44.5025183" lon="10.6108417"><ele>526.0</ele><time>2026-05-03T08:38:30.871Z</time></trkpt><trkpt lat="44.5024133" lon="10.6107233"><ele>526.0</ele><time>2026-05-03T08:38:31.872Z</time></trkpt><trkpt lat="44.5023217" lon="10.610575"><ele>526.0</ele><time>2026-05-03T08:38:32.871Z</time></trkpt><trkpt lat="44.502225" lon="10.61042"><ele>526.0</ele><time>2026-05-03T08:38:33.872Z</time></trkpt><trkpt lat="44.5021167" lon="10.61026"><ele>526.0</ele><time>2026-05-03T08:38:34.872Z</time></trkpt><trkpt lat="44.50202" lon="10.6101083"><ele>524.3333333333334</ele><time>2026-05-03T08:38:35.872Z</time></trkpt><trkpt lat="44.5019183" lon="10.609955"><ele>522.6666666666666</ele><time>2026-05-03T08:38:36.872Z</time></trkpt><trkpt lat="44.5018167" lon="10.6097933"><ele>521.0</ele><time>2026-05-03T08:38:37.871Z</time></trkpt><trkpt lat="44.501715" lon="10.6096333"><ele>525.3333333333333</ele><time>2026-05-03T08:38:38.872Z</time></trkpt><trkpt lat="44.5016283" lon="10.6094517"><ele>529.6666666666666</ele><time>2026-05-03T08:38:39.872Z</time></trkpt><trkpt lat="44.50155" lon="10.609255"><ele>534.0</ele><time>2026-05-03T08:38:40.871Z</time></trkpt><trkpt lat="44.501475" lon="10.6090583"><ele>534.0</ele><time>2026-05-03T08:38:41.871Z</time></trkpt><trkpt lat="44.5013917" lon="10.6088533"><ele>534.0</ele><time>2026-05-03T08:38:42.871Z</time></trkpt><trkpt lat="44.50131" lon="10.6086567"><ele>534.0</ele><time>2026-05-03T08:38:43.871Z</time></trkpt><trkpt lat="44.5012317" lon="10.6084733"><ele>532.0</ele><time>2026-05-03T08:38:44.87Z</time></trkpt><trkpt lat="44.5011517" lon="10.60829"><ele>530.0</ele><time>2026-05-03T08:38:45.871Z</time></trkpt><trkpt lat="44.5010817" lon="10.6081183"><ele>528.0</ele><time>2026-05-03T08:38:46.871Z</time></trkpt><trkpt lat="44.501015" lon="10.6079433"><ele>526.0</ele><time>2026-05-03T08:38:47.87Z</time></trkpt><trkpt lat="44.5009583" lon="10.6077717"><ele>530.5</ele><time>2026-05-03T08:38:48.871Z</time></trkpt><trkpt lat="44.5008983" lon="10.6076067"><ele>535.0</ele><time>2026-05-03T08:38:49.871Z</time></trkpt><trkpt lat="44.50084" lon="10.6074583"><ele>539.5</ele><time>2026-05-03T08:38:50.87Z</time></trkpt><trkpt lat="44.5007967" lon="10.6073183"><ele>544.0</ele><time>2026-05-03T08:38:51.871Z</time></trkpt><trkpt lat="44.5007533" lon="10.6071983"><ele>544.0</ele><time>2026-05-03T08:38:52.871Z</time></trkpt><trkpt lat="44.50072" lon="10.607075"><ele>544.0</ele><time>2026-05-03T08:38:53.871Z</time></trkpt><trkpt lat="44.5006917" lon="10.6069383"><ele>544.0</ele><time>2026-05-03T08:38:54.871Z</time></trkpt><trkpt lat="44.50067" lon="10.60679"><ele>544.0</ele><time>2026-05-03T08:38:55.871Z</time></trkpt><trkpt lat="44.5006483" lon="10.60664"><ele>544.0</ele><time>2026-05-03T08:38:56.87Z</time></trkpt><trkpt lat="44.5006267" lon="10.6064933"><ele>547.5</ele><time>2026-05-03T08:38:57.871Z</time></trkpt><trkpt lat="44.5005833" lon="10.6063433"><ele>551.0</ele><time>2026-05-03T08:38:58.871Z</time></trkpt><trkpt lat="44.5005333" lon="10.6061833"><ele>554.5</ele><time>2026-05-03T08:38:59.87Z</time></trkpt><trkpt lat="44.500485" lon="10.6060317"><ele>558.0</ele><time>2026-05-03T08:39:00.871Z</time></trkpt><trkpt lat="44.50044" lon="10.6058967"><ele>557.1666666666666</ele><time>2026-05-03T08:39:01.871Z</time></trkpt><trkpt lat="44.500395" lon="10.6057833"><ele>556.3333333333334</ele><time>2026-05-03T08:39:02.87Z</time></trkpt><trkpt lat="44.5003383" lon="10.6056883"><ele>555.5</ele><time>2026-05-03T08:39:03.87Z</time></trkpt><trkpt lat="44.500275" lon="10.6056233"><ele>554.6666666666667</ele><time>2026-05-03T08:39:04.87Z</time></trkpt><trkpt lat="44.5002183" lon="10.60557"><ele>553.8333333333334</ele><time>2026-05-03T08:39:05.871Z</time></trkpt><trkpt lat="44.500145" lon="10.6055317"><ele>553.0</ele><time>2026-05-03T08:39:06.871Z</time></trkpt><trkpt lat="44.5000683" lon="10.6054933"><ele>553.0</ele><time>2026-05-03T08:39:07.87Z</time></trkpt><trkpt lat="44.4999983" lon="10.6054517"><ele>553.0</ele><time>2026-05-03T08:39:08.87Z</time></trkpt><trkpt lat="44.49993" lon="10.6054017"><ele>553.0</ele><time>2026-05-03T08:39:09.871Z</time></trkpt><trkpt lat="44.49985" lon="10.6053533"><ele>553.0</ele><time>2026-05-03T08:39:10.87Z</time></trkpt><trkpt lat="44.4997717" lon="10.6053133"><ele>553.0</ele><time>2026-05-03T08:39:11.871Z</time></trkpt><trkpt lat="44.4997083" lon="10.6052583"><ele>553.0</ele><time>2026-05-03T08:39:12.871Z</time></trkpt><trkpt lat="44.4996417" lon="10.6051783"><ele>553.4</ele><time>2026-05-03T08:39:13.871Z</time></trkpt><trkpt lat="44.4996017" lon="10.6050767"><ele>553.8</ele><time>2026-05-03T08:39:14.871Z</time></trkpt><trkpt lat="44.4995833" lon="10.6049417"><ele>554.2</ele><time>2026-05-03T08:39:15.87Z</time></trkpt><trkpt lat="44.499555" lon="10.6048183"><ele>554.6</ele><time>2026-05-03T08:39:16.871Z</time></trkpt><trkpt lat="44.4995383" lon="10.604685"><ele>555.0</ele><time>2026-05-03T08:39:17.871Z</time></trkpt><trkpt lat="44.49952" lon="10.6045467"><ele>555.0</ele><time>2026-05-03T08:39:18.871Z</time></trkpt><trkpt lat="44.4994783" lon="10.6044167"><ele>555.0</ele><time>2026-05-03T08:39:19.87Z</time></trkpt><trkpt lat="44.4994233" lon="10.6042983"><ele>555.0</ele><time>2026-05-03T08:39:20.871Z</time></trkpt><trkpt lat="44.4993583" lon="10.6041817"><ele>555.0</ele><time>2026-05-03T08:39:21.87Z</time></trkpt><trkpt lat="44.499285" lon="10.6040817"><ele>555.0</ele><time>2026-05-03T08:39:22.87Z</time></trkpt><trkpt lat="44.499215" lon="10.6039767"><ele>555.0</ele><time>2026-05-03T08:39:23.871Z</time></trkpt><trkpt lat="44.499125" lon="10.603885"><ele>555.0</ele><time>2026-05-03T08:39:24.871Z</time></trkpt><trkpt lat="44.4990233" lon="10.603805"><ele>555.0</ele><time>2026-05-03T08:39:25.871Z</time></trkpt><trkpt lat="44.4989217" lon="10.6037483"><ele>555.0</ele><time>2026-05-03T08:39:26.871Z</time></trkpt><trkpt lat="44.49882" lon="10.603705"><ele>555.0</ele><time>2026-05-03T08:39:27.871Z</time></trkpt><trkpt lat="44.4987383" lon="10.60367"><ele>552.1666666666666</ele><time>2026-05-03T08:39:28.87Z</time></trkpt><trkpt lat="44.4986583" lon="10.603635"><ele>549.3333333333334</ele><time>2026-05-03T08:39:29.871Z</time></trkpt><trkpt lat="44.4985883" lon="10.603595"><ele>546.5</ele><time>2026-05-03T08:39:30.87Z</time></trkpt><trkpt lat="44.4984933" lon="10.6035417"><ele>543.6666666666667</ele><time>2026-05-03T08:39:32.871Z</time></trkpt><trkpt lat="44.4984283" lon="10.6034817"><ele>540.8333333333334</ele><time>2026-05-03T08:39:35.87Z</time></trkpt><trkpt lat="44.4983417" lon="10.603395"><ele>538.0</ele><time>2026-05-03T08:39:37.87Z</time></trkpt><trkpt lat="44.4982633" lon="10.6033567"><ele>538.0</ele><time>2026-05-03T08:39:38.871Z</time></trkpt><trkpt lat="44.4981767" lon="10.6033067"><ele>538.0</ele><time>2026-05-03T08:39:39.871Z</time></trkpt><trkpt lat="44.4980867" lon="10.6032417"><ele>538.0</ele><time>2026-05-03T08:39:40.871Z</time></trkpt><trkpt lat="44.4979883" lon="10.6031667"><ele>538.0</ele><time>2026-05-03T08:39:41.87Z</time></trkpt><trkpt lat="44.4978867" lon="10.6030767"><ele>538.0</ele><time>2026-05-03T08:39:42.871Z</time></trkpt><trkpt lat="44.497785" lon="10.6029917"><ele>537.75</ele><time>2026-05-03T08:39:43.87Z</time></trkpt><trkpt lat="44.49768" lon="10.6029"><ele>537.5</ele><time>2026-05-03T08:39:44.871Z</time></trkpt><trkpt lat="44.4975817" lon="10.6028217"><ele>537.25</ele><time>2026-05-03T08:39:45.87Z</time></trkpt><trkpt lat="44.4974817" lon="10.6027333"><ele>537.0</ele><time>2026-05-03T08:39:46.871Z</time></trkpt><trkpt lat="44.497375" lon="10.6026517"><ele>537.0</ele><time>2026-05-03T08:39:47.871Z</time></trkpt><trkpt lat="44.4972717" lon="10.6025767"><ele>537.0</ele><time>2026-05-03T08:39:48.87Z</time></trkpt><trkpt lat="44.4971667" lon="10.6025133"><ele>537.0</ele><time>2026-05-03T08:39:49.87Z</time></trkpt><trkpt lat="44.497065" lon="10.6024267"><ele>537.0</ele><time>2026-05-03T08:39:50.87Z</time></trkpt><trkpt lat="44.49697" lon="10.6023367"><ele>536.8000000000001</ele><time>2026-05-03T08:39:51.87Z</time></trkpt><trkpt lat="44.4968817" lon="10.60224"><ele>536.6</ele><time>2026-05-03T08:39:52.871Z</time></trkpt><trkpt lat="44.4968067" lon="10.6021367"><ele>536.4000000000001</ele><time>2026-05-03T08:39:53.87Z</time></trkpt><trkpt lat="44.4967333" lon="10.6020133"><ele>536.2</ele><time>2026-05-03T08:39:54.871Z</time></trkpt><trkpt lat="44.4966733" lon="10.6018733"><ele>536.0</ele><time>2026-05-03T08:39:55.871Z</time></trkpt><trkpt lat="44.496615" lon="10.6017267"><ele>535.5</ele><time>2026-05-03T08:39:56.87Z</time></trkpt><trkpt lat="44.4965583" lon="10.6015733"><ele>535.0</ele><time>2026-05-03T08:39:57.87Z</time></trkpt><trkpt lat="44.4965067" lon="10.6014233"><ele>534.5</ele><time>2026-05-03T08:39:58.87Z</time></trkpt><trkpt lat="44.4964567" lon="10.6012783"><ele>534.0</ele><time>2026-05-03T08:39:59.871Z</time></trkpt><trkpt lat="44.4963967" lon="10.601145"><ele>534.0</ele><time>2026-05-03T08:40:00.87Z</time></trkpt><trkpt lat="44.4963517" lon="10.6010017"><ele>534.0</ele><time>2026-05-03T08:40:01.87Z</time></trkpt><trkpt lat="44.4963" lon="10.6008483"><ele>534.0</ele><time>2026-05-03T08:40:02.87Z</time></trkpt><trkpt lat="44.4962433" lon="10.6007067"><ele>534.0</ele><time>2026-05-03T08:40:03.871Z</time></trkpt><trkpt lat="44.4961983" lon="10.6005467"><ele>533.75</ele><time>2026-05-03T08:40:04.87Z</time></trkpt><trkpt lat="44.49615" lon="10.60039"><ele>533.5</ele><time>2026-05-03T08:40:05.87Z</time></trkpt><trkpt lat="44.4960967" lon="10.600245"><ele>533.25</ele><time>2026-05-03T08:40:06.87Z</time></trkpt><trkpt lat="44.4960333" lon="10.6001117"><ele>533.0</ele><time>2026-05-03T08:40:07.871Z</time></trkpt><trkpt lat="44.495985" lon="10.5999683"><ele>533.0</ele><time>2026-05-03T08:40:08.871Z</time></trkpt><trkpt lat="44.4959367" lon="10.5998317"><ele>533.0</ele><time>2026-05-03T08:40:09.87Z</time></trkpt><trkpt lat="44.4958783" lon="10.5997167"><ele>533.0</ele><time>2026-05-03T08:40:10.871Z</time></trkpt><trkpt lat="44.4958067" lon="10.59962"><ele>533.0</ele><time>2026-05-03T08:40:11.87Z</time></trkpt><trkpt lat="44.4957317" lon="10.5995517"><ele>533.0</ele><time>2026-05-03T08:40:12.87Z</time></trkpt><trkpt lat="44.49565" lon="10.5994867"><ele>533.5</ele><time>2026-05-03T08:40:13.871Z</time></trkpt><trkpt lat="44.4955583" lon="10.5994267"><ele>534.0</ele><time>2026-05-03T08:40:14.871Z</time></trkpt><trkpt lat="44.4954583" lon="10.5993583"><ele>534.5</ele><time>2026-05-03T08:40:15.87Z</time></trkpt><trkpt lat="44.4953467" lon="10.599295"><ele>535.0</ele><time>2026-05-03T08:40:16.871Z</time></trkpt><trkpt lat="44.495235" lon="10.5992117"><ele>535.75</ele><time>2026-05-03T08:40:17.87Z</time></trkpt><trkpt lat="44.4951167" lon="10.599115"><ele>536.5</ele><time>2026-05-03T08:40:18.871Z</time></trkpt><trkpt lat="44.4950117" lon="10.5989933"><ele>537.25</ele><time>2026-05-03T08:40:19.87Z</time></trkpt><trkpt lat="44.4948983" lon="10.5988733"><ele>538.0</ele><time>2026-05-03T08:40:20.871Z</time></trkpt><trkpt lat="44.4947683" lon="10.5987667"><ele>539.0</ele><time>2026-05-03T08:40:21.87Z</time></trkpt><trkpt lat="44.494635" lon="10.5986567"><ele>540.0</ele><time>2026-05-03T08:40:22.87Z</time></trkpt><trkpt lat="44.4944933" lon="10.5985767"><ele>541.0</ele><time>2026-05-03T08:40:23.87Z</time></trkpt><trkpt lat="44.49434" lon="10.5985083"><ele>541.0</ele><time>2026-05-03T08:40:24.871Z</time></trkpt><trkpt lat="44.4941717" lon="10.5984467"><ele>541.0</ele><time>2026-05-03T08:40:25.87Z</time></trkpt><trkpt lat="44.4940033" lon="10.598385"><ele>541.0</ele><time>2026-05-03T08:40:26.871Z</time></trkpt><trkpt lat="44.4938267" lon="10.5983383"><ele>540.3333333333334</ele><time>2026-05-03T08:40:27.871Z</time></trkpt><trkpt lat="44.4936417" lon="10.5983067"><ele>539.6666666666666</ele><time>2026-05-03T08:40:28.87Z</time></trkpt><trkpt lat="44.49346" lon="10.5982733"><ele>539.0</ele><time>2026-05-03T08:40:29.871Z</time></trkpt><trkpt lat="44.49329" lon="10.5982417"><ele>539.0</ele><time>2026-05-03T08:40:30.871Z</time></trkpt><trkpt lat="44.4931283" lon="10.598215"><ele>539.0</ele><time>2026-05-03T08:40:31.87Z</time></trkpt><trkpt lat="44.492975" lon="10.5981833"><ele>539.0</ele><time>2026-05-03T08:40:32.87Z</time></trkpt><trkpt lat="44.49283" lon="10.598135"><ele>538.0</ele><time>2026-05-03T08:40:33.871Z</time></trkpt><trkpt lat="44.4926933" lon="10.5980633"><ele>537.0</ele><time>2026-05-03T08:40:34.87Z</time></trkpt><trkpt lat="44.4925717" lon="10.5979567"><ele>536.0</ele><time>2026-05-03T08:40:35.87Z</time></trkpt><trkpt lat="44.49245" lon="10.597815"><ele>535.0</ele><time>2026-05-03T08:40:36.87Z</time></trkpt><trkpt lat="44.4923333" lon="10.59766"><ele>535.0</ele><time>2026-05-03T08:40:37.871Z</time></trkpt><trkpt lat="44.4922117" lon="10.59751"><ele>535.0</ele><time>2026-05-03T08:40:38.87Z</time></trkpt><trkpt lat="44.4920817" lon="10.5973533"><ele>535.0</ele><time>2026-05-03T08:40:39.87Z</time></trkpt><trkpt lat="44.4919683" lon="10.5971983"><ele>535.0</ele><time>2026-05-03T08:40:40.87Z</time></trkpt><trkpt lat="44.4918583" lon="10.59703"><ele>535.0</ele><time>2026-05-03T08:40:41.871Z</time></trkpt><trkpt lat="44.4917467" lon="10.596865"><ele>535.0</ele><time>2026-05-03T08:40:42.87Z</time></trkpt><trkpt lat="44.4916317" lon="10.59671"><ele>537.0</ele><time>2026-05-03T08:40:43.871Z</time></trkpt><trkpt lat="44.4915267" lon="10.5965617"><ele>539.0</ele><time>2026-05-03T08:40:44.871Z</time></trkpt><trkpt lat="44.49144" lon="10.5964117"><ele>541.0</ele><time>2026-05-03T08:40:45.87Z</time></trkpt><trkpt lat="44.4913817" lon="10.5962317"><ele>543.0</ele><time>2026-05-03T08:40:46.871Z</time></trkpt><trkpt lat="44.49133" lon="10.59603"><ele>545.0</ele><time>2026-05-03T08:40:47.87Z</time></trkpt><trkpt lat="44.4912983" lon="10.5958083"><ele>547.0</ele><time>2026-05-03T08:40:48.871Z</time></trkpt><trkpt lat="44.4912667" lon="10.5955933"><ele>549.0</ele><time>2026-05-03T08:40:49.871Z</time></trkpt><trkpt lat="44.4912367" lon="10.5953617"><ele>545.3333333333334</ele><time>2026-05-03T08:40:50.87Z</time></trkpt><trkpt lat="44.4912033" lon="10.595135"><ele>541.6666666666667</ele><time>2026-05-03T08:40:51.87Z</time></trkpt><trkpt lat="44.491165" lon="10.59491"><ele>538.0</ele><time>2026-05-03T08:40:52.87Z</time></trkpt><trkpt lat="44.4911167" lon="10.5946983"><ele>538.0</ele><time>2026-05-03T08:40:53.87Z</time></trkpt><trkpt lat="44.4910683" lon="10.5945067"><ele>538.0</ele><time>2026-05-03T08:40:54.87Z</time></trkpt><trkpt lat="44.4910183" lon="10.594325"><ele>538.0</ele><time>2026-05-03T08:40:55.87Z</time></trkpt><trkpt lat="44.4909467" lon="10.5941683"><ele>538.0</ele><time>2026-05-03T08:40:56.87Z</time></trkpt><trkpt lat="44.4908583" lon="10.5940333"><ele>539.0</ele><time>2026-05-03T08:40:57.87Z</time></trkpt><trkpt lat="44.4907417" lon="10.593955"><ele>540.0</ele><time>2026-05-03T08:40:58.871Z</time></trkpt><trkpt lat="44.4906167" lon="10.5939233"><ele>541.0</ele><time>2026-05-03T08:40:59.871Z</time></trkpt><trkpt lat="44.49048" lon="10.5939083"><ele>542.0</ele><time>2026-05-03T08:41:00.871Z</time></trkpt><trkpt lat="44.4903317" lon="10.5938883"><ele>542.0</ele><time>2026-05-03T08:41:01.87Z</time></trkpt><trkpt lat="44.4901933" lon="10.5938233"><ele>542.0</ele><time>2026-05-03T08:41:02.871Z</time></trkpt><trkpt lat="44.4900733" lon="10.5937167"><ele>542.0</ele><time>2026-05-03T08:41:03.871Z</time></trkpt><trkpt lat="44.4899567" lon="10.59357"><ele>542.0</ele><time>2026-05-03T08:41:04.871Z</time></trkpt><trkpt lat="44.4898517" lon="10.5933883"><ele>545.0</ele><time>2026-05-03T08:41:05.871Z</time></trkpt><trkpt lat="44.4897467" lon="10.5932117"><ele>548.0</ele><time>2026-05-03T08:41:06.871Z</time></trkpt><trkpt lat="44.4896383" lon="10.593035"><ele>551.0</ele><time>2026-05-03T08:41:07.87Z</time></trkpt><trkpt lat="44.4895367" lon="10.592855"><ele>547.0</ele><time>2026-05-03T08:41:08.87Z</time></trkpt><trkpt lat="44.48946" lon="10.592655"><ele>543.0</ele><time>2026-05-03T08:41:09.871Z</time></trkpt><trkpt lat="44.4893983" lon="10.5924367"><ele>539.0</ele><time>2026-05-03T08:41:10.871Z</time></trkpt><trkpt lat="44.4893517" lon="10.5922083"><ele>542.3333333333333</ele><time>2026-05-03T08:41:11.871Z</time></trkpt><trkpt lat="44.4893183" lon="10.59199"><ele>545.6666666666666</ele><time>2026-05-03T08:41:12.87Z</time></trkpt><trkpt lat="44.489245" lon="10.5917983"><ele>549.0</ele><time>2026-05-03T08:41:13.871Z</time></trkpt><trkpt lat="44.4891483" lon="10.5916283"><ele>549.0</ele><time>2026-05-03T08:41:14.871Z</time></trkpt><trkpt lat="44.4890267" lon="10.591495"><ele>549.0</ele><time>2026-05-03T08:41:15.871Z</time></trkpt><trkpt lat="44.4888917" lon="10.5914133"><ele>549.0</ele><time>2026-05-03T08:41:16.871Z</time></trkpt><trkpt lat="44.4887533" lon="10.591375"><ele>549.0</ele><time>2026-05-03T08:41:17.87Z</time></trkpt><trkpt lat="44.48862" lon="10.59135"><ele>549.2</ele><time>2026-05-03T08:41:18.871Z</time></trkpt><trkpt lat="44.4885183" lon="10.59128"><ele>549.4</ele><time>2026-05-03T08:41:19.871Z</time></trkpt><trkpt lat="44.4884467" lon="10.59116"><ele>549.6</ele><time>2026-05-03T08:41:20.871Z</time></trkpt><trkpt lat="44.488405" lon="10.5910133"><ele>549.8</ele><time>2026-05-03T08:41:21.871Z</time></trkpt><trkpt lat="44.48836" lon="10.5908717"><ele>550.0</ele><time>2026-05-03T08:41:22.871Z</time></trkpt><trkpt lat="44.48828" lon="10.5907517"><ele>550.0</ele><time>2026-05-03T08:41:23.87Z</time></trkpt><trkpt lat="44.488175" lon="10.5906917"><ele>550.0</ele><time>2026-05-03T08:41:24.871Z</time></trkpt><trkpt lat="44.48804" lon="10.5906517"><ele>550.0</ele><time>2026-05-03T08:41:25.871Z</time></trkpt><trkpt lat="44.4879017" lon="10.5905967"><ele>550.0</ele><time>2026-05-03T08:41:26.87Z</time></trkpt><trkpt lat="44.4878067" lon="10.5904867"><ele>550.25</ele><time>2026-05-03T08:41:27.871Z</time></trkpt><trkpt lat="44.4877333" lon="10.5903483"><ele>550.5</ele><time>2026-05-03T08:41:28.871Z</time></trkpt><trkpt lat="44.4876533" lon="10.5902183"><ele>550.75</ele><time>2026-05-03T08:41:29.871Z</time></trkpt><trkpt lat="44.4875583" lon="10.590125"><ele>551.0</ele><time>2026-05-03T08:41:30.871Z</time></trkpt><trkpt lat="44.4874317" lon="10.5900817"><ele>551.0</ele><time>2026-05-03T08:41:31.87Z</time></trkpt><trkpt lat="44.4872933" lon="10.5900567"><ele>551.0</ele><time>2026-05-03T08:41:32.871Z</time></trkpt><trkpt lat="44.4871533" lon="10.5900483"><ele>551.0</ele><time>2026-05-03T08:41:33.871Z</time></trkpt><trkpt lat="44.487" lon="10.59004"><ele>551.0</ele><time>2026-05-03T08:41:34.871Z</time></trkpt><trkpt lat="44.4868467" lon="10.5900433"><ele>549.3333333333333</ele><time>2026-05-03T08:41:35.871Z</time></trkpt><trkpt lat="44.4866917" lon="10.5900483"><ele>547.6666666666666</ele><time>2026-05-03T08:41:36.87Z</time></trkpt><trkpt lat="44.48654" lon="10.5900567"><ele>546.0</ele><time>2026-05-03T08:41:37.87Z</time></trkpt><trkpt lat="44.486385" lon="10.59006"><ele>544.3333333333334</ele><time>2026-05-03T08:41:38.871Z</time></trkpt><trkpt lat="44.4862267" lon="10.5900533"><ele>542.6666666666667</ele><time>2026-05-03T08:41:39.871Z</time></trkpt><trkpt lat="44.4860783" lon="10.5900467"><ele>541.0</ele><time>2026-05-03T08:41:40.87Z</time></trkpt><trkpt lat="44.4859233" lon="10.5900317"><ele>541.0</ele><time>2026-05-03T08:41:41.87Z</time></trkpt><trkpt lat="44.48578" lon="10.5899883"><ele>541.0</ele><time>2026-05-03T08:41:42.871Z</time></trkpt><trkpt lat="44.4856417" lon="10.58993"><ele>541.0</ele><time>2026-05-03T08:41:43.871Z</time></trkpt><trkpt lat="44.4855083" lon="10.5898667"><ele>541.0</ele><time>2026-05-03T08:41:44.87Z</time></trkpt><trkpt lat="44.48537" lon="10.58982"><ele>540.5</ele><time>2026-05-03T08:41:45.87Z</time></trkpt><trkpt lat="44.48525" lon="10.589805"><ele>540.0</ele><time>2026-05-03T08:41:46.87Z</time></trkpt><trkpt lat="44.4851217" lon="10.58987"><ele>539.5</ele><time>2026-05-03T08:41:47.87Z</time></trkpt><trkpt lat="44.485" lon="10.58998"><ele>539.0</ele><time>2026-05-03T08:41:48.87Z</time></trkpt><trkpt lat="44.4848783" lon="10.5901167"><ele>539.0</ele><time>2026-05-03T08:41:49.87Z</time></trkpt><trkpt lat="44.4847617" lon="10.5902517"><ele>539.0</ele><time>2026-05-03T08:41:50.87Z</time></trkpt><trkpt lat="44.484645" lon="10.5903883"><ele>539.0</ele><time>2026-05-03T08:41:51.87Z</time></trkpt><trkpt lat="44.48453" lon="10.59051"><ele>539.0</ele><time>2026-05-03T08:41:52.87Z</time></trkpt><trkpt lat="44.4844117" lon="10.5906317"><ele>538.75</ele><time>2026-05-03T08:41:53.871Z</time></trkpt><trkpt lat="44.48429" lon="10.590745"><ele>538.5</ele><time>2026-05-03T08:41:54.87Z</time></trkpt><trkpt lat="44.4841667" lon="10.59084"><ele>538.25</ele><time>2026-05-03T08:41:55.87Z</time></trkpt><trkpt lat="44.4840367" lon="10.5909217"><ele>538.0</ele><time>2026-05-03T08:41:56.87Z</time></trkpt><trkpt lat="44.4838933" lon="10.5909567"><ele>536.25</ele><time>2026-05-03T08:41:57.871Z</time></trkpt><trkpt lat="44.4837583" lon="10.59096"><ele>534.5</ele><time>2026-05-03T08:41:58.871Z</time></trkpt><trkpt lat="44.4836267" lon="10.5909233"><ele>532.75</ele><time>2026-05-03T08:41:59.871Z</time></trkpt><trkpt lat="44.4835067" lon="10.590855"><ele>531.0</ele><time>2026-05-03T08:42:00.87Z</time></trkpt><trkpt lat="44.4834033" lon="10.5907683"><ele>531.0</ele><time>2026-05-03T08:42:01.87Z</time></trkpt><trkpt lat="44.4833117" lon="10.5906633"><ele>531.0</ele><time>2026-05-03T08:42:02.871Z</time></trkpt><trkpt lat="44.483215" lon="10.5905817"><ele>531.0</ele><time>2026-05-03T08:42:03.871Z</time></trkpt><trkpt lat="44.48312" lon="10.5905417"><ele>531.0</ele><time>2026-05-03T08:42:04.871Z</time></trkpt><trkpt lat="44.4830083" lon="10.5905467"><ele>531.0</ele><time>2026-05-03T08:42:05.871Z</time></trkpt><trkpt lat="44.48288" lon="10.59061"><ele>529.0</ele><time>2026-05-03T08:42:06.871Z</time></trkpt><trkpt lat="44.4827767" lon="10.5907067"><ele>527.0</ele><time>2026-05-03T08:42:07.87Z</time></trkpt><trkpt lat="44.4826917" lon="10.5908617"><ele>525.0</ele><time>2026-05-03T08:42:08.871Z</time></trkpt><trkpt lat="44.4826533" lon="10.591055"><ele>523.0</ele><time>2026-05-03T08:42:09.871Z</time></trkpt><trkpt lat="44.4826383" lon="10.5912583"><ele>523.0</ele><time>2026-05-03T08:42:10.87Z</time></trkpt><trkpt lat="44.4826167" lon="10.5914717"><ele>523.0</ele><time>2026-05-03T08:42:11.87Z</time></trkpt><trkpt lat="44.4825817" lon="10.59168"><ele>523.0</ele><time>2026-05-03T08:42:12.87Z</time></trkpt><trkpt lat="44.482525" lon="10.5918967"><ele>525.0</ele><time>2026-05-03T08:42:13.87Z</time></trkpt><trkpt lat="44.4824333" lon="10.5920767"><ele>527.0</ele><time>2026-05-03T08:42:14.87Z</time></trkpt><trkpt lat="44.4823167" lon="10.5922167"><ele>529.0</ele><time>2026-05-03T08:42:15.87Z</time></trkpt><trkpt lat="44.482205" lon="10.592355"><ele>524.5</ele><time>2026-05-03T08:42:16.871Z</time></trkpt><trkpt lat="44.48209" lon="10.59249"><ele>520.0</ele><time>2026-05-03T08:42:17.871Z</time></trkpt><trkpt lat="44.4819967" lon="10.59264"><ele>515.5</ele><time>2026-05-03T08:42:18.87Z</time></trkpt><trkpt lat="44.481945" lon="10.59281"><ele>511.0</ele><time>2026-05-03T08:42:19.871Z</time></trkpt><trkpt lat="44.48193" lon="10.5929983"><ele>511.0</ele><time>2026-05-03T08:42:20.87Z</time></trkpt><trkpt lat="44.4819383" lon="10.5932017"><ele>511.0</ele><time>2026-05-03T08:42:21.871Z</time></trkpt><trkpt lat="44.481935" lon="10.5934067"><ele>511.0</ele><time>2026-05-03T08:42:22.871Z</time></trkpt><trkpt lat="44.4819083" lon="10.5936083"><ele>511.0</ele><time>2026-05-03T08:42:23.871Z</time></trkpt><trkpt lat="44.4818417" lon="10.5937983"><ele>511.0</ele><time>2026-05-03T08:42:24.871Z</time></trkpt><trkpt lat="44.4817517" lon="10.5939967"><ele>511.0</ele><time>2026-05-03T08:42:25.87Z</time></trkpt><trkpt lat="44.4816333" lon="10.5941717"><ele>511.0</ele><time>2026-05-03T08:42:26.871Z</time></trkpt><trkpt lat="44.481505" lon="10.5943183"><ele>511.0</ele><time>2026-05-03T08:42:27.87Z</time></trkpt><trkpt lat="44.48138" lon="10.5944583"><ele>511.0</ele><time>2026-05-03T08:42:28.87Z</time></trkpt><trkpt lat="44.4812383" lon="10.594555"><ele>511.0</ele><time>2026-05-03T08:42:29.871Z</time></trkpt><trkpt lat="44.48108" lon="10.59458"><ele>508.0</ele><time>2026-05-03T08:42:30.871Z</time></trkpt><trkpt lat="44.48091" lon="10.5945567"><ele>505.0</ele><time>2026-05-03T08:42:31.87Z</time></trkpt><trkpt lat="44.480745" lon="10.5945117"><ele>502.0</ele><time>2026-05-03T08:42:32.87Z</time></trkpt><trkpt lat="44.4806" lon="10.5944617"><ele>502.0</ele><time>2026-05-03T08:42:33.871Z</time></trkpt><trkpt lat="44.4804483" lon="10.5944283"><ele>502.0</ele><time>2026-05-03T08:42:34.87Z</time></trkpt><trkpt lat="44.480295" lon="10.5944233"><ele>502.0</ele><time>2026-05-03T08:42:35.871Z</time></trkpt><trkpt lat="44.480135" lon="10.5944533"><ele>500.6666666666667</ele><time>2026-05-03T08:42:36.87Z</time></trkpt><trkpt lat="44.4799733" lon="10.59453"><ele>499.33333333333337</ele><time>2026-05-03T08:42:37.87Z</time></trkpt><trkpt lat="44.479815" lon="10.5946383"><ele>498.0</ele><time>2026-05-03T08:42:38.87Z</time></trkpt><trkpt lat="44.4796533" lon="10.594755"><ele>500.66666666666663</ele><time>2026-05-03T08:42:39.871Z</time></trkpt><trkpt lat="44.4795017" lon="10.594875"><ele>503.3333333333333</ele><time>2026-05-03T08:42:40.871Z</time></trkpt><trkpt lat="44.47934" lon="10.59499"><ele>506.0</ele><time>2026-05-03T08:42:41.871Z</time></trkpt><trkpt lat="44.4791867" lon="10.5950983"><ele>506.0</ele><time>2026-05-03T08:42:42.871Z</time></trkpt><trkpt lat="44.479025" lon="10.5952017"><ele>506.0</ele><time>2026-05-03T08:42:43.871Z</time></trkpt><trkpt lat="44.4788617" lon="10.5953067"><ele>506.0</ele><time>2026-05-03T08:42:44.871Z</time></trkpt><trkpt lat="44.478725" lon="10.5954233"><ele>507.75</ele><time>2026-05-03T08:42:45.87Z</time></trkpt><trkpt lat="44.478615" lon="10.59556"><ele>509.5</ele><time>2026-05-03T08:42:46.871Z</time></trkpt><trkpt lat="44.47853" lon="10.5956917"><ele>511.25</ele><time>2026-05-03T08:42:47.87Z</time></trkpt><trkpt lat="44.4784483" lon="10.59581"><ele>513.0</ele><time>2026-05-03T08:42:48.87Z</time></trkpt><trkpt lat="44.478335" lon="10.5958783"><ele>513.0</ele><time>2026-05-03T08:42:49.871Z</time></trkpt><trkpt lat="44.4781917" lon="10.595895"><ele>513.0</ele><time>2026-05-03T08:42:50.87Z</time></trkpt><trkpt lat="44.4780467" lon="10.5959133"><ele>513.0</ele><time>2026-05-03T08:42:51.871Z</time></trkpt><trkpt lat="44.4779183" lon="10.595965"><ele>513.0</ele><time>2026-05-03T08:42:52.871Z</time></trkpt><trkpt lat="44.47781" lon="10.5960367"><ele>514.0</ele><time>2026-05-03T08:42:53.87Z</time></trkpt><trkpt lat="44.477705" lon="10.5960967"><ele>515.0</ele><time>2026-05-03T08:42:54.871Z</time></trkpt><trkpt lat="44.4776017" lon="10.5961083"><ele>516.0</ele><time>2026-05-03T08:42:55.871Z</time></trkpt><trkpt lat="44.47749" lon="10.596075"><ele>517.0</ele><time>2026-05-03T08:42:56.871Z</time></trkpt><trkpt lat="44.47739" lon="10.5959733"><ele>517.0</ele><time>2026-05-03T08:42:57.871Z</time></trkpt><trkpt lat="44.47729" lon="10.5958183"><ele>517.0</ele><time>2026-05-03T08:42:58.87Z</time></trkpt><trkpt lat="44.4772" lon="10.595645"><ele>517.0</ele><time>2026-05-03T08:42:59.871Z</time></trkpt><trkpt lat="44.4771083" lon="10.59547"><ele>517.6666666666667</ele><time>2026-05-03T08:43:00.87Z</time></trkpt><trkpt lat="44.4770083" lon="10.595295"><ele>518.3333333333334</ele><time>2026-05-03T08:43:01.87Z</time></trkpt><trkpt lat="44.4768867" lon="10.5951283"><ele>519.0</ele><time>2026-05-03T08:43:02.87Z</time></trkpt><trkpt lat="44.4767533" lon="10.5949933"><ele>519.0</ele><time>2026-05-03T08:43:03.871Z</time></trkpt><trkpt lat="44.4766183" lon="10.594895"><ele>519.0</ele><time>2026-05-03T08:43:04.871Z</time></trkpt><trkpt lat="44.476475" lon="10.594815"><ele>519.0</ele><time>2026-05-03T08:43:05.87Z</time></trkpt><trkpt lat="44.47635" lon="10.5947283"><ele>519.0</ele><time>2026-05-03T08:43:06.871Z</time></trkpt><trkpt lat="44.4762517" lon="10.5946133"><ele>517.75</ele><time>2026-05-03T08:43:07.871Z</time></trkpt><trkpt lat="44.47618" lon="10.59446"><ele>516.5</ele><time>2026-05-03T08:43:08.871Z</time></trkpt><trkpt lat="44.4761633" lon="10.594265"><ele>515.25</ele><time>2026-05-03T08:43:09.871Z</time></trkpt><trkpt lat="44.476175" lon="10.59407"><ele>514.0</ele><time>2026-05-03T08:43:10.87Z</time></trkpt><trkpt lat="44.476195" lon="10.5938883"><ele>514.0</ele><time>2026-05-03T08:43:11.871Z</time></trkpt><trkpt lat="44.4761833" lon="10.5937483"><ele>514.0</ele><time>2026-05-03T08:43:12.87Z</time></trkpt><trkpt lat="44.4761417" lon="10.5936467"><ele>514.0</ele><time>2026-05-03T08:43:13.87Z</time></trkpt><trkpt lat="44.47609" lon="10.593585"><ele>514.0</ele><time>2026-05-03T08:43:14.871Z</time></trkpt><trkpt lat="44.4759967" lon="10.5934917"><ele>514.0</ele><time>2026-05-03T08:43:16.87Z</time></trkpt><trkpt lat="44.4759383" lon="10.5934533"><ele>514.0</ele><time>2026-05-03T08:43:18.871Z</time></trkpt><trkpt lat="44.4758733" lon="10.5933867"><ele>514.8</ele><time>2026-05-03T08:43:40.871Z</time></trkpt><trkpt lat="44.4757917" lon="10.5933333"><ele>515.5999999999999</ele><time>2026-05-03T08:43:41.87Z</time></trkpt><trkpt lat="44.475705" lon="10.5932883"><ele>516.4</ele><time>2026-05-03T08:43:42.871Z</time></trkpt><trkpt lat="44.4756167" lon="10.5932733"><ele>517.1999999999999</ele><time>2026-05-03T08:43:43.87Z</time></trkpt><trkpt lat="44.475525" lon="10.5932833"><ele>518.0</ele><time>2026-05-03T08:43:44.871Z</time></trkpt><trkpt lat="44.475425" lon="10.5932983"><ele>518.0</ele><time>2026-05-03T08:43:45.87Z</time></trkpt><trkpt lat="44.4753283" lon="10.5933133"><ele>518.0</ele><time>2026-05-03T08:43:46.871Z</time></trkpt><trkpt lat="44.4752217" lon="10.59331"><ele>518.0</ele><time>2026-05-03T08:43:47.871Z</time></trkpt><trkpt lat="44.47511" lon="10.5932683"><ele>518.0</ele><time>2026-05-03T08:43:48.871Z</time></trkpt><trkpt lat="44.4750033" lon="10.5932083"><ele>518.0</ele><time>2026-05-03T08:43:49.871Z</time></trkpt><trkpt lat="44.4749167" lon="10.59312"><ele>518.0</ele><time>2026-05-03T08:43:50.871Z</time></trkpt><trkpt lat="44.474855" lon="10.593025"><ele>518.0</ele><time>2026-05-03T08:43:51.871Z</time></trkpt><trkpt lat="44.474815" lon="10.5929283"><ele>518.0</ele><time>2026-05-03T08:43:52.871Z</time></trkpt><trkpt lat="44.4747967" lon="10.592805"><ele>518.0</ele><time>2026-05-03T08:43:53.871Z</time></trkpt><trkpt lat="44.474805" lon="10.59267"><ele>518.0</ele><time>2026-05-03T08:43:54.871Z</time></trkpt><trkpt lat="44.474835" lon="10.59252"><ele>521.0</ele><time>2026-05-03T08:43:55.871Z</time></trkpt><trkpt lat="44.47486" lon="10.592375"><ele>524.0</ele><time>2026-05-03T08:43:56.87Z</time></trkpt><trkpt lat="44.474855" lon="10.5922283"><ele>527.0</ele><time>2026-05-03T08:43:57.871Z</time></trkpt><trkpt lat="44.4748217" lon="10.5920867"><ele>530.0</ele><time>2026-05-03T08:43:58.871Z</time></trkpt><trkpt lat="44.474755" lon="10.5919733"><ele>533.0</ele><time>2026-05-03T08:43:59.87Z</time></trkpt><trkpt lat="44.474675" lon="10.5918633"><ele>530.5</ele><time>2026-05-03T08:44:00.87Z</time></trkpt><trkpt lat="44.474595" lon="10.5917567"><ele>528.0</ele><time>2026-05-03T08:44:01.871Z</time></trkpt><trkpt lat="44.474535" lon="10.591625"><ele>525.5</ele><time>2026-05-03T08:44:02.87Z</time></trkpt><trkpt lat="44.47449" lon="10.5914667"><ele>523.0</ele><time>2026-05-03T08:44:03.871Z</time></trkpt><trkpt lat="44.4744383" lon="10.591305"><ele>526.25</ele><time>2026-05-03T08:44:04.87Z</time></trkpt><trkpt lat="44.474375" lon="10.5911383"><ele>529.5</ele><time>2026-05-03T08:44:05.871Z</time></trkpt><trkpt lat="44.474305" lon="10.5909717"><ele>532.75</ele><time>2026-05-03T08:44:06.87Z</time></trkpt><trkpt lat="44.4742383" lon="10.5908083"><ele>536.0</ele><time>2026-05-03T08:44:07.87Z</time></trkpt><trkpt lat="44.47417" lon="10.5906417"><ele>536.0</ele><time>2026-05-03T08:44:08.871Z</time></trkpt><trkpt lat="44.4741233" lon="10.590465"><ele>536.0</ele><time>2026-05-03T08:44:09.87Z</time></trkpt><trkpt lat="44.4740833" lon="10.59029"><ele>536.0</ele><time>2026-05-03T08:44:10.871Z</time></trkpt><trkpt lat="44.4740617" lon="10.5901117"><ele>536.0</ele><time>2026-05-03T08:44:11.87Z</time></trkpt><trkpt lat="44.47405" lon="10.5899283"><ele>537.25</ele><time>2026-05-03T08:44:12.871Z</time></trkpt><trkpt lat="44.47403" lon="10.58976"><ele>538.5</ele><time>2026-05-03T08:44:13.871Z</time></trkpt><trkpt lat="44.4739783" lon="10.5896017"><ele>539.75</ele><time>2026-05-03T08:44:14.871Z</time></trkpt><trkpt lat="44.473895" lon="10.58947"><ele>541.0</ele><time>2026-05-03T08:44:15.87Z</time></trkpt><trkpt lat="44.4737867" lon="10.589345"><ele>538.3333333333334</ele><time>2026-05-03T08:44:16.871Z</time></trkpt><trkpt lat="44.4736567" lon="10.5892167"><ele>535.6666666666666</ele><time>2026-05-03T08:44:17.871Z</time></trkpt><trkpt lat="44.4735283" lon="10.58908"><ele>533.0</ele><time>2026-05-03T08:44:18.87Z</time></trkpt><trkpt lat="44.473395" lon="10.58894"><ele>533.0</ele><time>2026-05-03T08:44:19.87Z</time></trkpt><trkpt lat="44.4732633" lon="10.5888"><ele>533.0</ele><time>2026-05-03T08:44:20.871Z</time></trkpt><trkpt lat="44.473125" lon="10.58865"><ele>533.0</ele><time>2026-05-03T08:44:21.87Z</time></trkpt><trkpt lat="44.472995" lon="10.588515"><ele>534.6666666666666</ele><time>2026-05-03T08:44:22.871Z</time></trkpt><trkpt lat="44.4728617" lon="10.5883783"><ele>536.3333333333334</ele><time>2026-05-03T08:44:23.871Z</time></trkpt><trkpt lat="44.472745" lon="10.5882217"><ele>538.0</ele><time>2026-05-03T08:44:24.87Z</time></trkpt><trkpt lat="44.4726517" lon="10.5880333"><ele>538.0</ele><time>2026-05-03T08:44:25.871Z</time></trkpt><trkpt lat="44.4725583" lon="10.5878483"><ele>538.0</ele><time>2026-05-03T08:44:26.871Z</time></trkpt><trkpt lat="44.4724667" lon="10.5876533"><ele>538.0</ele><time>2026-05-03T08:44:27.871Z</time></trkpt><trkpt lat="44.472365" lon="10.5874717"><ele>537.0</ele><time>2026-05-03T08:44:28.871Z</time></trkpt><trkpt lat="44.472265" lon="10.587305"><ele>536.0</ele><time>2026-05-03T08:44:29.87Z</time></trkpt><trkpt lat="44.4721533" lon="10.58716"><ele>535.0</ele><time>2026-05-03T08:44:30.871Z</time></trkpt><trkpt lat="44.4720283" lon="10.587045"><ele>538.75</ele><time>2026-05-03T08:44:31.87Z</time></trkpt><trkpt lat="44.471895" lon="10.5869567"><ele>542.5</ele><time>2026-05-03T08:44:32.87Z</time></trkpt><trkpt lat="44.4717517" lon="10.58691"><ele>546.25</ele><time>2026-05-03T08:44:33.87Z</time></trkpt><trkpt lat="44.47161" lon="10.5868583"><ele>550.0</ele><time>2026-05-03T08:44:34.871Z</time></trkpt><trkpt lat="44.4714833" lon="10.586775"><ele>550.0</ele><time>2026-05-03T08:44:35.87Z</time></trkpt><trkpt lat="44.4713783" lon="10.58665"><ele>550.0</ele><time>2026-05-03T08:44:36.871Z</time></trkpt><trkpt lat="44.471285" lon="10.586485"><ele>550.0</ele><time>2026-05-03T08:44:37.87Z</time></trkpt><trkpt lat="44.4712033" lon="10.58633"><ele>550.0</ele><time>2026-05-03T08:44:38.87Z</time></trkpt><trkpt lat="44.471095" lon="10.58621"><ele>551.0</ele><time>2026-05-03T08:44:39.871Z</time></trkpt><trkpt lat="44.4709617" lon="10.5861333"><ele>552.0</ele><time>2026-05-03T08:44:40.871Z</time></trkpt><trkpt lat="44.4708083" lon="10.5860783"><ele>553.0</ele><time>2026-05-03T08:44:41.87Z</time></trkpt><trkpt lat="44.4706517" lon="10.586035"><ele>553.0</ele><time>2026-05-03T08:44:42.87Z</time></trkpt><trkpt lat="44.4705" lon="10.5859833"><ele>553.0</ele><time>2026-05-03T08:44:43.87Z</time></trkpt><trkpt lat="44.4703483" lon="10.5859467"><ele>553.0</ele><time>2026-05-03T08:44:44.871Z</time></trkpt><trkpt lat="44.4701983" lon="10.5858883"><ele>554.5</ele><time>2026-05-03T08:44:45.871Z</time></trkpt><trkpt lat="44.4700517" lon="10.5858233"><ele>556.0</ele><time>2026-05-03T08:44:46.87Z</time></trkpt><trkpt lat="44.4699083" lon="10.5857667"><ele>557.5</ele><time>2026-05-03T08:44:47.87Z</time></trkpt><trkpt lat="44.46977" lon="10.585705"><ele>559.0</ele><time>2026-05-03T08:44:48.871Z</time></trkpt><trkpt lat="44.4696333" lon="10.585655"><ele>558.0</ele><time>2026-05-03T08:44:49.871Z</time></trkpt><trkpt lat="44.4695067" lon="10.5856017"><ele>557.0</ele><time>2026-05-03T08:44:50.871Z</time></trkpt><trkpt lat="44.4693867" lon="10.58556"><ele>556.0</ele><time>2026-05-03T08:44:51.871Z</time></trkpt><trkpt lat="44.4692783" lon="10.5855183"><ele>555.0</ele><time>2026-05-03T08:44:52.871Z</time></trkpt><trkpt lat="44.4691717" lon="10.58548"><ele>555.0</ele><time>2026-05-03T08:44:53.87Z</time></trkpt><trkpt lat="44.4690683" lon="10.585435"><ele>555.0</ele><time>2026-05-03T08:44:54.87Z</time></trkpt><trkpt lat="44.4689617" lon="10.5854"><ele>555.0</ele><time>2026-05-03T08:44:55.871Z</time></trkpt><trkpt lat="44.4688617" lon="10.58538"><ele>555.0</ele><time>2026-05-03T08:44:56.871Z</time></trkpt><trkpt lat="44.4687483" lon="10.5853933"><ele>555.0</ele><time>2026-05-03T08:44:57.87Z</time></trkpt><trkpt lat="44.4686167" lon="10.585395"><ele>556.25</ele><time>2026-05-03T08:44:58.871Z</time></trkpt><trkpt lat="44.4684833" lon="10.5853717"><ele>557.5</ele><time>2026-05-03T08:44:59.871Z</time></trkpt><trkpt lat="44.468345" lon="10.5853267"><ele>558.75</ele><time>2026-05-03T08:45:00.87Z</time></trkpt><trkpt lat="44.4682083" lon="10.585265"><ele>560.0</ele><time>2026-05-03T08:45:01.871Z</time></trkpt><trkpt lat="44.4680617" lon="10.5852067"><ele>563.75</ele><time>2026-05-03T08:45:02.871Z</time></trkpt><trkpt lat="44.46792" lon="10.5851517"><ele>567.5</ele><time>2026-05-03T08:45:03.871Z</time></trkpt><trkpt lat="44.46779" lon="10.5850917"><ele>571.25</ele><time>2026-05-03T08:45:04.871Z</time></trkpt><trkpt lat="44.4676517" lon="10.5850167"><ele>575.0</ele><time>2026-05-03T08:45:05.871Z</time></trkpt><trkpt lat="44.4675183" lon="10.584955"><ele>575.0</ele><time>2026-05-03T08:45:06.871Z</time></trkpt><trkpt lat="44.4673883" lon="10.5848917"><ele>575.0</ele><time>2026-05-03T08:45:07.871Z</time></trkpt><trkpt lat="44.4672617" lon="10.584835"><ele>575.0</ele><time>2026-05-03T08:45:08.871Z</time></trkpt><trkpt lat="44.4671483" lon="10.584775"><ele>575.0</ele><time>2026-05-03T08:45:09.871Z</time></trkpt><trkpt lat="44.4670417" lon="10.5846883"><ele>576.5</ele><time>2026-05-03T08:45:10.87Z</time></trkpt><trkpt lat="44.4669367" lon="10.5845833"><ele>578.0</ele><time>2026-05-03T08:45:11.871Z</time></trkpt><trkpt lat="44.4668467" lon="10.5844617"><ele>579.5</ele><time>2026-05-03T08:45:12.871Z</time></trkpt><trkpt lat="44.4667483" lon="10.58434"><ele>581.0</ele><time>2026-05-03T08:45:13.871Z</time></trkpt><trkpt lat="44.4666517" lon="10.58422"><ele>582.0</ele><time>2026-05-03T08:45:14.87Z</time></trkpt><trkpt lat="44.466565" lon="10.5841067"><ele>583.0</ele><time>2026-05-03T08:45:15.871Z</time></trkpt><trkpt lat="44.4664783" lon="10.5839867"><ele>584.0</ele><time>2026-05-03T08:45:16.87Z</time></trkpt><trkpt lat="44.4664" lon="10.5838633"><ele>585.0</ele><time>2026-05-03T08:45:17.871Z</time></trkpt><trkpt lat="44.4663367" lon="10.5837433"><ele>586.6</ele><time>2026-05-03T08:45:18.871Z</time></trkpt><trkpt lat="44.4662583" lon="10.5836433"><ele>588.2</ele><time>2026-05-03T08:45:19.871Z</time></trkpt><trkpt lat="44.4661633" lon="10.58358"><ele>589.8</ele><time>2026-05-03T08:45:20.871Z</time></trkpt><trkpt lat="44.46607" lon="10.5835533"><ele>591.4</ele><time>2026-05-03T08:45:21.87Z</time></trkpt><trkpt lat="44.4659717" lon="10.58353"><ele>593.0</ele><time>2026-05-03T08:45:22.87Z</time></trkpt><trkpt lat="44.46586" lon="10.5834867"><ele>593.0</ele><time>2026-05-03T08:45:23.871Z</time></trkpt><trkpt lat="44.4657733" lon="10.5834083"><ele>593.0</ele><time>2026-05-03T08:45:24.871Z</time></trkpt><trkpt lat="44.46571" lon="10.5833233"><ele>593.0</ele><time>2026-05-03T08:45:25.87Z</time></trkpt><trkpt lat="44.4656583" lon="10.5832333"><ele>593.0</ele><time>2026-05-03T08:45:26.87Z</time></trkpt><trkpt lat="44.4656017" lon="10.583185"><ele>593.0</ele><time>2026-05-03T08:45:27.87Z</time></trkpt><trkpt lat="44.4655383" lon="10.5831917"><ele>593.0</ele><time>2026-05-03T08:45:28.871Z</time></trkpt><trkpt lat="44.4654833" lon="10.5832533"><ele>596.4</ele><time>2026-05-03T08:45:29.871Z</time></trkpt><trkpt lat="44.46544" lon="10.5833433"><ele>599.8</ele><time>2026-05-03T08:45:30.871Z</time></trkpt><trkpt lat="44.4654283" lon="10.5834767"><ele>603.2</ele><time>2026-05-03T08:45:31.87Z</time></trkpt><trkpt lat="44.46543" lon="10.5836283"><ele>606.6</ele><time>2026-05-03T08:45:32.87Z</time></trkpt><trkpt lat="44.465425" lon="10.5837683"><ele>610.0</ele><time>2026-05-03T08:45:33.871Z</time></trkpt><trkpt lat="44.4654133" lon="10.5838833"><ele>610.0</ele><time>2026-05-03T08:45:34.87Z</time></trkpt><trkpt lat="44.4653883" lon="10.5839817"><ele>610.0</ele><time>2026-05-03T08:45:35.869Z</time></trkpt><trkpt lat="44.4653583" lon="10.5840733"><ele>610.0</ele><time>2026-05-03T08:45:36.87Z</time></trkpt><trkpt lat="44.4653183" lon="10.58415"><ele>610.0</ele><time>2026-05-03T08:45:37.87Z</time></trkpt><trkpt lat="44.4651967" lon="10.584165"><ele>610.0</ele><time>2026-05-03T08:45:39.87Z</time></trkpt><trkpt lat="44.46514" lon="10.5841117"><ele>610.0</ele><time>2026-05-03T08:45:40.87Z</time></trkpt><trkpt lat="44.46511" lon="10.5840067"><ele>610.0</ele><time>2026-05-03T08:45:41.869Z</time></trkpt><trkpt lat="44.4650917" lon="10.5838683"><ele>610.0</ele><time>2026-05-03T08:45:42.87Z</time></trkpt><trkpt lat="44.4650867" lon="10.5837067"><ele>610.0</ele><time>2026-05-03T08:45:43.87Z</time></trkpt><trkpt lat="44.4650717" lon="10.583545"><ele>610.0</ele><time>2026-05-03T08:45:44.87Z</time></trkpt><trkpt lat="44.4650333" lon="10.5834017"><ele>610.0</ele><time>2026-05-03T08:45:45.87Z</time></trkpt><trkpt lat="44.4649717" lon="10.58328"><ele>611.0</ele><time>2026-05-03T08:45:46.869Z</time></trkpt><trkpt lat="44.4649083" lon="10.583165"><ele>612.0</ele><time>2026-05-03T08:45:47.869Z</time></trkpt><trkpt lat="44.4648333" lon="10.5830683"><ele>613.0</ele><time>2026-05-03T08:45:48.87Z</time></trkpt><trkpt lat="44.4647417" lon="10.5829817"><ele>614.0</ele><time>2026-05-03T08:45:49.87Z</time></trkpt><trkpt lat="44.4646483" lon="10.58291"><ele>615.0</ele><time>2026-05-03T08:45:50.87Z</time></trkpt><trkpt lat="44.4645483" lon="10.582845"><ele>622.25</ele><time>2026-05-03T08:45:51.87Z</time></trkpt><trkpt lat="44.464445" lon="10.582765"><ele>629.5</ele><time>2026-05-03T08:45:52.869Z</time></trkpt><trkpt lat="44.4643617" lon="10.5826533"><ele>636.75</ele><time>2026-05-03T08:45:53.87Z</time></trkpt><trkpt lat="44.4643183" lon="10.582505"><ele>644.0</ele><time>2026-05-03T08:45:54.869Z</time></trkpt><trkpt lat="44.4642983" lon="10.58233"><ele>644.0</ele><time>2026-05-03T08:45:55.87Z</time></trkpt><trkpt lat="44.4642717" lon="10.58215"><ele>644.0</ele><time>2026-05-03T08:45:56.87Z</time></trkpt><trkpt lat="44.4642317" lon="10.5819683"><ele>644.0</ele><time>2026-05-03T08:45:57.87Z</time></trkpt><trkpt lat="44.46416" lon="10.5817967"><ele>644.0</ele><time>2026-05-03T08:45:58.869Z</time></trkpt><trkpt lat="44.464055" lon="10.5816467"><ele>644.25</ele><time>2026-05-03T08:45:59.87Z</time></trkpt><trkpt lat="44.4639517" lon="10.5815067"><ele>644.5</ele><time>2026-05-03T08:46:00.87Z</time></trkpt><trkpt lat="44.4638517" lon="10.5813733"><ele>644.75</ele><time>2026-05-03T08:46:01.87Z</time></trkpt><trkpt lat="44.4637517" lon="10.5812483"><ele>645.0</ele><time>2026-05-03T08:46:02.869Z</time></trkpt><trkpt lat="44.46364" lon="10.5811333"><ele>646.75</ele><time>2026-05-03T08:46:03.87Z</time></trkpt><trkpt lat="44.4635167" lon="10.5810367"><ele>648.5</ele><time>2026-05-03T08:46:04.87Z</time></trkpt><trkpt lat="44.463395" lon="10.580965"><ele>650.25</ele><time>2026-05-03T08:46:05.869Z</time></trkpt><trkpt lat="44.4632717" lon="10.580885"><ele>652.0</ele><time>2026-05-03T08:46:06.87Z</time></trkpt><trkpt lat="44.4631633" lon="10.58077"><ele>652.0</ele><time>2026-05-03T08:46:07.87Z</time></trkpt><trkpt lat="44.4630717" lon="10.5806333"><ele>652.0</ele><time>2026-05-03T08:46:08.869Z</time></trkpt><trkpt lat="44.4630133" lon="10.5804617"><ele>652.0</ele><time>2026-05-03T08:46:09.869Z</time></trkpt><trkpt lat="44.4629833" lon="10.580275"><ele>652.0</ele><time>2026-05-03T08:46:10.869Z</time></trkpt><trkpt lat="44.46298" lon="10.5800867"><ele>651.0</ele><time>2026-05-03T08:46:11.87Z</time></trkpt><trkpt lat="44.463015" lon="10.579885"><ele>650.0</ele><time>2026-05-03T08:46:12.87Z</time></trkpt><trkpt lat="44.4630817" lon="10.579695"><ele>649.0</ele><time>2026-05-03T08:46:13.87Z</time></trkpt><trkpt lat="44.4631567" lon="10.5795133"><ele>648.0</ele><time>2026-05-03T08:46:14.87Z</time></trkpt><trkpt lat="44.4632417" lon="10.5793283"><ele>650.0</ele><time>2026-05-03T08:46:15.869Z</time></trkpt><trkpt lat="44.46332" lon="10.5791383"><ele>652.0</ele><time>2026-05-03T08:46:16.87Z</time></trkpt><trkpt lat="44.4633967" lon="10.5789583"><ele>654.0</ele><time>2026-05-03T08:46:17.87Z</time></trkpt><trkpt lat="44.46346" lon="10.5788033"><ele>656.0</ele><time>2026-05-03T08:46:18.87Z</time></trkpt><trkpt lat="44.46352" lon="10.5786617"><ele>658.4</ele><time>2026-05-03T08:46:19.869Z</time></trkpt><trkpt lat="44.4635717" lon="10.5785367"><ele>660.8</ele><time>2026-05-03T08:46:20.87Z</time></trkpt><trkpt lat="44.463605" lon="10.5784183"><ele>663.1999999999999</ele><time>2026-05-03T08:46:21.87Z</time></trkpt><trkpt lat="44.463605" lon="10.5783067"><ele>665.5999999999999</ele><time>2026-05-03T08:46:22.87Z</time></trkpt><trkpt lat="44.4635667" lon="10.578195"><ele>668.0</ele><time>2026-05-03T08:46:23.87Z</time></trkpt><trkpt lat="44.46349" lon="10.5781167"><ele>668.0</ele><time>2026-05-03T08:46:24.87Z</time></trkpt><trkpt lat="44.4633933" lon="10.5780867"><ele>668.0</ele><time>2026-05-03T08:46:25.869Z</time></trkpt><trkpt lat="44.4632783" lon="10.5780917"><ele>668.0</ele><time>2026-05-03T08:46:26.869Z</time></trkpt><trkpt lat="44.4631583" lon="10.5781133"><ele>668.0</ele><time>2026-05-03T08:46:27.87Z</time></trkpt><trkpt lat="44.4630467" lon="10.5781367"><ele>668.0</ele><time>2026-05-03T08:46:28.87Z</time></trkpt><trkpt lat="44.4629417" lon="10.5781617"><ele>673.2</ele><time>2026-05-03T08:46:29.869Z</time></trkpt><trkpt lat="44.4628517" lon="10.5781933"><ele>678.4</ele><time>2026-05-03T08:46:30.87Z</time></trkpt><trkpt lat="44.4627617" lon="10.5782317"><ele>683.6</ele><time>2026-05-03T08:46:31.87Z</time></trkpt><trkpt lat="44.4626717" lon="10.5782833"><ele>688.8000000000001</ele><time>2026-05-03T08:46:32.869Z</time></trkpt><trkpt lat="44.4625833" lon="10.578345"><ele>694.0</ele><time>2026-05-03T08:46:33.869Z</time></trkpt><trkpt lat="44.4624983" lon="10.5784017"><ele>694.0</ele><time>2026-05-03T08:46:34.87Z</time></trkpt><trkpt lat="44.4624133" lon="10.5784717"><ele>694.0</ele><time>2026-05-03T08:46:35.87Z</time></trkpt><trkpt lat="44.4623283" lon="10.57855"><ele>694.0</ele><time>2026-05-03T08:46:36.87Z</time></trkpt><trkpt lat="44.462245" lon="10.578645"><ele>694.0</ele><time>2026-05-03T08:46:37.87Z</time></trkpt><trkpt lat="44.4621683" lon="10.5787633"><ele>694.0</ele><time>2026-05-03T08:46:38.87Z</time></trkpt><trkpt lat="44.462095" lon="10.578885"><ele>698.2</ele><time>2026-05-03T08:46:39.869Z</time></trkpt><trkpt lat="44.462025" lon="10.5790083"><ele>702.4000000000001</ele><time>2026-05-03T08:46:40.87Z</time></trkpt><trkpt lat="44.461955" lon="10.5791133"><ele>706.6</ele><time>2026-05-03T08:46:41.87Z</time></trkpt><trkpt lat="44.46189" lon="10.579215"><ele>710.8</ele><time>2026-05-03T08:46:42.87Z</time></trkpt><trkpt lat="44.4618467" lon="10.5793233"><ele>715.0</ele><time>2026-05-03T08:46:43.87Z</time></trkpt><trkpt lat="44.4618333" lon="10.57944"><ele>712.0</ele><time>2026-05-03T08:46:44.87Z</time></trkpt><trkpt lat="44.4618317" lon="10.5795483"><ele>709.0</ele><time>2026-05-03T08:46:45.87Z</time></trkpt><trkpt lat="44.4618467" lon="10.5796467"><ele>706.0</ele><time>2026-05-03T08:46:46.87Z</time></trkpt><trkpt lat="44.4618683" lon="10.579745"><ele>703.0</ele><time>2026-05-03T08:46:47.869Z</time></trkpt><trkpt lat="44.46187" lon="10.5798367"><ele>700.0</ele><time>2026-05-03T08:46:48.87Z</time></trkpt><trkpt lat="44.4617583" lon="10.5799367"><ele>697.0</ele><time>2026-05-03T08:46:50.87Z</time></trkpt><trkpt lat="44.4616517" lon="10.5799517"><ele>697.0</ele><time>2026-05-03T08:46:51.87Z</time></trkpt><trkpt lat="44.4615233" lon="10.5799617"><ele>697.0</ele><time>2026-05-03T08:46:52.87Z</time></trkpt><trkpt lat="44.4614017" lon="10.5799833"><ele>697.0</ele><time>2026-05-03T08:46:53.869Z</time></trkpt><trkpt lat="44.4612717" lon="10.58001"><ele>697.0</ele><time>2026-05-03T08:46:54.87Z</time></trkpt><trkpt lat="44.4611333" lon="10.58001"><ele>701.6666666666667</ele><time>2026-05-03T08:46:55.87Z</time></trkpt><trkpt lat="44.4609783" lon="10.580025"><ele>706.3333333333334</ele><time>2026-05-03T08:46:56.869Z</time></trkpt><trkpt lat="44.460815" lon="10.58003"><ele>711.0</ele><time>2026-05-03T08:46:57.87Z</time></trkpt><trkpt lat="44.4606483" lon="10.5800467"><ele>711.0</ele><time>2026-05-03T08:46:58.869Z</time></trkpt><trkpt lat="44.4604867" lon="10.5801017"><ele>711.0</ele><time>2026-05-03T08:46:59.87Z</time></trkpt><trkpt lat="44.46033" lon="10.5801767"><ele>711.0</ele><time>2026-05-03T08:47:00.87Z</time></trkpt><trkpt lat="44.4601717" lon="10.5802517"><ele>714.6666666666666</ele><time>2026-05-03T08:47:01.869Z</time></trkpt><trkpt lat="44.4600117" lon="10.5803083"><ele>718.3333333333333</ele><time>2026-05-03T08:47:02.87Z</time></trkpt><trkpt lat="44.4598483" lon="10.580365"><ele>722.0</ele><time>2026-05-03T08:47:03.869Z</time></trkpt><trkpt lat="44.4596917" lon="10.5804283"><ele>716.6666666666666</ele><time>2026-05-03T08:47:04.87Z</time></trkpt><trkpt lat="44.45954" lon="10.5804967"><ele>711.3333333333334</ele><time>2026-05-03T08:47:05.87Z</time></trkpt><trkpt lat="44.4593783" lon="10.5805067"><ele>706.0</ele><time>2026-05-03T08:47:06.869Z</time></trkpt><trkpt lat="44.4592117" lon="10.5805283"><ele>706.0</ele><time>2026-05-03T08:47:07.87Z</time></trkpt><trkpt lat="44.45905" lon="10.58054"><ele>706.0</ele><time>2026-05-03T08:47:08.87Z</time></trkpt><trkpt lat="44.4588867" lon="10.580555"><ele>706.0</ele><time>2026-05-03T08:47:09.87Z</time></trkpt><trkpt lat="44.458735" lon="10.5805883"><ele>707.3333333333334</ele><time>2026-05-03T08:47:10.87Z</time></trkpt><trkpt lat="44.4585717" lon="10.5806117"><ele>708.6666666666666</ele><time>2026-05-03T08:47:11.87Z</time></trkpt><trkpt lat="44.4584283" lon="10.58069"><ele>710.0</ele><time>2026-05-03T08:47:12.869Z</time></trkpt><trkpt lat="44.4582967" lon="10.5807983"><ele>710.0</ele><time>2026-05-03T08:47:13.869Z</time></trkpt><trkpt lat="44.458195" lon="10.5809583"><ele>710.0</ele><time>2026-05-03T08:47:14.87Z</time></trkpt><trkpt lat="44.4581133" lon="10.581155"><ele>710.0</ele><time>2026-05-03T08:47:15.87Z</time></trkpt><trkpt lat="44.4580417" lon="10.5813783"><ele>711.0</ele><time>2026-05-03T08:47:16.87Z</time></trkpt><trkpt lat="44.45797" lon="10.5816017"><ele>712.0</ele><time>2026-05-03T08:47:17.869Z</time></trkpt><trkpt lat="44.4579083" lon="10.5818183"><ele>713.0</ele><time>2026-05-03T08:47:18.869Z</time></trkpt><trkpt lat="44.4578433" lon="10.5820217"><ele>713.0</ele><time>2026-05-03T08:47:19.87Z</time></trkpt><trkpt lat="44.457765" lon="10.5822117"><ele>713.0</ele><time>2026-05-03T08:47:20.87Z</time></trkpt><trkpt lat="44.4576917" lon="10.58238"><ele>713.0</ele><time>2026-05-03T08:47:21.87Z</time></trkpt><trkpt lat="44.4576017" lon="10.5825267"><ele>713.0</ele><time>2026-05-03T08:47:22.87Z</time></trkpt><trkpt lat="44.45751" lon="10.5826717"><ele>713.0</ele><time>2026-05-03T08:47:23.869Z</time></trkpt><trkpt lat="44.4573767" lon="10.5827817"><ele>713.0</ele><time>2026-05-03T08:47:24.87Z</time></trkpt><trkpt lat="44.4572533" lon="10.5829033"><ele>713.0</ele><time>2026-05-03T08:47:25.869Z</time></trkpt><trkpt lat="44.457145" lon="10.5830317"><ele>713.0</ele><time>2026-05-03T08:47:26.869Z</time></trkpt><trkpt lat="44.457025" lon="10.5831433"><ele>708.5</ele><time>2026-05-03T08:47:27.87Z</time></trkpt><trkpt lat="44.4569167" lon="10.583235"><ele>704.0</ele><time>2026-05-03T08:47:28.87Z</time></trkpt><trkpt lat="44.456805" lon="10.58328"><ele>699.5</ele><time>2026-05-03T08:47:29.869Z</time></trkpt><trkpt lat="44.4566817" lon="10.5832833"><ele>695.0</ele><time>2026-05-03T08:47:30.87Z</time></trkpt><trkpt lat="44.45656" lon="10.5832633"><ele>695.0</ele><time>2026-05-03T08:47:31.87Z</time></trkpt><trkpt lat="44.4564517" lon="10.5832233"><ele>695.0</ele><time>2026-05-03T08:47:32.87Z</time></trkpt><trkpt lat="44.4563633" lon="10.5831783"><ele>695.0</ele><time>2026-05-03T08:47:33.869Z</time></trkpt><trkpt lat="44.4562917" lon="10.583125"><ele>695.0</ele><time>2026-05-03T08:47:34.87Z</time></trkpt><trkpt lat="44.45622" lon="10.5830933"><ele>695.0</ele><time>2026-05-03T08:47:35.87Z</time></trkpt><trkpt lat="44.4561167" lon="10.58309"><ele>693.5</ele><time>2026-05-03T08:47:37.869Z</time></trkpt><trkpt lat="44.45608" lon="10.583205"><ele>692.0</ele><time>2026-05-03T08:47:39.87Z</time></trkpt><trkpt lat="44.45611" lon="10.58329"><ele>690.5</ele><time>2026-05-03T08:47:40.869Z</time></trkpt><trkpt lat="44.4561583" lon="10.58338"><ele>689.0</ele><time>2026-05-03T08:47:41.87Z</time></trkpt><trkpt lat="44.4562067" lon="10.5834883"><ele>687.5</ele><time>2026-05-03T08:47:42.87Z</time></trkpt><trkpt lat="44.4562367" lon="10.5836133"><ele>686.0</ele><time>2026-05-03T08:47:43.87Z</time></trkpt><trkpt lat="44.4562567" lon="10.583745"><ele>685.5</ele><time>2026-05-03T08:47:44.87Z</time></trkpt><trkpt lat="44.45626" lon="10.5839033"><ele>685.0</ele><time>2026-05-03T08:47:45.869Z</time></trkpt><trkpt lat="44.4562667" lon="10.584065"><ele>684.5</ele><time>2026-05-03T08:47:46.87Z</time></trkpt><trkpt lat="44.4562833" lon="10.58423"><ele>684.0</ele><time>2026-05-03T08:47:47.87Z</time></trkpt><trkpt lat="44.4562983" lon="10.5844017"><ele>683.6</ele><time>2026-05-03T08:47:48.87Z</time></trkpt><trkpt lat="44.4563083" lon="10.58456"><ele>683.2</ele><time>2026-05-03T08:47:49.87Z</time></trkpt><trkpt lat="44.4563067" lon="10.5847117"><ele>682.8000000000001</ele><time>2026-05-03T08:47:50.87Z</time></trkpt><trkpt lat="44.4563033" lon="10.5848583"><ele>682.4000000000001</ele><time>2026-05-03T08:47:51.87Z</time></trkpt><trkpt lat="44.4562867" lon="10.5850033"><ele>682.0</ele><time>2026-05-03T08:47:52.869Z</time></trkpt><trkpt lat="44.4562733" lon="10.58514"><ele>682.0</ele><time>2026-05-03T08:47:53.87Z</time></trkpt><trkpt lat="44.4562633" lon="10.5852567"><ele>682.0</ele><time>2026-05-03T08:47:54.87Z</time></trkpt><trkpt lat="44.4562233" lon="10.585335"><ele>682.0</ele><time>2026-05-03T08:47:55.869Z</time></trkpt><trkpt lat="44.45609" lon="10.5853633"><ele>682.0</ele><time>2026-05-03T08:47:57.869Z</time></trkpt><trkpt lat="44.456" lon="10.5853217"><ele>682.0</ele><time>2026-05-03T08:47:58.869Z</time></trkpt><trkpt lat="44.4558967" lon="10.5852583"><ele>682.0</ele><time>2026-05-03T08:47:59.869Z</time></trkpt><trkpt lat="44.45579" lon="10.5851867"><ele>682.0</ele><time>2026-05-03T08:48:00.869Z</time></trkpt><trkpt lat="44.4556833" lon="10.5851233"><ele>682.0</ele><time>2026-05-03T08:48:01.87Z</time></trkpt><trkpt lat="44.4555817" lon="10.5850633"><ele>682.0</ele><time>2026-05-03T08:48:02.87Z</time></trkpt><trkpt lat="44.4555067" lon="10.58498"><ele>682.0</ele><time>2026-05-03T08:48:03.87Z</time></trkpt><trkpt lat="44.4554517" lon="10.584865"><ele>682.6</ele><time>2026-05-03T08:48:04.869Z</time></trkpt><trkpt lat="44.4554167" lon="10.5847233"><ele>683.2</ele><time>2026-05-03T08:48:05.87Z</time></trkpt><trkpt lat="44.455405" lon="10.584565"><ele>683.8</ele><time>2026-05-03T08:48:06.869Z</time></trkpt><trkpt lat="44.455405" lon="10.5844033"><ele>684.4</ele><time>2026-05-03T08:48:07.869Z</time></trkpt><trkpt lat="44.4553983" lon="10.584255"><ele>685.0</ele><time>2026-05-03T08:48:08.87Z</time></trkpt><trkpt lat="44.4553967" lon="10.5841117"><ele>683.8</ele><time>2026-05-03T08:48:09.869Z</time></trkpt><trkpt lat="44.455375" lon="10.58399"><ele>682.6</ele><time>2026-05-03T08:48:10.87Z</time></trkpt><trkpt lat="44.4553167" lon="10.5838917"><ele>681.4000000000001</ele><time>2026-05-03T08:48:11.87Z</time></trkpt><trkpt lat="44.4552267" lon="10.58382"><ele>680.2</ele><time>2026-05-03T08:48:12.87Z</time></trkpt><trkpt lat="44.45511" lon="10.583745"><ele>679.0</ele><time>2026-05-03T08:48:13.869Z</time></trkpt><trkpt lat="44.454985" lon="10.5836633"><ele>678.3333333333334</ele><time>2026-05-03T08:48:14.87Z</time></trkpt><trkpt lat="44.4548567" lon="10.583575"><ele>677.6666666666666</ele><time>2026-05-03T08:48:15.869Z</time></trkpt><trkpt lat="44.45472" lon="10.5834767"><ele>677.0</ele><time>2026-05-03T08:48:16.869Z</time></trkpt><trkpt lat="44.4545817" lon="10.5833683"><ele>672.3333333333333</ele><time>2026-05-03T08:48:17.869Z</time></trkpt><trkpt lat="44.454435" lon="10.5832683"><ele>667.6666666666666</ele><time>2026-05-03T08:48:18.87Z</time></trkpt><trkpt lat="44.4542817" lon="10.5831683"><ele>663.0</ele><time>2026-05-03T08:48:19.87Z</time></trkpt><trkpt lat="44.4541267" lon="10.5830633"><ele>663.0</ele><time>2026-05-03T08:48:20.869Z</time></trkpt><trkpt lat="44.4539733" lon="10.5829567"><ele>663.0</ele><time>2026-05-03T08:48:21.869Z</time></trkpt><trkpt lat="44.45382" lon="10.5828433"><ele>663.0</ele><time>2026-05-03T08:48:22.869Z</time></trkpt><trkpt lat="44.4536683" lon="10.582735"><ele>659.3333333333334</ele><time>2026-05-03T08:48:23.869Z</time></trkpt><trkpt lat="44.4535183" lon="10.5826183"><ele>655.6666666666667</ele><time>2026-05-03T08:48:24.87Z</time></trkpt><trkpt lat="44.4533767" lon="10.58247"><ele>652.0</ele><time>2026-05-03T08:48:25.87Z</time></trkpt><trkpt lat="44.4532433" lon="10.5823067"><ele>652.0</ele><time>2026-05-03T08:48:26.869Z</time></trkpt><trkpt lat="44.453105" lon="10.582125"><ele>652.0</ele><time>2026-05-03T08:48:27.869Z</time></trkpt><trkpt lat="44.4529567" lon="10.58192"><ele>652.0</ele><time>2026-05-03T08:48:28.869Z</time></trkpt><trkpt lat="44.4528083" lon="10.581725"><ele>648.0</ele><time>2026-05-03T08:48:29.87Z</time></trkpt><trkpt lat="44.4526567" lon="10.5815267"><ele>644.0</ele><time>2026-05-03T08:48:30.87Z</time></trkpt><trkpt lat="44.4525183" lon="10.5813417"><ele>640.0</ele><time>2026-05-03T08:48:31.869Z</time></trkpt><trkpt lat="44.4523883" lon="10.5811667"><ele>640.0</ele><time>2026-05-03T08:48:32.87Z</time></trkpt><trkpt lat="44.4522733" lon="10.5810133"><ele>640.0</ele><time>2026-05-03T08:48:33.87Z</time></trkpt><trkpt lat="44.4521583" lon="10.5808717"><ele>640.0</ele><time>2026-05-03T08:48:34.87Z</time></trkpt><trkpt lat="44.452055" lon="10.5807317"><ele>637.0</ele><time>2026-05-03T08:48:35.87Z</time></trkpt><trkpt lat="44.4519483" lon="10.5805917"><ele>634.0</ele><time>2026-05-03T08:48:36.87Z</time></trkpt><trkpt lat="44.45184" lon="10.5804533"><ele>631.0</ele><time>2026-05-03T08:48:37.87Z</time></trkpt><trkpt lat="44.4517267" lon="10.580305"><ele>628.0</ele><time>2026-05-03T08:48:38.869Z</time></trkpt><trkpt lat="44.4516167" lon="10.580155"><ele>628.0</ele><time>2026-05-03T08:48:39.869Z</time></trkpt><trkpt lat="44.451505" lon="10.580015"><ele>628.0</ele><time>2026-05-03T08:48:40.87Z</time></trkpt><trkpt lat="44.451405" lon="10.5798767"><ele>628.0</ele><time>2026-05-03T08:48:41.87Z</time></trkpt><trkpt lat="44.4513183" lon="10.579745"><ele>628.0</ele><time>2026-05-03T08:48:42.869Z</time></trkpt><trkpt lat="44.45125" lon="10.5796083"><ele>627.0</ele><time>2026-05-03T08:48:43.869Z</time></trkpt><trkpt lat="44.45119" lon="10.57948"><ele>626.0</ele><time>2026-05-03T08:48:44.869Z</time></trkpt><trkpt lat="44.4511317" lon="10.57936"><ele>625.0</ele><time>2026-05-03T08:48:45.87Z</time></trkpt><trkpt lat="44.45107" lon="10.5792683"><ele>624.0</ele><time>2026-05-03T08:48:46.87Z</time></trkpt><trkpt lat="44.4509917" lon="10.579225"><ele>623.0</ele><time>2026-05-03T08:48:47.869Z</time></trkpt><trkpt lat="44.4509067" lon="10.5792367"><ele>623.0</ele><time>2026-05-03T08:48:48.87Z</time></trkpt><trkpt lat="44.4508067" lon="10.5793017"><ele>623.0</ele><time>2026-05-03T08:48:49.869Z</time></trkpt><trkpt lat="44.4506867" lon="10.5794117"><ele>623.0</ele><time>2026-05-03T08:48:50.869Z</time></trkpt><trkpt lat="44.45055" lon="10.5795383"><ele>623.0</ele><time>2026-05-03T08:48:51.87Z</time></trkpt><trkpt lat="44.4504117" lon="10.5796683"><ele>620.3333333333333</ele><time>2026-05-03T08:48:52.87Z</time></trkpt><trkpt lat="44.4502783" lon="10.5797867"><ele>617.6666666666666</ele><time>2026-05-03T08:48:53.869Z</time></trkpt><trkpt lat="44.4501467" lon="10.5799017"><ele>615.0</ele><time>2026-05-03T08:48:54.87Z</time></trkpt><trkpt lat="44.4500117" lon="10.5800167"><ele>615.0</ele><time>2026-05-03T08:48:55.869Z</time></trkpt><trkpt lat="44.449885" lon="10.5801283"><ele>615.0</ele><time>2026-05-03T08:48:56.869Z</time></trkpt><trkpt lat="44.44976" lon="10.5802417"><ele>615.0</ele><time>2026-05-03T08:48:57.869Z</time></trkpt><trkpt lat="44.449655" lon="10.5803733"><ele>615.0</ele><time>2026-05-03T08:48:58.87Z</time></trkpt><trkpt lat="44.4495767" lon="10.5805317"><ele>614.0</ele><time>2026-05-03T08:48:59.869Z</time></trkpt><trkpt lat="44.449515" lon="10.5807167"><ele>613.0</ele><time>2026-05-03T08:49:00.87Z</time></trkpt><trkpt lat="44.4494533" lon="10.58089"><ele>612.0</ele><time>2026-05-03T08:49:01.869Z</time></trkpt><trkpt lat="44.4493667" lon="10.58103"><ele>611.0</ele><time>2026-05-03T08:49:02.87Z</time></trkpt><trkpt lat="44.4492633" lon="10.5811583"><ele>612.25</ele><time>2026-05-03T08:49:03.869Z</time></trkpt><trkpt lat="44.4491583" lon="10.58128"><ele>613.5</ele><time>2026-05-03T08:49:04.87Z</time></trkpt><trkpt lat="44.4490483" lon="10.5813917"><ele>614.75</ele><time>2026-05-03T08:49:05.87Z</time></trkpt><trkpt lat="44.44894" lon="10.5815"><ele>616.0</ele><time>2026-05-03T08:49:06.869Z</time></trkpt><trkpt lat="44.4488367" lon="10.5816"><ele>613.5</ele><time>2026-05-03T08:49:07.87Z</time></trkpt><trkpt lat="44.4487317" lon="10.581695"><ele>611.0</ele><time>2026-05-03T08:49:08.869Z</time></trkpt><trkpt lat="44.4486267" lon="10.5817867"><ele>608.5</ele><time>2026-05-03T08:49:09.869Z</time></trkpt><trkpt lat="44.4485267" lon="10.58187"><ele>606.0</ele><time>2026-05-03T08:49:10.87Z</time></trkpt><trkpt lat="44.4484283" lon="10.5819417"><ele>606.0</ele><time>2026-05-03T08:49:11.87Z</time></trkpt><trkpt lat="44.448325" lon="10.5819867"><ele>606.0</ele><time>2026-05-03T08:49:12.87Z</time></trkpt><trkpt lat="44.4482183" lon="10.5820117"><ele>606.0</ele><time>2026-05-03T08:49:13.87Z</time></trkpt><trkpt lat="44.4481117" lon="10.5820433"><ele>606.0</ele><time>2026-05-03T08:49:14.87Z</time></trkpt><trkpt lat="44.448005" lon="10.5820633"><ele>606.0</ele><time>2026-05-03T08:49:15.87Z</time></trkpt><trkpt lat="44.44789" lon="10.5820583"><ele>606.2</ele><time>2026-05-03T08:49:16.869Z</time></trkpt><trkpt lat="44.4477817" lon="10.5820183"><ele>606.4000000000001</ele><time>2026-05-03T08:49:17.87Z</time></trkpt><trkpt lat="44.4477017" lon="10.5819283"><ele>606.6</ele><time>2026-05-03T08:49:18.87Z</time></trkpt><trkpt lat="44.4476417" lon="10.5818167"><ele>606.8000000000001</ele><time>2026-05-03T08:49:19.869Z</time></trkpt><trkpt lat="44.447605" lon="10.5817"><ele>607.0</ele><time>2026-05-03T08:49:20.869Z</time></trkpt><trkpt lat="44.447565" lon="10.5815767"><ele>607.0</ele><time>2026-05-03T08:49:21.869Z</time></trkpt><trkpt lat="44.4474983" lon="10.58147"><ele>607.0</ele><time>2026-05-03T08:49:22.87Z</time></trkpt><trkpt lat="44.4473983" lon="10.5813933"><ele>607.0</ele><time>2026-05-03T08:49:23.869Z</time></trkpt><trkpt lat="44.447285" lon="10.5813367"><ele>607.0</ele><time>2026-05-03T08:49:24.87Z</time></trkpt><trkpt lat="44.4471633" lon="10.5812983"><ele>606.4</ele><time>2026-05-03T08:49:25.87Z</time></trkpt><trkpt lat="44.4470417" lon="10.581275"><ele>605.8000000000001</ele><time>2026-05-03T08:49:26.87Z</time></trkpt><trkpt lat="44.446935" lon="10.5812767"><ele>605.2</ele><time>2026-05-03T08:49:27.87Z</time></trkpt><trkpt lat="44.44685" lon="10.5813133"><ele>604.6</ele><time>2026-05-03T08:49:28.869Z</time></trkpt><trkpt lat="44.4467567" lon="10.5814167"><ele>604.0</ele><time>2026-05-03T08:49:29.869Z</time></trkpt><trkpt lat="44.4466583" lon="10.58153"><ele>604.0</ele><time>2026-05-03T08:49:30.869Z</time></trkpt><trkpt lat="44.4465583" lon="10.5816433"><ele>604.0</ele><time>2026-05-03T08:49:31.87Z</time></trkpt><trkpt lat="44.44644" lon="10.58172"><ele>604.0</ele><time>2026-05-03T08:49:32.869Z</time></trkpt><trkpt lat="44.4463" lon="10.5817583"><ele>604.0</ele><time>2026-05-03T08:49:33.87Z</time></trkpt><trkpt lat="44.446155" lon="10.5817483"><ele>605.25</ele><time>2026-05-03T08:49:34.869Z</time></trkpt><trkpt lat="44.4460233" lon="10.5817067"><ele>606.5</ele><time>2026-05-03T08:49:35.869Z</time></trkpt><trkpt lat="44.4459067" lon="10.5816367"><ele>607.75</ele><time>2026-05-03T08:49:36.869Z</time></trkpt><trkpt lat="44.4458033" lon="10.5815383"><ele>609.0</ele><time>2026-05-03T08:49:37.87Z</time></trkpt><trkpt lat="44.4457017" lon="10.58144"><ele>609.0</ele><time>2026-05-03T08:49:38.87Z</time></trkpt><trkpt lat="44.445605" lon="10.5813517"><ele>609.0</ele><time>2026-05-03T08:49:39.87Z</time></trkpt><trkpt lat="44.4454933" lon="10.5813117"><ele>609.0</ele><time>2026-05-03T08:49:40.869Z</time></trkpt><trkpt lat="44.445355" lon="10.5812983"><ele>609.0</ele><time>2026-05-03T08:49:41.87Z</time></trkpt><trkpt lat="44.44521" lon="10.58132"><ele>608.0</ele><time>2026-05-03T08:49:42.87Z</time></trkpt><trkpt lat="44.44507" lon="10.581375"><ele>607.0</ele><time>2026-05-03T08:49:43.869Z</time></trkpt><trkpt lat="44.4449417" lon="10.5814567"><ele>606.0</ele><time>2026-05-03T08:49:44.869Z</time></trkpt><trkpt lat="44.4448233" lon="10.5815367"><ele>605.0</ele><time>2026-05-03T08:49:45.87Z</time></trkpt><trkpt lat="44.44472" lon="10.5816117"><ele>603.75</ele><time>2026-05-03T08:49:46.87Z</time></trkpt><trkpt lat="44.4446083" lon="10.5816433"><ele>602.5</ele><time>2026-05-03T08:49:47.869Z</time></trkpt><trkpt lat="44.4444833" lon="10.5816233"><ele>601.25</ele><time>2026-05-03T08:49:48.869Z</time></trkpt><trkpt lat="44.4443617" lon="10.5815317"><ele>600.0</ele><time>2026-05-03T08:49:49.87Z</time></trkpt><trkpt lat="44.444235" lon="10.5814017"><ele>600.0</ele><time>2026-05-03T08:49:50.869Z</time></trkpt><trkpt lat="44.444115" lon="10.5812783"><ele>600.0</ele><time>2026-05-03T08:49:51.87Z</time></trkpt><trkpt lat="44.4439967" lon="10.58119"><ele>600.0</ele><time>2026-05-03T08:49:52.869Z</time></trkpt><trkpt lat="44.443865" lon="10.58114"><ele>600.0</ele><time>2026-05-03T08:49:53.87Z</time></trkpt><trkpt lat="44.443705" lon="10.5810967"><ele>596.75</ele><time>2026-05-03T08:49:54.87Z</time></trkpt><trkpt lat="44.4435483" lon="10.58106"><ele>593.5</ele><time>2026-05-03T08:49:55.87Z</time></trkpt><trkpt lat="44.4434133" lon="10.5810167"><ele>590.25</ele><time>2026-05-03T08:49:56.87Z</time></trkpt><trkpt lat="44.4432683" lon="10.58096"><ele>587.0</ele><time>2026-05-03T08:49:57.869Z</time></trkpt><trkpt lat="44.443135" lon="10.580885"><ele>587.0</ele><time>2026-05-03T08:49:58.87Z</time></trkpt><trkpt lat="44.4430183" lon="10.5807683"><ele>587.0</ele><time>2026-05-03T08:49:59.869Z</time></trkpt><trkpt lat="44.4429167" lon="10.58065"><ele>587.0</ele><time>2026-05-03T08:50:00.869Z</time></trkpt><trkpt lat="44.4428333" lon="10.58053"><ele>587.0</ele><time>2026-05-03T08:50:01.869Z</time></trkpt><trkpt lat="44.44275" lon="10.5804217"><ele>587.0</ele><time>2026-05-03T08:50:02.869Z</time></trkpt><trkpt lat="44.4426617" lon="10.5803617"><ele>587.0</ele><time>2026-05-03T08:50:03.87Z</time></trkpt><trkpt lat="44.4425717" lon="10.5803667"><ele>587.0</ele><time>2026-05-03T08:50:04.869Z</time></trkpt><trkpt lat="44.44248" lon="10.5804267"><ele>587.0</ele><time>2026-05-03T08:50:05.87Z</time></trkpt><trkpt lat="44.4423783" lon="10.580545"><ele>587.0</ele><time>2026-05-03T08:50:06.869Z</time></trkpt><trkpt lat="44.4422633" lon="10.58069"><ele>587.0</ele><time>2026-05-03T08:50:07.869Z</time></trkpt><trkpt lat="44.442145" lon="10.5808317"><ele>587.0</ele><time>2026-05-03T08:50:08.869Z</time></trkpt><trkpt lat="44.4420233" lon="10.5809667"><ele>587.0</ele><time>2026-05-03T08:50:09.87Z</time></trkpt><trkpt lat="44.441905" lon="10.5810917"><ele>586.75</ele><time>2026-05-03T08:50:10.87Z</time></trkpt><trkpt lat="44.441775" lon="10.5812033"><ele>586.5</ele><time>2026-05-03T08:50:11.87Z</time></trkpt><trkpt lat="44.44165" lon="10.581305"><ele>586.25</ele><time>2026-05-03T08:50:12.869Z</time></trkpt><trkpt lat="44.44153" lon="10.5814117"><ele>586.0</ele><time>2026-05-03T08:50:13.869Z</time></trkpt><trkpt lat="44.4414067" lon="10.5815133"><ele>581.0</ele><time>2026-05-03T08:50:14.869Z</time></trkpt><trkpt lat="44.4412933" lon="10.5816217"><ele>576.0</ele><time>2026-05-03T08:50:15.87Z</time></trkpt><trkpt lat="44.4411983" lon="10.5817483"><ele>571.0</ele><time>2026-05-03T08:50:16.87Z</time></trkpt><trkpt lat="44.4411383" lon="10.58189"><ele>566.0</ele><time>2026-05-03T08:50:17.869Z</time></trkpt><trkpt lat="44.4411183" lon="10.582045"><ele>566.0</ele><time>2026-05-03T08:50:18.87Z</time></trkpt><trkpt lat="44.4411133" lon="10.5822217"><ele>566.0</ele><time>2026-05-03T08:50:19.87Z</time></trkpt><trkpt lat="44.4411033" lon="10.5823883"><ele>566.0</ele><time>2026-05-03T08:50:20.87Z</time></trkpt><trkpt lat="44.44107" lon="10.58255"><ele>566.0</ele><time>2026-05-03T08:50:21.869Z</time></trkpt><trkpt lat="44.4410133" lon="10.58271"><ele>568.25</ele><time>2026-05-03T08:50:22.87Z</time></trkpt><trkpt lat="44.4409217" lon="10.5828533"><ele>570.5</ele><time>2026-05-03T08:50:23.87Z</time></trkpt><trkpt lat="44.4408183" lon="10.5829633"><ele>572.75</ele><time>2026-05-03T08:50:24.869Z</time></trkpt><trkpt lat="44.4407" lon="10.58304"><ele>575.0</ele><time>2026-05-03T08:50:25.87Z</time></trkpt><trkpt lat="44.4405617" lon="10.5830883"><ele>572.3333333333333</ele><time>2026-05-03T08:50:26.87Z</time></trkpt><trkpt lat="44.440405" lon="10.5831267"><ele>569.6666666666666</ele><time>2026-05-03T08:50:27.869Z</time></trkpt><trkpt lat="44.4402533" lon="10.5831783"><ele>567.0</ele><time>2026-05-03T08:50:28.87Z</time></trkpt><trkpt lat="44.4401017" lon="10.583235"><ele>567.0</ele><time>2026-05-03T08:50:29.87Z</time></trkpt><trkpt lat="44.4399583" lon="10.5832733"><ele>567.0</ele><time>2026-05-03T08:50:30.869Z</time></trkpt><trkpt lat="44.4398267" lon="10.5833233"><ele>567.0</ele><time>2026-05-03T08:50:31.87Z</time></trkpt><trkpt lat="44.4397033" lon="10.5833867"><ele>567.0</ele><time>2026-05-03T08:50:32.87Z</time></trkpt><trkpt lat="44.4396033" lon="10.58346"><ele>564.2</ele><time>2026-05-03T08:50:33.869Z</time></trkpt><trkpt lat="44.4395217" lon="10.5835483"><ele>561.4000000000001</ele><time>2026-05-03T08:50:34.87Z</time></trkpt><trkpt lat="44.4394633" lon="10.58364"><ele>558.5999999999999</ele><time>2026-05-03T08:50:35.869Z</time></trkpt><trkpt lat="44.4394283" lon="10.5837583"><ele>555.8</ele><time>2026-05-03T08:50:36.87Z</time></trkpt><trkpt lat="44.4394233" lon="10.583875"><ele>553.0</ele><time>2026-05-03T08:50:37.87Z</time></trkpt><trkpt lat="44.439435" lon="10.5839933"><ele>551.25</ele><time>2026-05-03T08:50:38.869Z</time></trkpt><trkpt lat="44.4394883" lon="10.58415"><ele>549.5</ele><time>2026-05-03T08:50:39.869Z</time></trkpt><trkpt lat="44.439575" lon="10.584315"><ele>547.75</ele><time>2026-05-03T08:50:40.869Z</time></trkpt><trkpt lat="44.43967" lon="10.5844767"><ele>546.0</ele><time>2026-05-03T08:50:41.87Z</time></trkpt><trkpt lat="44.43976" lon="10.58463"><ele>550.25</ele><time>2026-05-03T08:50:42.869Z</time></trkpt><trkpt lat="44.4398333" lon="10.5847917"><ele>554.5</ele><time>2026-05-03T08:50:43.87Z</time></trkpt><trkpt lat="44.4399" lon="10.58494"><ele>558.75</ele><time>2026-05-03T08:50:44.87Z</time></trkpt><trkpt lat="44.4399483" lon="10.585085"><ele>563.0</ele><time>2026-05-03T08:50:45.87Z</time></trkpt><trkpt lat="44.4399933" lon="10.5853817"><ele>563.0</ele><time>2026-05-03T08:50:47.87Z</time></trkpt><trkpt lat="44.4399733" lon="10.5855417"><ele>563.0</ele><time>2026-05-03T08:50:48.87Z</time></trkpt><trkpt lat="44.4399317" lon="10.585685"><ele>563.0</ele><time>2026-05-03T08:50:49.87Z</time></trkpt><trkpt lat="44.43987" lon="10.5857983"><ele>563.0</ele><time>2026-05-03T08:50:50.87Z</time></trkpt><trkpt lat="44.4397967" lon="10.5859033"><ele>563.0</ele><time>2026-05-03T08:50:51.87Z</time></trkpt><trkpt lat="44.4397033" lon="10.58597"><ele>559.0</ele><time>2026-05-03T08:50:52.869Z</time></trkpt><trkpt lat="44.4395817" lon="10.585995"><ele>555.0</ele><time>2026-05-03T08:50:53.869Z</time></trkpt><trkpt lat="44.43945" lon="10.5859883"><ele>551.0</ele><time>2026-05-03T08:50:54.87Z</time></trkpt><trkpt lat="44.4393133" lon="10.5859317"><ele>547.0</ele><time>2026-05-03T08:50:55.869Z</time></trkpt><trkpt lat="44.4391933" lon="10.585865"><ele>547.0</ele><time>2026-05-03T08:50:56.869Z</time></trkpt><trkpt lat="44.43907" lon="10.5857933"><ele>547.0</ele><time>2026-05-03T08:50:57.87Z</time></trkpt><trkpt lat="44.4389533" lon="10.5857267"><ele>547.0</ele><time>2026-05-03T08:50:58.87Z</time></trkpt><trkpt lat="44.4388267" lon="10.5856817"><ele>547.0</ele><time>2026-05-03T08:50:59.869Z</time></trkpt><trkpt lat="44.438705" lon="10.5856517"><ele>545.0</ele><time>2026-05-03T08:51:00.87Z</time></trkpt><trkpt lat="44.4385667" lon="10.585645"><ele>543.0</ele><time>2026-05-03T08:51:01.869Z</time></trkpt><trkpt lat="44.4384367" lon="10.5856517"><ele>541.0</ele><time>2026-05-03T08:51:02.869Z</time></trkpt><trkpt lat="44.43832" lon="10.585685"><ele>539.0</ele><time>2026-05-03T08:51:03.87Z</time></trkpt><trkpt lat="44.4381883" lon="10.5857383"><ele>539.0</ele><time>2026-05-03T08:51:04.869Z</time></trkpt><trkpt lat="44.4380683" lon="10.5858117"><ele>539.0</ele><time>2026-05-03T08:51:05.87Z</time></trkpt><trkpt lat="44.4379583" lon="10.5859117"><ele>539.0</ele><time>2026-05-03T08:51:06.869Z</time></trkpt><trkpt lat="44.43785" lon="10.5860217"><ele>539.0</ele><time>2026-05-03T08:51:07.869Z</time></trkpt><trkpt lat="44.437745" lon="10.5861417"><ele>539.0</ele><time>2026-05-03T08:51:08.869Z</time></trkpt><trkpt lat="44.43764" lon="10.5862483"><ele>539.0</ele><time>2026-05-03T08:51:09.869Z</time></trkpt><trkpt lat="44.437535" lon="10.5863533"><ele>539.0</ele><time>2026-05-03T08:51:10.87Z</time></trkpt><trkpt lat="44.43743" lon="10.58647"><ele>539.0</ele><time>2026-05-03T08:51:11.87Z</time></trkpt><trkpt lat="44.43732" lon="10.58658"><ele>539.0</ele><time>2026-05-03T08:51:12.869Z</time></trkpt><trkpt lat="44.4372183" lon="10.5867017"><ele>539.0</ele><time>2026-05-03T08:51:13.869Z</time></trkpt><trkpt lat="44.4371233" lon="10.5868367"><ele>539.0</ele><time>2026-05-03T08:51:14.87Z</time></trkpt><trkpt lat="44.4370517" lon="10.58698"><ele>539.0</ele><time>2026-05-03T08:51:15.869Z</time></trkpt><trkpt lat="44.43698" lon="10.5871367"><ele>534.75</ele><time>2026-05-03T08:51:16.87Z</time></trkpt><trkpt lat="44.4369183" lon="10.58729"><ele>530.5</ele><time>2026-05-03T08:51:17.869Z</time></trkpt><trkpt lat="44.4368617" lon="10.587455"><ele>526.25</ele><time>2026-05-03T08:51:18.87Z</time></trkpt><trkpt lat="44.4368417" lon="10.5876383"><ele>522.0</ele><time>2026-05-03T08:51:19.87Z</time></trkpt><trkpt lat="44.4368333" lon="10.5878167"><ele>520.75</ele><time>2026-05-03T08:51:20.87Z</time></trkpt><trkpt lat="44.4368633" lon="10.588"><ele>519.5</ele><time>2026-05-03T08:51:21.869Z</time></trkpt><trkpt lat="44.43691" lon="10.5881983"><ele>518.25</ele><time>2026-05-03T08:51:22.869Z</time></trkpt><trkpt lat="44.4369667" lon="10.5884"><ele>517.0</ele><time>2026-05-03T08:51:23.87Z</time></trkpt><trkpt lat="44.4370067" lon="10.5886133"><ele>517.0</ele><time>2026-05-03T08:51:24.869Z</time></trkpt><trkpt lat="44.4370183" lon="10.5888183"><ele>517.0</ele><time>2026-05-03T08:51:25.87Z</time></trkpt><trkpt lat="44.4370117" lon="10.58902"><ele>517.0</ele><time>2026-05-03T08:51:26.869Z</time></trkpt><trkpt lat="44.4369817" lon="10.5891883"><ele>517.0</ele><time>2026-05-03T08:51:27.87Z</time></trkpt><trkpt lat="44.4369233" lon="10.589345"><ele>517.0</ele><time>2026-05-03T08:51:28.87Z</time></trkpt><trkpt lat="44.43682" lon="10.58949"><ele>517.0</ele><time>2026-05-03T08:51:29.869Z</time></trkpt><trkpt lat="44.4367117" lon="10.58963"><ele>517.0</ele><time>2026-05-03T08:51:30.869Z</time></trkpt><trkpt lat="44.43661" lon="10.58977"><ele>517.0</ele><time>2026-05-03T08:51:31.87Z</time></trkpt><trkpt lat="44.4365117" lon="10.5899083"><ele>517.5</ele><time>2026-05-03T08:51:32.87Z</time></trkpt><trkpt lat="44.4364217" lon="10.5900483"><ele>518.0</ele><time>2026-05-03T08:51:33.869Z</time></trkpt><trkpt lat="44.43634" lon="10.5901717"><ele>518.5</ele><time>2026-05-03T08:51:34.87Z</time></trkpt><trkpt lat="44.4362583" lon="10.59028"><ele>519.0</ele><time>2026-05-03T08:51:35.869Z</time></trkpt><trkpt lat="44.436165" lon="10.59034"><ele>523.25</ele><time>2026-05-03T08:51:36.869Z</time></trkpt><trkpt lat="44.43606" lon="10.59037"><ele>527.5</ele><time>2026-05-03T08:51:37.87Z</time></trkpt><trkpt lat="44.4359533" lon="10.5903733"><ele>531.75</ele><time>2026-05-03T08:51:38.869Z</time></trkpt><trkpt lat="44.4358317" lon="10.5903983"><ele>536.0</ele><time>2026-05-03T08:51:39.869Z</time></trkpt><trkpt lat="44.4357133" lon="10.5904733"><ele>536.0</ele><time>2026-05-03T08:51:40.87Z</time></trkpt><trkpt lat="44.4355983" lon="10.5905817"><ele>536.0</ele><time>2026-05-03T08:51:41.87Z</time></trkpt><trkpt lat="44.43548" lon="10.59069"><ele>536.0</ele><time>2026-05-03T08:51:42.87Z</time></trkpt><trkpt lat="44.4353617" lon="10.5907717"><ele>536.0</ele><time>2026-05-03T08:51:43.869Z</time></trkpt><trkpt lat="44.4352333" lon="10.5908217"><ele>535.25</ele><time>2026-05-03T08:51:44.87Z</time></trkpt><trkpt lat="44.4351067" lon="10.5908133"><ele>534.5</ele><time>2026-05-03T08:51:45.87Z</time></trkpt><trkpt lat="44.434975" lon="10.590755"><ele>533.75</ele><time>2026-05-03T08:51:46.87Z</time></trkpt><trkpt lat="44.4348433" lon="10.5906767"><ele>533.0</ele><time>2026-05-03T08:51:47.87Z</time></trkpt><trkpt lat="44.4347017" lon="10.59059"><ele>534.0</ele><time>2026-05-03T08:51:48.869Z</time></trkpt><trkpt lat="44.434585" lon="10.590515"><ele>535.0</ele><time>2026-05-03T08:51:49.869Z</time></trkpt><trkpt lat="44.434445" lon="10.590475"><ele>536.0</ele><time>2026-05-03T08:51:50.869Z</time></trkpt><trkpt lat="44.4342983" lon="10.5904833"><ele>537.0</ele><time>2026-05-03T08:51:51.87Z</time></trkpt><trkpt lat="44.4341583" lon="10.5905217"><ele>537.0</ele><time>2026-05-03T08:51:52.87Z</time></trkpt><trkpt lat="44.434015" lon="10.5905783"><ele>537.0</ele><time>2026-05-03T08:51:53.87Z</time></trkpt><trkpt lat="44.4338833" lon="10.5906233"><ele>537.0</ele><time>2026-05-03T08:51:54.87Z</time></trkpt><trkpt lat="44.4337733" lon="10.59063"><ele>537.0</ele><time>2026-05-03T08:51:55.869Z</time></trkpt><trkpt lat="44.4336533" lon="10.5905917"><ele>537.0</ele><time>2026-05-03T08:51:56.87Z</time></trkpt><trkpt lat="44.43354" lon="10.5905183"><ele>537.0</ele><time>2026-05-03T08:51:57.87Z</time></trkpt><trkpt lat="44.4334117" lon="10.590455"><ele>537.0</ele><time>2026-05-03T08:51:58.87Z</time></trkpt><trkpt lat="44.4332883" lon="10.59043"><ele>537.0</ele><time>2026-05-03T08:51:59.87Z</time></trkpt><trkpt lat="44.4331617" lon="10.5904467"><ele>537.0</ele><time>2026-05-03T08:52:00.87Z</time></trkpt><trkpt lat="44.4330467" lon="10.59051"><ele>537.0</ele><time>2026-05-03T08:52:01.869Z</time></trkpt><trkpt lat="44.4329367" lon="10.590625"><ele>537.0</ele><time>2026-05-03T08:52:02.869Z</time></trkpt><trkpt lat="44.4328283" lon="10.5907833"><ele>537.0</ele><time>2026-05-03T08:52:03.869Z</time></trkpt><trkpt lat="44.43273" lon="10.590945"><ele>538.0</ele><time>2026-05-03T08:52:04.869Z</time></trkpt><trkpt lat="44.4326167" lon="10.591115"><ele>539.0</ele><time>2026-05-03T08:52:05.87Z</time></trkpt><trkpt lat="44.4325017" lon="10.5912883"><ele>540.0</ele><time>2026-05-03T08:52:06.87Z</time></trkpt><trkpt lat="44.4323983" lon="10.59144"><ele>540.0</ele><time>2026-05-03T08:52:07.869Z</time></trkpt><trkpt lat="44.4323167" lon="10.5916"><ele>540.0</ele><time>2026-05-03T08:52:08.87Z</time></trkpt><trkpt lat="44.4322617" lon="10.5917783"><ele>540.0</ele><time>2026-05-03T08:52:09.87Z</time></trkpt><trkpt lat="44.432225" lon="10.591985"><ele>540.0</ele><time>2026-05-03T08:52:10.87Z</time></trkpt><trkpt lat="44.4321917" lon="10.592175"><ele>539.0</ele><time>2026-05-03T08:52:11.87Z</time></trkpt><trkpt lat="44.4321317" lon="10.5923333"><ele>538.0</ele><time>2026-05-03T08:52:12.87Z</time></trkpt><trkpt lat="44.4320533" lon="10.5924483"><ele>537.0</ele><time>2026-05-03T08:52:13.869Z</time></trkpt><trkpt lat="44.4319467" lon="10.5925217"><ele>536.0</ele><time>2026-05-03T08:52:14.87Z</time></trkpt><trkpt lat="44.4318217" lon="10.5925583"><ele>536.0</ele><time>2026-05-03T08:52:15.87Z</time></trkpt><trkpt lat="44.43168" lon="10.5925883"><ele>536.0</ele><time>2026-05-03T08:52:16.87Z</time></trkpt><trkpt lat="44.4315567" lon="10.5926783"><ele>536.0</ele><time>2026-05-03T08:52:17.87Z</time></trkpt><trkpt lat="44.4314333" lon="10.592795"><ele>536.0</ele><time>2026-05-03T08:52:18.869Z</time></trkpt><trkpt lat="44.4312967" lon="10.5928917"><ele>541.6666666666666</ele><time>2026-05-03T08:52:19.87Z</time></trkpt><trkpt lat="44.4311533" lon="10.59294"><ele>547.3333333333334</ele><time>2026-05-03T08:52:20.869Z</time></trkpt><trkpt lat="44.430995" lon="10.5929433"><ele>553.0</ele><time>2026-05-03T08:52:21.87Z</time></trkpt><trkpt lat="44.4308367" lon="10.5929383"><ele>553.0</ele><time>2026-05-03T08:52:22.869Z</time></trkpt><trkpt lat="44.43068" lon="10.5929233"><ele>553.0</ele><time>2026-05-03T08:52:23.869Z</time></trkpt><trkpt lat="44.430525" lon="10.5928967"><ele>553.0</ele><time>2026-05-03T08:52:24.87Z</time></trkpt><trkpt lat="44.4303917" lon="10.5928617"><ele>553.0</ele><time>2026-05-03T08:52:25.87Z</time></trkpt><trkpt lat="44.43028" lon="10.59278"><ele>548.5</ele><time>2026-05-03T08:52:26.869Z</time></trkpt><trkpt lat="44.43017" lon="10.592645"><ele>544.0</ele><time>2026-05-03T08:52:27.87Z</time></trkpt><trkpt lat="44.4300783" lon="10.592485"><ele>539.5</ele><time>2026-05-03T08:52:28.869Z</time></trkpt><trkpt lat="44.42999" lon="10.59231"><ele>535.0</ele><time>2026-05-03T08:52:29.87Z</time></trkpt><trkpt lat="44.4299217" lon="10.5921367"><ele>532.5</ele><time>2026-05-03T08:52:30.869Z</time></trkpt><trkpt lat="44.429855" lon="10.59197"><ele>530.0</ele><time>2026-05-03T08:52:31.869Z</time></trkpt><trkpt lat="44.4297583" lon="10.5918267"><ele>527.5</ele><time>2026-05-03T08:52:32.869Z</time></trkpt><trkpt lat="44.42966" lon="10.591685"><ele>525.0</ele><time>2026-05-03T08:52:33.87Z</time></trkpt><trkpt lat="44.42955" lon="10.5915583"><ele>525.0</ele><time>2026-05-03T08:52:34.87Z</time></trkpt><trkpt lat="44.42944" lon="10.59143"><ele>525.0</ele><time>2026-05-03T08:52:35.869Z</time></trkpt><trkpt lat="44.4293317" lon="10.59131"><ele>525.0</ele><time>2026-05-03T08:52:36.87Z</time></trkpt><trkpt lat="44.4292267" lon="10.5912083"><ele>525.0</ele><time>2026-05-03T08:52:37.869Z</time></trkpt><trkpt lat="44.429125" lon="10.5911017"><ele>525.25</ele><time>2026-05-03T08:52:38.869Z</time></trkpt><trkpt lat="44.4290233" lon="10.5909867"><ele>525.5</ele><time>2026-05-03T08:52:39.869Z</time></trkpt><trkpt lat="44.42894" lon="10.59086"><ele>525.75</ele><time>2026-05-03T08:52:40.87Z</time></trkpt><trkpt lat="44.4288783" lon="10.5907317"><ele>526.0</ele><time>2026-05-03T08:52:41.869Z</time></trkpt><trkpt lat="44.42885" lon="10.5905817"><ele>526.0</ele><time>2026-05-03T08:52:42.87Z</time></trkpt><trkpt lat="44.428845" lon="10.590415"><ele>526.0</ele><time>2026-05-03T08:52:43.87Z</time></trkpt><trkpt lat="44.42885" lon="10.590245"><ele>526.0</ele><time>2026-05-03T08:52:44.87Z</time></trkpt><trkpt lat="44.428855" lon="10.5900733"><ele>526.0</ele><time>2026-05-03T08:52:45.869Z</time></trkpt><trkpt lat="44.4288533" lon="10.5899017"><ele>525.4</ele><time>2026-05-03T08:52:46.869Z</time></trkpt><trkpt lat="44.428845" lon="10.5897467"><ele>524.8</ele><time>2026-05-03T08:52:47.87Z</time></trkpt><trkpt lat="44.428835" lon="10.5896167"><ele>524.1999999999999</ele><time>2026-05-03T08:52:48.87Z</time></trkpt><trkpt lat="44.42883" lon="10.5895183"><ele>523.6</ele><time>2026-05-03T08:52:49.87Z</time></trkpt><trkpt lat="44.4288" lon="10.589375"><ele>523.0</ele><time>2026-05-03T08:52:51.869Z</time></trkpt><trkpt lat="44.4287183" lon="10.5894033"><ele>518.8</ele><time>2026-05-03T08:52:53.87Z</time></trkpt><trkpt lat="44.4286917" lon="10.5894933"><ele>514.5999999999999</ele><time>2026-05-03T08:52:54.87Z</time></trkpt><trkpt lat="44.4286917" lon="10.589635"><ele>510.40000000000003</ele><time>2026-05-03T08:52:55.87Z</time></trkpt><trkpt lat="44.428695" lon="10.5898083"><ele>506.20000000000005</ele><time>2026-05-03T08:52:56.87Z</time></trkpt><trkpt lat="44.428715" lon="10.59001"><ele>502.0</ele><time>2026-05-03T08:52:57.87Z</time></trkpt><trkpt lat="44.4287017" lon="10.5902067"><ele>502.25</ele><time>2026-05-03T08:52:58.869Z</time></trkpt><trkpt lat="44.4286667" lon="10.5903883"><ele>502.5</ele><time>2026-05-03T08:52:59.87Z</time></trkpt><trkpt lat="44.428605" lon="10.5905333"><ele>502.75</ele><time>2026-05-03T08:53:00.87Z</time></trkpt><trkpt lat="44.4285517" lon="10.5906633"><ele>503.0</ele><time>2026-05-03T08:53:01.87Z</time></trkpt><trkpt lat="44.42851" lon="10.5907983"><ele>503.0</ele><time>2026-05-03T08:53:02.869Z</time></trkpt><trkpt lat="44.42851" lon="10.5909317"><ele>503.0</ele><time>2026-05-03T08:53:03.87Z</time></trkpt><trkpt lat="44.428545" lon="10.59108"><ele>503.0</ele><time>2026-05-03T08:53:04.869Z</time></trkpt><trkpt lat="44.428605" lon="10.5912383"><ele>503.0</ele><time>2026-05-03T08:53:05.87Z</time></trkpt><trkpt lat="44.4286567" lon="10.5913833"><ele>503.59999999999997</ele><time>2026-05-03T08:53:06.87Z</time></trkpt><trkpt lat="44.428685" lon="10.5915383"><ele>504.19999999999993</ele><time>2026-05-03T08:53:07.87Z</time></trkpt><trkpt lat="44.428695" lon="10.5916817"><ele>504.8</ele><time>2026-05-03T08:53:08.869Z</time></trkpt><trkpt lat="44.4286617" lon="10.5918083"><ele>505.4</ele><time>2026-05-03T08:53:09.869Z</time></trkpt><trkpt lat="44.42859" lon="10.5919117"><ele>506.0</ele><time>2026-05-03T08:53:10.87Z</time></trkpt><trkpt lat="44.42849" lon="10.5919783"><ele>506.0</ele><time>2026-05-03T08:53:11.87Z</time></trkpt><trkpt lat="44.428365" lon="10.5919917"><ele>506.0</ele><time>2026-05-03T08:53:12.869Z</time></trkpt><trkpt lat="44.4282433" lon="10.5919867"><ele>506.0</ele><time>2026-05-03T08:53:13.87Z</time></trkpt><trkpt lat="44.4281267" lon="10.59196"><ele>506.0</ele><time>2026-05-03T08:53:14.87Z</time></trkpt><trkpt lat="44.4280133" lon="10.591935"><ele>505.4</ele><time>2026-05-03T08:53:15.869Z</time></trkpt><trkpt lat="44.4279117" lon="10.5919167"><ele>504.8</ele><time>2026-05-03T08:53:16.869Z</time></trkpt><trkpt lat="44.4278033" lon="10.5919117"><ele>504.19999999999993</ele><time>2026-05-03T08:53:17.87Z</time></trkpt><trkpt lat="44.4277" lon="10.59191"><ele>503.59999999999997</ele><time>2026-05-03T08:53:18.87Z</time></trkpt><trkpt lat="44.427605" lon="10.5919433"><ele>503.0</ele><time>2026-05-03T08:53:19.87Z</time></trkpt><trkpt lat="44.4275267" lon="10.5920167"><ele>503.0</ele><time>2026-05-03T08:53:20.87Z</time></trkpt><trkpt lat="44.4274667" lon="10.5921317"><ele>502.99999999999994</ele><time>2026-05-03T08:53:21.87Z</time></trkpt><trkpt lat="44.42741" lon="10.59226"><ele>502.99999999999994</ele><time>2026-05-03T08:53:22.869Z</time></trkpt><trkpt lat="44.4273383" lon="10.5923617"><ele>503.0</ele><time>2026-05-03T08:53:23.87Z</time></trkpt><trkpt lat="44.427255" lon="10.5924633"><ele>503.0</ele><time>2026-05-03T08:53:24.869Z</time></trkpt><trkpt lat="44.427155" lon="10.59253"><ele>499.0</ele><time>2026-05-03T08:53:25.87Z</time></trkpt><trkpt lat="44.4270533" lon="10.5925667"><ele>495.0</ele><time>2026-05-03T08:53:26.869Z</time></trkpt><trkpt lat="44.42694" lon="10.5926067"><ele>491.0</ele><time>2026-05-03T08:53:27.87Z</time></trkpt><trkpt lat="44.4268217" lon="10.5926367"><ele>487.0</ele><time>2026-05-03T08:53:28.869Z</time></trkpt><trkpt lat="44.4267" lon="10.5926483"><ele>487.0</ele><time>2026-05-03T08:53:29.869Z</time></trkpt><trkpt lat="44.426555" lon="10.592635"><ele>487.0</ele><time>2026-05-03T08:53:30.87Z</time></trkpt><trkpt lat="44.4264067" lon="10.5925983"><ele>487.0</ele><time>2026-05-03T08:53:31.87Z</time></trkpt><trkpt lat="44.4262667" lon="10.59256"><ele>487.0</ele><time>2026-05-03T08:53:32.87Z</time></trkpt><trkpt lat="44.4261233" lon="10.5925283"><ele>485.75</ele><time>2026-05-03T08:53:33.87Z</time></trkpt><trkpt lat="44.4259783" lon="10.5924983"><ele>484.5</ele><time>2026-05-03T08:53:34.869Z</time></trkpt><trkpt lat="44.4258433" lon="10.5924433"><ele>483.25</ele><time>2026-05-03T08:53:35.87Z</time></trkpt><trkpt lat="44.4257067" lon="10.5923667"><ele>482.0</ele><time>2026-05-03T08:53:36.87Z</time></trkpt><trkpt lat="44.4255933" lon="10.5922467"><ele>482.0</ele><time>2026-05-03T08:53:37.87Z</time></trkpt><trkpt lat="44.4255" lon="10.5921033"><ele>482.0</ele><time>2026-05-03T08:53:38.869Z</time></trkpt><trkpt lat="44.4254133" lon="10.5919517"><ele>482.0</ele><time>2026-05-03T08:53:39.868Z</time></trkpt><trkpt lat="44.4253183" lon="10.591795"><ele>482.0</ele><time>2026-05-03T08:53:40.869Z</time></trkpt><trkpt lat="44.4252183" lon="10.5916433"><ele>478.66666666666663</ele><time>2026-05-03T08:53:41.869Z</time></trkpt><trkpt lat="44.425095" lon="10.5914917"><ele>475.33333333333337</ele><time>2026-05-03T08:53:42.869Z</time></trkpt><trkpt lat="44.4249667" lon="10.5913317"><ele>472.0</ele><time>2026-05-03T08:53:43.868Z</time></trkpt><trkpt lat="44.4248333" lon="10.5911733"><ele>471.33333333333337</ele><time>2026-05-03T08:53:44.868Z</time></trkpt><trkpt lat="44.42471" lon="10.5910267"><ele>470.66666666666663</ele><time>2026-05-03T08:53:45.869Z</time></trkpt><trkpt lat="44.4245917" lon="10.590875"><ele>470.0</ele><time>2026-05-03T08:53:46.868Z</time></trkpt><trkpt lat="44.4244767" lon="10.5907517"><ele>470.0</ele><time>2026-05-03T08:53:47.869Z</time></trkpt><trkpt lat="44.4243683" lon="10.59061"><ele>470.0</ele><time>2026-05-03T08:53:48.868Z</time></trkpt><trkpt lat="44.4242533" lon="10.590465"><ele>470.0</ele><time>2026-05-03T08:53:49.869Z</time></trkpt><trkpt lat="44.42415" lon="10.5903083"><ele>470.0</ele><time>2026-05-03T08:53:50.869Z</time></trkpt><trkpt lat="44.4240433" lon="10.5901867"><ele>470.0</ele><time>2026-05-03T08:53:51.868Z</time></trkpt><trkpt lat="44.423935" lon="10.5900917"><ele>470.0</ele><time>2026-05-03T08:53:52.868Z</time></trkpt><trkpt lat="44.4238133" lon="10.590025"><ele>470.0</ele><time>2026-05-03T08:53:53.868Z</time></trkpt><trkpt lat="44.4236967" lon="10.5899917"><ele>470.0</ele><time>2026-05-03T08:53:54.869Z</time></trkpt><trkpt lat="44.4235817" lon="10.589965"><ele>470.0</ele><time>2026-05-03T08:53:55.869Z</time></trkpt><trkpt lat="44.423475" lon="10.5899433"><ele>470.0</ele><time>2026-05-03T08:53:56.869Z</time></trkpt><trkpt lat="44.42338" lon="10.5899233"><ele>470.0</ele><time>2026-05-03T08:53:57.868Z</time></trkpt><trkpt lat="44.4232867" lon="10.5899217"><ele>470.0</ele><time>2026-05-03T08:53:58.868Z</time></trkpt><trkpt lat="44.4231883" lon="10.5899283"><ele>470.0</ele><time>2026-05-03T08:53:59.869Z</time></trkpt><trkpt lat="44.423085" lon="10.5899767"><ele>470.0</ele><time>2026-05-03T08:54:00.869Z</time></trkpt><trkpt lat="44.4229783" lon="10.5900667"><ele>470.0</ele><time>2026-05-03T08:54:01.869Z</time></trkpt><trkpt lat="44.4228617" lon="10.5901783"><ele>470.0</ele><time>2026-05-03T08:54:02.869Z</time></trkpt><trkpt lat="44.42274" lon="10.5902917"><ele>468.66666666666663</ele><time>2026-05-03T08:54:03.869Z</time></trkpt><trkpt lat="44.4226083" lon="10.5904"><ele>467.33333333333337</ele><time>2026-05-03T08:54:04.869Z</time></trkpt><trkpt lat="44.42247" lon="10.590475"><ele>466.0</ele><time>2026-05-03T08:54:05.868Z</time></trkpt><trkpt lat="44.422325" lon="10.5905383"><ele>466.0</ele><time>2026-05-03T08:54:06.868Z</time></trkpt><trkpt lat="44.42219" lon="10.59057"><ele>466.0</ele><time>2026-05-03T08:54:07.869Z</time></trkpt><trkpt lat="44.422055" lon="10.5905633"><ele>466.0</ele><time>2026-05-03T08:54:08.868Z</time></trkpt><trkpt lat="44.42192" lon="10.5905417"><ele>466.0</ele><time>2026-05-03T08:54:09.869Z</time></trkpt><trkpt lat="44.4217967" lon="10.59053"><ele>465.75</ele><time>2026-05-03T08:54:10.868Z</time></trkpt><trkpt lat="44.4216667" lon="10.5905317"><ele>465.5</ele><time>2026-05-03T08:54:11.868Z</time></trkpt><trkpt lat="44.421545" lon="10.5905483"><ele>465.25</ele><time>2026-05-03T08:54:12.869Z</time></trkpt><trkpt lat="44.421425" lon="10.5905783"><ele>465.0</ele><time>2026-05-03T08:54:13.869Z</time></trkpt><trkpt lat="44.4213117" lon="10.5906267"><ele>464.4</ele><time>2026-05-03T08:54:14.869Z</time></trkpt><trkpt lat="44.4212183" lon="10.5906733"><ele>463.8</ele><time>2026-05-03T08:54:15.869Z</time></trkpt><trkpt lat="44.4211267" lon="10.5907117"><ele>463.20000000000005</ele><time>2026-05-03T08:54:16.869Z</time></trkpt><trkpt lat="44.4210333" lon="10.590725"><ele>462.6</ele><time>2026-05-03T08:54:17.869Z</time></trkpt><trkpt lat="44.4209467" lon="10.5907033"><ele>462.0</ele><time>2026-05-03T08:54:18.868Z</time></trkpt><trkpt lat="44.4208517" lon="10.5906383"><ele>462.0</ele><time>2026-05-03T08:54:19.869Z</time></trkpt><trkpt lat="44.420755" lon="10.5905667"><ele>462.0</ele><time>2026-05-03T08:54:20.869Z</time></trkpt><trkpt lat="44.420645" lon="10.59049"><ele>462.0</ele><time>2026-05-03T08:54:21.869Z</time></trkpt><trkpt lat="44.4205317" lon="10.59041"><ele>462.0</ele><time>2026-05-03T08:54:22.869Z</time></trkpt><trkpt lat="44.4204183" lon="10.59034"><ele>457.25</ele><time>2026-05-03T08:54:23.868Z</time></trkpt><trkpt lat="44.420305" lon="10.59028"><ele>452.5</ele><time>2026-05-03T08:54:24.868Z</time></trkpt><trkpt lat="44.4201917" lon="10.5902267"><ele>447.75</ele><time>2026-05-03T08:54:25.868Z</time></trkpt><trkpt lat="44.420075" lon="10.590175"><ele>443.0</ele><time>2026-05-03T08:54:26.869Z</time></trkpt><trkpt lat="44.41996" lon="10.5901583"><ele>443.0</ele><time>2026-05-03T08:54:27.869Z</time></trkpt><trkpt lat="44.4198533" lon="10.5901717"><ele>443.0</ele><time>2026-05-03T08:54:28.869Z</time></trkpt><trkpt lat="44.4197417" lon="10.5902117"><ele>443.0</ele><time>2026-05-03T08:54:29.869Z</time></trkpt><trkpt lat="44.419635" lon="10.59029"><ele>443.0</ele><time>2026-05-03T08:54:30.869Z</time></trkpt><trkpt lat="44.4195317" lon="10.590395"><ele>441.75</ele><time>2026-05-03T08:54:31.869Z</time></trkpt><trkpt lat="44.4194183" lon="10.5905117"><ele>440.5</ele><time>2026-05-03T08:54:32.868Z</time></trkpt><trkpt lat="44.4193083" lon="10.590635"><ele>439.25</ele><time>2026-05-03T08:54:33.869Z</time></trkpt><trkpt lat="44.4191867" lon="10.5907483"><ele>438.0</ele><time>2026-05-03T08:54:34.869Z</time></trkpt><trkpt lat="44.419065" lon="10.59086"><ele>438.0</ele><time>2026-05-03T08:54:35.868Z</time></trkpt><trkpt lat="44.4189467" lon="10.5909617"><ele>438.0</ele><time>2026-05-03T08:54:36.868Z</time></trkpt><trkpt lat="44.418815" lon="10.5910767"><ele>438.0</ele><time>2026-05-03T08:54:37.868Z</time></trkpt><trkpt lat="44.4186933" lon="10.591195"><ele>438.0</ele><time>2026-05-03T08:54:38.868Z</time></trkpt><trkpt lat="44.4185733" lon="10.5913117"><ele>436.4</ele><time>2026-05-03T08:54:39.868Z</time></trkpt><trkpt lat="44.4184817" lon="10.5914267"><ele>434.79999999999995</ele><time>2026-05-03T08:54:40.868Z</time></trkpt><trkpt lat="44.4184133" lon="10.5915567"><ele>433.2</ele><time>2026-05-03T08:54:41.868Z</time></trkpt><trkpt lat="44.418365" lon="10.5916817"><ele>431.6</ele><time>2026-05-03T08:54:42.869Z</time></trkpt><trkpt lat="44.418305" lon="10.5918"><ele>430.0</ele><time>2026-05-03T08:54:43.869Z</time></trkpt><trkpt lat="44.4182333" lon="10.5918967"><ele>430.0</ele><time>2026-05-03T08:54:44.869Z</time></trkpt><trkpt lat="44.418135" lon="10.5919683"><ele>430.0</ele><time>2026-05-03T08:54:45.869Z</time></trkpt><trkpt lat="44.4180217" lon="10.5920483"><ele>430.0</ele><time>2026-05-03T08:54:46.868Z</time></trkpt><trkpt lat="44.4179083" lon="10.592145"><ele>430.0</ele><time>2026-05-03T08:54:47.869Z</time></trkpt><trkpt lat="44.4177983" lon="10.5922533"><ele>428.0</ele><time>2026-05-03T08:54:48.869Z</time></trkpt><trkpt lat="44.4176917" lon="10.5923567"><ele>426.0</ele><time>2026-05-03T08:54:49.869Z</time></trkpt><trkpt lat="44.417585" lon="10.592455"><ele>424.0</ele><time>2026-05-03T08:54:50.868Z</time></trkpt><trkpt lat="44.4174633" lon="10.5925383"><ele>422.0</ele><time>2026-05-03T08:54:51.868Z</time></trkpt><trkpt lat="44.4173383" lon="10.5926067"><ele>422.0</ele><time>2026-05-03T08:54:52.868Z</time></trkpt><trkpt lat="44.4172017" lon="10.5926617"><ele>422.0</ele><time>2026-05-03T08:54:53.869Z</time></trkpt><trkpt lat="44.4170683" lon="10.59272"><ele>422.0</ele><time>2026-05-03T08:54:54.868Z</time></trkpt><trkpt lat="44.4169317" lon="10.5927817"><ele>422.0</ele><time>2026-05-03T08:54:55.868Z</time></trkpt><trkpt lat="44.4168033" lon="10.5928583"><ele>420.49999999999994</ele><time>2026-05-03T08:54:56.869Z</time></trkpt><trkpt lat="44.4166933" lon="10.592935"><ele>419.0</ele><time>2026-05-03T08:54:57.869Z</time></trkpt><trkpt lat="44.4166033" lon="10.5930133"><ele>417.5</ele><time>2026-05-03T08:54:58.869Z</time></trkpt><trkpt lat="44.4165267" lon="10.59307"><ele>416.0</ele><time>2026-05-03T08:54:59.869Z</time></trkpt><trkpt lat="44.4164633" lon="10.5930983"><ele>414.49999999999994</ele><time>2026-05-03T08:55:00.868Z</time></trkpt><trkpt lat="44.4164" lon="10.5930917"><ele>413.0</ele><time>2026-05-03T08:55:01.869Z</time></trkpt><trkpt lat="44.4163317" lon="10.593035"><ele>409.59999999999997</ele><time>2026-05-03T08:55:02.869Z</time></trkpt><trkpt lat="44.4162733" lon="10.592925"><ele>406.2</ele><time>2026-05-03T08:55:03.869Z</time></trkpt><trkpt lat="44.41622" lon="10.5927933"><ele>402.8</ele><time>2026-05-03T08:55:04.868Z</time></trkpt><trkpt lat="44.4161617" lon="10.5926517"><ele>399.4</ele><time>2026-05-03T08:55:05.869Z</time></trkpt><trkpt lat="44.4160917" lon="10.5925217"><ele>396.0</ele><time>2026-05-03T08:55:06.868Z</time></trkpt><trkpt lat="44.4160117" lon="10.5924083"><ele>396.0</ele><time>2026-05-03T08:55:07.868Z</time></trkpt><trkpt lat="44.4159233" lon="10.5922967"><ele>396.0</ele><time>2026-05-03T08:55:08.869Z</time></trkpt><trkpt lat="44.41583" lon="10.5921767"><ele>396.0</ele><time>2026-05-03T08:55:09.869Z</time></trkpt><trkpt lat="44.4157367" lon="10.59207"><ele>396.0</ele><time>2026-05-03T08:55:10.868Z</time></trkpt><trkpt lat="44.4156467" lon="10.5919733"><ele>395.20000000000005</ele><time>2026-05-03T08:55:11.869Z</time></trkpt><trkpt lat="44.415565" lon="10.591875"><ele>394.40000000000003</ele><time>2026-05-03T08:55:12.869Z</time></trkpt><trkpt lat="44.4155117" lon="10.5917667"><ele>393.6</ele><time>2026-05-03T08:55:13.869Z</time></trkpt><trkpt lat="44.415485" lon="10.5916467"><ele>392.8</ele><time>2026-05-03T08:55:14.868Z</time></trkpt><trkpt lat="44.4154967" lon="10.59151"><ele>392.0</ele><time>2026-05-03T08:55:15.869Z</time></trkpt><trkpt lat="44.4155233" lon="10.5913617"><ele>392.0</ele><time>2026-05-03T08:55:16.869Z</time></trkpt><trkpt lat="44.4155517" lon="10.5912117"><ele>392.0</ele><time>2026-05-03T08:55:17.869Z</time></trkpt><trkpt lat="44.4155783" lon="10.5910617"><ele>392.0</ele><time>2026-05-03T08:55:18.869Z</time></trkpt><trkpt lat="44.4155967" lon="10.5909267"><ele>392.0</ele><time>2026-05-03T08:55:19.869Z</time></trkpt><trkpt lat="44.4155933" lon="10.590795"><ele>392.0</ele><time>2026-05-03T08:55:20.869Z</time></trkpt><trkpt lat="44.4155783" lon="10.590665"><ele>390.3333333333333</ele><time>2026-05-03T08:55:21.869Z</time></trkpt><trkpt lat="44.4155433" lon="10.5905567"><ele>388.66666666666663</ele><time>2026-05-03T08:55:22.869Z</time></trkpt><trkpt lat="44.4154967" lon="10.5904683"><ele>387.0</ele><time>2026-05-03T08:55:23.869Z</time></trkpt><trkpt lat="44.4154283" lon="10.5903967"><ele>385.3333333333333</ele><time>2026-05-03T08:55:24.869Z</time></trkpt><trkpt lat="44.4153467" lon="10.5903167"><ele>383.66666666666663</ele><time>2026-05-03T08:55:25.869Z</time></trkpt><trkpt lat="44.415265" lon="10.5902367"><ele>382.0</ele><time>2026-05-03T08:55:26.868Z</time></trkpt><trkpt lat="44.41519" lon="10.5901483"><ele>379.6</ele><time>2026-05-03T08:55:27.868Z</time></trkpt><trkpt lat="44.4151283" lon="10.5900483"><ele>377.20000000000005</ele><time>2026-05-03T08:55:28.868Z</time></trkpt><trkpt lat="44.4150767" lon="10.58994"><ele>374.8</ele><time>2026-05-03T08:55:29.868Z</time></trkpt><trkpt lat="44.4150133" lon="10.589835"><ele>372.4</ele><time>2026-05-03T08:55:30.869Z</time></trkpt><trkpt lat="44.41495" lon="10.5897383"><ele>370.0</ele><time>2026-05-03T08:55:31.868Z</time></trkpt><trkpt lat="44.4148817" lon="10.5896483"><ele>370.0</ele><time>2026-05-03T08:55:32.869Z</time></trkpt><trkpt lat="44.4148033" lon="10.58959"><ele>370.0</ele><time>2026-05-03T08:55:33.869Z</time></trkpt><trkpt lat="44.4147233" lon="10.589565"><ele>370.0</ele><time>2026-05-03T08:55:34.869Z</time></trkpt><trkpt lat="44.4146367" lon="10.589565"><ele>370.0</ele><time>2026-05-03T08:55:35.869Z</time></trkpt><trkpt lat="44.4145483" lon="10.5895817"><ele>370.0</ele><time>2026-05-03T08:55:36.869Z</time></trkpt><trkpt lat="44.4144483" lon="10.589595"><ele>370.0</ele><time>2026-05-03T08:55:37.869Z</time></trkpt><trkpt lat="44.414345" lon="10.5895883"><ele>367.6</ele><time>2026-05-03T08:55:38.868Z</time></trkpt><trkpt lat="44.41426" lon="10.5895533"><ele>365.2</ele><time>2026-05-03T08:55:39.869Z</time></trkpt><trkpt lat="44.4141883" lon="10.5895"><ele>362.79999999999995</ele><time>2026-05-03T08:55:40.869Z</time></trkpt><trkpt lat="44.4141183" lon="10.5894167"><ele>360.4</ele><time>2026-05-03T08:55:41.869Z</time></trkpt><trkpt lat="44.4140583" lon="10.58931"><ele>358.0</ele><time>2026-05-03T08:55:42.868Z</time></trkpt><trkpt lat="44.4139933" lon="10.58921"><ele>357.25</ele><time>2026-05-03T08:55:43.869Z</time></trkpt><trkpt lat="44.4139183" lon="10.589095"><ele>356.5</ele><time>2026-05-03T08:55:44.868Z</time></trkpt><trkpt lat="44.4138433" lon="10.5889633"><ele>355.75</ele><time>2026-05-03T08:55:45.869Z</time></trkpt><trkpt lat="44.41377" lon="10.58883"><ele>355.0</ele><time>2026-05-03T08:55:46.869Z</time></trkpt><trkpt lat="44.41371" lon="10.588695"><ele>349.25</ele><time>2026-05-03T08:55:47.868Z</time></trkpt><trkpt lat="44.413655" lon="10.5885417"><ele>343.5</ele><time>2026-05-03T08:55:48.868Z</time></trkpt><trkpt lat="44.4136117" lon="10.58838"><ele>337.75</ele><time>2026-05-03T08:55:49.869Z</time></trkpt><trkpt lat="44.4135933" lon="10.588215"><ele>332.0</ele><time>2026-05-03T08:55:50.869Z</time></trkpt><trkpt lat="44.4135783" lon="10.588045"><ele>332.0</ele><time>2026-05-03T08:55:51.869Z</time></trkpt><trkpt lat="44.4135583" lon="10.5878883"><ele>332.0</ele><time>2026-05-03T08:55:52.869Z</time></trkpt><trkpt lat="44.4135283" lon="10.5877517"><ele>332.0</ele><time>2026-05-03T08:55:53.868Z</time></trkpt><trkpt lat="44.4135233" lon="10.5876367"><ele>332.0</ele><time>2026-05-03T08:55:54.869Z</time></trkpt><trkpt lat="44.4135483" lon="10.587535"><ele>332.0</ele><time>2026-05-03T08:55:55.869Z</time></trkpt><trkpt lat="44.4136033" lon="10.5874417"><ele>330.40000000000003</ele><time>2026-05-03T08:55:56.869Z</time></trkpt><trkpt lat="44.413675" lon="10.5873417"><ele>328.8</ele><time>2026-05-03T08:55:57.868Z</time></trkpt><trkpt lat="44.4137467" lon="10.5872283"><ele>327.2</ele><time>2026-05-03T08:55:58.868Z</time></trkpt><trkpt lat="44.413815" lon="10.58711"><ele>325.6</ele><time>2026-05-03T08:55:59.869Z</time></trkpt><trkpt lat="44.4138733" lon="10.5869917"><ele>324.0</ele><time>2026-05-03T08:56:00.869Z</time></trkpt><trkpt lat="44.413925" lon="10.586885"><ele>323.3333333333333</ele><time>2026-05-03T08:56:01.868Z</time></trkpt><trkpt lat="44.4139733" lon="10.5867817"><ele>322.6666666666667</ele><time>2026-05-03T08:56:02.868Z</time></trkpt><trkpt lat="44.414005" lon="10.5866733"><ele>322.0</ele><time>2026-05-03T08:56:03.868Z</time></trkpt><trkpt lat="44.4140117" lon="10.5865583"><ele>321.33333333333337</ele><time>2026-05-03T08:56:04.869Z</time></trkpt><trkpt lat="44.4139967" lon="10.5864467"><ele>320.6666666666667</ele><time>2026-05-03T08:56:05.868Z</time></trkpt><trkpt lat="44.4139567" lon="10.58635"><ele>320.0</ele><time>2026-05-03T08:56:06.869Z</time></trkpt><trkpt lat="44.4139133" lon="10.58627"><ele>319.1666666666667</ele><time>2026-05-03T08:56:07.868Z</time></trkpt><trkpt lat="44.413855" lon="10.58615"><ele>318.33333333333337</ele><time>2026-05-03T08:56:09.869Z</time></trkpt><trkpt lat="44.413795" lon="10.5860583"><ele>317.5</ele><time>2026-05-03T08:56:11.869Z</time></trkpt><trkpt lat="44.4137267" lon="10.586025"><ele>316.6666666666667</ele><time>2026-05-03T08:56:16.869Z</time></trkpt><trkpt lat="44.4136317" lon="10.5860767"><ele>315.8333333333333</ele><time>2026-05-03T08:56:18.869Z</time></trkpt><trkpt lat="44.41357" lon="10.5861383"><ele>315.0</ele><time>2026-05-03T08:56:19.868Z</time></trkpt><trkpt lat="44.4135067" lon="10.5862117"><ele>315.0</ele><time>2026-05-03T08:56:20.868Z</time></trkpt><trkpt lat="44.4134383" lon="10.5862867"><ele>315.0</ele><time>2026-05-03T08:56:21.868Z</time></trkpt><trkpt lat="44.4133633" lon="10.5863617"><ele>315.0</ele><time>2026-05-03T08:56:22.869Z</time></trkpt><trkpt lat="44.4132917" lon="10.586435"><ele>315.0</ele><time>2026-05-03T08:56:23.868Z</time></trkpt><trkpt lat="44.41322" lon="10.5865083"><ele>315.0</ele><time>2026-05-03T08:56:24.869Z</time></trkpt><trkpt lat="44.4131433" lon="10.5865767"><ele>315.0</ele><time>2026-05-03T08:56:25.869Z</time></trkpt><trkpt lat="44.4130667" lon="10.586635"><ele>315.0</ele><time>2026-05-03T08:56:26.869Z</time></trkpt><trkpt lat="44.4129933" lon="10.5866767"><ele>315.0</ele><time>2026-05-03T08:56:27.869Z</time></trkpt><trkpt lat="44.4129167" lon="10.58669"><ele>315.0</ele><time>2026-05-03T08:56:28.869Z</time></trkpt><trkpt lat="44.4128417" lon="10.5866867"><ele>315.0</ele><time>2026-05-03T08:56:29.869Z</time></trkpt><trkpt lat="44.41276" lon="10.5866217"><ele>315.0</ele><time>2026-05-03T08:56:31.868Z</time></trkpt><trkpt lat="44.41274" lon="10.5865033"><ele>315.0</ele><time>2026-05-03T08:56:37.868Z</time></trkpt><trkpt lat="44.4127317" lon="10.586395"><ele>313.0</ele><time>2026-05-03T08:56:38.869Z</time></trkpt><trkpt lat="44.4127283" lon="10.586255"><ele>311.0</ele><time>2026-05-03T08:56:39.869Z</time></trkpt><trkpt lat="44.412725" lon="10.58609"><ele>309.0</ele><time>2026-05-03T08:56:40.869Z</time></trkpt><trkpt lat="44.4127333" lon="10.58592"><ele>307.0</ele><time>2026-05-03T08:56:41.869Z</time></trkpt><trkpt lat="44.41274" lon="10.585745"><ele>306.25</ele><time>2026-05-03T08:56:42.868Z</time></trkpt><trkpt lat="44.41274" lon="10.5855683"><ele>305.5</ele><time>2026-05-03T08:56:43.868Z</time></trkpt><trkpt lat="44.41274" lon="10.5853783"><ele>304.75</ele><time>2026-05-03T08:56:44.868Z</time></trkpt><trkpt lat="44.4127383" lon="10.5851767"><ele>304.0</ele><time>2026-05-03T08:56:45.869Z</time></trkpt><trkpt lat="44.4127417" lon="10.5849667"><ele>304.66666666666663</ele><time>2026-05-03T08:56:46.869Z</time></trkpt><trkpt lat="44.4127467" lon="10.5847517"><ele>305.3333333333333</ele><time>2026-05-03T08:56:47.868Z</time></trkpt><trkpt lat="44.4127467" lon="10.5845283"><ele>306.0</ele><time>2026-05-03T08:56:48.868Z</time></trkpt><trkpt lat="44.4127483" lon="10.5843017"><ele>306.0</ele><time>2026-05-03T08:56:49.868Z</time></trkpt><trkpt lat="44.412755" lon="10.5840567"><ele>306.0</ele><time>2026-05-03T08:56:50.869Z</time></trkpt><trkpt lat="44.41276" lon="10.58381"><ele>306.0</ele><time>2026-05-03T08:56:51.869Z</time></trkpt><trkpt lat="44.412765" lon="10.5835683"><ele>307.0</ele><time>2026-05-03T08:56:52.869Z</time></trkpt><trkpt lat="44.4127683" lon="10.583325"><ele>308.0</ele><time>2026-05-03T08:56:53.868Z</time></trkpt><trkpt lat="44.4127783" lon="10.5830783"><ele>309.0</ele><time>2026-05-03T08:56:54.868Z</time></trkpt><trkpt lat="44.4127867" lon="10.5828583"><ele>309.0</ele><time>2026-05-03T08:56:55.869Z</time></trkpt><trkpt lat="44.4128083" lon="10.582665"><ele>309.0</ele><time>2026-05-03T08:56:56.868Z</time></trkpt><trkpt lat="44.4128483" lon="10.5824917"><ele>309.0</ele><time>2026-05-03T08:56:57.868Z</time></trkpt><trkpt lat="44.4129217" lon="10.5823283"><ele>309.0</ele><time>2026-05-03T08:56:58.869Z</time></trkpt><trkpt lat="44.4130367" lon="10.5821867"><ele>309.0</ele><time>2026-05-03T08:56:59.869Z</time></trkpt><trkpt lat="44.4131717" lon="10.5820767"><ele>309.0</ele><time>2026-05-03T08:57:00.868Z</time></trkpt><trkpt lat="44.4133167" lon="10.5819917"><ele>309.0</ele><time>2026-05-03T08:57:01.868Z</time></trkpt><trkpt lat="44.413485" lon="10.581955"><ele>311.0</ele><time>2026-05-03T08:57:02.869Z</time></trkpt><trkpt lat="44.4136617" lon="10.581925"><ele>313.0</ele><time>2026-05-03T08:57:03.868Z</time></trkpt><trkpt lat="44.4138383" lon="10.5818967"><ele>315.0</ele><time>2026-05-03T08:57:04.869Z</time></trkpt><trkpt lat="44.413995" lon="10.581865"><ele>315.0</ele><time>2026-05-03T08:57:05.868Z</time></trkpt><trkpt lat="44.4141467" lon="10.5818367"><ele>315.0</ele><time>2026-05-03T08:57:06.869Z</time></trkpt><trkpt lat="44.4142867" lon="10.5818183"><ele>315.0</ele><time>2026-05-03T08:57:07.869Z</time></trkpt><trkpt lat="44.4144033" lon="10.5817933"><ele>315.0</ele><time>2026-05-03T08:57:08.869Z</time></trkpt><trkpt lat="44.414495" lon="10.581775"><ele>315.0</ele><time>2026-05-03T08:57:09.869Z</time></trkpt><trkpt lat="44.414575" lon="10.581765"><ele>315.0</ele><time>2026-05-03T08:57:10.868Z</time></trkpt><trkpt lat="44.414675" lon="10.58172"><ele>315.0</ele><time>2026-05-03T08:57:12.869Z</time></trkpt><trkpt lat="44.4145633" lon="10.58169"><ele>315.0</ele><time>2026-05-03T08:57:22.868Z</time></trkpt><trkpt lat="44.4144683" lon="10.5817133"><ele>315.0</ele><time>2026-05-03T08:57:23.869Z</time></trkpt><trkpt lat="44.4143533" lon="10.58174"><ele>315.0</ele><time>2026-05-03T08:57:24.868Z</time></trkpt><trkpt lat="44.414225" lon="10.581765"><ele>315.0</ele><time>2026-05-03T08:57:25.868Z</time></trkpt><trkpt lat="44.4140917" lon="10.58179"><ele>315.0</ele><time>2026-05-03T08:57:26.868Z</time></trkpt><trkpt lat="44.41395" lon="10.58181"><ele>315.0</ele><time>2026-05-03T08:57:27.869Z</time></trkpt><trkpt lat="44.41381" lon="10.5818383"><ele>316.0</ele><time>2026-05-03T08:57:28.868Z</time></trkpt><trkpt lat="44.413665" lon="10.5818733"><ele>317.0</ele><time>2026-05-03T08:57:29.868Z</time></trkpt><trkpt lat="44.413525" lon="10.5819083"><ele>318.0</ele><time>2026-05-03T08:57:30.868Z</time></trkpt><trkpt lat="44.4134017" lon="10.58193"><ele>319.0</ele><time>2026-05-03T08:57:31.869Z</time></trkpt><trkpt lat="44.41328" lon="10.5819683"><ele>318.0</ele><time>2026-05-03T08:57:32.868Z</time></trkpt><trkpt lat="44.4131783" lon="10.5820283"><ele>317.0</ele><time>2026-05-03T08:57:33.869Z</time></trkpt><trkpt lat="44.4130967" lon="10.5820867"><ele>316.0</ele><time>2026-05-03T08:57:34.868Z</time></trkpt><trkpt lat="44.4130267" lon="10.582145"><ele>315.0</ele><time>2026-05-03T08:57:35.868Z</time></trkpt><trkpt lat="44.4129383" lon="10.5821917"><ele>314.0</ele><time>2026-05-03T08:57:37.868Z</time></trkpt><trkpt lat="44.4128867" lon="10.5820583"><ele>314.83333333333337</ele><time>2026-05-03T08:57:40.869Z</time></trkpt><trkpt lat="44.4128967" lon="10.58197"><ele>315.6666666666667</ele><time>2026-05-03T08:57:41.869Z</time></trkpt><trkpt lat="44.4129233" lon="10.5818833"><ele>316.5</ele><time>2026-05-03T08:57:42.868Z</time></trkpt><trkpt lat="44.4129667" lon="10.5817967"><ele>317.3333333333333</ele><time>2026-05-03T08:57:43.868Z</time></trkpt><trkpt lat="44.41303" lon="10.5816967"><ele>318.16666666666663</ele><time>2026-05-03T08:57:44.868Z</time></trkpt><trkpt lat="44.4131" lon="10.5815817"><ele>319.0</ele><time>2026-05-03T08:57:45.869Z</time></trkpt><trkpt lat="44.413175" lon="10.5814717"><ele>319.0</ele><time>2026-05-03T08:57:46.869Z</time></trkpt><trkpt lat="44.4132517" lon="10.5813633"><ele>319.0</ele><time>2026-05-03T08:57:47.868Z</time></trkpt><trkpt lat="44.41333" lon="10.581245"><ele>319.0</ele><time>2026-05-03T08:57:48.868Z</time></trkpt><trkpt lat="44.4134083" lon="10.5811283"><ele>319.0</ele><time>2026-05-03T08:57:49.869Z</time></trkpt><trkpt lat="44.41349" lon="10.5810083"><ele>320.6</ele><time>2026-05-03T08:57:50.869Z</time></trkpt><trkpt lat="44.41357" lon="10.5808917"><ele>322.2</ele><time>2026-05-03T08:57:51.868Z</time></trkpt><trkpt lat="44.4136567" lon="10.5807933"><ele>323.8</ele><time>2026-05-03T08:57:52.868Z</time></trkpt><trkpt lat="44.41374" lon="10.5806883"><ele>325.40000000000003</ele><time>2026-05-03T08:57:53.869Z</time></trkpt><trkpt lat="44.4138183" lon="10.580585"><ele>327.0</ele><time>2026-05-03T08:57:54.869Z</time></trkpt><trkpt lat="44.41388" lon="10.5804683"><ele>328.8</ele><time>2026-05-03T08:57:55.869Z</time></trkpt><trkpt lat="44.4139233" lon="10.5803333"><ele>330.6</ele><time>2026-05-03T08:57:56.869Z</time></trkpt><trkpt lat="44.4139517" lon="10.5801817"><ele>332.40000000000003</ele><time>2026-05-03T08:57:57.868Z</time></trkpt><trkpt lat="44.4139667" lon="10.5800267"><ele>334.20000000000005</ele><time>2026-05-03T08:57:58.868Z</time></trkpt><trkpt lat="44.4139767" lon="10.579875"><ele>336.0</ele><time>2026-05-03T08:57:59.869Z</time></trkpt><trkpt lat="44.4139833" lon="10.579715"><ele>336.0</ele><time>2026-05-03T08:58:00.869Z</time></trkpt><trkpt lat="44.413995" lon="10.5795533"><ele>336.0</ele><time>2026-05-03T08:58:01.869Z</time></trkpt><trkpt lat="44.4140067" lon="10.57938"><ele>336.0</ele><time>2026-05-03T08:58:02.868Z</time></trkpt><trkpt lat="44.4140233" lon="10.579205"><ele>336.0</ele><time>2026-05-03T08:58:03.869Z</time></trkpt><trkpt lat="44.4140517" lon="10.5790317"><ele>337.4</ele><time>2026-05-03T08:58:04.868Z</time></trkpt><trkpt lat="44.4140867" lon="10.5788783"><ele>338.8</ele><time>2026-05-03T08:58:05.869Z</time></trkpt><trkpt lat="44.414135" lon="10.5787383"><ele>340.2</ele><time>2026-05-03T08:58:06.869Z</time></trkpt><trkpt lat="44.4141717" lon="10.5785967"><ele>341.59999999999997</ele><time>2026-05-03T08:58:07.868Z</time></trkpt><trkpt lat="44.4141917" lon="10.57844"><ele>343.0</ele><time>2026-05-03T08:58:08.868Z</time></trkpt><trkpt lat="44.414185" lon="10.5782767"><ele>344.25</ele><time>2026-05-03T08:58:09.869Z</time></trkpt><trkpt lat="44.4141733" lon="10.5781033"><ele>345.5</ele><time>2026-05-03T08:58:10.868Z</time></trkpt><trkpt lat="44.414155" lon="10.577935"><ele>346.75</ele><time>2026-05-03T08:58:11.869Z</time></trkpt><trkpt lat="44.41414" lon="10.5777633"><ele>348.0</ele><time>2026-05-03T08:58:12.869Z</time></trkpt><trkpt lat="44.414125" lon="10.5775867"><ele>348.5</ele><time>2026-05-03T08:58:13.868Z</time></trkpt><trkpt lat="44.4141117" lon="10.577405"><ele>349.0</ele><time>2026-05-03T08:58:14.868Z</time></trkpt><trkpt lat="44.4141133" lon="10.57724"><ele>349.5</ele><time>2026-05-03T08:58:15.868Z</time></trkpt><trkpt lat="44.414115" lon="10.5770683"><ele>350.0</ele><time>2026-05-03T08:58:16.869Z</time></trkpt><trkpt lat="44.4141083" lon="10.5769033"><ele>350.75</ele><time>2026-05-03T08:58:17.869Z</time></trkpt><trkpt lat="44.4141083" lon="10.5767317"><ele>351.5</ele><time>2026-05-03T08:58:18.868Z</time></trkpt><trkpt lat="44.4140967" lon="10.5765683"><ele>352.25</ele><time>2026-05-03T08:58:19.869Z</time></trkpt><trkpt lat="44.41409" lon="10.5764033"><ele>353.0</ele><time>2026-05-03T08:58:20.869Z</time></trkpt><trkpt lat="44.41407" lon="10.5762417"><ele>352.79999999999995</ele><time>2026-05-03T08:58:21.868Z</time></trkpt><trkpt lat="44.4140583" lon="10.5760867"><ele>352.6</ele><time>2026-05-03T08:58:22.869Z</time></trkpt><trkpt lat="44.4140417" lon="10.5759333"><ele>352.4</ele><time>2026-05-03T08:58:23.868Z</time></trkpt><trkpt lat="44.414015" lon="10.57579"><ele>352.20000000000005</ele><time>2026-05-03T08:58:24.868Z</time></trkpt><trkpt lat="44.4139667" lon="10.57566"><ele>352.0</ele><time>2026-05-03T08:58:25.868Z</time></trkpt><trkpt lat="44.413935" lon="10.5755183"><ele>352.0</ele><time>2026-05-03T08:58:26.869Z</time></trkpt><trkpt lat="44.4139183" lon="10.5753683"><ele>352.0</ele><time>2026-05-03T08:58:27.868Z</time></trkpt><trkpt lat="44.4139433" lon="10.5752083"><ele>352.0</ele><time>2026-05-03T08:58:28.869Z</time></trkpt><trkpt lat="44.413995" lon="10.5750433"><ele>352.0</ele><time>2026-05-03T08:58:29.869Z</time></trkpt><trkpt lat="44.4140367" lon="10.57486"><ele>352.0</ele><time>2026-05-03T08:58:30.869Z</time></trkpt><trkpt lat="44.4140683" lon="10.574665"><ele>352.0</ele><time>2026-05-03T08:58:31.868Z</time></trkpt><trkpt lat="44.414105" lon="10.57449"><ele>352.0</ele><time>2026-05-03T08:58:32.869Z</time></trkpt><trkpt lat="44.41415" lon="10.5743217"><ele>352.0</ele><time>2026-05-03T08:58:33.869Z</time></trkpt><trkpt lat="44.41422" lon="10.5741583"><ele>351.75</ele><time>2026-05-03T08:58:34.869Z</time></trkpt><trkpt lat="44.4143033" lon="10.5739833"><ele>351.5</ele><time>2026-05-03T08:58:35.869Z</time></trkpt><trkpt lat="44.414385" lon="10.5738067"><ele>351.25</ele><time>2026-05-03T08:58:36.869Z</time></trkpt><trkpt lat="44.4144617" lon="10.5736417"><ele>351.0</ele><time>2026-05-03T08:58:37.868Z</time></trkpt><trkpt lat="44.4145367" lon="10.5734683"><ele>351.5</ele><time>2026-05-03T08:58:38.868Z</time></trkpt><trkpt lat="44.41461" lon="10.57329"><ele>352.0</ele><time>2026-05-03T08:58:39.868Z</time></trkpt><trkpt lat="44.4146867" lon="10.5731117"><ele>352.5</ele><time>2026-05-03T08:58:40.868Z</time></trkpt><trkpt lat="44.41476" lon="10.5729367"><ele>353.0</ele><time>2026-05-03T08:58:41.868Z</time></trkpt><trkpt lat="44.414835" lon="10.5727733"><ele>351.5</ele><time>2026-05-03T08:58:42.869Z</time></trkpt><trkpt lat="44.4149017" lon="10.5726267"><ele>350.0</ele><time>2026-05-03T08:58:43.868Z</time></trkpt><trkpt lat="44.4149667" lon="10.572485"><ele>348.5</ele><time>2026-05-03T08:58:44.868Z</time></trkpt><trkpt lat="44.4149967" lon="10.5723367"><ele>347.0</ele><time>2026-05-03T08:58:45.869Z</time></trkpt><trkpt lat="44.4149883" lon="10.5721817"><ele>348.5</ele><time>2026-05-03T08:58:46.869Z</time></trkpt><trkpt lat="44.4149583" lon="10.5720233"><ele>350.0</ele><time>2026-05-03T08:58:47.868Z</time></trkpt><trkpt lat="44.4149267" lon="10.57186"><ele>351.5</ele><time>2026-05-03T08:58:48.868Z</time></trkpt><trkpt lat="44.4149183" lon="10.5716817"><ele>353.0</ele><time>2026-05-03T08:58:49.869Z</time></trkpt><trkpt lat="44.414925" lon="10.5715"><ele>353.0</ele><time>2026-05-03T08:58:50.868Z</time></trkpt><trkpt lat="44.414945" lon="10.5713217"><ele>353.0</ele><time>2026-05-03T08:58:51.869Z</time></trkpt><trkpt lat="44.4149667" lon="10.5711567"><ele>353.0</ele><time>2026-05-03T08:58:52.868Z</time></trkpt><trkpt lat="44.41499" lon="10.5710067"><ele>353.0</ele><time>2026-05-03T08:58:53.868Z</time></trkpt><trkpt lat="44.4149933" lon="10.5708683"><ele>353.79999999999995</ele><time>2026-05-03T08:58:54.868Z</time></trkpt><trkpt lat="44.4149733" lon="10.5707483"><ele>354.6</ele><time>2026-05-03T08:58:55.868Z</time></trkpt><trkpt lat="44.4149167" lon="10.5706617"><ele>355.4</ele><time>2026-05-03T08:58:56.869Z</time></trkpt><trkpt lat="44.4148383" lon="10.5706"><ele>356.20000000000005</ele><time>2026-05-03T08:58:57.869Z</time></trkpt><trkpt lat="44.41474" lon="10.57056"><ele>357.0</ele><time>2026-05-03T08:58:58.869Z</time></trkpt><trkpt lat="44.41463" lon="10.570525"><ele>359.20000000000005</ele><time>2026-05-03T08:58:59.868Z</time></trkpt><trkpt lat="44.4145183" lon="10.5704817"><ele>361.4</ele><time>2026-05-03T08:59:00.869Z</time></trkpt><trkpt lat="44.4144067" lon="10.5704367"><ele>363.6</ele><time>2026-05-03T08:59:01.869Z</time></trkpt><trkpt lat="44.4143133" lon="10.5703783"><ele>365.79999999999995</ele><time>2026-05-03T08:59:02.869Z</time></trkpt><trkpt lat="44.4142433" lon="10.5703067"><ele>368.0</ele><time>2026-05-03T08:59:03.869Z</time></trkpt><trkpt lat="44.41421" lon="10.570205"><ele>368.79999999999995</ele><time>2026-05-03T08:59:04.869Z</time></trkpt><trkpt lat="44.41421" lon="10.5700867"><ele>369.6</ele><time>2026-05-03T08:59:05.868Z</time></trkpt><trkpt lat="44.4142317" lon="10.56995"><ele>370.4</ele><time>2026-05-03T08:59:06.869Z</time></trkpt><trkpt lat="44.4142633" lon="10.5697983"><ele>371.20000000000005</ele><time>2026-05-03T08:59:07.869Z</time></trkpt><trkpt lat="44.41429" lon="10.5696333"><ele>372.0</ele><time>2026-05-03T08:59:08.869Z</time></trkpt><trkpt lat="44.41432" lon="10.5694583"><ele>373.5</ele><time>2026-05-03T08:59:09.869Z</time></trkpt><trkpt lat="44.4143533" lon="10.5692833"><ele>375.0</ele><time>2026-05-03T08:59:10.869Z</time></trkpt><trkpt lat="44.4143883" lon="10.5691117"><ele>376.5</ele><time>2026-05-03T08:59:11.869Z</time></trkpt><trkpt lat="44.414405" lon="10.5689583"><ele>378.0</ele><time>2026-05-03T08:59:12.869Z</time></trkpt><trkpt lat="44.4144133" lon="10.5688217"><ele>378.0</ele><time>2026-05-03T08:59:13.869Z</time></trkpt><trkpt lat="44.4143833" lon="10.5686933"><ele>378.0</ele><time>2026-05-03T08:59:14.869Z</time></trkpt><trkpt lat="44.4143267" lon="10.5685933"><ele>378.0</ele><time>2026-05-03T08:59:15.868Z</time></trkpt><trkpt lat="44.4142533" lon="10.5685367"><ele>378.0</ele><time>2026-05-03T08:59:16.869Z</time></trkpt><trkpt lat="44.4141733" lon="10.56853"><ele>378.0</ele><time>2026-05-03T08:59:17.869Z</time></trkpt><trkpt lat="44.4140917" lon="10.5685767"><ele>378.0</ele><time>2026-05-03T08:59:18.869Z</time></trkpt><trkpt lat="44.41399" lon="10.5686417"><ele>378.2</ele><time>2026-05-03T08:59:19.868Z</time></trkpt><trkpt lat="44.4138883" lon="10.5686583"><ele>378.4</ele><time>2026-05-03T08:59:20.868Z</time></trkpt><trkpt lat="44.4137817" lon="10.56862"><ele>378.59999999999997</ele><time>2026-05-03T08:59:21.868Z</time></trkpt><trkpt lat="44.413685" lon="10.5685267"><ele>378.79999999999995</ele><time>2026-05-03T08:59:22.869Z</time></trkpt><trkpt lat="44.4136133" lon="10.5684033"><ele>379.0</ele><time>2026-05-03T08:59:23.868Z</time></trkpt><trkpt lat="44.413565" lon="10.5682683"><ele>382.0</ele><time>2026-05-03T08:59:24.869Z</time></trkpt><trkpt lat="44.41353" lon="10.56814"><ele>385.0</ele><time>2026-05-03T08:59:25.868Z</time></trkpt><trkpt lat="44.4134767" lon="10.5680167"><ele>388.0</ele><time>2026-05-03T08:59:26.868Z</time></trkpt><trkpt lat="44.4134117" lon="10.5679383"><ele>391.0</ele><time>2026-05-03T08:59:27.869Z</time></trkpt><trkpt lat="44.4133367" lon="10.5679067"><ele>394.0</ele><time>2026-05-03T08:59:28.868Z</time></trkpt><trkpt lat="44.4132533" lon="10.5679367"><ele>394.0</ele><time>2026-05-03T08:59:29.869Z</time></trkpt><trkpt lat="44.413175" lon="10.5680233"><ele>394.0</ele><time>2026-05-03T08:59:30.869Z</time></trkpt><trkpt lat="44.4131" lon="10.568155"><ele>394.0</ele><time>2026-05-03T08:59:31.868Z</time></trkpt><trkpt lat="44.41303" lon="10.5683133"><ele>394.0</ele><time>2026-05-03T08:59:32.869Z</time></trkpt><trkpt lat="44.4129483" lon="10.5684717"><ele>396.6</ele><time>2026-05-03T08:59:33.869Z</time></trkpt><trkpt lat="44.412885" lon="10.56863"><ele>399.2</ele><time>2026-05-03T08:59:34.869Z</time></trkpt><trkpt lat="44.4128517" lon="10.5687817"><ele>401.8</ele><time>2026-05-03T08:59:35.868Z</time></trkpt><trkpt lat="44.4128367" lon="10.5689167"><ele>404.40000000000003</ele><time>2026-05-03T08:59:36.868Z</time></trkpt><trkpt lat="44.4128117" lon="10.5690283"><ele>407.0</ele><time>2026-05-03T08:59:37.869Z</time></trkpt><trkpt lat="44.412775" lon="10.5691117"><ele>407.0</ele><time>2026-05-03T08:59:38.869Z</time></trkpt><trkpt lat="44.4127133" lon="10.569145"><ele>407.0</ele><time>2026-05-03T08:59:39.869Z</time></trkpt><trkpt lat="44.4126333" lon="10.5691367"><ele>407.0</ele><time>2026-05-03T08:59:40.869Z</time></trkpt><trkpt lat="44.4125367" lon="10.56908"><ele>407.0</ele><time>2026-05-03T08:59:41.868Z</time></trkpt><trkpt lat="44.41243" lon="10.5690033"><ele>407.0</ele><time>2026-05-03T08:59:42.868Z</time></trkpt><trkpt lat="44.4123183" lon="10.5689433"><ele>407.0</ele><time>2026-05-03T08:59:43.868Z</time></trkpt><trkpt lat="44.4122067" lon="10.568885"><ele>407.0</ele><time>2026-05-03T08:59:44.869Z</time></trkpt><trkpt lat="44.4120833" lon="10.5688567"><ele>407.0</ele><time>2026-05-03T08:59:45.868Z</time></trkpt><trkpt lat="44.4119733" lon="10.5688567"><ele>407.0</ele><time>2026-05-03T08:59:46.869Z</time></trkpt><trkpt lat="44.4118683" lon="10.568925"><ele>410.75</ele><time>2026-05-03T08:59:47.869Z</time></trkpt><trkpt lat="44.4117917" lon="10.5690517"><ele>414.5</ele><time>2026-05-03T08:59:48.869Z</time></trkpt><trkpt lat="44.411725" lon="10.5692133"><ele>418.25</ele><time>2026-05-03T08:59:49.868Z</time></trkpt><trkpt lat="44.4116617" lon="10.5693533"><ele>422.0</ele><time>2026-05-03T08:59:50.868Z</time></trkpt><trkpt lat="44.4115833" lon="10.5694517"><ele>422.0</ele><time>2026-05-03T08:59:51.869Z</time></trkpt><trkpt lat="44.4114967" lon="10.5694933"><ele>422.0</ele><time>2026-05-03T08:59:52.868Z</time></trkpt><trkpt lat="44.4114" lon="10.5694833"><ele>422.0</ele><time>2026-05-03T08:59:53.868Z</time></trkpt><trkpt lat="44.4112933" lon="10.5694383"><ele>422.0</ele><time>2026-05-03T08:59:54.869Z</time></trkpt><trkpt lat="44.41119" lon="10.569395"><ele>422.0</ele><time>2026-05-03T08:59:55.869Z</time></trkpt><trkpt lat="44.41108" lon="10.5693433"><ele>425.20000000000005</ele><time>2026-05-03T08:59:56.869Z</time></trkpt><trkpt lat="44.41098" lon="10.56927"><ele>428.4</ele><time>2026-05-03T08:59:57.868Z</time></trkpt><trkpt lat="44.410905" lon="10.5691733"><ele>431.59999999999997</ele><time>2026-05-03T08:59:58.868Z</time></trkpt><trkpt lat="44.4108767" lon="10.5690367"><ele>434.79999999999995</ele><time>2026-05-03T08:59:59.869Z</time></trkpt><trkpt lat="44.4108717" lon="10.5688833"><ele>438.0</ele><time>2026-05-03T09:00:00.869Z</time></trkpt><trkpt lat="44.410875" lon="10.5687133"><ele>438.25</ele><time>2026-05-03T09:00:01.869Z</time></trkpt><trkpt lat="44.410885" lon="10.568525"><ele>438.5</ele><time>2026-05-03T09:00:02.869Z</time></trkpt><trkpt lat="44.410885" lon="10.5683383"><ele>438.75</ele><time>2026-05-03T09:00:03.868Z</time></trkpt><trkpt lat="44.4108717" lon="10.56816"><ele>439.0</ele><time>2026-05-03T09:00:04.868Z</time></trkpt><trkpt lat="44.410835" lon="10.5679917"><ele>439.0</ele><time>2026-05-03T09:00:05.869Z</time></trkpt><trkpt lat="44.4107933" lon="10.56783"><ele>439.0</ele><time>2026-05-03T09:00:06.868Z</time></trkpt><trkpt lat="44.41072" lon="10.567685"><ele>439.0</ele><time>2026-05-03T09:00:07.869Z</time></trkpt><trkpt lat="44.4106333" lon="10.56757"><ele>439.0</ele><time>2026-05-03T09:00:08.869Z</time></trkpt><trkpt lat="44.4105533" lon="10.5674883"><ele>442.2</ele><time>2026-05-03T09:00:09.869Z</time></trkpt><trkpt lat="44.41048" lon="10.567435"><ele>445.4</ele><time>2026-05-03T09:00:10.869Z</time></trkpt><trkpt lat="44.4104233" lon="10.5673967"><ele>448.6</ele><time>2026-05-03T09:00:11.869Z</time></trkpt><trkpt lat="44.4103567" lon="10.5672933"><ele>451.8</ele><time>2026-05-03T09:00:13.869Z</time></trkpt><trkpt lat="44.410355" lon="10.5671033"><ele>455.0</ele><time>2026-05-03T09:00:15.869Z</time></trkpt><trkpt lat="44.4103767" lon="10.5669767"><ele>455.4</ele><time>2026-05-03T09:00:16.868Z</time></trkpt><trkpt lat="44.41042" lon="10.566845"><ele>455.8</ele><time>2026-05-03T09:00:17.869Z</time></trkpt><trkpt lat="44.4104633" lon="10.5667133"><ele>456.20000000000005</ele><time>2026-05-03T09:00:18.868Z</time></trkpt><trkpt lat="44.4105183" lon="10.5665817"><ele>456.6</ele><time>2026-05-03T09:00:19.869Z</time></trkpt><trkpt lat="44.4105783" lon="10.5664517"><ele>457.0</ele><time>2026-05-03T09:00:20.869Z</time></trkpt><trkpt lat="44.4106333" lon="10.56634"><ele>456.6666666666667</ele><time>2026-05-03T09:00:21.869Z</time></trkpt><trkpt lat="44.4106783" lon="10.5662483"><ele>456.33333333333337</ele><time>2026-05-03T09:00:22.868Z</time></trkpt><trkpt lat="44.410735" lon="10.5661833"><ele>456.0</ele><time>2026-05-03T09:00:23.868Z</time></trkpt><trkpt lat="44.4107817" lon="10.5661217"><ele>455.66666666666663</ele><time>2026-05-03T09:00:24.869Z</time></trkpt><trkpt lat="44.41086" lon="10.5659883"><ele>455.3333333333333</ele><time>2026-05-03T09:00:26.868Z</time></trkpt><trkpt lat="44.4108733" lon="10.565895"><ele>455.0</ele><time>2026-05-03T09:00:27.869Z</time></trkpt><trkpt lat="44.4108633" lon="10.5657883"><ele>455.0</ele><time>2026-05-03T09:00:28.869Z</time></trkpt><trkpt lat="44.4108483" lon="10.5656817"><ele>455.0</ele><time>2026-05-03T09:00:29.869Z</time></trkpt><trkpt lat="44.4108167" lon="10.5655533"><ele>455.0</ele><time>2026-05-03T09:00:30.869Z</time></trkpt><trkpt lat="44.4108117" lon="10.565405"><ele>455.0</ele><time>2026-05-03T09:00:31.868Z</time></trkpt><trkpt lat="44.4108317" lon="10.5652633"><ele>455.0</ele><time>2026-05-03T09:00:32.869Z</time></trkpt><trkpt lat="44.4108667" lon="10.56512"><ele>456.6</ele><time>2026-05-03T09:00:33.869Z</time></trkpt><trkpt lat="44.4109" lon="10.5649667"><ele>458.2</ele><time>2026-05-03T09:00:34.868Z</time></trkpt><trkpt lat="44.41094" lon="10.5648183"><ele>459.79999999999995</ele><time>2026-05-03T09:00:35.868Z</time></trkpt><trkpt lat="44.41098" lon="10.5646833"><ele>461.4</ele><time>2026-05-03T09:00:36.868Z</time></trkpt><trkpt lat="44.411015" lon="10.5645683"><ele>463.0</ele><time>2026-05-03T09:00:37.868Z</time></trkpt><trkpt lat="44.4110467" lon="10.5644533"><ele>464.00000000000006</ele><time>2026-05-03T09:00:38.868Z</time></trkpt><trkpt lat="44.411055" lon="10.56436"><ele>465.0</ele><time>2026-05-03T09:00:39.869Z</time></trkpt><trkpt lat="44.4110017" lon="10.5642183"><ele>466.0</ele><time>2026-05-03T09:00:41.869Z</time></trkpt><trkpt lat="44.4109383" lon="10.56421"><ele>467.0</ele><time>2026-05-03T09:00:42.868Z</time></trkpt><trkpt lat="44.410865" lon="10.5642567"><ele>468.00000000000006</ele><time>2026-05-03T09:00:43.868Z</time></trkpt><trkpt lat="44.4107767" lon="10.56435"><ele>469.0</ele><time>2026-05-03T09:00:44.869Z</time></trkpt><trkpt lat="44.410685" lon="10.5644533"><ele>467.79999999999995</ele><time>2026-05-03T09:00:45.869Z</time></trkpt><trkpt lat="44.41059" lon="10.56455"><ele>466.59999999999997</ele><time>2026-05-03T09:00:46.868Z</time></trkpt><trkpt lat="44.4105017" lon="10.564615"><ele>465.4</ele><time>2026-05-03T09:00:47.869Z</time></trkpt><trkpt lat="44.4104183" lon="10.5646367"><ele>464.2</ele><time>2026-05-03T09:00:48.868Z</time></trkpt><trkpt lat="44.4103317" lon="10.564595"><ele>463.0</ele><time>2026-05-03T09:00:49.868Z</time></trkpt><trkpt lat="44.4102683" lon="10.56449"><ele>466.33333333333337</ele><time>2026-05-03T09:00:50.868Z</time></trkpt><trkpt lat="44.41021" lon="10.5643617"><ele>469.6666666666667</ele><time>2026-05-03T09:00:51.868Z</time></trkpt><trkpt lat="44.4101517" lon="10.5642483"><ele>473.0</ele><time>2026-05-03T09:00:52.868Z</time></trkpt><trkpt lat="44.4100833" lon="10.56417"><ele>476.33333333333337</ele><time>2026-05-03T09:00:53.867Z</time></trkpt><trkpt lat="44.4100117" lon="10.564145"><ele>479.6666666666667</ele><time>2026-05-03T09:00:54.868Z</time></trkpt><trkpt lat="44.4099383" lon="10.56418"><ele>483.0</ele><time>2026-05-03T09:00:55.868Z</time></trkpt><trkpt lat="44.4098717" lon="10.5642583"><ele>483.0</ele><time>2026-05-03T09:00:56.867Z</time></trkpt><trkpt lat="44.40981" lon="10.5643733"><ele>482.99999999999994</ele><time>2026-05-03T09:00:57.868Z</time></trkpt><trkpt lat="44.4097433" lon="10.56449"><ele>482.99999999999994</ele><time>2026-05-03T09:00:58.867Z</time></trkpt><trkpt lat="44.40967" lon="10.564585"><ele>483.0</ele><time>2026-05-03T09:00:59.867Z</time></trkpt><trkpt lat="44.409585" lon="10.564655"><ele>483.0</ele><time>2026-05-03T09:01:00.867Z</time></trkpt><trkpt lat="44.4094917" lon="10.564685"><ele>484.4</ele><time>2026-05-03T09:01:01.867Z</time></trkpt><trkpt lat="44.4093983" lon="10.5646767"><ele>485.79999999999995</ele><time>2026-05-03T09:01:02.868Z</time></trkpt><trkpt lat="44.4092867" lon="10.564645"><ele>487.2</ele><time>2026-05-03T09:01:03.868Z</time></trkpt><trkpt lat="44.409185" lon="10.5646083"><ele>488.6</ele><time>2026-05-03T09:01:04.867Z</time></trkpt><trkpt lat="44.4090783" lon="10.5645283"><ele>490.0</ele><time>2026-05-03T09:01:05.868Z</time></trkpt><trkpt lat="44.4089633" lon="10.5644617"><ele>491.0</ele><time>2026-05-03T09:01:06.868Z</time></trkpt><trkpt lat="44.4088433" lon="10.5643967"><ele>492.0</ele><time>2026-05-03T09:01:07.867Z</time></trkpt><trkpt lat="44.4087517" lon="10.5643283"><ele>493.0</ele><time>2026-05-03T09:01:08.868Z</time></trkpt><trkpt lat="44.40867" lon="10.5642367"><ele>494.0</ele><time>2026-05-03T09:01:09.868Z</time></trkpt><trkpt lat="44.4086033" lon="10.5641233"><ele>495.0</ele><time>2026-05-03T09:01:10.867Z</time></trkpt><trkpt lat="44.408535" lon="10.5639983"><ele>496.25</ele><time>2026-05-03T09:01:11.867Z</time></trkpt><trkpt lat="44.4084617" lon="10.56386"><ele>497.5</ele><time>2026-05-03T09:01:12.868Z</time></trkpt><trkpt lat="44.4083817" lon="10.5637333"><ele>498.75</ele><time>2026-05-03T09:01:13.868Z</time></trkpt><trkpt lat="44.4082983" lon="10.5636183"><ele>500.0</ele><time>2026-05-03T09:01:14.868Z</time></trkpt><trkpt lat="44.4082167" lon="10.563515"><ele>499.99999999999994</ele><time>2026-05-03T09:01:15.867Z</time></trkpt><trkpt lat="44.408145" lon="10.563425"><ele>500.0</ele><time>2026-05-03T09:01:16.868Z</time></trkpt><trkpt lat="44.4080817" lon="10.56334"><ele>500.0</ele><time>2026-05-03T09:01:17.867Z</time></trkpt><trkpt lat="44.408025" lon="10.5632667"><ele>500.0</ele><time>2026-05-03T09:01:18.868Z</time></trkpt><trkpt lat="44.4079683" lon="10.5632117"><ele>499.99999999999994</ele><time>2026-05-03T09:01:19.868Z</time></trkpt><trkpt lat="44.4079217" lon="10.5631433"><ele>500.0</ele><time>2026-05-03T09:01:21.867Z</time></trkpt><trkpt lat="44.407905" lon="10.5630467"><ele>500.5</ele><time>2026-05-03T09:01:23.867Z</time></trkpt><trkpt lat="44.4079367" lon="10.56285"><ele>501.0</ele><time>2026-05-03T09:01:25.868Z</time></trkpt><trkpt lat="44.4079733" lon="10.5627267"><ele>501.5</ele><time>2026-05-03T09:01:26.868Z</time></trkpt><trkpt lat="44.408015" lon="10.5625817"><ele>502.0</ele><time>2026-05-03T09:01:27.867Z</time></trkpt><trkpt lat="44.4080633" lon="10.5624233"><ele>502.0</ele><time>2026-05-03T09:01:28.868Z</time></trkpt><trkpt lat="44.408115" lon="10.5622667"><ele>502.0</ele><time>2026-05-03T09:01:29.867Z</time></trkpt><trkpt lat="44.40817" lon="10.562105"><ele>502.0</ele><time>2026-05-03T09:01:30.867Z</time></trkpt><trkpt lat="44.4082" lon="10.56193"><ele>502.0</ele><time>2026-05-03T09:01:31.868Z</time></trkpt><trkpt lat="44.4082017" lon="10.56175"><ele>503.0</ele><time>2026-05-03T09:01:32.868Z</time></trkpt><trkpt lat="44.4081683" lon="10.5615783"><ele>504.0</ele><time>2026-05-03T09:01:33.868Z</time></trkpt><trkpt lat="44.40809" lon="10.561425"><ele>505.0</ele><time>2026-05-03T09:01:34.867Z</time></trkpt><trkpt lat="44.408005" lon="10.5612883"><ele>506.0</ele><time>2026-05-03T09:01:35.868Z</time></trkpt><trkpt lat="44.4079367" lon="10.56115"><ele>504.5</ele><time>2026-05-03T09:01:36.868Z</time></trkpt><trkpt lat="44.4079117" lon="10.5609733"><ele>503.0</ele><time>2026-05-03T09:01:37.868Z</time></trkpt><trkpt lat="44.4079183" lon="10.560795"><ele>501.5</ele><time>2026-05-03T09:01:38.867Z</time></trkpt><trkpt lat="44.4079633" lon="10.560625"><ele>500.0</ele><time>2026-05-03T09:01:39.867Z</time></trkpt><trkpt lat="44.40803" lon="10.5604483"><ele>500.75</ele><time>2026-05-03T09:01:40.868Z</time></trkpt><trkpt lat="44.4081117" lon="10.5602633"><ele>501.5</ele><time>2026-05-03T09:01:41.868Z</time></trkpt><trkpt lat="44.4081883" lon="10.560095"><ele>502.25</ele><time>2026-05-03T09:01:42.867Z</time></trkpt><trkpt lat="44.40825" lon="10.559945"><ele>503.0</ele><time>2026-05-03T09:01:43.867Z</time></trkpt><trkpt lat="44.4083117" lon="10.559805"><ele>503.0</ele><time>2026-05-03T09:01:44.867Z</time></trkpt><trkpt lat="44.408365" lon="10.5596617"><ele>503.0</ele><time>2026-05-03T09:01:45.868Z</time></trkpt><trkpt lat="44.40841" lon="10.5595083"><ele>503.0</ele><time>2026-05-03T09:01:46.868Z</time></trkpt><trkpt lat="44.4084033" lon="10.55934"><ele>503.0</ele><time>2026-05-03T09:01:47.868Z</time></trkpt><trkpt lat="44.4083833" lon="10.5591533"><ele>502.75</ele><time>2026-05-03T09:01:48.868Z</time></trkpt><trkpt lat="44.4083567" lon="10.5589617"><ele>502.5</ele><time>2026-05-03T09:01:49.867Z</time></trkpt><trkpt lat="44.4083433" lon="10.5587617"><ele>502.25</ele><time>2026-05-03T09:01:50.868Z</time></trkpt><trkpt lat="44.40834" lon="10.5585667"><ele>502.0</ele><time>2026-05-03T09:01:51.868Z</time></trkpt><trkpt lat="44.408345" lon="10.5583917"><ele>502.0</ele><time>2026-05-03T09:01:52.868Z</time></trkpt><trkpt lat="44.4083517" lon="10.5582267"><ele>502.0</ele><time>2026-05-03T09:01:53.867Z</time></trkpt><trkpt lat="44.40832" lon="10.5580517"><ele>502.0</ele><time>2026-05-03T09:01:54.867Z</time></trkpt><trkpt lat="44.4082633" lon="10.557895"><ele>502.0</ele><time>2026-05-03T09:01:55.868Z</time></trkpt><trkpt lat="44.408175" lon="10.55774"><ele>502.0</ele><time>2026-05-03T09:01:56.868Z</time></trkpt><trkpt lat="44.4080683" lon="10.557585"><ele>502.0</ele><time>2026-05-03T09:01:57.867Z</time></trkpt><trkpt lat="44.4079417" lon="10.5574417"><ele>502.0</ele><time>2026-05-03T09:01:58.868Z</time></trkpt><trkpt lat="44.40781" lon="10.5573067"><ele>502.0</ele><time>2026-05-03T09:01:59.867Z</time></trkpt><trkpt lat="44.4076717" lon="10.55717"><ele>502.0</ele><time>2026-05-03T09:02:00.868Z</time></trkpt><trkpt lat="44.4075433" lon="10.5570283"><ele>502.0</ele><time>2026-05-03T09:02:01.868Z</time></trkpt><trkpt lat="44.4074167" lon="10.5568883"><ele>503.0</ele><time>2026-05-03T09:02:02.868Z</time></trkpt><trkpt lat="44.4072983" lon="10.5567433"><ele>504.0</ele><time>2026-05-03T09:02:03.868Z</time></trkpt><trkpt lat="44.407185" lon="10.556605"><ele>505.0</ele><time>2026-05-03T09:02:04.868Z</time></trkpt><trkpt lat="44.4070717" lon="10.5564683"><ele>505.0</ele><time>2026-05-03T09:02:05.867Z</time></trkpt><trkpt lat="44.4069583" lon="10.5563333"><ele>505.0</ele><time>2026-05-03T09:02:06.868Z</time></trkpt><trkpt lat="44.4068417" lon="10.5562083"><ele>505.0</ele><time>2026-05-03T09:02:07.868Z</time></trkpt><trkpt lat="44.4067333" lon="10.55608"><ele>505.0</ele><time>2026-05-03T09:02:08.868Z</time></trkpt><trkpt lat="44.4066333" lon="10.5559483"><ele>502.25</ele><time>2026-05-03T09:02:09.867Z</time></trkpt><trkpt lat="44.4065533" lon="10.5558083"><ele>499.5</ele><time>2026-05-03T09:02:10.868Z</time></trkpt><trkpt lat="44.40649" lon="10.5556533"><ele>496.75</ele><time>2026-05-03T09:02:11.868Z</time></trkpt><trkpt lat="44.4064383" lon="10.5554867"><ele>494.0</ele><time>2026-05-03T09:02:12.867Z</time></trkpt><trkpt lat="44.40642" lon="10.5552967"><ele>493.25</ele><time>2026-05-03T09:02:13.868Z</time></trkpt><trkpt lat="44.4064317" lon="10.5551"><ele>492.5</ele><time>2026-05-03T09:02:14.867Z</time></trkpt><trkpt lat="44.406445" lon="10.5548967"><ele>491.75</ele><time>2026-05-03T09:02:15.868Z</time></trkpt><trkpt lat="44.4064567" lon="10.5547117"><ele>491.0</ele><time>2026-05-03T09:02:16.868Z</time></trkpt><trkpt lat="44.4064883" lon="10.554525"><ele>491.0</ele><time>2026-05-03T09:02:17.868Z</time></trkpt><trkpt lat="44.406515" lon="10.5543383"><ele>491.0</ele><time>2026-05-03T09:02:18.868Z</time></trkpt><trkpt lat="44.406545" lon="10.5541467"><ele>491.0</ele><time>2026-05-03T09:02:19.868Z</time></trkpt><trkpt lat="44.4065767" lon="10.553955"><ele>491.0</ele><time>2026-05-03T09:02:20.867Z</time></trkpt><trkpt lat="44.406595" lon="10.5537617"><ele>491.25</ele><time>2026-05-03T09:02:21.868Z</time></trkpt><trkpt lat="44.40662" lon="10.553575"><ele>491.5</ele><time>2026-05-03T09:02:22.867Z</time></trkpt><trkpt lat="44.4066383" lon="10.5534083"><ele>491.75</ele><time>2026-05-03T09:02:23.867Z</time></trkpt><trkpt lat="44.406665" lon="10.553235"><ele>492.0</ele><time>2026-05-03T09:02:24.867Z</time></trkpt><trkpt lat="44.4066933" lon="10.55305"><ele>492.25</ele><time>2026-05-03T09:02:25.868Z</time></trkpt><trkpt lat="44.4067233" lon="10.5528583"><ele>492.5</ele><time>2026-05-03T09:02:26.867Z</time></trkpt><trkpt lat="44.40675" lon="10.5526633"><ele>492.75</ele><time>2026-05-03T09:02:27.868Z</time></trkpt><trkpt lat="44.4067783" lon="10.5524733"><ele>493.0</ele><time>2026-05-03T09:02:28.868Z</time></trkpt><trkpt lat="44.4068117" lon="10.552285"><ele>493.0</ele><time>2026-05-03T09:02:29.868Z</time></trkpt><trkpt lat="44.4068717" lon="10.552105"><ele>493.0</ele><time>2026-05-03T09:02:30.868Z</time></trkpt><trkpt lat="44.406955" lon="10.551945"><ele>493.0</ele><time>2026-05-03T09:02:31.868Z</time></trkpt><trkpt lat="44.407045" lon="10.5518033"><ele>493.0</ele><time>2026-05-03T09:02:32.867Z</time></trkpt><trkpt lat="44.407135" lon="10.5516617"><ele>490.75</ele><time>2026-05-03T09:02:33.868Z</time></trkpt><trkpt lat="44.4072067" lon="10.5515083"><ele>488.5</ele><time>2026-05-03T09:02:34.868Z</time></trkpt><trkpt lat="44.4072533" lon="10.5513517"><ele>486.25</ele><time>2026-05-03T09:02:35.868Z</time></trkpt><trkpt lat="44.407315" lon="10.5511983"><ele>484.0</ele><time>2026-05-03T09:02:36.867Z</time></trkpt><trkpt lat="44.407395" lon="10.5510567"><ele>484.0</ele><time>2026-05-03T09:02:37.868Z</time></trkpt><trkpt lat="44.4074883" lon="10.5509417"><ele>484.0</ele><time>2026-05-03T09:02:38.867Z</time></trkpt><trkpt lat="44.40758" lon="10.5508217"><ele>484.0</ele><time>2026-05-03T09:02:39.868Z</time></trkpt><trkpt lat="44.40767" lon="10.5506917"><ele>484.0</ele><time>2026-05-03T09:02:40.867Z</time></trkpt><trkpt lat="44.4077517" lon="10.5505383"><ele>484.0</ele><time>2026-05-03T09:02:41.868Z</time></trkpt><trkpt lat="44.40781" lon="10.5503817"><ele>484.0</ele><time>2026-05-03T09:02:42.868Z</time></trkpt><trkpt lat="44.407845" lon="10.5502183"><ele>484.0</ele><time>2026-05-03T09:02:43.868Z</time></trkpt><trkpt lat="44.4078517" lon="10.5500417"><ele>484.0</ele><time>2026-05-03T09:02:44.868Z</time></trkpt><trkpt lat="44.40783" lon="10.5498533"><ele>483.0</ele><time>2026-05-03T09:02:45.867Z</time></trkpt><trkpt lat="44.4078183" lon="10.54966"><ele>482.0</ele><time>2026-05-03T09:02:46.867Z</time></trkpt><trkpt lat="44.407825" lon="10.5494767"><ele>481.0</ele><time>2026-05-03T09:02:47.868Z</time></trkpt><trkpt lat="44.4078617" lon="10.5492883"><ele>480.0</ele><time>2026-05-03T09:02:48.867Z</time></trkpt><trkpt lat="44.4079167" lon="10.5491083"><ele>478.5</ele><time>2026-05-03T09:02:49.868Z</time></trkpt><trkpt lat="44.40799" lon="10.5489283"><ele>477.0</ele><time>2026-05-03T09:02:50.868Z</time></trkpt><trkpt lat="44.4080683" lon="10.5487633"><ele>475.5</ele><time>2026-05-03T09:02:51.868Z</time></trkpt><trkpt lat="44.40815" lon="10.5486133"><ele>474.0</ele><time>2026-05-03T09:02:52.868Z</time></trkpt><trkpt lat="44.4082217" lon="10.5484517"><ele>472.5</ele><time>2026-05-03T09:02:53.868Z</time></trkpt><trkpt lat="44.4082883" lon="10.5482967"><ele>471.0</ele><time>2026-05-03T09:02:54.868Z</time></trkpt><trkpt lat="44.4083233" lon="10.54813"><ele>469.5</ele><time>2026-05-03T09:02:55.868Z</time></trkpt><trkpt lat="44.4083367" lon="10.5479583"><ele>468.0</ele><time>2026-05-03T09:02:56.868Z</time></trkpt><trkpt lat="44.4083117" lon="10.54779"><ele>468.0</ele><time>2026-05-03T09:02:57.868Z</time></trkpt><trkpt lat="44.40826" lon="10.5476367"><ele>468.0</ele><time>2026-05-03T09:02:58.867Z</time></trkpt><trkpt lat="44.408175" lon="10.5475133"><ele>468.0</ele><time>2026-05-03T09:02:59.868Z</time></trkpt><trkpt lat="44.4080633" lon="10.5474233"><ele>468.0</ele><time>2026-05-03T09:03:00.867Z</time></trkpt><trkpt lat="44.4079467" lon="10.5473667"><ele>468.0</ele><time>2026-05-03T09:03:01.868Z</time></trkpt><trkpt lat="44.4078017" lon="10.5473333"><ele>468.0</ele><time>2026-05-03T09:03:02.868Z</time></trkpt><trkpt lat="44.4076467" lon="10.547315"><ele>468.0</ele><time>2026-05-03T09:03:03.868Z</time></trkpt><trkpt lat="44.4074717" lon="10.5472917"><ele>468.0</ele><time>2026-05-03T09:03:04.867Z</time></trkpt><trkpt lat="44.40729" lon="10.5472533"><ele>468.0</ele><time>2026-05-03T09:03:05.868Z</time></trkpt><trkpt lat="44.40711" lon="10.547205"><ele>468.0</ele><time>2026-05-03T09:03:06.867Z</time></trkpt><trkpt lat="44.4069433" lon="10.5471683"><ele>467.5</ele><time>2026-05-03T09:03:07.867Z</time></trkpt><trkpt lat="44.4067917" lon="10.5471217"><ele>467.0</ele><time>2026-05-03T09:03:08.867Z</time></trkpt><trkpt lat="44.4066467" lon="10.5470633"><ele>466.5</ele><time>2026-05-03T09:03:09.867Z</time></trkpt><trkpt lat="44.4065233" lon="10.5469933"><ele>466.0</ele><time>2026-05-03T09:03:10.868Z</time></trkpt><trkpt lat="44.406435" lon="10.54688"><ele>466.0</ele><time>2026-05-03T09:03:11.867Z</time></trkpt><trkpt lat="44.4063817" lon="10.54672"><ele>466.0</ele><time>2026-05-03T09:03:12.867Z</time></trkpt><trkpt lat="44.40636" lon="10.5465117"><ele>466.0</ele><time>2026-05-03T09:03:13.867Z</time></trkpt><trkpt lat="44.406355" lon="10.5462917"><ele>466.0</ele><time>2026-05-03T09:03:14.868Z</time></trkpt><trkpt lat="44.4063717" lon="10.5460617"><ele>465.6666666666667</ele><time>2026-05-03T09:03:15.867Z</time></trkpt><trkpt lat="44.4063733" lon="10.5458283"><ele>465.33333333333337</ele><time>2026-05-03T09:03:16.867Z</time></trkpt><trkpt lat="44.406355" lon="10.5456"><ele>465.0</ele><time>2026-05-03T09:03:17.867Z</time></trkpt><trkpt lat="44.40631" lon="10.545385"><ele>467.66666666666663</ele><time>2026-05-03T09:03:18.868Z</time></trkpt><trkpt lat="44.406255" lon="10.5451817"><ele>470.3333333333333</ele><time>2026-05-03T09:03:19.867Z</time></trkpt><trkpt lat="44.406185" lon="10.544995"><ele>473.0</ele><time>2026-05-03T09:03:20.867Z</time></trkpt><trkpt lat="44.4060933" lon="10.54483"><ele>473.0</ele><time>2026-05-03T09:03:21.867Z</time></trkpt><trkpt lat="44.406" lon="10.54469"><ele>473.0</ele><time>2026-05-03T09:03:22.868Z</time></trkpt><trkpt lat="44.4059117" lon="10.54458"><ele>473.0</ele><time>2026-05-03T09:03:23.867Z</time></trkpt><trkpt lat="44.405845" lon="10.5444667"><ele>473.0</ele><time>2026-05-03T09:03:24.868Z</time></trkpt><trkpt lat="44.4058083" lon="10.54435"><ele>473.2</ele><time>2026-05-03T09:03:25.868Z</time></trkpt><trkpt lat="44.405815" lon="10.54421"><ele>473.4</ele><time>2026-05-03T09:03:26.868Z</time></trkpt><trkpt lat="44.40587" lon="10.544075"><ele>473.59999999999997</ele><time>2026-05-03T09:03:27.867Z</time></trkpt><trkpt lat="44.4059617" lon="10.5439883"><ele>473.79999999999995</ele><time>2026-05-03T09:03:28.867Z</time></trkpt><trkpt lat="44.40608" lon="10.5439367"><ele>474.0</ele><time>2026-05-03T09:03:29.867Z</time></trkpt><trkpt lat="44.406215" lon="10.54391"><ele>474.25</ele><time>2026-05-03T09:03:30.867Z</time></trkpt><trkpt lat="44.4063633" lon="10.54388"><ele>474.5</ele><time>2026-05-03T09:03:31.867Z</time></trkpt><trkpt lat="44.4064933" lon="10.5438383"><ele>474.75</ele><time>2026-05-03T09:03:32.867Z</time></trkpt><trkpt lat="44.4066117" lon="10.5437883"><ele>475.0</ele><time>2026-05-03T09:03:33.868Z</time></trkpt><trkpt lat="44.406725" lon="10.54371"><ele>475.0</ele><time>2026-05-03T09:03:34.868Z</time></trkpt><trkpt lat="44.4068033" lon="10.54359"><ele>475.0</ele><time>2026-05-03T09:03:35.867Z</time></trkpt><trkpt lat="44.4068733" lon="10.5434317"><ele>475.0</ele><time>2026-05-03T09:03:36.868Z</time></trkpt><trkpt lat="44.4069317" lon="10.5432583"><ele>475.0</ele><time>2026-05-03T09:03:37.868Z</time></trkpt><trkpt lat="44.4069933" lon="10.5430783"><ele>475.0</ele><time>2026-05-03T09:03:38.867Z</time></trkpt><trkpt lat="44.4070533" lon="10.5429017"><ele>475.0</ele><time>2026-05-03T09:03:39.867Z</time></trkpt><trkpt lat="44.40712" lon="10.5427217"><ele>475.0</ele><time>2026-05-03T09:03:40.868Z</time></trkpt><trkpt lat="44.4071867" lon="10.542545"><ele>475.0</ele><time>2026-05-03T09:03:41.868Z</time></trkpt><trkpt lat="44.4072583" lon="10.5423517"><ele>471.5</ele><time>2026-05-03T09:03:42.868Z</time></trkpt><trkpt lat="44.4073233" lon="10.5421667"><ele>468.0</ele><time>2026-05-03T09:03:43.867Z</time></trkpt><trkpt lat="44.4073867" lon="10.5419783"><ele>464.5</ele><time>2026-05-03T09:03:44.867Z</time></trkpt><trkpt lat="44.40743" lon="10.5417833"><ele>461.0</ele><time>2026-05-03T09:03:45.868Z</time></trkpt><trkpt lat="44.4074617" lon="10.541565"><ele>460.3333333333333</ele><time>2026-05-03T09:03:46.868Z</time></trkpt><trkpt lat="44.4074933" lon="10.5413483"><ele>459.66666666666663</ele><time>2026-05-03T09:03:47.868Z</time></trkpt><trkpt lat="44.40751" lon="10.5411417"><ele>459.0</ele><time>2026-05-03T09:03:48.867Z</time></trkpt><trkpt lat="44.4075167" lon="10.5409333"><ele>457.66666666666663</ele><time>2026-05-03T09:03:49.868Z</time></trkpt><trkpt lat="44.4075083" lon="10.5407267"><ele>456.3333333333333</ele><time>2026-05-03T09:03:50.868Z</time></trkpt><trkpt lat="44.407485" lon="10.5405083"><ele>455.0</ele><time>2026-05-03T09:03:51.868Z</time></trkpt><trkpt lat="44.40746" lon="10.5402933"><ele>452.66666666666663</ele><time>2026-05-03T09:03:52.868Z</time></trkpt><trkpt lat="44.40743" lon="10.540085"><ele>450.33333333333337</ele><time>2026-05-03T09:03:53.867Z</time></trkpt><trkpt lat="44.407385" lon="10.5398833"><ele>448.0</ele><time>2026-05-03T09:03:54.868Z</time></trkpt><trkpt lat="44.407315" lon="10.539685"><ele>447.33333333333337</ele><time>2026-05-03T09:03:55.868Z</time></trkpt><trkpt lat="44.4072367" lon="10.5394817"><ele>446.66666666666663</ele><time>2026-05-03T09:03:56.868Z</time></trkpt><trkpt lat="44.4071533" lon="10.539275"><ele>446.0</ele><time>2026-05-03T09:03:57.867Z</time></trkpt><trkpt lat="44.407065" lon="10.5390567"><ele>446.0</ele><time>2026-05-03T09:03:58.867Z</time></trkpt><trkpt lat="44.40698" lon="10.53885"><ele>446.0</ele><time>2026-05-03T09:03:59.867Z</time></trkpt><trkpt lat="44.4068967" lon="10.538645"><ele>446.0</ele><time>2026-05-03T09:04:00.868Z</time></trkpt><trkpt lat="44.4067983" lon="10.5384583"><ele>442.3333333333333</ele><time>2026-05-03T09:04:01.867Z</time></trkpt><trkpt lat="44.4066933" lon="10.5382733"><ele>438.66666666666663</ele><time>2026-05-03T09:04:02.868Z</time></trkpt><trkpt lat="44.4065917" lon="10.5381"><ele>435.0</ele><time>2026-05-03T09:04:03.868Z</time></trkpt><trkpt lat="44.40649" lon="10.537935"><ele>434.75</ele><time>2026-05-03T09:04:04.867Z</time></trkpt><trkpt lat="44.4063833" lon="10.5377783"><ele>434.5</ele><time>2026-05-03T09:04:05.868Z</time></trkpt><trkpt lat="44.40628" lon="10.5376383"><ele>434.25</ele><time>2026-05-03T09:04:06.867Z</time></trkpt><trkpt lat="44.4061517" lon="10.5375267"><ele>434.0</ele><time>2026-05-03T09:04:07.868Z</time></trkpt><trkpt lat="44.40601" lon="10.537435"><ele>434.0</ele><time>2026-05-03T09:04:08.868Z</time></trkpt><trkpt lat="44.4058483" lon="10.53737"><ele>434.0</ele><time>2026-05-03T09:04:09.868Z</time></trkpt><trkpt lat="44.4056933" lon="10.5373183"><ele>434.0</ele><time>2026-05-03T09:04:10.868Z</time></trkpt><trkpt lat="44.4055383" lon="10.537265"><ele>433.25</ele><time>2026-05-03T09:04:11.868Z</time></trkpt><trkpt lat="44.4053983" lon="10.5372"><ele>432.5</ele><time>2026-05-03T09:04:12.868Z</time></trkpt><trkpt lat="44.4052567" lon="10.53714"><ele>431.75</ele><time>2026-05-03T09:04:13.867Z</time></trkpt><trkpt lat="44.4051483" lon="10.5370717"><ele>431.0</ele><time>2026-05-03T09:04:14.868Z</time></trkpt><trkpt lat="44.40506" lon="10.5369717"><ele>431.0</ele><time>2026-05-03T09:04:15.867Z</time></trkpt><trkpt lat="44.404995" lon="10.5368517"><ele>431.0</ele><time>2026-05-03T09:04:16.867Z</time></trkpt><trkpt lat="44.40493" lon="10.5367033"><ele>431.0</ele><time>2026-05-03T09:04:17.868Z</time></trkpt><trkpt lat="44.404855" lon="10.5365717"><ele>431.0</ele><time>2026-05-03T09:04:18.867Z</time></trkpt><trkpt lat="44.4047483" lon="10.5364683"><ele>432.20000000000005</ele><time>2026-05-03T09:04:19.867Z</time></trkpt><trkpt lat="44.4046283" lon="10.53642"><ele>433.40000000000003</ele><time>2026-05-03T09:04:20.868Z</time></trkpt><trkpt lat="44.4045083" lon="10.536395"><ele>434.6</ele><time>2026-05-03T09:04:21.868Z</time></trkpt><trkpt lat="44.404405" lon="10.536365"><ele>435.8</ele><time>2026-05-03T09:04:22.867Z</time></trkpt><trkpt lat="44.404325" lon="10.5363033"><ele>437.0</ele><time>2026-05-03T09:04:23.868Z</time></trkpt><trkpt lat="44.404285" lon="10.5362183"><ele>438.0</ele><time>2026-05-03T09:04:24.868Z</time></trkpt><trkpt lat="44.404275" lon="10.5361167"><ele>439.00000000000006</ele><time>2026-05-03T09:04:25.868Z</time></trkpt><trkpt lat="44.404305" lon="10.53601"><ele>440.00000000000006</ele><time>2026-05-03T09:04:26.867Z</time></trkpt><trkpt lat="44.404385" lon="10.5359017"><ele>441.0</ele><time>2026-05-03T09:04:27.868Z</time></trkpt><trkpt lat="44.4045217" lon="10.5357967"><ele>442.0</ele><time>2026-05-03T09:04:28.868Z</time></trkpt><trkpt lat="44.4046417" lon="10.5356867"><ele>443.33333333333337</ele><time>2026-05-03T09:04:29.867Z</time></trkpt><trkpt lat="44.4047733" lon="10.5355583"><ele>444.66666666666663</ele><time>2026-05-03T09:04:30.868Z</time></trkpt><trkpt lat="44.404895" lon="10.53542"><ele>446.0</ele><time>2026-05-03T09:04:31.868Z</time></trkpt><trkpt lat="44.4050133" lon="10.5352633"><ele>446.0</ele><time>2026-05-03T09:04:32.868Z</time></trkpt><trkpt lat="44.4051217" lon="10.5351033"><ele>446.0</ele><time>2026-05-03T09:04:33.868Z</time></trkpt><trkpt lat="44.40522" lon="10.5349317"><ele>446.0</ele><time>2026-05-03T09:04:34.868Z</time></trkpt><trkpt lat="44.40531" lon="10.5347483"><ele>446.0</ele><time>2026-05-03T09:04:35.867Z</time></trkpt><trkpt lat="44.40541" lon="10.5345733"><ele>446.0</ele><time>2026-05-03T09:04:36.867Z</time></trkpt><trkpt lat="44.4055033" lon="10.5344033"><ele>446.0</ele><time>2026-05-03T09:04:37.867Z</time></trkpt><trkpt lat="44.4056017" lon="10.534245"><ele>446.25</ele><time>2026-05-03T09:04:38.868Z</time></trkpt><trkpt lat="44.40571" lon="10.5341133"><ele>446.5</ele><time>2026-05-03T09:04:39.868Z</time></trkpt><trkpt lat="44.4058267" lon="10.5340167"><ele>446.75</ele><time>2026-05-03T09:04:40.867Z</time></trkpt><trkpt lat="44.4059517" lon="10.5339217"><ele>447.0</ele><time>2026-05-03T09:04:41.868Z</time></trkpt><trkpt lat="44.406065" lon="10.5338133"><ele>447.25</ele><time>2026-05-03T09:04:42.867Z</time></trkpt><trkpt lat="44.4061683" lon="10.533695"><ele>447.5</ele><time>2026-05-03T09:04:43.868Z</time></trkpt><trkpt lat="44.4062617" lon="10.53357"><ele>447.75</ele><time>2026-05-03T09:04:44.867Z</time></trkpt><trkpt lat="44.4063383" lon="10.5334533"><ele>448.0</ele><time>2026-05-03T09:04:45.868Z</time></trkpt><trkpt lat="44.4064217" lon="10.53334"><ele>448.0</ele><time>2026-05-03T09:04:46.868Z</time></trkpt><trkpt lat="44.4065017" lon="10.5332317"><ele>448.0</ele><time>2026-05-03T09:04:47.868Z</time></trkpt><trkpt lat="44.4065967" lon="10.53312"><ele>448.0</ele><time>2026-05-03T09:04:48.867Z</time></trkpt><trkpt lat="44.4066767" lon="10.53301"><ele>448.0</ele><time>2026-05-03T09:04:49.868Z</time></trkpt><trkpt lat="44.4067583" lon="10.5329183"><ele>449.00000000000006</ele><time>2026-05-03T09:04:50.867Z</time></trkpt><trkpt lat="44.4068283" lon="10.53284"><ele>450.0</ele><time>2026-05-03T09:04:51.867Z</time></trkpt><trkpt lat="44.4069067" lon="10.532765"><ele>451.0</ele><time>2026-05-03T09:04:53.867Z</time></trkpt><trkpt lat="44.4068967" lon="10.5326183"><ele>452.0</ele><time>2026-05-03T09:05:00.867Z</time></trkpt><trkpt lat="44.4068617" lon="10.532535"><ele>453.00000000000006</ele><time>2026-05-03T09:05:01.868Z</time></trkpt><trkpt lat="44.406815" lon="10.5324417"><ele>454.0</ele><time>2026-05-03T09:05:02.867Z</time></trkpt><trkpt lat="44.4067617" lon="10.5323367"><ele>454.0</ele><time>2026-05-03T09:05:03.867Z</time></trkpt><trkpt lat="44.4066967" lon="10.5322267"><ele>454.0</ele><time>2026-05-03T09:05:04.867Z</time></trkpt><trkpt lat="44.406625" lon="10.5321217"><ele>454.0</ele><time>2026-05-03T09:05:05.867Z</time></trkpt><trkpt lat="44.4065433" lon="10.5320333"><ele>454.0</ele><time>2026-05-03T09:05:06.868Z</time></trkpt><trkpt lat="44.40644" lon="10.5319683"><ele>454.0</ele><time>2026-05-03T09:05:07.868Z</time></trkpt><trkpt lat="44.4063267" lon="10.531935"><ele>456.6</ele><time>2026-05-03T09:05:08.868Z</time></trkpt><trkpt lat="44.40622" lon="10.53193"><ele>459.2</ele><time>2026-05-03T09:05:09.868Z</time></trkpt><trkpt lat="44.4061283" lon="10.5319417"><ele>461.80000000000007</ele><time>2026-05-03T09:05:10.868Z</time></trkpt><trkpt lat="44.4060417" lon="10.5319683"><ele>464.40000000000003</ele><time>2026-05-03T09:05:11.867Z</time></trkpt><trkpt lat="44.405965" lon="10.531995"><ele>467.0</ele><time>2026-05-03T09:05:12.867Z</time></trkpt><trkpt lat="44.4058633" lon="10.5320217"><ele>467.0</ele><time>2026-05-03T09:05:14.868Z</time></trkpt><trkpt lat="44.4057833" lon="10.5320283"><ele>467.00000000000006</ele><time>2026-05-03T09:05:16.867Z</time></trkpt><trkpt lat="44.4057067" lon="10.5320633"><ele>467.00000000000006</ele><time>2026-05-03T09:05:18.868Z</time></trkpt><trkpt lat="44.4055883" lon="10.532115"><ele>467.0</ele><time>2026-05-03T09:05:20.868Z</time></trkpt><trkpt lat="44.4054617" lon="10.5321383"><ele>467.0</ele><time>2026-05-03T09:05:22.867Z</time></trkpt><trkpt lat="44.4053867" lon="10.532145"><ele>467.99999999999994</ele><time>2026-05-03T09:05:23.868Z</time></trkpt><trkpt lat="44.405305" lon="10.5321483"><ele>469.0</ele><time>2026-05-03T09:05:24.867Z</time></trkpt><trkpt lat="44.405225" lon="10.532135"><ele>470.0</ele><time>2026-05-03T09:05:25.868Z</time></trkpt><trkpt lat="44.4051583" lon="10.5320983"><ele>471.0</ele><time>2026-05-03T09:05:26.867Z</time></trkpt><trkpt lat="44.4051" lon="10.5320633"><ele>471.99999999999994</ele><time>2026-05-03T09:05:27.867Z</time></trkpt><trkpt lat="44.4050417" lon="10.532025"><ele>473.0</ele><time>2026-05-03T09:05:28.867Z</time></trkpt><trkpt lat="44.40492" lon="10.5319517"><ele>472.99999999999994</ele><time>2026-05-03T09:05:30.868Z</time></trkpt><trkpt lat="44.4048567" lon="10.5319167"><ele>473.0</ele><time>2026-05-03T09:05:31.868Z</time></trkpt><trkpt lat="44.4047967" lon="10.53188"><ele>473.0</ele><time>2026-05-03T09:05:32.867Z</time></trkpt><trkpt lat="44.4047017" lon="10.531815"><ele>473.0</ele><time>2026-05-03T09:05:34.868Z</time></trkpt><trkpt lat="44.4046333" lon="10.531795"><ele>472.99999999999994</ele><time>2026-05-03T09:05:36.868Z</time></trkpt><trkpt lat="44.4045733" lon="10.5318583"><ele>473.0</ele><time>2026-05-03T09:05:39.867Z</time></trkpt><trkpt lat="44.4045817" lon="10.5319717"><ele>472.99999999999994</ele><time>2026-05-03T09:05:42.868Z</time></trkpt><trkpt lat="44.4045817" lon="10.531865"><ele>473.0</ele><time>2026-05-03T09:06:03.868Z</time></trkpt><trkpt lat="44.4046133" lon="10.5317817"><ele>473.0</ele><time>2026-05-03T09:06:06.868Z</time></trkpt><trkpt lat="44.404685" lon="10.5317017"><ele>473.0</ele><time>2026-05-03T09:06:15.868Z</time></trkpt><trkpt lat="44.4047567" lon="10.531735"><ele>472.99999999999994</ele><time>2026-05-03T09:06:18.867Z</time></trkpt><trkpt lat="44.4048467" lon="10.5317817"><ele>473.0</ele><time>2026-05-03T09:06:28.867Z</time></trkpt><trkpt lat="44.4049183" lon="10.5318283"><ele>473.0</ele><time>2026-05-03T09:06:31.867Z</time></trkpt></trkseg></trk></gpx>